<?xml version='1.0' encoding='UTF-8'?><gpx version="1.1" creator="JPX - https://github.com/jenetics/jpx" xmlns="http://www.topografix.com/GPX/1/1"><trk><trkseg><trkpt lat="44.9779543535914" lon="7.384394007821988"><ele>338.0</ele><time>2026-04-04T08:04:28.584Z</time></trkpt><trkpt lat="44.97791589818523" lon="7.38451344075903"><ele>338.0</ele><time>2026-04-04T08:04:37.584Z</time></trkpt><trkpt lat="44.97790593041676" lon="7.384423442300201"><ele>338.0</ele><time>2026-04-04T08:15:00Z</time></trkpt><trkpt lat="44.97792937601732" lon="7.384308372472858"><ele>338.0</ele><time>2026-04-04T08:15:05Z</time></trkpt><trkpt lat="44.97796361563302" lon="7.384206304714032"><ele>338.0</ele><time>2026-04-04T08:15:12Z</time></trkpt><trkpt lat="44.97794208547149" lon="7.3841121084390915"><ele>338.0</ele><time>2026-04-04T08:15:16Z</time></trkpt><trkpt lat="44.97785216163684" lon="7.384086868326536"><ele>338.0</ele><time>2026-04-04T08:15:18Z</time></trkpt><trkpt lat="44.977741855096156" lon="7.38406706099948"><ele>338.0</ele><time>2026-04-04T08:15:20Z</time></trkpt><trkpt lat="44.97761699834972" lon="7.384049601036559"><ele>338.0</ele><time>2026-04-04T08:15:22Z</time></trkpt><trkpt lat="44.97754438241885" lon="7.384003007258544"><ele>338.0</ele><time>2026-04-04T08:15:23Z</time></trkpt><trkpt lat="44.97747424260078" lon="7.383988376662068"><ele>338.0</ele><time>2026-04-04T08:15:24Z</time></trkpt><trkpt lat="44.97741167458586" lon="7.383975325481779"><ele>338.0</ele><time>2026-04-04T08:15:25Z</time></trkpt><trkpt lat="44.97734854695224" lon="7.383962157571857"><ele>338.0</ele><time>2026-04-04T08:15:26Z</time></trkpt><trkpt lat="44.97727939623319" lon="7.383947733290269"><ele>338.0</ele><time>2026-04-04T08:15:27Z</time></trkpt><trkpt lat="44.977162412961476" lon="7.38392319508444"><ele>338.0</ele><time>2026-04-04T08:15:29Z</time></trkpt><trkpt lat="44.977072379506616" lon="7.383904067277187"><ele>338.0</ele><time>2026-04-04T08:15:31Z</time></trkpt><trkpt lat="44.977000359630644" lon="7.383889486237436"><ele>338.0</ele><time>2026-04-04T08:15:33Z</time></trkpt><trkpt lat="44.976918956719175" lon="7.383879232906482"><ele>338.0</ele><time>2026-04-04T08:15:36Z</time></trkpt><trkpt lat="44.976886374643925" lon="7.383956766648822"><ele>338.0</ele><time>2026-04-04T08:15:51Z</time></trkpt><trkpt lat="44.97688504883563" lon="7.384136429787759"><ele>338.0</ele><time>2026-04-04T08:15:53Z</time></trkpt><trkpt lat="44.97690166868222" lon="7.384229585763032"><ele>338.0</ele><time>2026-04-04T08:15:54Z</time></trkpt><trkpt lat="44.9769209353037" lon="7.384375414408873"><ele>338.0</ele><time>2026-04-04T08:15:56Z</time></trkpt><trkpt lat="44.976949430383044" lon="7.384497480237093"><ele>338.0</ele><time>2026-04-04T08:15:58Z</time></trkpt><trkpt lat="44.97697177014207" lon="7.384611626439213"><ele>338.0</ele><time>2026-04-04T08:16:00Z</time></trkpt><trkpt lat="44.97699816770632" lon="7.384715454025255"><ele>338.0</ele><time>2026-04-04T08:16:02Z</time></trkpt><trkpt lat="44.97703688866953" lon="7.384831282405938"><ele>338.0</ele><time>2026-04-04T08:16:04Z</time></trkpt><trkpt lat="44.97709337963915" lon="7.38497407380005"><ele>338.0</ele><time>2026-04-04T08:16:06Z</time></trkpt><trkpt lat="44.977156066751824" lon="7.385130120856532"><ele>337.6666666666667</ele><time>2026-04-04T08:16:08Z</time></trkpt><trkpt lat="44.9771900225434" lon="7.385216231664544"><ele>337.33333333333337</ele><time>2026-04-04T08:16:09Z</time></trkpt><trkpt lat="44.97723526634809" lon="7.385311285608899"><ele>337.0</ele><time>2026-04-04T08:16:10Z</time></trkpt><trkpt lat="44.97725988607574" lon="7.385437954274669"><ele>336.6666666666667</ele><time>2026-04-04T08:16:11Z</time></trkpt><trkpt lat="44.97731386235136" lon="7.38555095962847"><ele>336.3333333333333</ele><time>2026-04-04T08:16:12Z</time></trkpt><trkpt lat="44.977350932652996" lon="7.385681181110742"><ele>336.0</ele><time>2026-04-04T08:16:13Z</time></trkpt><trkpt lat="44.977394681686214" lon="7.385824182426847"><ele>336.0</ele><time>2026-04-04T08:16:14Z</time></trkpt><trkpt lat="44.977438338655496" lon="7.385976389294939"><ele>336.0</ele><time>2026-04-04T08:16:15Z</time></trkpt><trkpt lat="44.977479469192204" lon="7.386117709648451"><ele>336.0</ele><time>2026-04-04T08:16:16Z</time></trkpt><trkpt lat="44.97751929242484" lon="7.386257109780551"><ele>336.0</ele><time>2026-04-04T08:16:17Z</time></trkpt><trkpt lat="44.97755775250642" lon="7.386393929143488"><ele>336.0</ele><time>2026-04-04T08:16:18Z</time></trkpt><trkpt lat="44.97758217178201" lon="7.386547759249636"><ele>335.75</ele><time>2026-04-04T08:16:19Z</time></trkpt><trkpt lat="44.97762450332482" lon="7.386707580414841"><ele>335.5</ele><time>2026-04-04T08:16:20Z</time></trkpt><trkpt lat="44.977683652082966" lon="7.386868344531801"><ele>335.25</ele><time>2026-04-04T08:16:21Z</time></trkpt><trkpt lat="44.977714366901196" lon="7.387052042182219"><ele>335.0</ele><time>2026-04-04T08:16:22Z</time></trkpt><trkpt lat="44.977759967140244" lon="7.387231664725522"><ele>333.75</ele><time>2026-04-04T08:16:23Z</time></trkpt><trkpt lat="44.977820572735205" lon="7.38741171233968"><ele>332.5</ele><time>2026-04-04T08:16:24Z</time></trkpt><trkpt lat="44.977876682684034" lon="7.38759930716083"><ele>331.25</ele><time>2026-04-04T08:16:25Z</time></trkpt><trkpt lat="44.9779267007559" lon="7.387792559392565"><ele>330.0</ele><time>2026-04-04T08:16:26.001Z</time></trkpt><trkpt lat="44.97797721744193" lon="7.387989334937226"><ele>328.6666666666667</ele><time>2026-04-04T08:16:27.001Z</time></trkpt><trkpt lat="44.97803444357339" lon="7.38817688767789"><ele>327.33333333333337</ele><time>2026-04-04T08:16:28.001Z</time></trkpt><trkpt lat="44.97811208233145" lon="7.388363434050068"><ele>326.0</ele><time>2026-04-04T08:16:29.001Z</time></trkpt><trkpt lat="44.97821125801428" lon="7.388545664950143"><ele>326.0</ele><time>2026-04-04T08:16:30.001Z</time></trkpt><trkpt lat="44.97832738266495" lon="7.388723152419767"><ele>326.0</ele><time>2026-04-04T08:16:31.001Z</time></trkpt><trkpt lat="44.97845021706965" lon="7.388888137815059"><ele>326.0</ele><time>2026-04-04T08:16:32.001Z</time></trkpt><trkpt lat="44.97856264256973" lon="7.389067558310808"><ele>326.0</ele><time>2026-04-04T08:16:33.001Z</time></trkpt><trkpt lat="44.97867009155865" lon="7.389264539968356"><ele>326.0</ele><time>2026-04-04T08:16:34.001Z</time></trkpt><trkpt lat="44.97878741723073" lon="7.389484583412564"><ele>326.0</ele><time>2026-04-04T08:16:35.001Z</time></trkpt><trkpt lat="44.97890318715437" lon="7.389706059280048"><ele>326.0</ele><time>2026-04-04T08:16:36.001Z</time></trkpt><trkpt lat="44.97901714430119" lon="7.389937155393962"><ele>326.0</ele><time>2026-04-04T08:16:37Z</time></trkpt><trkpt lat="44.97912779803028" lon="7.390166861519238"><ele>326.0</ele><time>2026-04-04T08:16:38Z</time></trkpt><trkpt lat="44.9792371578334" lon="7.390397399945479"><ele>328.0</ele><time>2026-04-04T08:16:39Z</time></trkpt><trkpt lat="44.97934848901053" lon="7.390623971640303"><ele>330.0</ele><time>2026-04-04T08:16:40Z</time></trkpt><trkpt lat="44.97946031262045" lon="7.390841967441894"><ele>332.0</ele><time>2026-04-04T08:16:41Z</time></trkpt><trkpt lat="44.97957608393395" lon="7.3910506778389715"><ele>332.0</ele><time>2026-04-04T08:16:42Z</time></trkpt><trkpt lat="44.979694147108724" lon="7.391264738799536"><ele>332.0</ele><time>2026-04-04T08:16:43Z</time></trkpt><trkpt lat="44.97980822275643" lon="7.391474724374069"><ele>332.0</ele><time>2026-04-04T08:16:44Z</time></trkpt><trkpt lat="44.97992086751526" lon="7.391681315645781"><ele>333.33333333333337</ele><time>2026-04-04T08:16:45Z</time></trkpt><trkpt lat="44.980036871284135" lon="7.391886433570693"><ele>334.6666666666667</ele><time>2026-04-04T08:16:46Z</time></trkpt><trkpt lat="44.980154263670684" lon="7.392094034459865"><ele>336.0</ele><time>2026-04-04T08:16:47Z</time></trkpt><trkpt lat="44.98026670703001" lon="7.392302386384216"><ele>336.3333333333333</ele><time>2026-04-04T08:16:48Z</time></trkpt><trkpt lat="44.98037465281645" lon="7.392507755354781"><ele>336.66666666666663</ele><time>2026-04-04T08:16:49Z</time></trkpt><trkpt lat="44.980477085753094" lon="7.392709815210056"><ele>337.0</ele><time>2026-04-04T08:16:50Z</time></trkpt><trkpt lat="44.98057201227636" lon="7.392906123853779"><ele>336.66666666666663</ele><time>2026-04-04T08:16:51Z</time></trkpt><trkpt lat="44.980663380924746" lon="7.393099926998622"><ele>336.3333333333333</ele><time>2026-04-04T08:16:52Z</time></trkpt><trkpt lat="44.98075360477723" lon="7.39328668298753"><ele>336.0</ele><time>2026-04-04T08:16:53Z</time></trkpt><trkpt lat="44.98083872914157" lon="7.393454554724565"><ele>336.0</ele><time>2026-04-04T08:16:54Z</time></trkpt><trkpt lat="44.98090819063669" lon="7.393600516254729"><ele>336.0</ele><time>2026-04-04T08:16:55Z</time></trkpt><trkpt lat="44.98096809036567" lon="7.393727086585443"><ele>336.0</ele><time>2026-04-04T08:16:56Z</time></trkpt><trkpt lat="44.981009867901456" lon="7.393834827305197"><ele>336.0</ele><time>2026-04-04T08:16:57Z</time></trkpt><trkpt lat="44.98103885856818" lon="7.3939472527868935"><ele>336.0</ele><time>2026-04-04T08:16:58Z</time></trkpt><trkpt lat="44.98107985458142" lon="7.394057766821898"><ele>336.0</ele><time>2026-04-04T08:16:59Z</time></trkpt><trkpt lat="44.98114807315098" lon="7.394142515117186"><ele>336.0</ele><time>2026-04-04T08:17:00Z</time></trkpt><trkpt lat="44.98123238919769" lon="7.394210715498282"><ele>336.0</ele><time>2026-04-04T08:17:01Z</time></trkpt><trkpt lat="44.98130523025484" lon="7.394282771271506"><ele>336.0</ele><time>2026-04-04T08:17:02Z</time></trkpt><trkpt lat="44.9813720862644" lon="7.394373342041301"><ele>336.0</ele><time>2026-04-04T08:17:03Z</time></trkpt><trkpt lat="44.981444856397495" lon="7.394458965455119"><ele>336.0</ele><time>2026-04-04T08:17:04Z</time></trkpt><trkpt lat="44.98152627376549" lon="7.394525492014524"><ele>336.0</ele><time>2026-04-04T08:17:05Z</time></trkpt><trkpt lat="44.981610013985616" lon="7.394576926857462"><ele>336.0</ele><time>2026-04-04T08:17:06Z</time></trkpt><trkpt lat="44.98169686729525" lon="7.3946237412080125"><ele>336.0</ele><time>2026-04-04T08:17:07Z</time></trkpt><trkpt lat="44.98180683490852" lon="7.394661046607112"><ele>336.0</ele><time>2026-04-04T08:17:08Z</time></trkpt><trkpt lat="44.98194145073686" lon="7.394688978860974"><ele>333.75</ele><time>2026-04-04T08:17:09Z</time></trkpt><trkpt lat="44.98207150306719" lon="7.394719995328191"><ele>331.5</ele><time>2026-04-04T08:17:10Z</time></trkpt><trkpt lat="44.98219412415781" lon="7.394766700954697"><ele>329.25</ele><time>2026-04-04T08:17:11Z</time></trkpt><trkpt lat="44.98231526277095" lon="7.394813658023022"><ele>327.0</ele><time>2026-04-04T08:17:12Z</time></trkpt><trkpt lat="44.98243524317539" lon="7.3948278303287"><ele>325.8</ele><time>2026-04-04T08:17:13Z</time></trkpt><trkpt lat="44.982550153570344" lon="7.3948161036618645"><ele>324.6</ele><time>2026-04-04T08:17:14Z</time></trkpt><trkpt lat="44.98265230466056" lon="7.394796749296429"><ele>323.40000000000003</ele><time>2026-04-04T08:17:15Z</time></trkpt><trkpt lat="44.98275470633903" lon="7.394761250208212"><ele>322.20000000000005</ele><time>2026-04-04T08:17:16Z</time></trkpt><trkpt lat="44.98284919836395" lon="7.394706313246288"><ele>321.0</ele><time>2026-04-04T08:17:17Z</time></trkpt><trkpt lat="44.98293694177231" lon="7.394616502281153"><ele>321.0</ele><time>2026-04-04T08:17:18Z</time></trkpt><trkpt lat="44.9830177878836" lon="7.394488742440784"><ele>321.0</ele><time>2026-04-04T08:17:19Z</time></trkpt><trkpt lat="44.98308548171224" lon="7.394337571106539"><ele>321.0</ele><time>2026-04-04T08:17:20Z</time></trkpt><trkpt lat="44.983151052967585" lon="7.394160732245907"><ele>321.0</ele><time>2026-04-04T08:17:21Z</time></trkpt><trkpt lat="44.98321041108867" lon="7.393955787278875"><ele>322.0</ele><time>2026-04-04T08:17:22Z</time></trkpt><trkpt lat="44.98326845100574" lon="7.393753492504569"><ele>323.0</ele><time>2026-04-04T08:17:23Z</time></trkpt><trkpt lat="44.98331805562256" lon="7.393586055176813"><ele>324.0</ele><time>2026-04-04T08:17:24Z</time></trkpt><trkpt lat="44.983338793331065" lon="7.393406757037706"><ele>325.0</ele><time>2026-04-04T08:17:25Z</time></trkpt><trkpt lat="44.98333703015747" lon="7.393255088217074"><ele>325.0</ele><time>2026-04-04T08:17:26Z</time></trkpt><trkpt lat="44.98332797748516" lon="7.393124588009271"><ele>325.0</ele><time>2026-04-04T08:17:27Z</time></trkpt><trkpt lat="44.983309495469356" lon="7.393015047187778"><ele>325.0</ele><time>2026-04-04T08:17:28Z</time></trkpt><trkpt lat="44.9833076353282" lon="7.3929113512368465"><ele>325.0</ele><time>2026-04-04T08:17:29Z</time></trkpt><trkpt lat="44.983343317364756" lon="7.392806167901481"><ele>325.0</ele><time>2026-04-04T08:17:30Z</time></trkpt><trkpt lat="44.98339844535766" lon="7.392732501795873"><ele>325.0</ele><time>2026-04-04T08:17:31Z</time></trkpt><trkpt lat="44.9834547744208" lon="7.392684811869664"><ele>326.0</ele><time>2026-04-04T08:17:32Z</time></trkpt><trkpt lat="44.98351902042401" lon="7.392700173346385"><ele>327.0</ele><time>2026-04-04T08:17:33Z</time></trkpt><trkpt lat="44.98356303232938" lon="7.392807134697034"><ele>328.0</ele><time>2026-04-04T08:17:34Z</time></trkpt><trkpt lat="44.983628210251545" lon="7.3928832311079065"><ele>329.0</ele><time>2026-04-04T08:17:35Z</time></trkpt><trkpt lat="44.98370121772375" lon="7.39296857846786"><ele>330.0</ele><time>2026-04-04T08:17:36Z</time></trkpt><trkpt lat="44.983785950404624" lon="7.393063185320755"><ele>331.0</ele><time>2026-04-04T08:17:37Z</time></trkpt><trkpt lat="44.98386441503685" lon="7.393148180587241"><ele>331.0</ele><time>2026-04-04T08:17:38Z</time></trkpt><trkpt lat="44.983960145874036" lon="7.3932229398542075"><ele>331.0</ele><time>2026-04-04T08:17:39Z</time></trkpt><trkpt lat="44.9840468377148" lon="7.393325956129085"><ele>331.0</ele><time>2026-04-04T08:17:40Z</time></trkpt><trkpt lat="44.98413170045625" lon="7.3934145106977285"><ele>331.0</ele><time>2026-04-04T08:17:41Z</time></trkpt><trkpt lat="44.984217537266325" lon="7.393491879283006"><ele>331.0</ele><time>2026-04-04T08:17:42Z</time></trkpt><trkpt lat="44.98430809690358" lon="7.3935571161121025"><ele>331.0</ele><time>2026-04-04T08:17:43Z</time></trkpt><trkpt lat="44.98440040021172" lon="7.39362789891"><ele>331.0</ele><time>2026-04-04T08:17:44Z</time></trkpt><trkpt lat="44.984469037376314" lon="7.393731031608209"><ele>331.0</ele><time>2026-04-04T08:17:45Z</time></trkpt><trkpt lat="44.98454415841192" lon="7.393819183593831"><ele>331.0</ele><time>2026-04-04T08:17:46Z</time></trkpt><trkpt lat="44.98461197332824" lon="7.393910060179641"><ele>331.0</ele><time>2026-04-04T08:17:47Z</time></trkpt><trkpt lat="44.984677401556475" lon="7.394009033203778"><ele>331.0</ele><time>2026-04-04T08:17:48Z</time></trkpt><trkpt lat="44.98475283775389" lon="7.394106741756243"><ele>331.0</ele><time>2026-04-04T08:17:49Z</time></trkpt><trkpt lat="44.984836894935036" lon="7.39417814476789"><ele>331.0</ele><time>2026-04-04T08:17:50Z</time></trkpt><trkpt lat="44.98490778365717" lon="7.3942568842207"><ele>331.0</ele><time>2026-04-04T08:17:51Z</time></trkpt><trkpt lat="44.98498664682547" lon="7.394333462549929"><ele>331.0</ele><time>2026-04-04T08:17:52Z</time></trkpt><trkpt lat="44.98507178607912" lon="7.394396914400998"><ele>331.66666666666663</ele><time>2026-04-04T08:17:53Z</time></trkpt><trkpt lat="44.98515415831304" lon="7.39445040181077"><ele>332.3333333333333</ele><time>2026-04-04T08:17:54Z</time></trkpt><trkpt lat="44.98522741332736" lon="7.394500906900486"><ele>333.0</ele><time>2026-04-04T08:17:55Z</time></trkpt><trkpt lat="44.98529230201798" lon="7.394556236104499"><ele>333.6666666666667</ele><time>2026-04-04T08:17:56Z</time></trkpt><trkpt lat="44.985350912233486" lon="7.394589700357959"><ele>334.33333333333337</ele><time>2026-04-04T08:17:57Z</time></trkpt><trkpt lat="44.98545056861536" lon="7.3946153782894335"><ele>335.0</ele><time>2026-04-04T08:17:59Z</time></trkpt><trkpt lat="44.98553525086292" lon="7.394579436487559"><ele>335.0</ele><time>2026-04-04T08:18:01Z</time></trkpt><trkpt lat="44.985609360159344" lon="7.394569452670797"><ele>335.0</ele><time>2026-04-04T08:18:03Z</time></trkpt><trkpt lat="44.98567852639228" lon="7.3945699912795675"><ele>335.0</ele><time>2026-04-04T08:18:06Z</time></trkpt><trkpt lat="44.98575711052194" lon="7.3945551098252125"><ele>335.0</ele><time>2026-04-04T08:18:11Z</time></trkpt><trkpt lat="44.98583981482642" lon="7.394420165864217"><ele>335.0</ele><time>2026-04-04T08:18:13Z</time></trkpt><trkpt lat="44.98594139034066" lon="7.394319391861961"><ele>335.0</ele><time>2026-04-04T08:18:15Z</time></trkpt><trkpt lat="44.985974545678715" lon="7.394224936307696"><ele>335.0</ele><time>2026-04-04T08:18:16Z</time></trkpt><trkpt lat="44.98598724410915" lon="7.394106032140378"><ele>335.0</ele><time>2026-04-04T08:18:17Z</time></trkpt><trkpt lat="44.98599675555015" lon="7.393978034182494"><ele>335.0</ele><time>2026-04-04T08:18:18Z</time></trkpt><trkpt lat="44.98600839926042" lon="7.393836634830368"><ele>335.0</ele><time>2026-04-04T08:18:19Z</time></trkpt><trkpt lat="44.986027507594976" lon="7.393692449503264"><ele>337.4</ele><time>2026-04-04T08:18:20Z</time></trkpt><trkpt lat="44.98604042523797" lon="7.393539523883853"><ele>339.8</ele><time>2026-04-04T08:18:21Z</time></trkpt><trkpt lat="44.986056313280294" lon="7.3933863002444955"><ele>342.20000000000005</ele><time>2026-04-04T08:18:22Z</time></trkpt><trkpt lat="44.98608544235074" lon="7.393243259020165"><ele>344.6</ele><time>2026-04-04T08:18:23Z</time></trkpt><trkpt lat="44.98611562594516" lon="7.39309693065052"><ele>347.0</ele><time>2026-04-04T08:18:24Z</time></trkpt><trkpt lat="44.98613654083721" lon="7.392955355875603"><ele>348.40000000000003</ele><time>2026-04-04T08:18:25Z</time></trkpt><trkpt lat="44.98614680126004" lon="7.392804263515717"><ele>349.8</ele><time>2026-04-04T08:18:26Z</time></trkpt><trkpt lat="44.98616412381322" lon="7.392678565255438"><ele>351.2</ele><time>2026-04-04T08:18:27Z</time></trkpt><trkpt lat="44.98619279348814" lon="7.392561695724814"><ele>352.6</ele><time>2026-04-04T08:18:28Z</time></trkpt><trkpt lat="44.986255186645884" lon="7.392458719042132"><ele>354.0</ele><time>2026-04-04T08:18:29Z</time></trkpt><trkpt lat="44.98629628559947" lon="7.392328320069652"><ele>354.0</ele><time>2026-04-04T08:18:30Z</time></trkpt><trkpt lat="44.98636683489399" lon="7.392216411129938"><ele>354.0</ele><time>2026-04-04T08:18:31Z</time></trkpt><trkpt lat="44.986432350041426" lon="7.392094400485496"><ele>354.0</ele><time>2026-04-04T08:18:32Z</time></trkpt><trkpt lat="44.986502728009725" lon="7.3919911915089465"><ele>354.0</ele><time>2026-04-04T08:18:33Z</time></trkpt><trkpt lat="44.986589571393885" lon="7.3918963602672285"><ele>354.0</ele><time>2026-04-04T08:18:34Z</time></trkpt><trkpt lat="44.98669374229213" lon="7.391802905745161"><ele>354.5</ele><time>2026-04-04T08:18:35Z</time></trkpt><trkpt lat="44.98681847137666" lon="7.391697121799813"><ele>355.0</ele><time>2026-04-04T08:18:36Z</time></trkpt><trkpt lat="44.98694552039528" lon="7.3916009914555465"><ele>355.5</ele><time>2026-04-04T08:18:37Z</time></trkpt><trkpt lat="44.98706121584066" lon="7.391518018855018"><ele>356.0</ele><time>2026-04-04T08:18:38Z</time></trkpt><trkpt lat="44.98716003748603" lon="7.391430049199751"><ele>356.0</ele><time>2026-04-04T08:18:39Z</time></trkpt><trkpt lat="44.98723886524214" lon="7.391363934413637"><ele>356.0</ele><time>2026-04-04T08:18:40Z</time></trkpt><trkpt lat="44.98732310336563" lon="7.391335919320055"><ele>356.0</ele><time>2026-04-04T08:18:41Z</time></trkpt><trkpt lat="44.98741424362592" lon="7.391359453468956"><ele>356.0</ele><time>2026-04-04T08:18:42Z</time></trkpt><trkpt lat="44.987533620783736" lon="7.391361999870692"><ele>356.0</ele><time>2026-04-04T08:18:43Z</time></trkpt><trkpt lat="44.98762735437575" lon="7.3913433949472145"><ele>356.4</ele><time>2026-04-04T08:18:44Z</time></trkpt><trkpt lat="44.98773282426089" lon="7.3913588670036035"><ele>356.8</ele><time>2026-04-04T08:18:45Z</time></trkpt><trkpt lat="44.98782747992963" lon="7.391333305924034"><ele>357.2</ele><time>2026-04-04T08:18:46Z</time></trkpt><trkpt lat="44.98792959937328" lon="7.391286571198567"><ele>357.59999999999997</ele><time>2026-04-04T08:18:47Z</time></trkpt><trkpt lat="44.9880263075879" lon="7.391235459897382"><ele>358.0</ele><time>2026-04-04T08:18:48Z</time></trkpt><trkpt lat="44.98812058836206" lon="7.391182937768728"><ele>359.79999999999995</ele><time>2026-04-04T08:18:49Z</time></trkpt><trkpt lat="44.98821827216897" lon="7.391155871859867"><ele>361.6</ele><time>2026-04-04T08:18:50Z</time></trkpt><trkpt lat="44.98831449212014" lon="7.391139309396187"><ele>363.4</ele><time>2026-04-04T08:18:51Z</time></trkpt><trkpt lat="44.98839896441387" lon="7.391129090547618"><ele>365.20000000000005</ele><time>2026-04-04T08:18:52Z</time></trkpt><trkpt lat="44.98847543066017" lon="7.3910976690639085"><ele>367.0</ele><time>2026-04-04T08:18:53Z</time></trkpt><trkpt lat="44.98852847608652" lon="7.390985044379832"><ele>367.0</ele><time>2026-04-04T08:18:54Z</time></trkpt><trkpt lat="44.98857491581486" lon="7.390876949394188"><ele>367.0</ele><time>2026-04-04T08:18:55Z</time></trkpt><trkpt lat="44.98863049530962" lon="7.390745634763465"><ele>367.0</ele><time>2026-04-04T08:18:56Z</time></trkpt><trkpt lat="44.98868908821259" lon="7.390618813251603"><ele>367.0</ele><time>2026-04-04T08:18:57Z</time></trkpt><trkpt lat="44.98874851659917" lon="7.390505909828079"><ele>367.0</ele><time>2026-04-04T08:18:58Z</time></trkpt><trkpt lat="44.98883788628778" lon="7.390464514836161"><ele>369.75</ele><time>2026-04-04T08:18:59Z</time></trkpt><trkpt lat="44.988937479279535" lon="7.39044433884206"><ele>372.5</ele><time>2026-04-04T08:19:00Z</time></trkpt><trkpt lat="44.98905143854814" lon="7.390411494416046"><ele>375.25</ele><time>2026-04-04T08:19:01Z</time></trkpt><trkpt lat="44.98917406057961" lon="7.3903722457724745"><ele>378.0</ele><time>2026-04-04T08:19:02Z</time></trkpt><trkpt lat="44.98929261449895" lon="7.3903256696207364"><ele>380.0</ele><time>2026-04-04T08:19:03Z</time></trkpt><trkpt lat="44.98941208966807" lon="7.390255371901973"><ele>382.0</ele><time>2026-04-04T08:19:04Z</time></trkpt><trkpt lat="44.98952915094848" lon="7.390175815708577"><ele>384.0</ele><time>2026-04-04T08:19:05Z</time></trkpt><trkpt lat="44.98964311688794" lon="7.390090338888714"><ele>386.0</ele><time>2026-04-04T08:19:06Z</time></trkpt><trkpt lat="44.98975552781642" lon="7.390004352666429"><ele>386.0</ele><time>2026-04-04T08:19:07Z</time></trkpt><trkpt lat="44.98986293406461" lon="7.389926584223751"><ele>386.0</ele><time>2026-04-04T08:19:08Z</time></trkpt><trkpt lat="44.98996791932082" lon="7.38983771878593"><ele>386.0</ele><time>2026-04-04T08:19:09Z</time></trkpt><trkpt lat="44.990082415169724" lon="7.389769012525413"><ele>386.0</ele><time>2026-04-04T08:19:10Z</time></trkpt><trkpt lat="44.99019290017037" lon="7.389765565326272"><ele>386.8</ele><time>2026-04-04T08:19:11Z</time></trkpt><trkpt lat="44.990300528959544" lon="7.389759517847475"><ele>387.6</ele><time>2026-04-04T08:19:12Z</time></trkpt><trkpt lat="44.99040859743265" lon="7.38977143244039"><ele>388.4</ele><time>2026-04-04T08:19:13Z</time></trkpt><trkpt lat="44.990508770463784" lon="7.389818061149833"><ele>389.2</ele><time>2026-04-04T08:19:14Z</time></trkpt><trkpt lat="44.99060179705056" lon="7.389877088123902"><ele>390.0</ele><time>2026-04-04T08:19:15Z</time></trkpt><trkpt lat="44.990680032553094" lon="7.389910112013407"><ele>390.0</ele><time>2026-04-04T08:19:16Z</time></trkpt><trkpt lat="44.99078019298417" lon="7.3898472173091765"><ele>390.0</ele><time>2026-04-04T08:19:17Z</time></trkpt><trkpt lat="44.99087370097192" lon="7.389799515132708"><ele>390.0</ele><time>2026-04-04T08:19:18Z</time></trkpt><trkpt lat="44.99097850346538" lon="7.3897544511617"><ele>390.0</ele><time>2026-04-04T08:19:19Z</time></trkpt><trkpt lat="44.99107222591972" lon="7.3897188602742325"><ele>390.0</ele><time>2026-04-04T08:19:20Z</time></trkpt><trkpt lat="44.991146312675546" lon="7.389651013410669"><ele>391.8</ele><time>2026-04-04T08:19:21Z</time></trkpt><trkpt lat="44.991189330839845" lon="7.389518327108147"><ele>393.6</ele><time>2026-04-04T08:19:22Z</time></trkpt><trkpt lat="44.991249257418836" lon="7.389389237270225"><ele>395.4</ele><time>2026-04-04T08:19:23Z</time></trkpt><trkpt lat="44.9913118266692" lon="7.389258405513393"><ele>397.2</ele><time>2026-04-04T08:19:24Z</time></trkpt><trkpt lat="44.99137118357738" lon="7.38913143474862"><ele>399.0</ele><time>2026-04-04T08:19:25Z</time></trkpt><trkpt lat="44.99142626100987" lon="7.389025043220344"><ele>399.0</ele><time>2026-04-04T08:19:26Z</time></trkpt><trkpt lat="44.99144543538252" lon="7.388919555254777"><ele>399.0</ele><time>2026-04-04T08:19:27Z</time></trkpt><trkpt lat="44.99146621547113" lon="7.388802648889224"><ele>399.0</ele><time>2026-04-04T08:19:29Z</time></trkpt><trkpt lat="44.99160890663314" lon="7.388752501680817"><ele>399.0</ele><time>2026-04-04T08:19:38Z</time></trkpt><trkpt lat="44.99169548739714" lon="7.388782583571986"><ele>399.0</ele><time>2026-04-04T08:19:40Z</time></trkpt><trkpt lat="44.991805586323586" lon="7.388821289720841"><ele>398.1666666666667</ele><time>2026-04-04T08:19:42Z</time></trkpt><trkpt lat="44.99185147229491" lon="7.388896076173178"><ele>397.33333333333337</ele><time>2026-04-04T08:19:43Z</time></trkpt><trkpt lat="44.9919370376705" lon="7.388950734277545"><ele>396.5</ele><time>2026-04-04T08:19:45Z</time></trkpt><trkpt lat="44.992000157953775" lon="7.388916112017846"><ele>395.6666666666667</ele><time>2026-04-04T08:19:46Z</time></trkpt><trkpt lat="44.99209582065187" lon="7.388793114901025"><ele>394.83333333333337</ele><time>2026-04-04T08:19:48Z</time></trkpt><trkpt lat="44.992150626975295" lon="7.388707996419521"><ele>394.0</ele><time>2026-04-04T08:19:49Z</time></trkpt><trkpt lat="44.99220510852298" lon="7.388642826045566"><ele>397.50000000000006</ele><time>2026-04-04T08:19:50Z</time></trkpt><trkpt lat="44.992264465391756" lon="7.388574001975874"><ele>401.0</ele><time>2026-04-04T08:19:51Z</time></trkpt><trkpt lat="44.99233187273513" lon="7.388513999907499"><ele>404.5</ele><time>2026-04-04T08:19:52Z</time></trkpt><trkpt lat="44.99238731832182" lon="7.388436136636229"><ele>408.0</ele><time>2026-04-04T08:19:53Z</time></trkpt><trkpt lat="44.992465595665" lon="7.38835815136452"><ele>411.50000000000006</ele><time>2026-04-04T08:19:54Z</time></trkpt><trkpt lat="44.99255378056541" lon="7.388295495539813"><ele>415.0</ele><time>2026-04-04T08:19:55Z</time></trkpt><trkpt lat="44.99268179797131" lon="7.388239751867492"><ele>415.6</ele><time>2026-04-04T08:19:56Z</time></trkpt><trkpt lat="44.99280720485355" lon="7.388208847902612"><ele>416.2</ele><time>2026-04-04T08:19:57Z</time></trkpt><trkpt lat="44.99290435079196" lon="7.388194110076362"><ele>416.79999999999995</ele><time>2026-04-04T08:19:58Z</time></trkpt><trkpt lat="44.993006033068234" lon="7.388196515375578"><ele>417.4</ele><time>2026-04-04T08:19:59Z</time></trkpt><trkpt lat="44.99310813161953" lon="7.38820307477075"><ele>418.0</ele><time>2026-04-04T08:20:00Z</time></trkpt><trkpt lat="44.99321770808132" lon="7.38825729040219"><ele>418.0</ele><time>2026-04-04T08:20:01Z</time></trkpt><trkpt lat="44.99329368345627" lon="7.388309569386868"><ele>418.0</ele><time>2026-04-04T08:20:02Z</time></trkpt><trkpt lat="44.9933805346444" lon="7.388342802108872"><ele>418.0</ele><time>2026-04-04T08:20:03Z</time></trkpt><trkpt lat="44.99347822980282" lon="7.388331068016668"><ele>418.0</ele><time>2026-04-04T08:20:04Z</time></trkpt><trkpt lat="44.99357669945835" lon="7.38831773383569"><ele>418.0</ele><time>2026-04-04T08:20:05Z</time></trkpt><trkpt lat="44.99368027599446" lon="7.388318045898085"><ele>420.59999999999997</ele><time>2026-04-04T08:20:06Z</time></trkpt><trkpt lat="44.99378014295286" lon="7.388309267361131"><ele>423.2</ele><time>2026-04-04T08:20:07Z</time></trkpt><trkpt lat="44.99385783276124" lon="7.388321450222669"><ele>425.8</ele><time>2026-04-04T08:20:08Z</time></trkpt><trkpt lat="44.9939520924808" lon="7.388379789724307"><ele>428.4</ele><time>2026-04-04T08:20:09Z</time></trkpt><trkpt lat="44.9940582400969" lon="7.388417826583533"><ele>431.0</ele><time>2026-04-04T08:20:10Z</time></trkpt><trkpt lat="44.994147491370214" lon="7.388479598122628"><ele>431.49999999999994</ele><time>2026-04-04T08:20:11Z</time></trkpt><trkpt lat="44.994231932949994" lon="7.388520746670052"><ele>432.0</ele><time>2026-04-04T08:20:12Z</time></trkpt><trkpt lat="44.99431260896992" lon="7.3885322737354375"><ele>432.5</ele><time>2026-04-04T08:20:13Z</time></trkpt><trkpt lat="44.994395379655316" lon="7.388522665421279"><ele>433.0</ele><time>2026-04-04T08:20:14Z</time></trkpt><trkpt lat="44.99447237181414" lon="7.3885183600240545"><ele>433.49999999999994</ele><time>2026-04-04T08:20:15Z</time></trkpt><trkpt lat="44.9945513493474" lon="7.388519684219184"><ele>434.0</ele><time>2026-04-04T08:20:16Z</time></trkpt><trkpt lat="44.99461733903184" lon="7.3885093659954855"><ele>433.99999999999994</ele><time>2026-04-04T08:20:17Z</time></trkpt><trkpt lat="44.99468107760019" lon="7.388479427489554"><ele>434.0</ele><time>2026-04-04T08:20:18Z</time></trkpt><trkpt lat="44.99475058258533" lon="7.388445595944019"><ele>434.0</ele><time>2026-04-04T08:20:19Z</time></trkpt><trkpt lat="44.99482240366832" lon="7.388415703346881"><ele>434.0</ele><time>2026-04-04T08:20:20Z</time></trkpt><trkpt lat="44.994888170666236" lon="7.388393172171466"><ele>433.99999999999994</ele><time>2026-04-04T08:20:21Z</time></trkpt><trkpt lat="44.99497027723214" lon="7.388337000215502"><ele>434.0</ele><time>2026-04-04T08:20:22Z</time></trkpt><trkpt lat="44.99504927292942" lon="7.388330504746736"><ele>433.2</ele><time>2026-04-04T08:20:23Z</time></trkpt><trkpt lat="44.995143533731614" lon="7.3883248544775055"><ele>432.4</ele><time>2026-04-04T08:20:24Z</time></trkpt><trkpt lat="44.995249881129276" lon="7.3882736065365835"><ele>431.6</ele><time>2026-04-04T08:20:25Z</time></trkpt><trkpt lat="44.995352936720145" lon="7.388204880809389"><ele>430.8</ele><time>2026-04-04T08:20:26Z</time></trkpt><trkpt lat="44.99546646669205" lon="7.3881514445041185"><ele>430.0</ele><time>2026-04-04T08:20:27Z</time></trkpt><trkpt lat="44.99556809131772" lon="7.388097468491103"><ele>430.0</ele><time>2026-04-04T08:20:28Z</time></trkpt><trkpt lat="44.99566240256708" lon="7.3880411760094695"><ele>430.0</ele><time>2026-04-04T08:20:29Z</time></trkpt><trkpt lat="44.9957627852031" lon="7.387983853278068"><ele>430.0</ele><time>2026-04-04T08:20:30Z</time></trkpt><trkpt lat="44.99586256448878" lon="7.387947233270959"><ele>430.0</ele><time>2026-04-04T08:20:31Z</time></trkpt><trkpt lat="44.99598398030453" lon="7.387935279650161"><ele>430.0</ele><time>2026-04-04T08:20:32Z</time></trkpt><trkpt lat="44.99610589084726" lon="7.387901351969282"><ele>434.4</ele><time>2026-04-04T08:20:33Z</time></trkpt><trkpt lat="44.99621977126754" lon="7.387856039751959"><ele>438.8</ele><time>2026-04-04T08:20:34Z</time></trkpt><trkpt lat="44.996333221845475" lon="7.387832406774344"><ele>443.20000000000005</ele><time>2026-04-04T08:20:35Z</time></trkpt><trkpt lat="44.99643837410191" lon="7.387822355616459"><ele>447.6</ele><time>2026-04-04T08:20:36Z</time></trkpt><trkpt lat="44.996539036880826" lon="7.38780936967056"><ele>452.0</ele><time>2026-04-04T08:20:37Z</time></trkpt><trkpt lat="44.99664590341936" lon="7.3877723706904"><ele>450.0</ele><time>2026-04-04T08:20:38Z</time></trkpt><trkpt lat="44.996752301962445" lon="7.387760844076646"><ele>448.00000000000006</ele><time>2026-04-04T08:20:39Z</time></trkpt><trkpt lat="44.99685897391903" lon="7.387738849256171"><ele>446.00000000000006</ele><time>2026-04-04T08:20:40Z</time></trkpt><trkpt lat="44.99697635489735" lon="7.387718089312338"><ele>444.0</ele><time>2026-04-04T08:20:41Z</time></trkpt><trkpt lat="44.9970863405274" lon="7.387699553891794"><ele>442.0</ele><time>2026-04-04T08:20:42Z</time></trkpt><trkpt lat="44.99718285495685" lon="7.387682959381808"><ele>442.0</ele><time>2026-04-04T08:20:43Z</time></trkpt><trkpt lat="44.99727236114516" lon="7.387645365743852"><ele>442.00000000000006</ele><time>2026-04-04T08:20:44Z</time></trkpt><trkpt lat="44.99734968315273" lon="7.387582028567201"><ele>442.00000000000006</ele><time>2026-04-04T08:20:45Z</time></trkpt><trkpt lat="44.997423284000874" lon="7.3874833629411825"><ele>442.0</ele><time>2026-04-04T08:20:46Z</time></trkpt><trkpt lat="44.997499317751966" lon="7.387378954966768"><ele>442.0</ele><time>2026-04-04T08:20:47Z</time></trkpt><trkpt lat="44.9975688587456" lon="7.387296710646958"><ele>441.20000000000005</ele><time>2026-04-04T08:20:48Z</time></trkpt><trkpt lat="44.99765640419122" lon="7.387217905917656"><ele>440.40000000000003</ele><time>2026-04-04T08:20:49Z</time></trkpt><trkpt lat="44.9977443168689" lon="7.387178625010169"><ele>439.59999999999997</ele><time>2026-04-04T08:20:50Z</time></trkpt><trkpt lat="44.99784395634355" lon="7.387176367301183"><ele>438.79999999999995</ele><time>2026-04-04T08:20:51Z</time></trkpt><trkpt lat="44.997940202544406" lon="7.387173605471239"><ele>438.0</ele><time>2026-04-04T08:20:52Z</time></trkpt><trkpt lat="44.998044366372646" lon="7.387140271444499"><ele>440.2</ele><time>2026-04-04T08:20:53Z</time></trkpt><trkpt lat="44.998141674326774" lon="7.387115973203202"><ele>442.4</ele><time>2026-04-04T08:20:54Z</time></trkpt><trkpt lat="44.998240581857445" lon="7.387082942009353"><ele>444.59999999999997</ele><time>2026-04-04T08:20:55Z</time></trkpt><trkpt lat="44.998325830221745" lon="7.387052754729714"><ele>446.79999999999995</ele><time>2026-04-04T08:20:56Z</time></trkpt><trkpt lat="44.99841734619826" lon="7.387007127785321"><ele>449.0</ele><time>2026-04-04T08:20:57Z</time></trkpt><trkpt lat="44.99849458737212" lon="7.386961914885772"><ele>449.0</ele><time>2026-04-04T08:20:58Z</time></trkpt><trkpt lat="44.99855735469057" lon="7.3868905172059005"><ele>449.0</ele><time>2026-04-04T08:20:59Z</time></trkpt><trkpt lat="44.998645905000615" lon="7.386816271271186"><ele>449.0</ele><time>2026-04-04T08:21:00Z</time></trkpt><trkpt lat="44.99872342867941" lon="7.386736387032395"><ele>449.0</ele><time>2026-04-04T08:21:01Z</time></trkpt><trkpt lat="44.99880013914814" lon="7.386642984311034"><ele>449.0</ele><time>2026-04-04T08:21:02Z</time></trkpt><trkpt lat="44.99887133095428" lon="7.386561437432718"><ele>449.0</ele><time>2026-04-04T08:21:03Z</time></trkpt><trkpt lat="44.998964492666296" lon="7.386474410221693"><ele>449.0</ele><time>2026-04-04T08:21:04Z</time></trkpt><trkpt lat="44.99906082649023" lon="7.386400457295259"><ele>449.0</ele><time>2026-04-04T08:21:05Z</time></trkpt><trkpt lat="44.9991546907177" lon="7.386330418018196"><ele>449.0</ele><time>2026-04-04T08:21:06Z</time></trkpt><trkpt lat="44.99926272082778" lon="7.38624669856705"><ele>452.16666666666663</ele><time>2026-04-04T08:21:07Z</time></trkpt><trkpt lat="44.999331880186034" lon="7.386166760873792"><ele>455.3333333333333</ele><time>2026-04-04T08:21:08Z</time></trkpt><trkpt lat="44.99940039266504" lon="7.386099899323581"><ele>458.5</ele><time>2026-04-04T08:21:09Z</time></trkpt><trkpt lat="44.99946117712086" lon="7.386025024087396"><ele>461.66666666666663</ele><time>2026-04-04T08:21:10Z</time></trkpt><trkpt lat="44.99951885143188" lon="7.385949818153509"><ele>464.8333333333333</ele><time>2026-04-04T08:21:11Z</time></trkpt><trkpt lat="44.999567642579244" lon="7.38587522071486"><ele>468.0</ele><time>2026-04-04T08:21:12Z</time></trkpt><trkpt lat="44.999635062123225" lon="7.385759954992853"><ele>468.0</ele><time>2026-04-04T08:21:14Z</time></trkpt><trkpt lat="44.99972401735575" lon="7.385729045389966"><ele>467.99999999999994</ele><time>2026-04-04T08:21:16Z</time></trkpt><trkpt lat="44.99981709739608" lon="7.385835636932423"><ele>467.99999999999994</ele><time>2026-04-04T08:21:18Z</time></trkpt><trkpt lat="44.99984257698172" lon="7.385971045379586"><ele>468.0</ele><time>2026-04-04T08:21:20Z</time></trkpt><trkpt lat="44.999929743501035" lon="7.385980539311761"><ele>468.0</ele><time>2026-04-04T08:21:22Z</time></trkpt><trkpt lat="45.00004913542331" lon="7.386011284193262"><ele>468.0</ele><time>2026-04-04T08:21:23Z</time></trkpt><trkpt lat="45.00012613477669" lon="7.386025692982929"><ele>467.99999999999994</ele><time>2026-04-04T08:21:24Z</time></trkpt><trkpt lat="45.00024812150238" lon="7.386001465645339"><ele>467.99999999999994</ele><time>2026-04-04T08:21:26Z</time></trkpt><trkpt lat="45.00033256639558" lon="7.386046494335178"><ele>468.0</ele><time>2026-04-04T08:21:28Z</time></trkpt><trkpt lat="45.00037292206982" lon="7.386182491904005"><ele>468.0</ele><time>2026-04-04T08:21:30Z</time></trkpt><trkpt lat="45.000331090942915" lon="7.38626798207139"><ele>464.2</ele><time>2026-04-04T08:21:31Z</time></trkpt><trkpt lat="45.00032083885874" lon="7.386361577091069"><ele>460.4</ele><time>2026-04-04T08:21:32Z</time></trkpt><trkpt lat="45.000320802191744" lon="7.386458749275781"><ele>456.59999999999997</ele><time>2026-04-04T08:21:33Z</time></trkpt><trkpt lat="45.000361894519884" lon="7.386579924789978"><ele>452.79999999999995</ele><time>2026-04-04T08:21:35Z</time></trkpt><trkpt lat="45.00046010577985" lon="7.386621955184359"><ele>449.0</ele><time>2026-04-04T08:21:37Z</time></trkpt><trkpt lat="45.000577658819964" lon="7.386633688078939"><ele>448.99999999999994</ele><time>2026-04-04T08:21:39Z</time></trkpt><trkpt lat="45.000683401254484" lon="7.386721575451745"><ele>449.0</ele><time>2026-04-04T08:21:41Z</time></trkpt><trkpt lat="45.000725072477636" lon="7.3867889266634466"><ele>449.0</ele><time>2026-04-04T08:21:42Z</time></trkpt><trkpt lat="45.00076693725289" lon="7.386857811451404"><ele>449.0</ele><time>2026-04-04T08:21:43Z</time></trkpt><trkpt lat="45.000815938895244" lon="7.38692555753144"><ele>448.99999999999994</ele><time>2026-04-04T08:21:44Z</time></trkpt><trkpt lat="45.000859874390116" lon="7.38700944904588"><ele>449.0</ele><time>2026-04-04T08:21:45Z</time></trkpt><trkpt lat="45.000897286465545" lon="7.387102466107578"><ele>448.8333333333333</ele><time>2026-04-04T08:21:46Z</time></trkpt><trkpt lat="45.00094066111432" lon="7.387187041358304"><ele>448.66666666666663</ele><time>2026-04-04T08:21:47Z</time></trkpt><trkpt lat="45.0009927129804" lon="7.387263606471334"><ele>448.5</ele><time>2026-04-04T08:21:48Z</time></trkpt><trkpt lat="45.00104565697499" lon="7.38732994081523"><ele>448.33333333333337</ele><time>2026-04-04T08:21:49Z</time></trkpt><trkpt lat="45.001110241130704" lon="7.387365649899754"><ele>448.1666666666667</ele><time>2026-04-04T08:21:50Z</time></trkpt><trkpt lat="45.001211697399214" lon="7.387383042302567"><ele>448.0</ele><time>2026-04-04T08:21:52Z</time></trkpt><trkpt lat="45.001290031179614" lon="7.387383461883156"><ele>448.00000000000006</ele><time>2026-04-04T08:21:53Z</time></trkpt><trkpt lat="45.00135647950723" lon="7.387332377784962"><ele>448.0</ele><time>2026-04-04T08:21:54Z</time></trkpt><trkpt lat="45.0014292643698" lon="7.387284178470226"><ele>448.0</ele><time>2026-04-04T08:21:55Z</time></trkpt><trkpt lat="45.00149208946411" lon="7.387246186456722"><ele>448.0</ele><time>2026-04-04T08:21:56Z</time></trkpt><trkpt lat="45.0015725757759" lon="7.387232278662369"><ele>448.00000000000006</ele><time>2026-04-04T08:21:57Z</time></trkpt><trkpt lat="45.00165441520765" lon="7.38722069432439"><ele>448.0</ele><time>2026-04-04T08:21:58Z</time></trkpt><trkpt lat="45.00173949675552" lon="7.387217031864692"><ele>448.6666666666667</ele><time>2026-04-04T08:21:59Z</time></trkpt><trkpt lat="45.00182061358603" lon="7.387203013293396"><ele>449.33333333333337</ele><time>2026-04-04T08:22:00Z</time></trkpt><trkpt lat="45.001908171476046" lon="7.387220021443467"><ele>450.0</ele><time>2026-04-04T08:22:01Z</time></trkpt><trkpt lat="45.00199002009124" lon="7.387246684448279"><ele>450.66666666666663</ele><time>2026-04-04T08:22:02Z</time></trkpt><trkpt lat="45.00206544935001" lon="7.387289284518498"><ele>451.3333333333333</ele><time>2026-04-04T08:22:03Z</time></trkpt><trkpt lat="45.00213309357675" lon="7.387348702707162"><ele>452.0</ele><time>2026-04-04T08:22:04Z</time></trkpt><trkpt lat="45.00220394867889" lon="7.387393766537865"><ele>451.99999999999994</ele><time>2026-04-04T08:22:05Z</time></trkpt><trkpt lat="45.00231106936292" lon="7.387404297243561"><ele>452.0</ele><time>2026-04-04T08:22:07Z</time></trkpt><trkpt lat="45.00238621390054" lon="7.387393233525837"><ele>452.0</ele><time>2026-04-04T08:22:09Z</time></trkpt><trkpt lat="45.0024769180596" lon="7.387370358508013"><ele>452.0</ele><time>2026-04-04T08:22:12Z</time></trkpt><trkpt lat="45.002501521467764" lon="7.387260449152911"><ele>451.99999999999994</ele><time>2026-04-04T08:22:13.001Z</time></trkpt><trkpt lat="45.0025718992301" lon="7.387199393268254"><ele>452.0</ele><time>2026-04-04T08:22:15.001Z</time></trkpt><trkpt lat="45.0026317897249" lon="7.387117823560741"><ele>454.49999999999994</ele><time>2026-04-04T08:22:17.001Z</time></trkpt><trkpt lat="45.002691178797306" lon="7.387067802574574"><ele>457.0</ele><time>2026-04-04T08:22:19.001Z</time></trkpt><trkpt lat="45.00273790085083" lon="7.386992239800964"><ele>459.5</ele><time>2026-04-04T08:22:21.001Z</time></trkpt><trkpt lat="45.002743323149545" lon="7.386864629268351"><ele>462.0</ele><time>2026-04-04T08:22:23.001Z</time></trkpt><trkpt lat="45.002775680724945" lon="7.386720257155167"><ele>464.49999999999994</ele><time>2026-04-04T08:22:25.001Z</time></trkpt><trkpt lat="45.002802201043" lon="7.386567834499487"><ele>467.0</ele><time>2026-04-04T08:22:27.001Z</time></trkpt><trkpt lat="45.00284032485191" lon="7.386423012944341"><ele>471.0</ele><time>2026-04-04T08:22:29.001Z</time></trkpt><trkpt lat="45.0028978029405" lon="7.3863125252520785"><ele>475.00000000000006</ele><time>2026-04-04T08:22:31.001Z</time></trkpt><trkpt lat="45.002974895867354" lon="7.386162109952625"><ele>479.00000000000006</ele><time>2026-04-04T08:22:33.001Z</time></trkpt><trkpt lat="45.003009480960436" lon="7.386062117576017"><ele>483.0</ele><time>2026-04-04T08:22:34.001Z</time></trkpt><trkpt lat="45.00304459577169" lon="7.385957849376116"><ele>487.0</ele><time>2026-04-04T08:22:35.001Z</time></trkpt><trkpt lat="45.00306216958025" lon="7.385859899570905"><ele>487.0</ele><time>2026-04-04T08:22:36.001Z</time></trkpt><trkpt lat="45.00306937672782" lon="7.385764372077084"><ele>487.00000000000006</ele><time>2026-04-04T08:22:37.001Z</time></trkpt><trkpt lat="45.003079913778826" lon="7.385672999830341"><ele>487.00000000000006</ele><time>2026-04-04T08:22:38.001Z</time></trkpt><trkpt lat="45.00311346229611" lon="7.385500793882635"><ele>487.0</ele><time>2026-04-04T08:22:40.001Z</time></trkpt><trkpt lat="45.003160735538835" lon="7.385345168955773"><ele>487.0</ele><time>2026-04-04T08:22:42.001Z</time></trkpt><trkpt lat="45.00315478446106" lon="7.385192913310219"><ele>490.00000000000006</ele><time>2026-04-04T08:22:44.001Z</time></trkpt><trkpt lat="45.00310482856356" lon="7.385045993965108"><ele>493.0</ele><time>2026-04-04T08:22:46.001Z</time></trkpt><trkpt lat="45.003067487504374" lon="7.384972511932429"><ele>496.0</ele><time>2026-04-04T08:22:47.001Z</time></trkpt><trkpt lat="45.003054318516575" lon="7.38488450703661"><ele>499.0</ele><time>2026-04-04T08:22:48.001Z</time></trkpt><trkpt lat="45.00306002789623" lon="7.3847812124256045"><ele>502.00000000000006</ele><time>2026-04-04T08:22:49.001Z</time></trkpt><trkpt lat="45.00308228181374" lon="7.384660953912577"><ele>505.0</ele><time>2026-04-04T08:22:50.001Z</time></trkpt><trkpt lat="45.003113730664175" lon="7.384550415571008"><ele>506.6666666666667</ele><time>2026-04-04T08:22:51.001Z</time></trkpt><trkpt lat="45.00312316804048" lon="7.384461572282387"><ele>508.33333333333337</ele><time>2026-04-04T08:22:52.001Z</time></trkpt><trkpt lat="45.003134552583354" lon="7.384286057444782"><ele>510.0</ele><time>2026-04-04T08:22:54.001Z</time></trkpt><trkpt lat="45.003141709602765" lon="7.384182611983559"><ele>511.66666666666663</ele><time>2026-04-04T08:22:55.001Z</time></trkpt><trkpt lat="45.003148485679134" lon="7.384087664181676"><ele>513.3333333333333</ele><time>2026-04-04T08:22:56.001Z</time></trkpt><trkpt lat="45.003143901345375" lon="7.383940039033943"><ele>515.0</ele><time>2026-04-04T08:22:58.001Z</time></trkpt><trkpt lat="45.003136655130675" lon="7.383811559373133"><ele>515.0</ele><time>2026-04-04T08:23:00.001Z</time></trkpt><trkpt lat="45.003068651450334" lon="7.3838347062142216"><ele>515.0</ele><time>2026-04-04T08:23:04.001Z</time></trkpt><trkpt lat="45.003067709586574" lon="7.38398771306256"><ele>515.0</ele><time>2026-04-04T08:23:06.001Z</time></trkpt><trkpt lat="45.00305152626993" lon="7.384080307934286"><ele>515.0</ele><time>2026-04-04T08:23:07.001Z</time></trkpt><trkpt lat="45.00300547246431" lon="7.384252921947022"><ele>515.0</ele><time>2026-04-04T08:23:09.001Z</time></trkpt><trkpt lat="45.00297659686054" lon="7.384353791256023"><ele>515.0</ele><time>2026-04-04T08:23:10.001Z</time></trkpt><trkpt lat="45.00295337499813" lon="7.384455622429811"><ele>515.0</ele><time>2026-04-04T08:23:11.001Z</time></trkpt><trkpt lat="45.00292981085329" lon="7.38453832098472"><ele>515.0</ele><time>2026-04-04T08:23:12.001Z</time></trkpt><trkpt lat="45.0028794481617" lon="7.384620536192891"><ele>515.0</ele><time>2026-04-04T08:23:13.001Z</time></trkpt><trkpt lat="45.00282715486199" lon="7.384705212885294"><ele>515.0</ele><time>2026-04-04T08:23:14.001Z</time></trkpt><trkpt lat="45.00278339430716" lon="7.384784372918731"><ele>515.0</ele><time>2026-04-04T08:23:15Z</time></trkpt><trkpt lat="45.0027170381984" lon="7.384945604249309"><ele>513.3333333333333</ele><time>2026-04-04T08:23:17Z</time></trkpt><trkpt lat="45.002664638085236" lon="7.385020763933743"><ele>511.66666666666663</ele><time>2026-04-04T08:23:18Z</time></trkpt><trkpt lat="45.0026007161947" lon="7.385069999080308"><ele>510.0</ele><time>2026-04-04T08:23:19Z</time></trkpt><trkpt lat="45.00252587024893" lon="7.385066199209062"><ele>508.33333333333337</ele><time>2026-04-04T08:23:21Z</time></trkpt><trkpt lat="45.00253122061111" lon="7.384947204192907"><ele>506.6666666666667</ele><time>2026-04-04T08:23:23Z</time></trkpt><trkpt lat="45.002567571735796" lon="7.3848196495400735"><ele>505.0</ele><time>2026-04-04T08:23:25Z</time></trkpt><trkpt lat="45.00253603609912" lon="7.384704906919388"><ele>506.6666666666667</ele><time>2026-04-04T08:23:26Z</time></trkpt><trkpt lat="45.00252335772267" lon="7.384601414287695"><ele>508.33333333333337</ele><time>2026-04-04T08:23:27Z</time></trkpt><trkpt lat="45.0025103880618" lon="7.38448994757476"><ele>510.0</ele><time>2026-04-04T08:23:28Z</time></trkpt><trkpt lat="45.00245181554716" lon="7.384344563654665"><ele>511.66666666666663</ele><time>2026-04-04T08:23:30Z</time></trkpt><trkpt lat="45.00243697026579" lon="7.38425340314774"><ele>513.3333333333333</ele><time>2026-04-04T08:23:31Z</time></trkpt><trkpt lat="45.002404284838086" lon="7.384135593532578"><ele>515.0</ele><time>2026-04-04T08:23:32Z</time></trkpt><trkpt lat="45.00238559545385" lon="7.384041030764804"><ele>519.3333333333333</ele><time>2026-04-04T08:23:33Z</time></trkpt><trkpt lat="45.00234609513278" lon="7.383953395679211"><ele>523.6666666666666</ele><time>2026-04-04T08:23:34Z</time></trkpt><trkpt lat="45.00231057744866" lon="7.383873173406794"><ele>528.0</ele><time>2026-04-04T08:23:35Z</time></trkpt><trkpt lat="45.00228804185069" lon="7.383771954266151"><ele>532.3333333333334</ele><time>2026-04-04T08:23:36Z</time></trkpt><trkpt lat="45.002265719723106" lon="7.383679324956224"><ele>536.6666666666667</ele><time>2026-04-04T08:23:37Z</time></trkpt><trkpt lat="45.00217350000946" lon="7.383548911595728"><ele>541.0</ele><time>2026-04-04T08:23:39Z</time></trkpt><trkpt lat="45.00212784069327" lon="7.383475570790747"><ele>542.4</ele><time>2026-04-04T08:23:40Z</time></trkpt><trkpt lat="45.002101577416745" lon="7.383321466666554"><ele>543.8</ele><time>2026-04-04T08:23:42Z</time></trkpt><trkpt lat="45.00209503465849" lon="7.3831883863638"><ele>545.1999999999999</ele><time>2026-04-04T08:23:43Z</time></trkpt><trkpt lat="45.002076636497314" lon="7.383069732386433"><ele>546.6</ele><time>2026-04-04T08:23:44Z</time></trkpt><trkpt lat="45.002039702633745" lon="7.382945064767303"><ele>548.0</ele><time>2026-04-04T08:23:45Z</time></trkpt><trkpt lat="45.00200297416127" lon="7.382809786545603"><ele>550.3333333333333</ele><time>2026-04-04T08:23:46Z</time></trkpt><trkpt lat="45.001987333529186" lon="7.3826917030956425"><ele>552.6666666666666</ele><time>2026-04-04T08:23:47Z</time></trkpt><trkpt lat="45.00197511301636" lon="7.382570138764511"><ele>555.0</ele><time>2026-04-04T08:23:48Z</time></trkpt><trkpt lat="45.00198485340825" lon="7.382444014646432"><ele>557.3333333333334</ele><time>2026-04-04T08:23:49Z</time></trkpt><trkpt lat="45.001975463642154" lon="7.382329935569261"><ele>559.6666666666667</ele><time>2026-04-04T08:23:50Z</time></trkpt><trkpt lat="45.001978593190856" lon="7.382207383182964"><ele>562.0</ele><time>2026-04-04T08:23:51Z</time></trkpt><trkpt lat="45.002005415242" lon="7.382089475169576"><ele>564.0</ele><time>2026-04-04T08:23:52Z</time></trkpt><trkpt lat="45.002015131329166" lon="7.381966049511188"><ele>566.0</ele><time>2026-04-04T08:23:53Z</time></trkpt><trkpt lat="45.00201767659203" lon="7.381862736905893"><ele>568.0</ele><time>2026-04-04T08:23:54Z</time></trkpt><trkpt lat="45.00200200710862" lon="7.381760129357385"><ele>570.0</ele><time>2026-04-04T08:23:55Z</time></trkpt><trkpt lat="45.00199392697192" lon="7.381663634672849"><ele>572.0</ele><time>2026-04-04T08:23:56Z</time></trkpt><trkpt lat="45.002002137991724" lon="7.381510917770126"><ele>574.0</ele><time>2026-04-04T08:23:58Z</time></trkpt><trkpt lat="45.00191275395623" lon="7.381576177575893"><ele>574.0</ele><time>2026-04-04T08:24:06Z</time></trkpt><trkpt lat="45.00184447655846" lon="7.38170841921101"><ele>574.0</ele><time>2026-04-04T08:24:22Z</time></trkpt><trkpt lat="45.00178822188339" lon="7.381619732539524"><ele>574.0</ele><time>2026-04-04T08:24:27Z</time></trkpt><trkpt lat="45.00179276772894" lon="7.3814972486753705"><ele>574.0</ele><time>2026-04-04T08:24:30Z</time></trkpt><trkpt lat="45.00177173363215" lon="7.381398412416411"><ele>574.0</ele><time>2026-04-04T08:24:32Z</time></trkpt><trkpt lat="45.00176362999441" lon="7.3813054284425785"><ele>574.0</ele><time>2026-04-04T08:24:34Z</time></trkpt><trkpt lat="45.0017609631171" lon="7.381205727954967"><ele>577.4</ele><time>2026-04-04T08:24:36Z</time></trkpt><trkpt lat="45.00177900377613" lon="7.381102563028397"><ele>580.8</ele><time>2026-04-04T08:24:38Z</time></trkpt><trkpt lat="45.00180429338043" lon="7.380949454850896"><ele>584.2</ele><time>2026-04-04T08:24:40Z</time></trkpt><trkpt lat="45.001848550452415" lon="7.380820088825106"><ele>587.6</ele><time>2026-04-04T08:24:42Z</time></trkpt><trkpt lat="45.001891221748856" lon="7.380694715712653"><ele>591.0</ele><time>2026-04-04T08:24:45Z</time></trkpt><trkpt lat="45.00197988590378" lon="7.380617376276994"><ele>594.8333333333334</ele><time>2026-04-04T08:24:48Z</time></trkpt><trkpt lat="45.002030785933734" lon="7.380516211589206"><ele>598.6666666666666</ele><time>2026-04-04T08:24:51Z</time></trkpt><trkpt lat="45.002110774491456" lon="7.380384848252751"><ele>602.5</ele><time>2026-04-04T08:24:53Z</time></trkpt><trkpt lat="45.002155420319156" lon="7.380281131449289"><ele>606.3333333333333</ele><time>2026-04-04T08:24:55Z</time></trkpt><trkpt lat="45.002205679882735" lon="7.380206015341274"><ele>610.1666666666666</ele><time>2026-04-04T08:24:57Z</time></trkpt><trkpt lat="45.00225925389963" lon="7.380133524820885"><ele>614.0</ele><time>2026-04-04T08:24:59Z</time></trkpt><trkpt lat="45.00230753759208" lon="7.380074826309947"><ele>614.0</ele><time>2026-04-04T08:25:02Z</time></trkpt><trkpt lat="45.00237474683949" lon="7.380001599441634"><ele>614.0</ele><time>2026-04-04T08:25:05Z</time></trkpt><trkpt lat="45.00244438616101" lon="7.379939631597983"><ele>614.0</ele><time>2026-04-04T08:25:08Z</time></trkpt><trkpt lat="45.002477027270004" lon="7.379849740027714"><ele>614.0</ele><time>2026-04-04T08:26:03Z</time></trkpt><trkpt lat="45.002402264536485" lon="7.37995240635522"><ele>614.0</ele><time>2026-04-04T08:26:48Z</time></trkpt><trkpt lat="45.00233904180225" lon="7.38002744596687"><ele>614.0</ele><time>2026-04-04T08:26:50Z</time></trkpt><trkpt lat="45.00228356440757" lon="7.380119899362636"><ele>614.0</ele><time>2026-04-04T08:26:53Z</time></trkpt><trkpt lat="45.00223470102391" lon="7.380191692045873"><ele>614.0</ele><time>2026-04-04T08:26:55Z</time></trkpt><trkpt lat="45.00219092132538" lon="7.3802727997651365"><ele>614.0</ele><time>2026-04-04T08:26:58Z</time></trkpt><trkpt lat="45.002146665773004" lon="7.380369418376699"><ele>614.0</ele><time>2026-04-04T08:27:01Z</time></trkpt><trkpt lat="45.002106736362286" lon="7.380477685555095"><ele>614.0</ele><time>2026-04-04T08:27:04Z</time></trkpt><trkpt lat="45.00206981230934" lon="7.380567332459258"><ele>614.0</ele><time>2026-04-04T08:27:06Z</time></trkpt><trkpt lat="45.00199386554608" lon="7.380644435228107"><ele>610.1666666666666</ele><time>2026-04-04T08:27:09Z</time></trkpt><trkpt lat="45.00194025747656" lon="7.380695522425392"><ele>606.3333333333333</ele><time>2026-04-04T08:27:11Z</time></trkpt><trkpt lat="45.001880036345355" lon="7.3808091639701"><ele>602.5</ele><time>2026-04-04T08:27:13Z</time></trkpt><trkpt lat="45.00183045408207" lon="7.380891792101469"><ele>598.6666666666666</ele><time>2026-04-04T08:27:15Z</time></trkpt><trkpt lat="45.001815340050996" lon="7.3810176310410975"><ele>594.8333333333334</ele><time>2026-04-04T08:27:17Z</time></trkpt><trkpt lat="45.001778066954614" lon="7.3811393113778845"><ele>591.0</ele><time>2026-04-04T08:27:41Z</time></trkpt><trkpt lat="45.00177360360139" lon="7.381244568801509"><ele>588.1666666666666</ele><time>2026-04-04T08:27:45Z</time></trkpt><trkpt lat="45.00177807568684" lon="7.381376912754542"><ele>585.3333333333334</ele><time>2026-04-04T08:27:48Z</time></trkpt><trkpt lat="45.00180360513344" lon="7.381504108526601"><ele>582.5</ele><time>2026-04-04T08:27:50Z</time></trkpt><trkpt lat="45.0017899429372" lon="7.381639287515487"><ele>579.6666666666667</ele><time>2026-04-04T08:27:52Z</time></trkpt><trkpt lat="45.00180315568337" lon="7.381736713013366"><ele>576.8333333333334</ele><time>2026-04-04T08:27:54Z</time></trkpt><trkpt lat="45.00186713035184" lon="7.381684431565701"><ele>574.0</ele><time>2026-04-04T08:27:56Z</time></trkpt><trkpt lat="45.00185971871589" lon="7.381549064316474"><ele>574.0</ele><time>2026-04-04T08:27:59Z</time></trkpt><trkpt lat="45.00191150685926" lon="7.381485682975962"><ele>574.0</ele><time>2026-04-04T08:28:01Z</time></trkpt><trkpt lat="45.00197079114355" lon="7.381409932833533"><ele>574.0</ele><time>2026-04-04T08:28:03Z</time></trkpt><trkpt lat="45.002002532582004" lon="7.381280011341075"><ele>574.0</ele><time>2026-04-04T08:28:05Z</time></trkpt><trkpt lat="45.00203705608613" lon="7.381164456599849"><ele>574.0</ele><time>2026-04-04T08:28:07Z</time></trkpt><trkpt lat="45.00207515683665" lon="7.381042069379184"><ele>574.0</ele><time>2026-04-04T08:28:09Z</time></trkpt><trkpt lat="45.002124494914064" lon="7.380926365587315"><ele>577.4</ele><time>2026-04-04T08:28:11Z</time></trkpt><trkpt lat="45.002219834107244" lon="7.380844411278811"><ele>580.8</ele><time>2026-04-04T08:28:13Z</time></trkpt><trkpt lat="45.00228922880611" lon="7.38082631908762"><ele>584.2</ele><time>2026-04-04T08:28:14Z</time></trkpt><trkpt lat="45.00234644871116" lon="7.38067699927094"><ele>587.6</ele><time>2026-04-04T08:28:16Z</time></trkpt><trkpt lat="45.002377504176806" lon="7.380589027387258"><ele>591.0</ele><time>2026-04-04T08:28:17Z</time></trkpt><trkpt lat="45.00247359086814" lon="7.380484011763209"><ele>591.6666666666666</ele><time>2026-04-04T08:28:18Z</time></trkpt><trkpt lat="45.00254331984462" lon="7.380432242018388"><ele>592.3333333333334</ele><time>2026-04-04T08:28:19Z</time></trkpt><trkpt lat="45.00264469634789" lon="7.380334643678966"><ele>593.0</ele><time>2026-04-04T08:28:21Z</time></trkpt><trkpt lat="45.00270262450594" lon="7.380279619696288"><ele>593.6666666666667</ele><time>2026-04-04T08:28:22Z</time></trkpt><trkpt lat="45.002770337233066" lon="7.380217269202762"><ele>594.3333333333334</ele><time>2026-04-04T08:28:23Z</time></trkpt><trkpt lat="45.00282781015065" lon="7.38016976419235"><ele>595.0</ele><time>2026-04-04T08:28:24Z</time></trkpt><trkpt lat="45.00293771190134" lon="7.380108678078624"><ele>595.0</ele><time>2026-04-04T08:28:26Z</time></trkpt><trkpt lat="45.00301216106831" lon="7.380071503053203"><ele>595.0</ele><time>2026-04-04T08:28:27Z</time></trkpt><trkpt lat="45.003114819588156" lon="7.379964812957604"><ele>595.0</ele><time>2026-04-04T08:28:29Z</time></trkpt><trkpt lat="45.00317533313076" lon="7.379925933413513"><ele>595.0</ele><time>2026-04-04T08:28:30Z</time></trkpt><trkpt lat="45.003269635384" lon="7.379893132361019"><ele>595.0</ele><time>2026-04-04T08:28:32.001Z</time></trkpt><trkpt lat="45.00339264495287" lon="7.379880298438511"><ele>593.0</ele><time>2026-04-04T08:28:34.001Z</time></trkpt><trkpt lat="45.00348438702326" lon="7.379875472536514"><ele>591.0</ele><time>2026-04-04T08:28:36.001Z</time></trkpt><trkpt lat="45.00355818276002" lon="7.379857679981433"><ele>589.0</ele><time>2026-04-04T08:28:37.001Z</time></trkpt><trkpt lat="45.003632063251466" lon="7.379865735252625"><ele>587.0</ele><time>2026-04-04T08:28:38.001Z</time></trkpt><trkpt lat="45.00371114278883" lon="7.379878473452771"><ele>585.0</ele><time>2026-04-04T08:28:39.001Z</time></trkpt><trkpt lat="45.0038311597492" lon="7.379855981587156"><ele>583.0</ele><time>2026-04-04T08:28:41.001Z</time></trkpt><trkpt lat="45.003902405475856" lon="7.379799370950014"><ele>583.0</ele><time>2026-04-04T08:28:43.001Z</time></trkpt><trkpt lat="45.00399721694437" lon="7.3797940575801055"><ele>583.0</ele><time>2026-04-04T08:28:45.001Z</time></trkpt><trkpt lat="45.0040783193177" lon="7.379884283219579"><ele>583.0</ele><time>2026-04-04T08:28:47.001Z</time></trkpt><trkpt lat="45.0041634437748" lon="7.3799661963771594"><ele>583.0</ele><time>2026-04-04T08:28:49.001Z</time></trkpt><trkpt lat="45.004274572874834" lon="7.380012557338451"><ele>583.0</ele><time>2026-04-04T08:28:51.001Z</time></trkpt><trkpt lat="45.00437763730747" lon="7.3800081521863135"><ele>584.1999999999999</ele><time>2026-04-04T08:28:53.001Z</time></trkpt><trkpt lat="45.004461434245975" lon="7.379913475596056"><ele>585.4</ele><time>2026-04-04T08:28:55.001Z</time></trkpt><trkpt lat="45.004522416456766" lon="7.379774399591326"><ele>586.5999999999999</ele><time>2026-04-04T08:28:57.001Z</time></trkpt><trkpt lat="45.004506502867734" lon="7.379661074850899"><ele>587.8</ele><time>2026-04-04T08:28:58.001Z</time></trkpt><trkpt lat="45.0044986960119" lon="7.379540784559614"><ele>589.0</ele><time>2026-04-04T08:28:59Z</time></trkpt><trkpt lat="45.00450608128911" lon="7.379450302929671"><ele>592.3333333333334</ele><time>2026-04-04T08:29:00Z</time></trkpt><trkpt lat="45.00460954975039" lon="7.379402195182471"><ele>595.6666666666667</ele><time>2026-04-04T08:29:02Z</time></trkpt><trkpt lat="45.00467138057742" lon="7.379365852752783"><ele>599.0</ele><time>2026-04-04T08:29:03Z</time></trkpt><trkpt lat="45.00473558025557" lon="7.379348379615472"><ele>602.3333333333334</ele><time>2026-04-04T08:29:04Z</time></trkpt><trkpt lat="45.00476442439264" lon="7.379266439610834"><ele>605.6666666666666</ele><time>2026-04-04T08:29:06Z</time></trkpt><trkpt lat="45.00476302446218" lon="7.379116547744991"><ele>609.0</ele><time>2026-04-04T08:29:08Z</time></trkpt><trkpt lat="45.00477515891998" lon="7.379013478633931"><ele>609.0</ele><time>2026-04-04T08:29:10Z</time></trkpt><trkpt lat="45.00484346493651" lon="7.378965991212271"><ele>609.0</ele><time>2026-04-04T08:29:12Z</time></trkpt><trkpt lat="45.004911710750875" lon="7.378959996770839"><ele>609.0</ele><time>2026-04-04T08:29:14Z</time></trkpt><trkpt lat="45.00497900947629" lon="7.37893795955239"><ele>609.0</ele><time>2026-04-04T08:29:16Z</time></trkpt><trkpt lat="45.00503826090585" lon="7.378885443528554"><ele>609.0</ele><time>2026-04-04T08:29:19Z</time></trkpt><trkpt lat="45.0051098228657" lon="7.3788916613164695"><ele>609.0</ele><time>2026-04-04T08:29:23Z</time></trkpt><trkpt lat="45.00518341322913" lon="7.378953229289346"><ele>609.0</ele><time>2026-04-04T08:29:25Z</time></trkpt><trkpt lat="45.00524504568903" lon="7.379042733969071"><ele>606.8333333333334</ele><time>2026-04-04T08:29:27Z</time></trkpt><trkpt lat="45.00531188952929" lon="7.379091894881621"><ele>604.6666666666666</ele><time>2026-04-04T08:29:30Z</time></trkpt><trkpt lat="45.00539586049409" lon="7.379147355503911"><ele>602.5</ele><time>2026-04-04T08:29:33Z</time></trkpt><trkpt lat="45.00545941128133" lon="7.379185710270128"><ele>600.3333333333333</ele><time>2026-04-04T08:29:34Z</time></trkpt><trkpt lat="45.005548942118494" lon="7.379239958460503"><ele>598.1666666666666</ele><time>2026-04-04T08:29:36Z</time></trkpt><trkpt lat="45.005608955460936" lon="7.379287381856004"><ele>596.0</ele><time>2026-04-04T08:29:38Z</time></trkpt><trkpt lat="45.00565367331139" lon="7.379421736109115"><ele>596.0</ele><time>2026-04-04T08:29:40Z</time></trkpt><trkpt lat="45.005753739439584" lon="7.379483912589985"><ele>596.0</ele><time>2026-04-04T08:29:42Z</time></trkpt><trkpt lat="45.00584116301562" lon="7.379501856617153"><ele>596.0</ele><time>2026-04-04T08:29:44Z</time></trkpt><trkpt lat="45.00590986391604" lon="7.379501865084391"><ele>596.0</ele><time>2026-04-04T08:29:45Z</time></trkpt><trkpt lat="45.005987378422645" lon="7.379458057839225"><ele>596.0</ele><time>2026-04-04T08:29:47Z</time></trkpt><trkpt lat="45.00606217119102" lon="7.379452812004305"><ele>596.0</ele><time>2026-04-04T08:29:50Z</time></trkpt><trkpt lat="45.0061409299022" lon="7.379465698316133"><ele>594.8571428571429</ele><time>2026-04-04T08:29:56.999Z</time></trkpt><trkpt lat="45.00615442843684" lon="7.379562789654143"><ele>593.7142857142857</ele><time>2026-04-04T08:30:02.999Z</time></trkpt><trkpt lat="45.006181175171655" lon="7.379647085336252"><ele>592.5714285714286</ele><time>2026-04-04T08:30:04.999Z</time></trkpt><trkpt lat="45.006230975954374" lon="7.379721517043039"><ele>591.4285714285714</ele><time>2026-04-04T08:30:07.999Z</time></trkpt><trkpt lat="45.00619233375613" lon="7.379835523385905"><ele>590.2857142857142</ele><time>2026-04-04T08:30:09.999Z</time></trkpt><trkpt lat="45.00617248284591" lon="7.3799237114494565"><ele>589.1428571428571</ele><time>2026-04-04T08:30:11.999Z</time></trkpt><trkpt lat="45.00620961285303" lon="7.380020583504401"><ele>588.0</ele><time>2026-04-04T08:30:14.999Z</time></trkpt><trkpt lat="45.00619501066021" lon="7.380133127824347"><ele>588.0</ele><time>2026-04-04T08:30:17.999Z</time></trkpt><trkpt lat="45.00620516384981" lon="7.380245428119615"><ele>588.0</ele><time>2026-04-04T08:30:19.999Z</time></trkpt><trkpt lat="45.0062067702239" lon="7.380334805346549"><ele>588.0</ele><time>2026-04-04T08:30:21.999Z</time></trkpt><trkpt lat="45.00622517236924" lon="7.380426830828252"><ele>588.0</ele><time>2026-04-04T08:30:23.999Z</time></trkpt><trkpt lat="45.00629478744553" lon="7.380533562755662"><ele>588.0</ele><time>2026-04-04T08:30:25.999Z</time></trkpt><trkpt lat="45.00638379609904" lon="7.380635883845451"><ele>588.0</ele><time>2026-04-04T08:30:27.999Z</time></trkpt><trkpt lat="45.00644509758443" lon="7.380742755326997"><ele>586.5</ele><time>2026-04-04T08:30:29.999Z</time></trkpt><trkpt lat="45.00645341621361" lon="7.380874503069689"><ele>585.0</ele><time>2026-04-04T08:30:31.999Z</time></trkpt><trkpt lat="45.0064154134045" lon="7.380982385031633"><ele>583.5</ele><time>2026-04-04T08:30:33.999Z</time></trkpt><trkpt lat="45.006349194108395" lon="7.381073668142153"><ele>582.0</ele><time>2026-04-04T08:30:35.999Z</time></trkpt><trkpt lat="45.00640322126323" lon="7.381143597912404"><ele>580.5</ele><time>2026-04-04T08:30:40Z</time></trkpt><trkpt lat="45.006447520338796" lon="7.381215020343843"><ele>579.0</ele><time>2026-04-04T08:30:43Z</time></trkpt><trkpt lat="45.0065110219623" lon="7.381181249609299"><ele>579.0</ele><time>2026-04-04T08:30:46Z</time></trkpt><trkpt lat="45.00660550859396" lon="7.381245550550178"><ele>579.0</ele><time>2026-04-04T08:30:49Z</time></trkpt><trkpt lat="45.006665190741984" lon="7.381306031364837"><ele>579.0</ele><time>2026-04-04T08:30:52Z</time></trkpt><trkpt lat="45.00697263631497" lon="7.381542024753534"><ele>586.25</ele><time>2026-04-04T08:30:54Z</time></trkpt><trkpt lat="45.007002735969564" lon="7.381697589506984"><ele>593.5</ele><time>2026-04-04T08:30:56Z</time></trkpt><trkpt lat="45.007070889593756" lon="7.381813868946042"><ele>600.75</ele><time>2026-04-04T08:30:58Z</time></trkpt><trkpt lat="45.00717905599758" lon="7.3818839132882195"><ele>608.0</ele><time>2026-04-04T08:31:00Z</time></trkpt><trkpt lat="45.00728235854364" lon="7.381946432723419"><ele>608.0</ele><time>2026-04-04T08:31:02Z</time></trkpt><trkpt lat="45.007344942868286" lon="7.381979649482743"><ele>608.0</ele><time>2026-04-04T08:31:03Z</time></trkpt><trkpt lat="45.00741075350482" lon="7.382008778454168"><ele>608.0</ele><time>2026-04-04T08:31:04Z</time></trkpt><trkpt lat="45.00747907659129" lon="7.3820166316154445"><ele>608.0</ele><time>2026-04-04T08:31:05Z</time></trkpt><trkpt lat="45.007548155624434" lon="7.382023583433664"><ele>608.0</ele><time>2026-04-04T08:31:06Z</time></trkpt><trkpt lat="45.00761790806672" lon="7.382025852603547"><ele>608.0</ele><time>2026-04-04T08:31:07Z</time></trkpt><trkpt lat="45.00773391724754" lon="7.381997392197193"><ele>611.0</ele><time>2026-04-04T08:31:09Z</time></trkpt><trkpt lat="45.00785413044015" lon="7.3819635512872575"><ele>614.0</ele><time>2026-04-04T08:31:11Z</time></trkpt><trkpt lat="45.007953137689256" lon="7.381913895746033"><ele>617.0</ele><time>2026-04-04T08:31:13Z</time></trkpt><trkpt lat="45.00801610331171" lon="7.381905436218635"><ele>620.0</ele><time>2026-04-04T08:31:14Z</time></trkpt><trkpt lat="45.008122817120494" lon="7.381891159412052"><ele>623.0</ele><time>2026-04-04T08:31:16Z</time></trkpt><trkpt lat="45.00819062874792" lon="7.381904399736844"><ele>623.0</ele><time>2026-04-04T08:31:19Z</time></trkpt><trkpt lat="45.00826672509996" lon="7.381904381416399"><ele>623.0</ele><time>2026-04-04T08:31:22Z</time></trkpt><trkpt lat="45.00835796557768" lon="7.381941975789468"><ele>623.0</ele><time>2026-04-04T08:32:30Z</time></trkpt><trkpt lat="45.00830268033917" lon="7.381891909425553"><ele>623.0</ele><time>2026-04-04T08:32:38Z</time></trkpt><trkpt lat="45.008234809873755" lon="7.381828772619534"><ele>623.0</ele><time>2026-04-04T08:32:44Z</time></trkpt><trkpt lat="45.00825210988002" lon="7.381677621030962"><ele>623.0</ele><time>2026-04-04T08:32:47Z</time></trkpt><trkpt lat="45.0082381404223" lon="7.381523111416239"><ele>623.0</ele><time>2026-04-04T08:32:49Z</time></trkpt><trkpt lat="45.0081725065528" lon="7.3813947885082705"><ele>623.0</ele><time>2026-04-04T08:32:51Z</time></trkpt><trkpt lat="45.00812007205178" lon="7.381340251463855"><ele>623.0</ele><time>2026-04-04T08:32:52Z</time></trkpt><trkpt lat="45.008045852200304" lon="7.381215875153262"><ele>623.0</ele><time>2026-04-04T08:32:54Z</time></trkpt><trkpt lat="45.008009744028335" lon="7.381138603802574"><ele>623.0</ele><time>2026-04-04T08:32:55Z</time></trkpt><trkpt lat="45.007962573429495" lon="7.381066785500858"><ele>623.0</ele><time>2026-04-04T08:32:56Z</time></trkpt><trkpt lat="45.00790633972384" lon="7.380983939072682"><ele>626.1999999999999</ele><time>2026-04-04T08:32:57Z</time></trkpt><trkpt lat="45.007858097370715" lon="7.380926556862486"><ele>629.4</ele><time>2026-04-04T08:32:58Z</time></trkpt><trkpt lat="45.007758757564154" lon="7.380800711780801"><ele>632.5999999999999</ele><time>2026-04-04T08:33:00Z</time></trkpt><trkpt lat="45.007702258687566" lon="7.38064004258825"><ele>635.8</ele><time>2026-04-04T08:33:02Z</time></trkpt><trkpt lat="45.00771928781472" lon="7.380474246256648"><ele>639.0</ele><time>2026-04-04T08:33:04Z</time></trkpt><trkpt lat="45.00776062350512" lon="7.380316171925456"><ele>641.8</ele><time>2026-04-04T08:33:06Z</time></trkpt><trkpt lat="45.00783183086295" lon="7.380163098150244"><ele>644.5999999999999</ele><time>2026-04-04T08:33:08Z</time></trkpt><trkpt lat="45.00786091901389" lon="7.380075509505647"><ele>647.4</ele><time>2026-04-04T08:33:09Z</time></trkpt><trkpt lat="45.00794022056668" lon="7.379968424480061"><ele>650.1999999999999</ele><time>2026-04-04T08:33:11Z</time></trkpt><trkpt lat="45.008025534443334" lon="7.379861657969358"><ele>653.0</ele><time>2026-04-04T08:33:13Z</time></trkpt><trkpt lat="45.0081152568703" lon="7.379756795697619"><ele>655.8</ele><time>2026-04-04T08:33:15Z</time></trkpt><trkpt lat="45.00813993534735" lon="7.379652473497976"><ele>658.5999999999999</ele><time>2026-04-04T08:33:18Z</time></trkpt><trkpt lat="45.008061122207465" lon="7.379563854864706"><ele>661.4000000000001</ele><time>2026-04-04T08:33:20Z</time></trkpt><trkpt lat="45.0079919124384" lon="7.379462758298241"><ele>664.2</ele><time>2026-04-04T08:33:22Z</time></trkpt><trkpt lat="45.00790746558081" lon="7.379426399221357"><ele>667.0</ele><time>2026-04-04T08:33:24Z</time></trkpt><trkpt lat="45.00782353360455" lon="7.379422449390549"><ele>667.0</ele><time>2026-04-04T08:33:26Z</time></trkpt><trkpt lat="45.00776411971381" lon="7.37931386422059"><ele>667.0</ele><time>2026-04-04T08:33:28Z</time></trkpt><trkpt lat="45.007681193481226" lon="7.379256149714956"><ele>667.0</ele><time>2026-04-04T08:33:30Z</time></trkpt><trkpt lat="45.007653635337064" lon="7.379156342020294"><ele>667.0</ele><time>2026-04-04T08:33:32Z</time></trkpt><trkpt lat="45.00768965570558" lon="7.379036490145676"><ele>667.0</ele><time>2026-04-04T08:33:34Z</time></trkpt><trkpt lat="45.0076944765719" lon="7.3789030963424205"><ele>667.8</ele><time>2026-04-04T08:33:36Z</time></trkpt><trkpt lat="45.00765178633883" lon="7.378761767063883"><ele>668.6</ele><time>2026-04-04T08:33:38Z</time></trkpt><trkpt lat="45.007588931790465" lon="7.378632671453933"><ele>669.4</ele><time>2026-04-04T08:33:40Z</time></trkpt><trkpt lat="45.00753661172162" lon="7.3785271520456215"><ele>670.1999999999999</ele><time>2026-04-04T08:33:42Z</time></trkpt><trkpt lat="45.00744923860106" lon="7.378408178759507"><ele>671.0</ele><time>2026-04-04T08:33:44Z</time></trkpt><trkpt lat="45.007399339117256" lon="7.378350123370057"><ele>670.5999999999999</ele><time>2026-04-04T08:33:45Z</time></trkpt><trkpt lat="45.0073173822651" lon="7.3782895082993845"><ele>670.2</ele><time>2026-04-04T08:33:47Z</time></trkpt><trkpt lat="45.007240668888265" lon="7.378212301474567"><ele>669.8</ele><time>2026-04-04T08:33:49Z</time></trkpt><trkpt lat="45.00719101457843" lon="7.378063145354689"><ele>669.4000000000001</ele><time>2026-04-04T08:33:51Z</time></trkpt><trkpt lat="45.0071241019729" lon="7.377927990638456"><ele>669.0</ele><time>2026-04-04T08:33:53Z</time></trkpt><trkpt lat="45.007077017876576" lon="7.377816609010341"><ele>669.0</ele><time>2026-04-04T08:33:54Z</time></trkpt><trkpt lat="45.00702612363539" lon="7.377720757117233"><ele>669.0</ele><time>2026-04-04T08:33:55Z</time></trkpt><trkpt lat="45.00694213010174" lon="7.377675754834703"><ele>669.0</ele><time>2026-04-04T08:33:57Z</time></trkpt><trkpt lat="45.006830956862636" lon="7.377707200876811"><ele>669.0</ele><time>2026-04-04T08:33:59Z</time></trkpt><trkpt lat="45.00671292710536" lon="7.377704587070332"><ele>669.0</ele><time>2026-04-04T08:34:01Z</time></trkpt><trkpt lat="45.00664163287011" lon="7.377641295062019"><ele>666.6666666666666</ele><time>2026-04-04T08:34:02Z</time></trkpt><trkpt lat="45.006568118260844" lon="7.37757487423078"><ele>664.3333333333334</ele><time>2026-04-04T08:34:03Z</time></trkpt><trkpt lat="45.006512906105385" lon="7.377531919846146"><ele>662.0</ele><time>2026-04-04T08:34:04Z</time></trkpt><trkpt lat="45.00648968113837" lon="7.3774154226192215"><ele>659.6666666666667</ele><time>2026-04-04T08:34:06Z</time></trkpt><trkpt lat="45.0064842687815" lon="7.377294936659056"><ele>657.3333333333334</ele><time>2026-04-04T08:34:08Z</time></trkpt><trkpt lat="45.006459910756035" lon="7.377211762898296"><ele>655.0</ele><time>2026-04-04T08:34:10Z</time></trkpt><trkpt lat="45.006452213179514" lon="7.377109616355429"><ele>659.4285714285714</ele><time>2026-04-04T08:34:13Z</time></trkpt><trkpt lat="45.00641407100735" lon="7.376990516385824"><ele>663.8571428571429</ele><time>2026-04-04T08:34:15Z</time></trkpt><trkpt lat="45.006374788952705" lon="7.376910317360325"><ele>668.2857142857142</ele><time>2026-04-04T08:34:16Z</time></trkpt><trkpt lat="45.006324571936155" lon="7.376829010729061"><ele>672.7142857142858</ele><time>2026-04-04T08:34:17Z</time></trkpt><trkpt lat="45.00629285840255" lon="7.376742987732188"><ele>677.1428571428571</ele><time>2026-04-04T08:34:18Z</time></trkpt><trkpt lat="45.00626447259567" lon="7.3766601660718925"><ele>681.5714285714286</ele><time>2026-04-04T08:34:19Z</time></trkpt><trkpt lat="45.00623500754696" lon="7.376575057785845"><ele>686.0</ele><time>2026-04-04T08:34:20Z</time></trkpt><trkpt lat="45.00620494454546" lon="7.376495232911347"><ele>686.0</ele><time>2026-04-04T08:34:21Z</time></trkpt><trkpt lat="45.00615579537178" lon="7.3764169761418605"><ele>686.0</ele><time>2026-04-04T08:34:22Z</time></trkpt><trkpt lat="45.006104398182394" lon="7.37632931679217"><ele>686.0</ele><time>2026-04-04T08:34:23Z</time></trkpt><trkpt lat="45.0060474375833" lon="7.376187553643631"><ele>686.0</ele><time>2026-04-04T08:34:25Z</time></trkpt><trkpt lat="45.006004149948424" lon="7.376065670822153"><ele>686.0</ele><time>2026-04-04T08:34:27Z</time></trkpt><trkpt lat="45.005952407289165" lon="7.375974321978044"><ele>686.0</ele><time>2026-04-04T08:34:30Z</time></trkpt><trkpt lat="45.00594306329972" lon="7.375836943320992"><ele>690.6666666666666</ele><time>2026-04-04T08:34:33Z</time></trkpt><trkpt lat="45.00588992722665" lon="7.37572490365013"><ele>695.3333333333333</ele><time>2026-04-04T08:34:35Z</time></trkpt><trkpt lat="45.0058600229131" lon="7.37561444491328"><ele>700.0</ele><time>2026-04-04T08:34:38Z</time></trkpt><trkpt lat="45.00586089124201" lon="7.375481741471875"><ele>704.6666666666666</ele><time>2026-04-04T08:34:41Z</time></trkpt><trkpt lat="45.005811327833044" lon="7.37538737125674"><ele>709.3333333333334</ele><time>2026-04-04T08:34:44Z</time></trkpt><trkpt lat="45.0057667204833" lon="7.375290301024954"><ele>714.0</ele><time>2026-04-04T08:34:47Z</time></trkpt><trkpt lat="45.0057198783351" lon="7.375205955813409"><ele>717.3333333333334</ele><time>2026-04-04T08:34:50Z</time></trkpt><trkpt lat="45.005663273834536" lon="7.375166424804339"><ele>720.6666666666666</ele><time>2026-04-04T08:34:52Z</time></trkpt><trkpt lat="45.00568797691843" lon="7.375082323507345"><ele>724.0</ele><time>2026-04-04T08:37:12Z</time></trkpt><trkpt lat="45.005733284056326" lon="7.375017739498743"><ele>727.3333333333333</ele><time>2026-04-04T08:37:27Z</time></trkpt><trkpt lat="45.00578102811694" lon="7.374888978699812"><ele>730.6666666666666</ele><time>2026-04-04T08:38:14Z</time></trkpt><trkpt lat="45.00585352241626" lon="7.374796208615314"><ele>734.0</ele><time>2026-04-04T08:39:04Z</time></trkpt><trkpt lat="45.00588166094604" lon="7.3746935590587315"><ele>736.5</ele><time>2026-04-04T08:39:57Z</time></trkpt><trkpt lat="45.00591209550994" lon="7.374608407353477"><ele>739.0</ele><time>2026-04-04T08:40:07Z</time></trkpt><trkpt lat="45.005808448469026" lon="7.374630788987345"><ele>741.5</ele><time>2026-04-04T08:40:49Z</time></trkpt><trkpt lat="45.005747762037714" lon="7.374590625166879"><ele>744.0</ele><time>2026-04-04T08:40:53Z</time></trkpt><trkpt lat="45.00569530229113" lon="7.3745318428198114"><ele>746.5</ele><time>2026-04-04T08:40:56Z</time></trkpt><trkpt lat="45.00563091436043" lon="7.374429695978673"><ele>749.0</ele><time>2026-04-04T08:40:59Z</time></trkpt><trkpt lat="45.00558806679923" lon="7.374304872385903"><ele>752.0</ele><time>2026-04-04T08:41:02Z</time></trkpt><trkpt lat="45.005543048698435" lon="7.374195071239018"><ele>755.0</ele><time>2026-04-04T08:41:04Z</time></trkpt><trkpt lat="45.00551143443646" lon="7.374111849287363"><ele>758.0</ele><time>2026-04-04T08:41:06Z</time></trkpt><trkpt lat="45.00544931999394" lon="7.374083636379389"><ele>761.0</ele><time>2026-04-04T08:41:11Z</time></trkpt><trkpt lat="45.00539480551475" lon="7.374019508500581"><ele>764.0</ele><time>2026-04-04T08:41:15Z</time></trkpt><trkpt lat="45.00536169919983" lon="7.373940507266216"><ele>767.0</ele><time>2026-04-04T08:41:18Z</time></trkpt><trkpt lat="45.00528484090752" lon="7.373875040291454"><ele>770.0</ele><time>2026-04-04T08:41:21Z</time></trkpt><trkpt lat="45.005258988814056" lon="7.373781330893165"><ele>773.5000000000001</ele><time>2026-04-04T08:41:24Z</time></trkpt><trkpt lat="45.00526624711085" lon="7.373661250323852"><ele>777.0</ele><time>2026-04-04T08:42:11Z</time></trkpt><trkpt lat="45.00525587906652" lon="7.373572145276838"><ele>780.5</ele><time>2026-04-04T08:42:14Z</time></trkpt><trkpt lat="45.00521602943254" lon="7.373480343730941"><ele>784.0</ele><time>2026-04-04T08:42:17Z</time></trkpt><trkpt lat="45.00518187348318" lon="7.373371864450362"><ele>787.5000000000001</ele><time>2026-04-04T08:42:19Z</time></trkpt><trkpt lat="45.00513112941259" lon="7.373245000115798"><ele>791.0</ele><time>2026-04-04T08:42:22Z</time></trkpt><trkpt lat="45.00509145140475" lon="7.3731544735409145"><ele>793.1666666666667</ele><time>2026-04-04T08:42:24Z</time></trkpt><trkpt lat="45.00508905546968" lon="7.37300196462429"><ele>795.3333333333334</ele><time>2026-04-04T08:42:26Z</time></trkpt><trkpt lat="45.00508979033933" lon="7.372891875017709"><ele>797.5</ele><time>2026-04-04T08:42:28Z</time></trkpt><trkpt lat="45.00505553129451" lon="7.372774125038111"><ele>799.6666666666667</ele><time>2026-04-04T08:42:30Z</time></trkpt><trkpt lat="45.005063297527336" lon="7.372652753697548"><ele>801.8333333333334</ele><time>2026-04-04T08:42:32Z</time></trkpt><trkpt lat="45.005091276550026" lon="7.372562644227045"><ele>804.0</ele><time>2026-04-04T08:42:35Z</time></trkpt><trkpt lat="45.00512697850874" lon="7.37248156552891"><ele>804.0</ele><time>2026-04-04T08:42:37Z</time></trkpt><trkpt lat="45.0051909245214" lon="7.372392357889292"><ele>804.0</ele><time>2026-04-04T08:42:50Z</time></trkpt><trkpt lat="45.00522445395107" lon="7.37227263487158"><ele>804.0</ele><time>2026-04-04T08:42:54Z</time></trkpt><trkpt lat="45.005233874601615" lon="7.372173148384191"><ele>804.0</ele><time>2026-04-04T08:42:58Z</time></trkpt><trkpt lat="45.005275355322354" lon="7.372093462967242"><ele>804.0</ele><time>2026-04-04T08:43:01Z</time></trkpt><trkpt lat="45.00534957788995" lon="7.37205343545949"><ele>804.0</ele><time>2026-04-04T08:43:04Z</time></trkpt><trkpt lat="45.005376935406105" lon="7.37196436089458"><ele>803.0</ele><time>2026-04-04T08:43:07.999Z</time></trkpt><trkpt lat="45.005446128365406" lon="7.371902989979132"><ele>802.0</ele><time>2026-04-04T08:43:10.999Z</time></trkpt><trkpt lat="45.00549387741901" lon="7.371822395003083"><ele>801.0</ele><time>2026-04-04T08:43:14.999Z</time></trkpt><trkpt lat="45.00554121103303" lon="7.371762755846276"><ele>800.0</ele><time>2026-04-04T08:43:17.999Z</time></trkpt><trkpt lat="45.005575731527045" lon="7.371678272162155"><ele>799.0</ele><time>2026-04-04T08:43:20.999Z</time></trkpt><trkpt lat="45.00563883617824" lon="7.371622959673674"><ele>798.0</ele><time>2026-04-04T08:43:23.999Z</time></trkpt><trkpt lat="45.005687678778294" lon="7.371547301290714"><ele>797.0</ele><time>2026-04-04T08:43:26.999Z</time></trkpt><trkpt lat="45.00571421906913" lon="7.371441006004892"><ele>799.0000000000001</ele><time>2026-04-04T08:43:30.999Z</time></trkpt><trkpt lat="45.005774410334176" lon="7.371355429483034"><ele>801.0</ele><time>2026-04-04T08:43:34.999Z</time></trkpt><trkpt lat="45.005820747331775" lon="7.371283620343287"><ele>803.0</ele><time>2026-04-04T08:43:37.999Z</time></trkpt><trkpt lat="45.005876393567796" lon="7.3712039172248245"><ele>805.0</ele><time>2026-04-04T08:43:39.999Z</time></trkpt><trkpt lat="45.00594867662457" lon="7.3710897197055285"><ele>807.0000000000001</ele><time>2026-04-04T08:43:41.999Z</time></trkpt><trkpt lat="45.00598896102169" lon="7.370984298376941"><ele>809.0</ele><time>2026-04-04T08:43:44Z</time></trkpt><trkpt lat="45.006025970908034" lon="7.37090146231498"><ele>809.0000000000001</ele><time>2026-04-04T08:47:38Z</time></trkpt><trkpt lat="45.006106668389066" lon="7.370840060856541"><ele>809.0</ele><time>2026-04-04T08:47:45Z</time></trkpt><trkpt lat="45.00616600578086" lon="7.370790137936202"><ele>809.0</ele><time>2026-04-04T08:47:47Z</time></trkpt><trkpt lat="45.00619462904576" lon="7.370689349357177"><ele>809.0</ele><time>2026-04-04T08:47:49Z</time></trkpt><trkpt lat="45.00621919526037" lon="7.370605255136518"><ele>809.0000000000001</ele><time>2026-04-04T08:47:51Z</time></trkpt><trkpt lat="45.00624418665498" lon="7.370496228293835"><ele>809.0</ele><time>2026-04-04T08:47:54Z</time></trkpt><trkpt lat="45.00623942706333" lon="7.370351929733314"><ele>806.0000000000001</ele><time>2026-04-04T08:47:57Z</time></trkpt><trkpt lat="45.006228260328484" lon="7.370236481342804"><ele>803.0</ele><time>2026-04-04T08:47:59Z</time></trkpt><trkpt lat="45.00621282131154" lon="7.370111509496288"><ele>800.0</ele><time>2026-04-04T08:48:01Z</time></trkpt><trkpt lat="45.00624436133828" lon="7.370029115891917"><ele>797.0</ele><time>2026-04-04T08:48:03Z</time></trkpt><trkpt lat="45.006269851650025" lon="7.369900722426359"><ele>794.0000000000001</ele><time>2026-04-04T08:48:05Z</time></trkpt><trkpt lat="45.00627045510687" lon="7.3698074293568325"><ele>791.0</ele><time>2026-04-04T08:48:08Z</time></trkpt><trkpt lat="45.006290620218856" lon="7.36971796430187"><ele>787.0000000000001</ele><time>2026-04-04T08:48:12Z</time></trkpt><trkpt lat="45.00629339372109" lon="7.369596561851311"><ele>783.0</ele><time>2026-04-04T08:48:15Z</time></trkpt><trkpt lat="45.00636790001205" lon="7.369481896274657"><ele>779.0</ele><time>2026-04-04T08:48:17Z</time></trkpt><trkpt lat="45.006428657822156" lon="7.369410652129825"><ele>775.0</ele><time>2026-04-04T08:48:19Z</time></trkpt><trkpt lat="45.00647675388485" lon="7.3693464759045995"><ele>771.0</ele><time>2026-04-04T08:48:24Z</time></trkpt><trkpt lat="45.00653986220604" lon="7.36929789302015"><ele>767.0</ele><time>2026-04-04T08:48:27Z</time></trkpt><trkpt lat="45.006577036669725" lon="7.369214455261645"><ele>767.0</ele><time>2026-04-04T08:48:30Z</time></trkpt><trkpt lat="45.00663911295716" lon="7.369172377921424"><ele>767.0</ele><time>2026-04-04T08:48:32Z</time></trkpt><trkpt lat="45.00671827952078" lon="7.3690901128799595"><ele>767.0</ele><time>2026-04-04T08:48:34Z</time></trkpt><trkpt lat="45.00679954230886" lon="7.369012467181885"><ele>767.0</ele><time>2026-04-04T08:48:36Z</time></trkpt><trkpt lat="45.00683756335083" lon="7.3689370559552865"><ele>767.0</ele><time>2026-04-04T08:48:38Z</time></trkpt><trkpt lat="45.00689472507855" lon="7.368869627559226"><ele>767.0</ele><time>2026-04-04T08:48:40Z</time></trkpt><trkpt lat="45.006959485181284" lon="7.368823630666183"><ele>767.1666666666666</ele><time>2026-04-04T08:48:42Z</time></trkpt><trkpt lat="45.0070113290754" lon="7.3687269894394385"><ele>767.3333333333333</ele><time>2026-04-04T08:48:44Z</time></trkpt><trkpt lat="45.00708837496143" lon="7.36858563199376"><ele>767.5</ele><time>2026-04-04T08:48:46Z</time></trkpt><trkpt lat="45.00713935900602" lon="7.368488949697253"><ele>767.6666666666666</ele><time>2026-04-04T08:48:48Z</time></trkpt><trkpt lat="45.007111054982325" lon="7.368408676388927"><ele>767.8333333333334</ele><time>2026-04-04T08:48:50Z</time></trkpt><trkpt lat="45.0070611041715" lon="7.368332625578079"><ele>768.0</ele><time>2026-04-04T08:48:52Z</time></trkpt><trkpt lat="45.007023776781345" lon="7.3682376482521015"><ele>768.0</ele><time>2026-04-04T08:48:55Z</time></trkpt><trkpt lat="45.00704058274474" lon="7.368144758631057"><ele>768.0</ele><time>2026-04-04T08:48:57Z</time></trkpt><trkpt lat="45.00704125705762" lon="7.368041213844201"><ele>768.0</ele><time>2026-04-04T08:48:59Z</time></trkpt><trkpt lat="45.007096641258194" lon="7.3679110190588055"><ele>768.0</ele><time>2026-04-04T08:49:01Z</time></trkpt><trkpt lat="45.00714417910973" lon="7.36781162615253"><ele>768.0</ele><time>2026-04-04T08:49:03Z</time></trkpt><trkpt lat="45.007164652946955" lon="7.367648311232814"><ele>765.1666666666666</ele><time>2026-04-04T08:49:05Z</time></trkpt><trkpt lat="45.0071908469314" lon="7.367540536449698"><ele>762.3333333333334</ele><time>2026-04-04T08:49:07Z</time></trkpt><trkpt lat="45.00716326053367" lon="7.367457595148169"><ele>759.5</ele><time>2026-04-04T08:49:10Z</time></trkpt><trkpt lat="45.007122292339254" lon="7.367382774237629"><ele>756.6666666666667</ele><time>2026-04-04T08:49:13Z</time></trkpt><trkpt lat="45.00712260406628" lon="7.3672367185995355"><ele>753.8333333333334</ele><time>2026-04-04T08:49:15Z</time></trkpt><trkpt lat="45.00713842393997" lon="7.367126518253862"><ele>751.0</ele><time>2026-04-04T08:49:17Z</time></trkpt><trkpt lat="45.00713210525752" lon="7.366986128712832"><ele>747.8</ele><time>2026-04-04T08:49:20Z</time></trkpt><trkpt lat="45.007068726333124" lon="7.366889695772717"><ele>744.5999999999999</ele><time>2026-04-04T08:49:22Z</time></trkpt><trkpt lat="45.00703359454234" lon="7.36676681449565"><ele>741.4</ele><time>2026-04-04T08:49:24Z</time></trkpt><trkpt lat="45.00706404920053" lon="7.366599865875908"><ele>738.2</ele><time>2026-04-04T08:49:26Z</time></trkpt><trkpt lat="45.007038717146465" lon="7.366465521492808"><ele>735.0</ele><time>2026-04-04T08:49:27Z</time></trkpt><trkpt lat="45.00705040164408" lon="7.366374165233079"><ele>732.8333333333334</ele><time>2026-04-04T08:49:28Z</time></trkpt><trkpt lat="45.00707410931055" lon="7.3662811133224695"><ele>730.6666666666666</ele><time>2026-04-04T08:49:29Z</time></trkpt><trkpt lat="45.00715743452383" lon="7.366127443949713"><ele>728.5</ele><time>2026-04-04T08:49:31Z</time></trkpt><trkpt lat="45.00720360736129" lon="7.3660601041583575"><ele>726.3333333333333</ele><time>2026-04-04T08:49:32Z</time></trkpt><trkpt lat="45.00725599993183" lon="7.366002414144493"><ele>724.1666666666666</ele><time>2026-04-04T08:49:33Z</time></trkpt><trkpt lat="45.00731393589395" lon="7.365907347478298"><ele>722.0</ele><time>2026-04-04T08:49:35Z</time></trkpt><trkpt lat="45.00726883926887" lon="7.365835501059009"><ele>722.0</ele><time>2026-04-04T08:49:46.999Z</time></trkpt><trkpt lat="45.0072251907497" lon="7.365743743101898"><ele>722.0</ele><time>2026-04-04T08:49:48.999Z</time></trkpt><trkpt lat="45.00715418176653" lon="7.365680753228389"><ele>722.0</ele><time>2026-04-04T08:49:50.999Z</time></trkpt><trkpt lat="45.00715273793312" lon="7.365589533651954"><ele>722.0</ele><time>2026-04-04T08:49:52.999Z</time></trkpt><trkpt lat="45.00715387884406" lon="7.365479436553074"><ele>722.0</ele><time>2026-04-04T08:49:55.999Z</time></trkpt><trkpt lat="45.00717987276551" lon="7.365367463569508"><ele>722.0</ele><time>2026-04-04T08:50:13.999Z</time></trkpt><trkpt lat="45.007243031895" lon="7.365318921499988"><ele>723.0</ele><time>2026-04-04T08:50:18.999Z</time></trkpt><trkpt lat="45.007310863924204" lon="7.365219263451383"><ele>724.0</ele><time>2026-04-04T08:50:21.999Z</time></trkpt><trkpt lat="45.00737285490936" lon="7.365161798541535"><ele>725.0</ele><time>2026-04-04T08:50:23.999Z</time></trkpt><trkpt lat="45.00744372070866" lon="7.365115450346801"><ele>726.0</ele><time>2026-04-04T08:50:25.999Z</time></trkpt><trkpt lat="45.00746737447124" lon="7.3649639178598605"><ele>727.0</ele><time>2026-04-04T08:50:27.999Z</time></trkpt><trkpt lat="45.00749626878636" lon="7.364871415930104"><ele>728.0</ele><time>2026-04-04T08:50:28.999Z</time></trkpt><trkpt lat="45.00754704795681" lon="7.364773882735157"><ele>722.75</ele><time>2026-04-04T08:50:30.999Z</time></trkpt><trkpt lat="45.0076435868483" lon="7.3645096095620115"><ele>717.5</ele><time>2026-04-04T08:50:34.999Z</time></trkpt><trkpt lat="45.00772214216009" lon="7.36437931339652"><ele>712.25</ele><time>2026-04-04T08:50:36.999Z</time></trkpt><trkpt lat="45.00774816411815" lon="7.364280019534379"><ele>707.0</ele><time>2026-04-04T08:50:37.999Z</time></trkpt><trkpt lat="45.007771933492336" lon="7.364194211092749"><ele>707.0</ele><time>2026-04-04T08:50:38.999Z</time></trkpt><trkpt lat="45.00777229262099" lon="7.364053742259392"><ele>707.0</ele><time>2026-04-04T08:50:40.999Z</time></trkpt><trkpt lat="45.007760407701426" lon="7.3639584181283535"><ele>707.0</ele><time>2026-04-04T08:50:42.999Z</time></trkpt><trkpt lat="45.00776470798046" lon="7.363841531574698"><ele>707.0</ele><time>2026-04-04T08:50:44.999Z</time></trkpt><trkpt lat="45.00782309978674" lon="7.363686683106699"><ele>707.0</ele><time>2026-04-04T08:50:46.999Z</time></trkpt><trkpt lat="45.00789789027592" lon="7.3635834581939275"><ele>702.6</ele><time>2026-04-04T08:50:48.999Z</time></trkpt><trkpt lat="45.007973048695014" lon="7.363474366859212"><ele>698.2</ele><time>2026-04-04T08:50:50.999Z</time></trkpt><trkpt lat="45.00800365642669" lon="7.363324275156796"><ele>693.8</ele><time>2026-04-04T08:50:52.999Z</time></trkpt><trkpt lat="45.00802511611022" lon="7.363238459437841"><ele>689.4</ele><time>2026-04-04T08:50:53.999Z</time></trkpt><trkpt lat="45.008062302595725" lon="7.363076851731798"><ele>685.0</ele><time>2026-04-04T08:50:55.999Z</time></trkpt><trkpt lat="45.00808387541784" lon="7.362972261933676"><ele>684.5</ele><time>2026-04-04T08:50:57.999Z</time></trkpt><trkpt lat="45.00807600240359" lon="7.362877356275832"><ele>684.0</ele><time>2026-04-04T08:50:59.999Z</time></trkpt><trkpt lat="45.008120088664946" lon="7.362793290927168"><ele>683.5</ele><time>2026-04-04T08:51:01.999Z</time></trkpt><trkpt lat="45.008215581801686" lon="7.362726812067113"><ele>683.0</ele><time>2026-04-04T08:51:03.999Z</time></trkpt><trkpt lat="45.008278777587385" lon="7.3626636270398516"><ele>682.5</ele><time>2026-04-04T08:51:06.999Z</time></trkpt><trkpt lat="45.00833874380153" lon="7.362620852138268"><ele>682.0</ele><time>2026-04-04T08:51:10.999Z</time></trkpt><trkpt lat="45.00839619699968" lon="7.362553498800753"><ele>682.0</ele><time>2026-04-04T08:51:13.999Z</time></trkpt><trkpt lat="45.00835395802265" lon="7.362455628150748"><ele>682.0</ele><time>2026-04-04T08:51:17.999Z</time></trkpt><trkpt lat="45.00829106857065" lon="7.362446836375234"><ele>682.0</ele><time>2026-04-04T08:51:19.999Z</time></trkpt><trkpt lat="45.00822113625656" lon="7.362404263012917"><ele>682.0</ele><time>2026-04-04T08:51:21.999Z</time></trkpt><trkpt lat="45.00815417676788" lon="7.362363337967923"><ele>682.0</ele><time>2026-04-04T08:51:24Z</time></trkpt><trkpt lat="45.00808311747826" lon="7.362345968073027"><ele>682.0</ele><time>2026-04-04T08:51:26Z</time></trkpt><trkpt lat="45.007981402039576" lon="7.362290985785206"><ele>679.2</ele><time>2026-04-04T08:51:28Z</time></trkpt><trkpt lat="45.00788507803652" lon="7.362298933368356"><ele>676.4000000000001</ele><time>2026-04-04T08:51:30Z</time></trkpt><trkpt lat="45.00776448958059" lon="7.362339002261851"><ele>673.5999999999999</ele><time>2026-04-04T08:51:33Z</time></trkpt><trkpt lat="45.00765253312695" lon="7.362374487077937"><ele>670.8</ele><time>2026-04-04T08:51:35Z</time></trkpt><trkpt lat="45.007656494331556" lon="7.362261565890779"><ele>668.0</ele><time>2026-04-04T08:51:38Z</time></trkpt><trkpt lat="45.00758892042725" lon="7.362196037896176"><ele>665.3333333333333</ele><time>2026-04-04T08:51:42Z</time></trkpt><trkpt lat="45.00752577156461" lon="7.362150712877081"><ele>662.6666666666666</ele><time>2026-04-04T08:51:44Z</time></trkpt><trkpt lat="45.00743766402846" lon="7.362104464106398"><ele>660.0</ele><time>2026-04-04T08:51:46Z</time></trkpt><trkpt lat="45.00738466714798" lon="7.361988610817825"><ele>657.3333333333334</ele><time>2026-04-04T08:51:48Z</time></trkpt><trkpt lat="45.007376167891124" lon="7.3618448053073555"><ele>654.6666666666667</ele><time>2026-04-04T08:51:50Z</time></trkpt><trkpt lat="45.0073602841627" lon="7.361735159081099"><ele>652.0</ele><time>2026-04-04T08:51:52Z</time></trkpt><trkpt lat="45.00736998925533" lon="7.361609879977185"><ele>647.2</ele><time>2026-04-04T08:51:55Z</time></trkpt><trkpt lat="45.00737299366365" lon="7.361476096479291"><ele>642.4000000000001</ele><time>2026-04-04T08:51:58Z</time></trkpt><trkpt lat="45.00733234659727" lon="7.361366235637012"><ele>637.5999999999999</ele><time>2026-04-04T08:52:00Z</time></trkpt><trkpt lat="45.00731387620061" lon="7.361224114072547"><ele>632.8</ele><time>2026-04-04T08:52:02Z</time></trkpt><trkpt lat="45.007336858311064" lon="7.361115359533178"><ele>628.0</ele><time>2026-04-04T08:52:04Z</time></trkpt><trkpt lat="45.00734452180386" lon="7.360951500404325"><ele>627.1666666666667</ele><time>2026-04-04T08:52:06Z</time></trkpt><trkpt lat="45.00734402707577" lon="7.360857484101728"><ele>626.3333333333334</ele><time>2026-04-04T08:52:07Z</time></trkpt><trkpt lat="45.0073613006122" lon="7.360703872966309"><ele>625.5</ele><time>2026-04-04T08:52:09Z</time></trkpt><trkpt lat="45.007379783221" lon="7.360566491539601"><ele>624.6666666666666</ele><time>2026-04-04T08:52:11Z</time></trkpt><trkpt lat="45.00742702752946" lon="7.360497512666828"><ele>623.8333333333333</ele><time>2026-04-04T08:52:13Z</time></trkpt><trkpt lat="45.007468925154406" lon="7.360415863763067"><ele>623.0</ele><time>2026-04-04T08:52:15Z</time></trkpt><trkpt lat="45.0075334028889" lon="7.36037973738315"><ele>624.8333333333333</ele><time>2026-04-04T08:52:18Z</time></trkpt><trkpt lat="45.00759757539867" lon="7.360365463439657"><ele>626.6666666666666</ele><time>2026-04-04T08:52:32Z</time></trkpt><trkpt lat="45.00760896802485" lon="7.36046069429639"><ele>628.5</ele><time>2026-04-04T08:52:34Z</time></trkpt><trkpt lat="45.00765921295241" lon="7.360589669531202"><ele>630.3333333333334</ele><time>2026-04-04T08:52:36Z</time></trkpt><trkpt lat="45.00773641645138" lon="7.3607178299398415"><ele>632.1666666666667</ele><time>2026-04-04T08:52:38Z</time></trkpt><trkpt lat="45.007786264074" lon="7.360774656822183"><ele>634.0</ele><time>2026-04-04T08:52:39Z</time></trkpt><trkpt lat="45.00789272741195" lon="7.360837758702445"><ele>634.2857142857143</ele><time>2026-04-04T08:52:41Z</time></trkpt><trkpt lat="45.00797547850566" lon="7.360899266869867"><ele>634.5714285714286</ele><time>2026-04-04T08:52:43Z</time></trkpt><trkpt lat="45.008028931339815" lon="7.360949630045667"><ele>634.8571428571429</ele><time>2026-04-04T08:52:45Z</time></trkpt><trkpt lat="45.0080831593849" lon="7.361004122900886"><ele>635.1428571428571</ele><time>2026-04-04T08:52:47Z</time></trkpt><trkpt lat="45.008135628554946" lon="7.361069648370432"><ele>635.4285714285714</ele><time>2026-04-04T08:52:50Z</time></trkpt><trkpt lat="45.008202981135675" lon="7.361120692675072"><ele>635.7142857142857</ele><time>2026-04-04T08:52:53Z</time></trkpt><trkpt lat="45.00826681742516" lon="7.361177501630279"><ele>636.0</ele><time>2026-04-04T08:52:55Z</time></trkpt><trkpt lat="45.00836174460369" lon="7.3612486907587344"><ele>636.0</ele><time>2026-04-04T08:52:57Z</time></trkpt><trkpt lat="45.00844644753817" lon="7.361359263393983"><ele>636.0</ele><time>2026-04-04T08:52:59Z</time></trkpt><trkpt lat="45.00854432392168" lon="7.3614304498167895"><ele>636.0</ele><time>2026-04-04T08:53:01Z</time></trkpt><trkpt lat="45.00864978407325" lon="7.361473554321539"><ele>636.0</ele><time>2026-04-04T08:53:03Z</time></trkpt><trkpt lat="45.00872989377051" lon="7.361504929730091"><ele>636.0</ele><time>2026-04-04T08:53:05Z</time></trkpt><trkpt lat="45.00881833958863" lon="7.361545536281802"><ele>637.5</ele><time>2026-04-04T08:53:08Z</time></trkpt><trkpt lat="45.00888073486464" lon="7.3615804532334925"><ele>639.0</ele><time>2026-04-04T08:53:10Z</time></trkpt><trkpt lat="45.00895295079311" lon="7.361614448578017"><ele>640.5</ele><time>2026-04-04T08:53:12Z</time></trkpt><trkpt lat="45.009031097480275" lon="7.361610165003311"><ele>642.0</ele><time>2026-04-04T08:53:14Z</time></trkpt><trkpt lat="45.009125681472455" lon="7.361654282963982"><ele>643.5</ele><time>2026-04-04T08:53:17Z</time></trkpt><trkpt lat="45.00920201259681" lon="7.361703541494379"><ele>645.0</ele><time>2026-04-04T08:53:19Z</time></trkpt><trkpt lat="45.009298537784765" lon="7.3617803898341245"><ele>645.0</ele><time>2026-04-04T08:53:21Z</time></trkpt><trkpt lat="45.009393450841756" lon="7.361848278548191"><ele>645.0</ele><time>2026-04-04T08:53:23Z</time></trkpt><trkpt lat="45.009490650258165" lon="7.3618759493704236"><ele>645.0</ele><time>2026-04-04T08:53:25Z</time></trkpt><trkpt lat="45.0096028959978" lon="7.361908817280398"><ele>645.0</ele><time>2026-04-04T08:53:27Z</time></trkpt><trkpt lat="45.009698570821065" lon="7.361967198737304"><ele>645.0</ele><time>2026-04-04T08:53:29Z</time></trkpt><trkpt lat="45.009783721450766" lon="7.3620435304313645"><ele>645.0</ele><time>2026-04-04T08:53:31Z</time></trkpt><trkpt lat="45.00984892158085" lon="7.362091293674824"><ele>645.0</ele><time>2026-04-04T08:53:32Z</time></trkpt><trkpt lat="45.009918307030574" lon="7.3621324341993"><ele>645.0</ele><time>2026-04-04T08:53:33Z</time></trkpt><trkpt lat="45.009983979837585" lon="7.362142818455751"><ele>645.0</ele><time>2026-04-04T08:53:34Z</time></trkpt><trkpt lat="45.01004864178799" lon="7.3621264591389295"><ele>645.0</ele><time>2026-04-04T08:53:35Z</time></trkpt><trkpt lat="45.01012190525996" lon="7.362185693539199"><ele>645.0</ele><time>2026-04-04T08:53:37Z</time></trkpt><trkpt lat="45.010157360407035" lon="7.362288701549174"><ele>645.0</ele><time>2026-04-04T08:53:39Z</time></trkpt><trkpt lat="45.01013582631525" lon="7.362384913574168"><ele>647.0</ele><time>2026-04-04T08:53:41Z</time></trkpt><trkpt lat="45.01010979909628" lon="7.362513624758994"><ele>649.0</ele><time>2026-04-04T08:53:43Z</time></trkpt><trkpt lat="45.01010077867725" lon="7.3626769204499"><ele>651.0</ele><time>2026-04-04T08:53:45Z</time></trkpt><trkpt lat="45.01011162204115" lon="7.362844129901967"><ele>653.0</ele><time>2026-04-04T08:53:47Z</time></trkpt><trkpt lat="45.01011892400614" lon="7.362942224959349"><ele>655.0</ele><time>2026-04-04T08:53:48Z</time></trkpt><trkpt lat="45.01013325187368" lon="7.36303491384132"><ele>657.1666666666667</ele><time>2026-04-04T08:53:49Z</time></trkpt><trkpt lat="45.0101577011815" lon="7.363124460699711"><ele>659.3333333333334</ele><time>2026-04-04T08:53:50Z</time></trkpt><trkpt lat="45.01019091121567" lon="7.3632058517327685"><ele>661.5</ele><time>2026-04-04T08:53:51Z</time></trkpt><trkpt lat="45.010229304904556" lon="7.363277149859729"><ele>663.6666666666666</ele><time>2026-04-04T08:53:52Z</time></trkpt><trkpt lat="45.01032458266787" lon="7.363377478630068"><ele>665.8333333333333</ele><time>2026-04-04T08:53:54Z</time></trkpt><trkpt lat="45.01036409961335" lon="7.363449642808236"><ele>668.0</ele><time>2026-04-04T08:53:55Z</time></trkpt><trkpt lat="45.01039993782453" lon="7.3635405283796"><ele>668.0</ele><time>2026-04-04T08:53:56Z</time></trkpt><trkpt lat="45.01043830965696" lon="7.363621011384457"><ele>668.0</ele><time>2026-04-04T08:53:57Z</time></trkpt><trkpt lat="45.01048038629365" lon="7.363708956591559"><ele>668.0</ele><time>2026-04-04T08:53:58Z</time></trkpt><trkpt lat="45.0105210918284" lon="7.363789236112027"><ele>668.0</ele><time>2026-04-04T08:53:59Z</time></trkpt><trkpt lat="45.01056781511656" lon="7.363886502009762"><ele>668.0</ele><time>2026-04-04T08:54:00Z</time></trkpt><trkpt lat="45.01062226293383" lon="7.363982315561455"><ele>668.0</ele><time>2026-04-04T08:54:01Z</time></trkpt><trkpt lat="45.010669517644224" lon="7.364074260569017"><ele>666.5714285714286</ele><time>2026-04-04T08:54:02Z</time></trkpt><trkpt lat="45.0107027945393" lon="7.364158106182596"><ele>665.1428571428571</ele><time>2026-04-04T08:54:03Z</time></trkpt><trkpt lat="45.010745401529135" lon="7.364241131627232"><ele>663.7142857142858</ele><time>2026-04-04T08:54:04Z</time></trkpt><trkpt lat="45.010788351967825" lon="7.364328713735006"><ele>662.2857142857142</ele><time>2026-04-04T08:54:05Z</time></trkpt><trkpt lat="45.010841025275035" lon="7.364414138052501"><ele>660.8571428571429</ele><time>2026-04-04T08:54:06Z</time></trkpt><trkpt lat="45.010904484429155" lon="7.36445287343332"><ele>659.4285714285714</ele><time>2026-04-04T08:54:07Z</time></trkpt><trkpt lat="45.01096886051811" lon="7.364504090706548"><ele>658.0</ele><time>2026-04-04T08:54:08Z</time></trkpt><trkpt lat="45.0110789048275" lon="7.364594259507418"><ele>658.0</ele><time>2026-04-04T08:54:10Z</time></trkpt><trkpt lat="45.011150905163355" lon="7.3646843251852205"><ele>658.0</ele><time>2026-04-04T08:54:12Z</time></trkpt><trkpt lat="45.01122258664268" lon="7.364763743892927"><ele>658.0</ele><time>2026-04-04T08:54:14Z</time></trkpt><trkpt lat="45.01125226424239" lon="7.364850169432432"><ele>658.0</ele><time>2026-04-04T08:54:24Z</time></trkpt><trkpt lat="45.01123222765341" lon="7.364935615818281"><ele>658.0</ele><time>2026-04-04T08:54:26Z</time></trkpt><trkpt lat="45.011179797832945" lon="7.365011899321437"><ele>658.0</ele><time>2026-04-04T08:54:28Z</time></trkpt><trkpt lat="45.011140068741724" lon="7.365120424398013"><ele>657.5999999999999</ele><time>2026-04-04T08:54:34Z</time></trkpt><trkpt lat="45.01111067041525" lon="7.365215847310723"><ele>657.1999999999999</ele><time>2026-04-04T08:54:36Z</time></trkpt><trkpt lat="45.01107457082578" lon="7.365319087468944"><ele>656.8</ele><time>2026-04-04T08:54:38Z</time></trkpt><trkpt lat="45.01101584104103" lon="7.365414066799376"><ele>656.4</ele><time>2026-04-04T08:54:40Z</time></trkpt><trkpt lat="45.01093040252612" lon="7.365524400733464"><ele>656.0</ele><time>2026-04-04T08:54:42Z</time></trkpt><trkpt lat="45.01086114637961" lon="7.365642328654525"><ele>656.0</ele><time>2026-04-04T08:54:44Z</time></trkpt><trkpt lat="45.01081719089279" lon="7.365765657297899"><ele>656.0</ele><time>2026-04-04T08:54:46Z</time></trkpt><trkpt lat="45.01081667089657" lon="7.365873178248776"><ele>656.0</ele><time>2026-04-04T08:54:48Z</time></trkpt><trkpt lat="45.010842243785845" lon="7.365979622537056"><ele>656.0</ele><time>2026-04-04T08:54:50Z</time></trkpt><trkpt lat="45.01087898935985" lon="7.366062210664717"><ele>656.0</ele><time>2026-04-04T08:54:52Z</time></trkpt><trkpt lat="45.01090048100323" lon="7.366147356488242"><ele>656.0</ele><time>2026-04-04T08:54:54Z</time></trkpt><trkpt lat="45.01096882798142" lon="7.366188347368"><ele>656.0</ele><time>2026-04-04T08:54:56Z</time></trkpt><trkpt lat="45.01103899600748" lon="7.366242634584795"><ele>656.0</ele><time>2026-04-04T08:54:58Z</time></trkpt><trkpt lat="45.01104928777352" lon="7.366357228056772"><ele>656.0</ele><time>2026-04-04T08:55:01Z</time></trkpt><trkpt lat="45.01112177728166" lon="7.366359887534109"><ele>656.0</ele><time>2026-04-04T08:55:29Z</time></trkpt><trkpt lat="45.011174061357856" lon="7.36624001052735"><ele>656.0</ele><time>2026-04-04T08:55:32Z</time></trkpt><trkpt lat="45.01122098626619" lon="7.366110673241082"><ele>656.0</ele><time>2026-04-04T08:55:34Z</time></trkpt><trkpt lat="45.01125843728372" lon="7.3660254190423675"><ele>656.0</ele><time>2026-04-04T08:55:36Z</time></trkpt><trkpt lat="45.011290517067124" lon="7.365942520820557"><ele>656.0</ele><time>2026-04-04T08:55:38Z</time></trkpt><trkpt lat="45.011371202103135" lon="7.36594648990409"><ele>656.0</ele><time>2026-04-04T08:55:41Z</time></trkpt><trkpt lat="45.011404967069694" lon="7.36603218444069"><ele>656.0</ele><time>2026-04-04T08:55:43Z</time></trkpt><trkpt lat="45.01147906039896" lon="7.366131361274041"><ele>656.0</ele><time>2026-04-04T08:55:45Z</time></trkpt><trkpt lat="45.01153885212393" lon="7.366223152441333"><ele>656.0</ele><time>2026-04-04T08:55:47Z</time></trkpt><trkpt lat="45.0115753365964" lon="7.366329021985236"><ele>653.1428571428571</ele><time>2026-04-04T08:55:49.001Z</time></trkpt><trkpt lat="45.011589560681976" lon="7.3664236635969385"><ele>650.2857142857142</ele><time>2026-04-04T08:55:51.001Z</time></trkpt><trkpt lat="45.01164199766939" lon="7.366483206555393"><ele>647.4285714285713</ele><time>2026-04-04T08:56:10.001Z</time></trkpt><trkpt lat="45.0117056043513" lon="7.366421839398011"><ele>644.5714285714286</ele><time>2026-04-04T08:56:14.001Z</time></trkpt><trkpt lat="45.011750253387106" lon="7.366323587363991"><ele>641.7142857142858</ele><time>2026-04-04T08:56:16.001Z</time></trkpt><trkpt lat="45.011792754030274" lon="7.3662511970706674"><ele>638.8571428571428</ele><time>2026-04-04T08:56:18.001Z</time></trkpt><trkpt lat="45.01185178200234" lon="7.366208680892862"><ele>636.0</ele><time>2026-04-04T08:56:20.001Z</time></trkpt><trkpt lat="45.011903026573776" lon="7.366116412163695"><ele>634.8</ele><time>2026-04-04T08:56:22Z</time></trkpt><trkpt lat="45.01194527205942" lon="7.366015282039135"><ele>633.6</ele><time>2026-04-04T08:56:25Z</time></trkpt><trkpt lat="45.01199409853635" lon="7.365911665022409"><ele>632.4</ele><time>2026-04-04T08:56:31Z</time></trkpt><trkpt lat="45.01203135712852" lon="7.365780177535448"><ele>631.2</ele><time>2026-04-04T08:56:33Z</time></trkpt><trkpt lat="45.01209182372506" lon="7.365681495936418"><ele>630.0</ele><time>2026-04-04T08:56:35Z</time></trkpt><trkpt lat="45.012166167856755" lon="7.365606532138806"><ele>630.0</ele><time>2026-04-04T08:56:37Z</time></trkpt><trkpt lat="45.01223187624056" lon="7.365530183688255"><ele>630.0</ele><time>2026-04-04T08:56:39Z</time></trkpt><trkpt lat="45.01231814138197" lon="7.365487409726713"><ele>630.0</ele><time>2026-04-04T08:56:41Z</time></trkpt><trkpt lat="45.01240127500273" lon="7.365485378318337"><ele>630.0</ele><time>2026-04-04T08:56:43Z</time></trkpt><trkpt lat="45.01246931661821" lon="7.365444225752157"><ele>630.0</ele><time>2026-04-04T08:59:55Z</time></trkpt><trkpt lat="45.01234376573924" lon="7.365478536481836"><ele>630.0</ele><time>2026-04-04T09:00:11Z</time></trkpt><trkpt lat="45.01227589242379" lon="7.365515297438577"><ele>630.0</ele><time>2026-04-04T09:00:12Z</time></trkpt><trkpt lat="45.01221745172702" lon="7.365548642711458"><ele>630.0</ele><time>2026-04-04T09:00:13Z</time></trkpt><trkpt lat="45.0121517211297" lon="7.365622081546545"><ele>630.0</ele><time>2026-04-04T09:00:14Z</time></trkpt><trkpt lat="45.01209379336533" lon="7.365695411723195"><ele>630.0</ele><time>2026-04-04T09:00:15Z</time></trkpt><trkpt lat="45.012042610078545" lon="7.365778021686864"><ele>630.0</ele><time>2026-04-04T09:00:16Z</time></trkpt><trkpt lat="45.01198706570906" lon="7.365897900291075"><ele>630.0</ele><time>2026-04-04T09:00:18Z</time></trkpt><trkpt lat="45.011971005344776" lon="7.366044099793565"><ele>630.0</ele><time>2026-04-04T09:00:20Z</time></trkpt><trkpt lat="45.012007212579626" lon="7.366129706333009"><ele>630.0</ele><time>2026-04-04T09:00:23Z</time></trkpt><trkpt lat="45.01206260110389" lon="7.366179152512084"><ele>630.0</ele><time>2026-04-04T09:00:27Z</time></trkpt><trkpt lat="45.01213088924652" lon="7.366169904325405"><ele>630.0</ele><time>2026-04-04T09:00:30Z</time></trkpt><trkpt lat="45.012193950626724" lon="7.3662442082703965"><ele>630.0</ele><time>2026-04-04T09:00:33Z</time></trkpt><trkpt lat="45.0123642101272" lon="7.3665483594103165"><ele>626.8</ele><time>2026-04-04T09:00:37Z</time></trkpt><trkpt lat="45.0123818225191" lon="7.366713873730739"><ele>623.6</ele><time>2026-04-04T09:00:39Z</time></trkpt><trkpt lat="45.012374712303526" lon="7.366836883740177"><ele>620.4</ele><time>2026-04-04T09:00:41Z</time></trkpt><trkpt lat="45.012438516261724" lon="7.366806147226275"><ele>617.2</ele><time>2026-04-04T09:00:44Z</time></trkpt><trkpt lat="45.01252379841972" lon="7.366744213903816"><ele>614.0</ele><time>2026-04-04T09:00:46Z</time></trkpt><trkpt lat="45.012619156866435" lon="7.366684678315537"><ele>609.0</ele><time>2026-04-04T09:00:48Z</time></trkpt><trkpt lat="45.01270346748183" lon="7.366639387163591"><ele>604.0</ele><time>2026-04-04T09:00:50Z</time></trkpt><trkpt lat="45.01278505064331" lon="7.366590855919818"><ele>599.0</ele><time>2026-04-04T09:00:52Z</time></trkpt><trkpt lat="45.012811572949445" lon="7.36649774730601"><ele>594.0</ele><time>2026-04-04T09:01:18Z</time></trkpt><trkpt lat="45.012865763956896" lon="7.366420772166058"><ele>589.0</ele><time>2026-04-04T09:01:45Z</time></trkpt><trkpt lat="45.0129302242783" lon="7.366483606871216"><ele>584.0</ele><time>2026-04-04T09:02:05Z</time></trkpt><trkpt lat="45.01294315146543" lon="7.366573311560542"><ele>584.0</ele><time>2026-04-04T09:02:09.001Z</time></trkpt><trkpt lat="45.012951046043476" lon="7.366665344729535"><ele>584.0</ele><time>2026-04-04T09:02:21Z</time></trkpt><trkpt lat="45.01300697346068" lon="7.366790732094791"><ele>584.0</ele><time>2026-04-04T09:02:24Z</time></trkpt><trkpt lat="45.01303704258118" lon="7.366883507560287"><ele>584.0</ele><time>2026-04-04T09:02:26Z</time></trkpt><trkpt lat="45.0130711455141" lon="7.36701406468587"><ele>584.0</ele><time>2026-04-04T09:02:29Z</time></trkpt><trkpt lat="45.01307497659936" lon="7.367150185660821"><ele>584.0</ele><time>2026-04-04T09:02:31Z</time></trkpt><trkpt lat="45.01302544659298" lon="7.36726425801989"><ele>582.0</ele><time>2026-04-04T09:02:33Z</time></trkpt><trkpt lat="45.01300538397367" lon="7.36737750389918"><ele>580.0</ele><time>2026-04-04T09:02:35Z</time></trkpt><trkpt lat="45.0130232637924" lon="7.367501398122851"><ele>578.0</ele><time>2026-04-04T09:02:37Z</time></trkpt><trkpt lat="45.01305377935562" lon="7.3676044898385"><ele>576.0</ele><time>2026-04-04T09:02:39Z</time></trkpt><trkpt lat="45.013139357120046" lon="7.36763404780607"><ele>574.0</ele><time>2026-04-04T09:02:41Z</time></trkpt><trkpt lat="45.01325864429478" lon="7.3676314378907355"><ele>569.2</ele><time>2026-04-04T09:02:43Z</time></trkpt><trkpt lat="45.013335833284415" lon="7.367630120186328"><ele>564.4</ele><time>2026-04-04T09:02:45Z</time></trkpt><trkpt lat="45.013439790196855" lon="7.367651450570134"><ele>559.6</ele><time>2026-04-04T09:02:47Z</time></trkpt><trkpt lat="45.01354002056082" lon="7.367695200978275"><ele>554.8</ele><time>2026-04-04T09:02:49Z</time></trkpt><trkpt lat="45.013578619150934" lon="7.3677693390652115"><ele>550.0</ele><time>2026-04-04T09:02:50Z</time></trkpt><trkpt lat="45.013672987369574" lon="7.367861089131741"><ele>550.0</ele><time>2026-04-04T09:02:52Z</time></trkpt><trkpt lat="45.013770725262226" lon="7.367919010272002"><ele>550.0</ele><time>2026-04-04T09:02:54Z</time></trkpt><trkpt lat="45.01386503714715" lon="7.367985440302841"><ele>550.0</ele><time>2026-04-04T09:02:56Z</time></trkpt><trkpt lat="45.01396968324237" lon="7.3680172951031295"><ele>550.0</ele><time>2026-04-04T09:02:57.999Z</time></trkpt><trkpt lat="45.014051536685955" lon="7.3680585272972925"><ele>550.0</ele><time>2026-04-04T09:02:59.999Z</time></trkpt><trkpt lat="45.01409326998099" lon="7.368133077930444"><ele>550.0</ele><time>2026-04-04T09:03:01.999Z</time></trkpt><trkpt lat="45.014138735030286" lon="7.3682271633441925"><ele>550.0</ele><time>2026-04-04T09:03:03.999Z</time></trkpt><trkpt lat="45.0141576554198" lon="7.36833452408319"><ele>550.0</ele><time>2026-04-04T09:03:05.999Z</time></trkpt><trkpt lat="45.01419155087033" lon="7.368482471292355"><ele>550.0</ele><time>2026-04-04T09:03:07.999Z</time></trkpt><trkpt lat="45.01422940769925" lon="7.368606686440329"><ele>550.0</ele><time>2026-04-04T09:03:09.999Z</time></trkpt><trkpt lat="45.01425213203897" lon="7.368745556892127"><ele>550.4</ele><time>2026-04-04T09:03:11.999Z</time></trkpt><trkpt lat="45.01426580240689" lon="7.36889130179437"><ele>550.8</ele><time>2026-04-04T09:03:13.999Z</time></trkpt><trkpt lat="45.01426199294229" lon="7.3690265453986905"><ele>551.2</ele><time>2026-04-04T09:03:15.999Z</time></trkpt><trkpt lat="45.01422816769178" lon="7.3691617893104"><ele>551.6</ele><time>2026-04-04T09:03:17.999Z</time></trkpt><trkpt lat="45.01418261338338" lon="7.369317408669777"><ele>552.0</ele><time>2026-04-04T09:03:19.999Z</time></trkpt><trkpt lat="45.01415006519658" lon="7.369394578595333"><ele>552.0</ele><time>2026-04-04T09:03:20.999Z</time></trkpt><trkpt lat="45.01411862072479" lon="7.369478014299939"><ele>552.0</ele><time>2026-04-04T09:03:21.999Z</time></trkpt><trkpt lat="45.014085703910084" lon="7.369579340063064"><ele>552.0</ele><time>2026-04-04T09:03:22.999Z</time></trkpt><trkpt lat="45.01404050377903" lon="7.369679330708277"><ele>552.0</ele><time>2026-04-04T09:03:23.999Z</time></trkpt><trkpt lat="45.01399841200427" lon="7.369778320190183"><ele>552.0</ele><time>2026-04-04T09:03:24.999Z</time></trkpt><trkpt lat="45.01397954872988" lon="7.369873632684469"><ele>552.0</ele><time>2026-04-04T09:03:25.999Z</time></trkpt><trkpt lat="45.01395892471254" lon="7.3700261517587435"><ele>550.0</ele><time>2026-04-04T09:03:27.999Z</time></trkpt><trkpt lat="45.01391555867967" lon="7.370165189744882"><ele>548.0</ele><time>2026-04-04T09:03:29.999Z</time></trkpt><trkpt lat="45.01388427095928" lon="7.370284468867134"><ele>546.0</ele><time>2026-04-04T09:03:31.999Z</time></trkpt><trkpt lat="45.01386540127215" lon="7.370379706241224"><ele>544.0</ele><time>2026-04-04T09:03:34.999Z</time></trkpt><trkpt lat="45.01380607279004" lon="7.370417518164245"><ele>542.0</ele><time>2026-04-04T09:04:22Z</time></trkpt><trkpt lat="45.013728595100126" lon="7.37038989266938"><ele>540.0</ele><time>2026-04-04T09:04:24Z</time></trkpt><trkpt lat="45.01362539338138" lon="7.370322275153269"><ele>540.0</ele><time>2026-04-04T09:04:26Z</time></trkpt><trkpt lat="45.013545347714015" lon="7.370294602037348"><ele>540.0</ele><time>2026-04-04T09:04:27Z</time></trkpt><trkpt lat="45.01343332135178" lon="7.37026911213583"><ele>540.0</ele><time>2026-04-04T09:04:29Z</time></trkpt><trkpt lat="45.013379023451364" lon="7.37021328012336"><ele>540.0</ele><time>2026-04-04T09:04:30Z</time></trkpt><trkpt lat="45.01334813893056" lon="7.370097154193262"><ele>540.0</ele><time>2026-04-04T09:04:32Z</time></trkpt><trkpt lat="45.01328533972178" lon="7.370090038057793"><ele>540.0</ele><time>2026-04-04T09:04:34Z</time></trkpt><trkpt lat="45.01321651782424" lon="7.3700529883108326"><ele>540.0</ele><time>2026-04-04T09:04:37Z</time></trkpt><trkpt lat="45.01328197996772" lon="7.370051723793829"><ele>540.0</ele><time>2026-04-04T09:05:07Z</time></trkpt><trkpt lat="45.013358304899725" lon="7.370054287959451"><ele>540.0</ele><time>2026-04-04T09:05:12Z</time></trkpt><trkpt lat="45.01342888708263" lon="7.369990665497943"><ele>540.0</ele><time>2026-04-04T09:05:15Z</time></trkpt><trkpt lat="45.01348234114745" lon="7.369932946513665"><ele>540.0</ele><time>2026-04-04T09:05:17Z</time></trkpt><trkpt lat="45.01356296665064" lon="7.369847776648778"><ele>540.0</ele><time>2026-04-04T09:05:19Z</time></trkpt><trkpt lat="45.01357607289265" lon="7.369738104184448"><ele>542.4</ele><time>2026-04-04T09:05:21Z</time></trkpt><trkpt lat="45.01353795572179" lon="7.3696308501819825"><ele>544.8</ele><time>2026-04-04T09:05:23Z</time></trkpt><trkpt lat="45.01344276518394" lon="7.369553758868225"><ele>547.2</ele><time>2026-04-04T09:05:25Z</time></trkpt><trkpt lat="45.01336627544875" lon="7.369465916609738"><ele>549.6</ele><time>2026-04-04T09:05:27Z</time></trkpt><trkpt lat="45.01328068302183" lon="7.369411186389046"><ele>552.0</ele><time>2026-04-04T09:05:29Z</time></trkpt><trkpt lat="45.01319060800901" lon="7.369363431796124"><ele>554.0</ele><time>2026-04-04T09:05:31Z</time></trkpt><trkpt lat="45.01313332363868" lon="7.3693016775635325"><ele>556.0</ele><time>2026-04-04T09:05:32Z</time></trkpt><trkpt lat="45.013076316826506" lon="7.3692561237037415"><ele>558.0</ele><time>2026-04-04T09:05:33Z</time></trkpt><trkpt lat="45.01301903267712" lon="7.369206044931649"><ele>560.0</ele><time>2026-04-04T09:05:35Z</time></trkpt><trkpt lat="45.01295845289451" lon="7.36912420474185"><ele>562.0</ele><time>2026-04-04T09:05:38Z</time></trkpt><trkpt lat="45.012890892064604" lon="7.369103613009931"><ele>564.0</ele><time>2026-04-04T09:05:50Z</time></trkpt><trkpt lat="45.01285491305812" lon="7.369001817815785"><ele>566.0</ele><time>2026-04-04T09:05:55Z</time></trkpt><trkpt lat="45.01277655841067" lon="7.368965353613361"><ele>567.5</ele><time>2026-04-04T09:05:58Z</time></trkpt><trkpt lat="45.01258461824099" lon="7.368832898066831"><ele>569.0</ele><time>2026-04-04T09:06:00Z</time></trkpt><trkpt lat="45.012518305448715" lon="7.368806680693857"><ele>570.5</ele><time>2026-04-04T09:06:01Z</time></trkpt><trkpt lat="45.01242560222821" lon="7.368752567073676"><ele>572.0</ele><time>2026-04-04T09:06:03Z</time></trkpt><trkpt lat="45.01233871929543" lon="7.36870353260282"><ele>575.0</ele><time>2026-04-04T09:06:05Z</time></trkpt><trkpt lat="45.0122688460591" lon="7.368680807328863"><ele>578.0</ele><time>2026-04-04T09:06:06Z</time></trkpt><trkpt lat="45.01218762180763" lon="7.3686778465142835"><ele>581.0</ele><time>2026-04-04T09:06:07Z</time></trkpt><trkpt lat="45.01210112767483" lon="7.368691942531804"><ele>584.0</ele><time>2026-04-04T09:06:08Z</time></trkpt><trkpt lat="45.01202896157163" lon="7.368703497059859"><ele>587.0</ele><time>2026-04-04T09:06:09Z</time></trkpt><trkpt lat="45.011945293414556" lon="7.3686440760755145"><ele>590.0</ele><time>2026-04-04T09:06:11Z</time></trkpt><trkpt lat="45.011889402456035" lon="7.368578511647594"><ele>590.0</ele><time>2026-04-04T09:06:13Z</time></trkpt><trkpt lat="45.01182159512924" lon="7.368524549765947"><ele>590.0</ele><time>2026-04-04T09:06:15Z</time></trkpt><trkpt lat="45.01174285491958" lon="7.368433219731552"><ele>590.0</ele><time>2026-04-04T09:06:17Z</time></trkpt><trkpt lat="45.01164702313454" lon="7.368369394681174"><ele>590.0</ele><time>2026-04-04T09:06:19Z</time></trkpt><trkpt lat="45.011568378021515" lon="7.368269882294203"><ele>590.0</ele><time>2026-04-04T09:06:21Z</time></trkpt><trkpt lat="45.01152845078505" lon="7.3681859894119786"><ele>593.75</ele><time>2026-04-04T09:06:22Z</time></trkpt><trkpt lat="45.01146491650403" lon="7.368055397693488"><ele>597.5</ele><time>2026-04-04T09:06:24Z</time></trkpt><trkpt lat="45.01140688721436" lon="7.3679292450230776"><ele>601.25</ele><time>2026-04-04T09:06:26Z</time></trkpt><trkpt lat="45.01131847522806" lon="7.367804514224186"><ele>605.0</ele><time>2026-04-04T09:06:28Z</time></trkpt><trkpt lat="45.01124912752781" lon="7.367680045039498"><ele>607.2857142857142</ele><time>2026-04-04T09:06:30Z</time></trkpt><trkpt lat="45.01118551539245" lon="7.367595299332287"><ele>609.5714285714286</ele><time>2026-04-04T09:06:32Z</time></trkpt><trkpt lat="45.01109102331142" lon="7.367561064817227"><ele>611.8571428571429</ele><time>2026-04-04T09:06:41Z</time></trkpt><trkpt lat="45.01107818931722" lon="7.367472196120758"><ele>614.1428571428571</ele><time>2026-04-04T09:06:43Z</time></trkpt><trkpt lat="45.01104263514339" lon="7.367394782089954"><ele>616.4285714285714</ele><time>2026-04-04T09:06:47Z</time></trkpt><trkpt lat="45.01097650495115" lon="7.36737548766826"><ele>618.7142857142857</ele><time>2026-04-04T09:06:50Z</time></trkpt><trkpt lat="45.01092142227576" lon="7.3673289674839895"><ele>621.0</ele><time>2026-04-04T09:07:43Z</time></trkpt><trkpt lat="45.01087688914489" lon="7.367262696820544"><ele>623.5</ele><time>2026-04-04T09:07:46Z</time></trkpt><trkpt lat="45.010861397189366" lon="7.367128824257969"><ele>626.0</ele><time>2026-04-04T09:07:50Z</time></trkpt><trkpt lat="45.01089756026045" lon="7.3670490294964805"><ele>628.5</ele><time>2026-04-04T09:07:53Z</time></trkpt><trkpt lat="45.01093592370038" lon="7.36696623282182"><ele>631.0</ele><time>2026-04-04T09:07:56Z</time></trkpt><trkpt lat="45.01092517287959" lon="7.366868494120777"><ele>633.5</ele><time>2026-04-04T09:07:59Z</time></trkpt><trkpt lat="45.010975882892915" lon="7.3667800041164835"><ele>636.0</ele><time>2026-04-04T09:08:02Z</time></trkpt><trkpt lat="45.01101686551004" lon="7.366668129992116"><ele>636.0</ele><time>2026-04-04T09:08:04Z</time></trkpt><trkpt lat="45.01104399362511" lon="7.366544210759177"><ele>636.0</ele><time>2026-04-04T09:08:06Z</time></trkpt><trkpt lat="45.01102454626255" lon="7.366437787063487"><ele>636.0</ele><time>2026-04-04T09:08:08Z</time></trkpt><trkpt lat="45.01102174858411" lon="7.3663399391917155"><ele>636.0</ele><time>2026-04-04T09:08:17Z</time></trkpt><trkpt lat="45.01100478068334" lon="7.366208015177914"><ele>636.0</ele><time>2026-04-04T09:08:20Z</time></trkpt><trkpt lat="45.01093482495405" lon="7.3661327486963435"><ele>636.0</ele><time>2026-04-04T09:08:22Z</time></trkpt><trkpt lat="45.01084487574387" lon="7.366085804825462"><ele>639.3333333333334</ele><time>2026-04-04T09:08:24Z</time></trkpt><trkpt lat="45.010829661145046" lon="7.365949482518363"><ele>642.6666666666666</ele><time>2026-04-04T09:08:26Z</time></trkpt><trkpt lat="45.01080204964908" lon="7.365848679344873"><ele>646.0</ele><time>2026-04-04T09:08:28Z</time></trkpt><trkpt lat="45.01081964816577" lon="7.365751998869773"><ele>649.3333333333333</ele><time>2026-04-04T09:08:31Z</time></trkpt><trkpt lat="45.01085893554409" lon="7.365680864633422"><ele>652.6666666666666</ele><time>2026-04-04T09:08:33Z</time></trkpt><trkpt lat="45.01090725508896" lon="7.36560212270786"><ele>656.0</ele><time>2026-04-04T09:08:35Z</time></trkpt><trkpt lat="45.01095338494966" lon="7.3655029723114005"><ele>658.0</ele><time>2026-04-04T09:08:36Z</time></trkpt><trkpt lat="45.01099910802122" lon="7.3654148180713355"><ele>660.0</ele><time>2026-04-04T09:08:37Z</time></trkpt><trkpt lat="45.01103092984338" lon="7.365297410718967"><ele>662.0</ele><time>2026-04-04T09:08:39Z</time></trkpt><trkpt lat="45.01104774627831" lon="7.365168704632704"><ele>664.0</ele><time>2026-04-04T09:08:41Z</time></trkpt><trkpt lat="45.011108584539286" lon="7.365092463972333"><ele>666.0</ele><time>2026-04-04T09:08:43Z</time></trkpt><trkpt lat="45.01113734067447" lon="7.3649986122593125"><ele>668.0</ele><time>2026-04-04T09:08:44Z</time></trkpt><trkpt lat="45.01116017785868" lon="7.364747933860616"><ele>666.3333333333333</ele><time>2026-04-04T09:08:46Z</time></trkpt><trkpt lat="45.011101574673255" lon="7.3646711375308005"><ele>664.6666666666666</ele><time>2026-04-04T09:08:48Z</time></trkpt><trkpt lat="45.01104677347492" lon="7.364618999729855"><ele>663.0</ele><time>2026-04-04T09:08:49Z</time></trkpt><trkpt lat="45.01099737477778" lon="7.364558431808722"><ele>661.3333333333334</ele><time>2026-04-04T09:08:50Z</time></trkpt><trkpt lat="45.010936366971876" lon="7.364487071439101"><ele>659.6666666666667</ele><time>2026-04-04T09:08:51Z</time></trkpt><trkpt lat="45.01087944309595" lon="7.36442510580407"><ele>658.0</ele><time>2026-04-04T09:08:52Z</time></trkpt><trkpt lat="45.0107606505157" lon="7.364330514617486"><ele>659.6666666666667</ele><time>2026-04-04T09:08:54Z</time></trkpt><trkpt lat="45.01070216445681" lon="7.364277630832563"><ele>661.3333333333334</ele><time>2026-04-04T09:08:55Z</time></trkpt><trkpt lat="45.01065751696085" lon="7.364112111865636"><ele>663.0</ele><time>2026-04-04T09:08:57Z</time></trkpt><trkpt lat="45.01061455095811" lon="7.364030464638312"><ele>664.6666666666666</ele><time>2026-04-04T09:08:58Z</time></trkpt><trkpt lat="45.010571760848" lon="7.363942349225293"><ele>666.3333333333333</ele><time>2026-04-04T09:08:59Z</time></trkpt><trkpt lat="45.01053049033337" lon="7.363850683157829"><ele>668.0</ele><time>2026-04-04T09:09:00Z</time></trkpt><trkpt lat="45.01048725159564" lon="7.363748934582535"><ele>668.0</ele><time>2026-04-04T09:09:01Z</time></trkpt><trkpt lat="45.010443963654716" lon="7.3636444071584375"><ele>668.0</ele><time>2026-04-04T09:09:02Z</time></trkpt><trkpt lat="45.01041587967943" lon="7.363562815572415"><ele>668.0</ele><time>2026-04-04T09:09:03Z</time></trkpt><trkpt lat="45.01036413264239" lon="7.363496356200119"><ele>668.0</ele><time>2026-04-04T09:09:04Z</time></trkpt><trkpt lat="45.01032307072484" lon="7.3634242552771045"><ele>668.0</ele><time>2026-04-04T09:09:05Z</time></trkpt><trkpt lat="45.010296880421926" lon="7.363326497789166"><ele>668.0</ele><time>2026-04-04T09:09:06Z</time></trkpt><trkpt lat="45.01023920995073" lon="7.363271351624023"><ele>668.0</ele><time>2026-04-04T09:09:07Z</time></trkpt><trkpt lat="45.01013678991662" lon="7.363136334153201"><ele>665.4</ele><time>2026-04-04T09:09:09Z</time></trkpt><trkpt lat="45.01009896053891" lon="7.36302190405909"><ele>662.8</ele><time>2026-04-04T09:09:10Z</time></trkpt><trkpt lat="45.01007070542648" lon="7.362877331276123"><ele>660.2</ele><time>2026-04-04T09:09:11Z</time></trkpt><trkpt lat="45.010080150258055" lon="7.362719984172165"><ele>657.6</ele><time>2026-04-04T09:09:12Z</time></trkpt><trkpt lat="45.01007941244813" lon="7.362563451861371"><ele>655.0</ele><time>2026-04-04T09:09:13Z</time></trkpt><trkpt lat="45.01009515141696" lon="7.3624753865987875"><ele>655.0</ele><time>2026-04-04T09:09:14Z</time></trkpt><trkpt lat="45.01012291242232" lon="7.362383357512378"><ele>655.0</ele><time>2026-04-04T09:09:15Z</time></trkpt><trkpt lat="45.01012678724224" lon="7.362294259083722"><ele>655.0</ele><time>2026-04-04T09:09:16Z</time></trkpt><trkpt lat="45.010107384832985" lon="7.362151441676256"><ele>655.0</ele><time>2026-04-04T09:09:18Z</time></trkpt><trkpt lat="45.00998908825735" lon="7.362119546717532"><ele>655.0</ele><time>2026-04-04T09:09:20Z</time></trkpt><trkpt lat="45.00989604720677" lon="7.362129533482987"><ele>653.3333333333334</ele><time>2026-04-04T09:09:21Z</time></trkpt><trkpt lat="45.009816747014796" lon="7.3621165340277885"><ele>651.6666666666667</ele><time>2026-04-04T09:09:22Z</time></trkpt><trkpt lat="45.00973712414903" lon="7.362045320141848"><ele>650.0</ele><time>2026-04-04T09:09:23Z</time></trkpt><trkpt lat="45.00965363980912" lon="7.361994958645742"><ele>648.3333333333334</ele><time>2026-04-04T09:09:24Z</time></trkpt><trkpt lat="45.00958060516988" lon="7.361947464863607"><ele>646.6666666666666</ele><time>2026-04-04T09:09:25Z</time></trkpt><trkpt lat="45.00950261190385" lon="7.361917757090012"><ele>645.0</ele><time>2026-04-04T09:09:26Z</time></trkpt><trkpt lat="45.009407917565895" lon="7.361895218772894"><ele>645.0</ele><time>2026-04-04T09:09:27Z</time></trkpt><trkpt lat="45.00933813205496" lon="7.36187278371588"><ele>645.0</ele><time>2026-04-04T09:09:28Z</time></trkpt><trkpt lat="45.00926111448217" lon="7.361815469168883"><ele>645.0</ele><time>2026-04-04T09:09:29Z</time></trkpt><trkpt lat="45.00918995993064" lon="7.361740048479225"><ele>645.0</ele><time>2026-04-04T09:09:30Z</time></trkpt><trkpt lat="45.00911613950392" lon="7.361684594577396"><ele>645.0</ele><time>2026-04-04T09:09:31Z</time></trkpt><trkpt lat="45.00903719079505" lon="7.36166143390513"><ele>645.0</ele><time>2026-04-04T09:09:32Z</time></trkpt><trkpt lat="45.008917932856036" lon="7.361644381178825"><ele>647.4</ele><time>2026-04-04T09:09:34Z</time></trkpt><trkpt lat="45.008782180024234" lon="7.361623007417694"><ele>649.8</ele><time>2026-04-04T09:09:35.999Z</time></trkpt><trkpt lat="45.00872108784367" lon="7.361593841029259"><ele>652.2</ele><time>2026-04-04T09:09:36.999Z</time></trkpt><trkpt lat="45.00864610192808" lon="7.361547971076894"><ele>654.6</ele><time>2026-04-04T09:09:37.999Z</time></trkpt><trkpt lat="45.00856593976905" lon="7.3615205524163345"><ele>657.0</ele><time>2026-04-04T09:09:38.999Z</time></trkpt><trkpt lat="45.00848419496544" lon="7.36148694515699"><ele>657.0</ele><time>2026-04-04T09:09:39.999Z</time></trkpt><trkpt lat="45.00842116265157" lon="7.361430052936595"><ele>657.0</ele><time>2026-04-04T09:09:40.999Z</time></trkpt><trkpt lat="45.008352265111526" lon="7.361366136053508"><ele>657.0</ele><time>2026-04-04T09:09:41.999Z</time></trkpt><trkpt lat="45.00830055433447" lon="7.361313831030789"><ele>657.0</ele><time>2026-04-04T09:09:42.999Z</time></trkpt><trkpt lat="45.008214026316566" lon="7.3611994375449195"><ele>657.0</ele><time>2026-04-04T09:09:44.999Z</time></trkpt><trkpt lat="45.008115974770945" lon="7.361087477588502"><ele>654.0</ele><time>2026-04-04T09:09:46.999Z</time></trkpt><trkpt lat="45.00806528095262" lon="7.361032867224347"><ele>651.0</ele><time>2026-04-04T09:09:47.999Z</time></trkpt><trkpt lat="45.00797596043265" lon="7.360939538501122"><ele>648.0</ele><time>2026-04-04T09:09:49.999Z</time></trkpt><trkpt lat="45.007879054833325" lon="7.360874225641234"><ele>645.0</ele><time>2026-04-04T09:09:51.999Z</time></trkpt><trkpt lat="45.007806717297726" lon="7.360801709129118"><ele>642.0</ele><time>2026-04-04T09:09:53.999Z</time></trkpt><trkpt lat="45.00772140700358" lon="7.360714423477212"><ele>642.0</ele><time>2026-04-04T09:09:55.999Z</time></trkpt><trkpt lat="45.00763973065277" lon="7.360587210492267"><ele>642.0</ele><time>2026-04-04T09:09:57.999Z</time></trkpt><trkpt lat="45.00758812643859" lon="7.360460139715435"><ele>642.0</ele><time>2026-04-04T09:09:59.999Z</time></trkpt><trkpt lat="45.00755776786493" lon="7.3603375876300134"><ele>642.0</ele><time>2026-04-04T09:10:01.999Z</time></trkpt><trkpt lat="45.00760964888124" lon="7.360235940231298"><ele>642.0</ele><time>2026-04-04T09:10:03.999Z</time></trkpt><trkpt lat="45.00771156385897" lon="7.360196303834064"><ele>640.6666666666666</ele><time>2026-04-04T09:10:05.999Z</time></trkpt><trkpt lat="45.0077994014532" lon="7.360196090790507"><ele>639.3333333333334</ele><time>2026-04-04T09:10:07.999Z</time></trkpt><trkpt lat="45.00786835708357" lon="7.360259012275175"><ele>638.0</ele><time>2026-04-04T09:10:09.999Z</time></trkpt><trkpt lat="45.007920808308484" lon="7.360328400175636"><ele>636.6666666666667</ele><time>2026-04-04T09:10:11.999Z</time></trkpt><trkpt lat="45.00802102145291" lon="7.360342147461901"><ele>635.3333333333334</ele><time>2026-04-04T09:10:14.999Z</time></trkpt><trkpt lat="45.008090726019496" lon="7.360308486041166"><ele>634.0</ele><time>2026-04-04T09:10:16.999Z</time></trkpt><trkpt lat="45.00809525480015" lon="7.360183082181446"><ele>634.0</ele><time>2026-04-04T09:10:18.999Z</time></trkpt><trkpt lat="45.0080537144522" lon="7.360091280098812"><ele>634.0</ele><time>2026-04-04T09:10:20.999Z</time></trkpt><trkpt lat="45.00802040765019" lon="7.359969421227929"><ele>634.0</ele><time>2026-04-04T09:10:22.999Z</time></trkpt><trkpt lat="45.007990809259695" lon="7.359844265725657"><ele>634.0</ele><time>2026-04-04T09:10:24.999Z</time></trkpt><trkpt lat="45.00796274122018" lon="7.359710445526534"><ele>634.0</ele><time>2026-04-04T09:10:26.999Z</time></trkpt><trkpt lat="45.00792723506248" lon="7.359560759286865"><ele>631.6666666666667</ele><time>2026-04-04T09:10:28.999Z</time></trkpt><trkpt lat="45.00789815858088" lon="7.359418093066124"><ele>629.3333333333334</ele><time>2026-04-04T09:10:31Z</time></trkpt><trkpt lat="45.00789065553153" lon="7.359325701310618"><ele>627.0</ele><time>2026-04-04T09:10:33Z</time></trkpt><trkpt lat="45.00785312747535" lon="7.359221200940666"><ele>624.6666666666666</ele><time>2026-04-04T09:10:35Z</time></trkpt><trkpt lat="45.00778164918992" lon="7.359127359905293"><ele>622.3333333333333</ele><time>2026-04-04T09:10:37Z</time></trkpt><trkpt lat="45.00770217346286" lon="7.359064050775721"><ele>620.0</ele><time>2026-04-04T09:10:39Z</time></trkpt><trkpt lat="45.00762636509784" lon="7.359035682865314"><ele>620.0</ele><time>2026-04-04T09:10:42Z</time></trkpt><trkpt lat="45.007673523097594" lon="7.358975015465578"><ele>620.0</ele><time>2026-04-04T09:10:45Z</time></trkpt><trkpt lat="45.007745565912174" lon="7.358972994378487"><ele>620.0</ele><time>2026-04-04T09:10:47Z</time></trkpt><trkpt lat="45.007827020906916" lon="7.358982628615145"><ele>620.0</ele><time>2026-04-04T09:10:49Z</time></trkpt><trkpt lat="45.00788616819705" lon="7.359017259566808"><ele>620.0</ele><time>2026-04-04T09:10:53Z</time></trkpt><trkpt lat="45.00792240679877" lon="7.359097625031183"><ele>620.0</ele><time>2026-04-04T09:10:55Z</time></trkpt><trkpt lat="45.00799830054457" lon="7.3591003834323"><ele>620.0</ele><time>2026-04-04T09:11:19Z</time></trkpt><trkpt lat="45.008067024936366" lon="7.359083434442784"><ele>620.0</ele><time>2026-04-04T09:11:22Z</time></trkpt><trkpt lat="45.00812438417584" lon="7.359021353337038"><ele>620.0</ele><time>2026-04-04T09:11:26Z</time></trkpt><trkpt lat="45.00811711388697" lon="7.358915292160666"><ele>620.0</ele><time>2026-04-04T09:11:30Z</time></trkpt><trkpt lat="45.008161095821215" lon="7.358845559331145"><ele>620.0</ele><time>2026-04-04T09:11:34Z</time></trkpt><trkpt lat="45.008220087047874" lon="7.358766463415785"><ele>620.0</ele><time>2026-04-04T09:11:42Z</time></trkpt><trkpt lat="45.008289929043364" lon="7.358702696673101"><ele>620.0</ele><time>2026-04-04T09:11:46Z</time></trkpt><trkpt lat="45.00834110107024" lon="7.3586469529439675"><ele>620.0</ele><time>2026-04-04T09:11:51Z</time></trkpt><trkpt lat="45.00835009154601" lon="7.358527399951087"><ele>620.0</ele><time>2026-04-04T09:12:37Z</time></trkpt><trkpt lat="45.00833301130045" lon="7.358441137540897"><ele>620.0</ele><time>2026-04-04T09:12:42Z</time></trkpt><trkpt lat="45.008274972970284" lon="7.358375970720708"><ele>620.0</ele><time>2026-04-04T09:12:45Z</time></trkpt><trkpt lat="45.008260707644155" lon="7.358283728380752"><ele>620.0</ele><time>2026-04-04T09:12:48Z</time></trkpt><trkpt lat="45.00828155026227" lon="7.358187887047467"><ele>620.0</ele><time>2026-04-04T09:12:52Z</time></trkpt><trkpt lat="45.00827412670483" lon="7.358054810478994"><ele>620.0</ele><time>2026-04-04T09:13:08Z</time></trkpt><trkpt lat="45.00832542140043" lon="7.358001395957332"><ele>620.0</ele><time>2026-04-04T09:13:15Z</time></trkpt><trkpt lat="45.00838894076204" lon="7.358083373763166"><ele>616.1428571428571</ele><time>2026-04-04T09:13:23Z</time></trkpt><trkpt lat="45.00845536664132" lon="7.358135993564597"><ele>612.2857142857142</ele><time>2026-04-04T09:13:25Z</time></trkpt><trkpt lat="45.00851600821637" lon="7.358103480053372"><ele>608.4285714285713</ele><time>2026-04-04T09:13:29Z</time></trkpt><trkpt lat="45.008577501664135" lon="7.358054740235162"><ele>604.5714285714286</ele><time>2026-04-04T09:13:33Z</time></trkpt><trkpt lat="45.00864801378872" lon="7.358075596255454"><ele>600.7142857142857</ele><time>2026-04-04T09:13:36Z</time></trkpt><trkpt lat="45.00873298530598" lon="7.358081921685598"><ele>596.8571428571428</ele><time>2026-04-04T09:13:41Z</time></trkpt><trkpt lat="45.00879400520188" lon="7.358107639795554"><ele>593.0</ele><time>2026-04-04T09:13:45Z</time></trkpt><trkpt lat="45.00886235148914" lon="7.358093425932578"><ele>592.9999999999999</ele><time>2026-04-04T09:13:50Z</time></trkpt><trkpt lat="45.00893187216363" lon="7.35808783191741"><ele>593.0</ele><time>2026-04-04T09:13:54Z</time></trkpt><trkpt lat="45.008993845137304" lon="7.358062803892755"><ele>593.0</ele><time>2026-04-04T09:13:58Z</time></trkpt><trkpt lat="45.00906828930824" lon="7.3580461227770035"><ele>593.0</ele><time>2026-04-04T09:14:30Z</time></trkpt><trkpt lat="45.00913188146806" lon="7.358032479536304"><ele>593.0</ele><time>2026-04-04T09:14:37Z</time></trkpt><trkpt lat="45.009200554651706" lon="7.358029466057716"><ele>592.9999999999999</ele><time>2026-04-04T09:14:43Z</time></trkpt><trkpt lat="45.00929105334896" lon="7.358027745499199"><ele>593.0</ele><time>2026-04-04T09:15:19Z</time></trkpt><trkpt lat="45.00936320875206" lon="7.35797454839262"><ele>590.5</ele><time>2026-04-04T09:15:48Z</time></trkpt><trkpt lat="45.00942994269064" lon="7.357977043377275"><ele>588.0</ele><time>2026-04-04T09:15:53Z</time></trkpt><trkpt lat="45.00945186704806" lon="7.357879868731831"><ele>585.5</ele><time>2026-04-04T09:15:59Z</time></trkpt><trkpt lat="45.00938187709981" lon="7.357811382954197"><ele>583.0</ele><time>2026-04-04T09:16:02Z</time></trkpt><trkpt lat="45.00942151825038" lon="7.357710471955352"><ele>580.5</ele><time>2026-04-04T09:16:10Z</time></trkpt><trkpt lat="45.00946052635785" lon="7.357640365057827"><ele>578.0</ele><time>2026-04-04T09:16:12.999Z</time></trkpt><trkpt lat="45.0095187644923" lon="7.357554940457774"><ele>578.0</ele><time>2026-04-04T09:16:25.999Z</time></trkpt><trkpt lat="45.00955670777701" lon="7.357470459909736"><ele>578.0</ele><time>2026-04-04T09:16:27.999Z</time></trkpt><trkpt lat="45.009548586384255" lon="7.357335141735312"><ele>578.0</ele><time>2026-04-04T09:16:30.999Z</time></trkpt><trkpt lat="45.00954226053361" lon="7.3572416510594225"><ele>578.0</ele><time>2026-04-04T09:16:32.999Z</time></trkpt><trkpt lat="45.009479991329265" lon="7.357262796409145"><ele>578.0</ele><time>2026-04-04T09:16:34.999Z</time></trkpt><trkpt lat="45.00939083035232" lon="7.3573179385532255"><ele>578.0</ele><time>2026-04-04T09:16:36.999Z</time></trkpt><trkpt lat="45.00932350397765" lon="7.357333528522504"><ele>578.0</ele><time>2026-04-04T09:16:38.999Z</time></trkpt><trkpt lat="45.00925354466535" lon="7.357301157764218"><ele>578.0</ele><time>2026-04-04T09:16:41.999Z</time></trkpt><trkpt lat="45.00926380396332" lon="7.3571875496283035"><ele>578.0</ele><time>2026-04-04T09:16:45.999Z</time></trkpt><trkpt lat="45.00925678660134" lon="7.357094031399805"><ele>578.0</ele><time>2026-04-04T09:17:32.999Z</time></trkpt><trkpt lat="45.009213251778036" lon="7.357018235686471"><ele>578.0</ele><time>2026-04-04T09:17:38.999Z</time></trkpt><trkpt lat="45.009160394748534" lon="7.356957950110439"><ele>578.0</ele><time>2026-04-04T09:17:48.999Z</time></trkpt><trkpt lat="45.009096265936215" lon="7.356910459734555"><ele>578.0</ele><time>2026-04-04T09:17:50.999Z</time></trkpt><trkpt lat="45.009023168717476" lon="7.356877292717274"><ele>582.0</ele><time>2026-04-04T09:17:52.999Z</time></trkpt><trkpt lat="45.00893118432055" lon="7.3568263338063815"><ele>586.0</ele><time>2026-04-04T09:17:54.999Z</time></trkpt><trkpt lat="45.00886259940522" lon="7.3567830994202215"><ele>590.0</ele><time>2026-04-04T09:17:55.999Z</time></trkpt><trkpt lat="45.008803614812145" lon="7.356742999691394"><ele>594.0</ele><time>2026-04-04T09:17:56.999Z</time></trkpt><trkpt lat="45.00871477595077" lon="7.356669950768857"><ele>598.0</ele><time>2026-04-04T09:17:58.999Z</time></trkpt><trkpt lat="45.008667816843584" lon="7.35656703388602"><ele>602.0</ele><time>2026-04-04T09:18:00.999Z</time></trkpt><trkpt lat="45.00860546406621" lon="7.356490754454246"><ele>602.0</ele><time>2026-04-04T09:18:02.999Z</time></trkpt><trkpt lat="45.00853012435888" lon="7.356417826426456"><ele>602.0</ele><time>2026-04-04T09:18:04.999Z</time></trkpt><trkpt lat="45.00855055440369" lon="7.356330695150147"><ele>602.0</ele><time>2026-04-04T09:18:07.999Z</time></trkpt><trkpt lat="45.008619279296944" lon="7.35630985852043"><ele>602.0</ele><time>2026-04-04T09:18:09.999Z</time></trkpt><trkpt lat="45.008679358509745" lon="7.3562703683158"><ele>602.0</ele><time>2026-04-04T09:18:10.999Z</time></trkpt><trkpt lat="45.00873319612752" lon="7.356206224479512"><ele>602.0</ele><time>2026-04-04T09:18:11.999Z</time></trkpt><trkpt lat="45.00876170520883" lon="7.356082728184933"><ele>604.1666666666666</ele><time>2026-04-04T09:18:13.999Z</time></trkpt><trkpt lat="45.008737414412096" lon="7.355994014641621"><ele>606.3333333333333</ele><time>2026-04-04T09:18:16.999Z</time></trkpt><trkpt lat="45.008697569591725" lon="7.355869583514466"><ele>608.5</ele><time>2026-04-04T09:18:18.999Z</time></trkpt><trkpt lat="45.00864053659097" lon="7.355822770506849"><ele>610.6666666666666</ele><time>2026-04-04T09:18:19.999Z</time></trkpt><trkpt lat="45.00858240632821" lon="7.35577554522218"><ele>612.8333333333334</ele><time>2026-04-04T09:18:20.999Z</time></trkpt><trkpt lat="45.00851919849029" lon="7.355702685744012"><ele>615.0</ele><time>2026-04-04T09:18:21.999Z</time></trkpt><trkpt lat="45.008464422804096" lon="7.355618328680715"><ele>614.4</ele><time>2026-04-04T09:18:22.999Z</time></trkpt><trkpt lat="45.00838820955074" lon="7.35551440573884"><ele>613.8</ele><time>2026-04-04T09:18:24.999Z</time></trkpt><trkpt lat="45.00828511109976" lon="7.355399246085211"><ele>613.2</ele><time>2026-04-04T09:18:26.999Z</time></trkpt><trkpt lat="45.00824625007295" lon="7.355320440475896"><ele>612.6</ele><time>2026-04-04T09:18:27.999Z</time></trkpt><trkpt lat="45.00819955084006" lon="7.35519411694524"><ele>612.0</ele><time>2026-04-04T09:18:29.999Z</time></trkpt><trkpt lat="45.008153482698646" lon="7.355056909851444"><ele>616.8333333333334</ele><time>2026-04-04T09:18:31.999Z</time></trkpt><trkpt lat="45.00810993485358" lon="7.354944370934187"><ele>621.6666666666666</ele><time>2026-04-04T09:18:33.999Z</time></trkpt><trkpt lat="45.0080626146659" lon="7.35485263069353"><ele>626.5</ele><time>2026-04-04T09:18:35.999Z</time></trkpt><trkpt lat="45.00798496008405" lon="7.354746529237668"><ele>631.3333333333333</ele><time>2026-04-04T09:18:37.999Z</time></trkpt><trkpt lat="45.00795227978748" lon="7.354666492901761"><ele>636.1666666666666</ele><time>2026-04-04T09:18:38.999Z</time></trkpt><trkpt lat="45.007941813709124" lon="7.354555190352114"><ele>641.0</ele><time>2026-04-04T09:18:40.999Z</time></trkpt><trkpt lat="45.007945930743766" lon="7.354464179162976"><ele>641.0</ele><time>2026-04-04T09:18:42.999Z</time></trkpt><trkpt lat="45.00792727203212" lon="7.354368113916246"><ele>641.0</ele><time>2026-04-04T09:18:44.999Z</time></trkpt><trkpt lat="45.00787817601746" lon="7.354261369061402"><ele>641.0</ele><time>2026-04-04T09:18:47.999Z</time></trkpt><trkpt lat="45.00784306417905" lon="7.354151607735916"><ele>641.0</ele><time>2026-04-04T09:18:49.999Z</time></trkpt><trkpt lat="45.007826276970796" lon="7.354044972824147"><ele>641.0</ele><time>2026-04-04T09:18:51.999Z</time></trkpt><trkpt lat="45.007809553873955" lon="7.353947147346502"><ele>641.0</ele><time>2026-04-04T09:18:53.999Z</time></trkpt><trkpt lat="45.00776336627859" lon="7.353845188006962"><ele>640.1666666666666</ele><time>2026-04-04T09:18:57Z</time></trkpt><trkpt lat="45.00773296064169" lon="7.353728616013425"><ele>639.3333333333333</ele><time>2026-04-04T09:19:42Z</time></trkpt><trkpt lat="45.00767290562815" lon="7.353774849354127"><ele>638.5</ele><time>2026-04-04T09:19:46Z</time></trkpt><trkpt lat="45.007626747285286" lon="7.353690088400768"><ele>637.6666666666666</ele><time>2026-04-04T09:19:50Z</time></trkpt><trkpt lat="45.00759484784103" lon="7.353591518363226"><ele>636.8333333333334</ele><time>2026-04-04T09:19:53Z</time></trkpt><trkpt lat="45.00752653341296" lon="7.353524685485925"><ele>636.0</ele><time>2026-04-04T09:19:56Z</time></trkpt><trkpt lat="45.00745678283986" lon="7.353478408420924"><ele>639.3333333333334</ele><time>2026-04-04T09:19:58Z</time></trkpt><trkpt lat="45.00741088455588" lon="7.3534139755100165"><ele>642.6666666666666</ele><time>2026-04-04T09:20:05Z</time></trkpt><trkpt lat="45.00738733730298" lon="7.353315638338033"><ele>646.0</ele><time>2026-04-04T09:20:17Z</time></trkpt><trkpt lat="45.007338613558474" lon="7.3532370112849925"><ele>649.3333333333333</ele><time>2026-04-04T09:20:19Z</time></trkpt><trkpt lat="45.00728880130523" lon="7.3531235067190375"><ele>652.6666666666666</ele><time>2026-04-04T09:20:21Z</time></trkpt><trkpt lat="45.00722879631889" lon="7.353041352411656"><ele>656.0</ele><time>2026-04-04T09:20:24Z</time></trkpt><trkpt lat="45.0071736895172" lon="7.35299785258495"><ele>656.0</ele><time>2026-04-04T09:20:28Z</time></trkpt><trkpt lat="45.007109897186446" lon="7.3529631022027475"><ele>656.0</ele><time>2026-04-04T09:22:08Z</time></trkpt><trkpt lat="45.00714814085586" lon="7.353067051648568"><ele>656.0</ele><time>2026-04-04T09:22:17Z</time></trkpt><trkpt lat="45.00721458656662" lon="7.35314079957811"><ele>656.0</ele><time>2026-04-04T09:23:29Z</time></trkpt><trkpt lat="45.00722806042083" lon="7.353248014572548"><ele>656.0</ele><time>2026-04-04T09:23:33Z</time></trkpt><trkpt lat="45.00723152555834" lon="7.353368689803598"><ele>656.0</ele><time>2026-04-04T09:23:38Z</time></trkpt><trkpt lat="45.007245741286326" lon="7.353474827057787"><ele>656.7142857142857</ele><time>2026-04-04T09:23:42Z</time></trkpt><trkpt lat="45.00728071021498" lon="7.353562826472423"><ele>657.4285714285714</ele><time>2026-04-04T09:23:53Z</time></trkpt><trkpt lat="45.00732748963671" lon="7.3536497508669"><ele>658.1428571428571</ele><time>2026-04-04T09:23:59Z</time></trkpt><trkpt lat="45.00736017993893" lon="7.353757315626151"><ele>658.8571428571429</ele><time>2026-04-04T09:24:03Z</time></trkpt><trkpt lat="45.007400983838494" lon="7.353843725727094"><ele>659.5714285714286</ele><time>2026-04-04T09:24:06Z</time></trkpt><trkpt lat="45.007409101044495" lon="7.353933818233671"><ele>660.2857142857142</ele><time>2026-04-04T09:24:08Z</time></trkpt><trkpt lat="45.00743423931183" lon="7.354020609586937"><ele>661.0</ele><time>2026-04-04T09:24:10Z</time></trkpt><trkpt lat="45.00747163752961" lon="7.354105374127258"><ele>661.0</ele><time>2026-04-04T09:24:12Z</time></trkpt><trkpt lat="45.00747171739264" lon="7.354203124520124"><ele>661.0</ele><time>2026-04-04T09:24:16Z</time></trkpt><trkpt lat="45.007467093592844" lon="7.354308442569712"><ele>661.0</ele><time>2026-04-04T09:25:29Z</time></trkpt><trkpt lat="45.00746160624172" lon="7.354405200012915"><ele>661.0</ele><time>2026-04-04T09:25:31Z</time></trkpt><trkpt lat="45.007471631185474" lon="7.354510385543219"><ele>661.0</ele><time>2026-04-04T09:25:36Z</time></trkpt><trkpt lat="45.00747737677888" lon="7.354631301438388"><ele>661.0</ele><time>2026-04-04T09:25:39Z</time></trkpt><trkpt lat="45.007485431577436" lon="7.354742600565932"><ele>661.0</ele><time>2026-04-04T09:25:43Z</time></trkpt><trkpt lat="45.00747339824099" lon="7.354853173808682"><ele>661.0</ele><time>2026-04-04T09:25:48Z</time></trkpt><trkpt lat="45.007466250301995" lon="7.354967356240102"><ele>661.0</ele><time>2026-04-04T09:25:50Z</time></trkpt><trkpt lat="45.007452701820796" lon="7.355069491783901"><ele>661.0</ele><time>2026-04-04T09:25:52Z</time></trkpt><trkpt lat="45.00742765832105" lon="7.355187338221587"><ele>661.0</ele><time>2026-04-04T09:25:55Z</time></trkpt><trkpt lat="45.007423885842556" lon="7.355282534858168"><ele>661.0</ele><time>2026-04-04T09:25:59Z</time></trkpt><trkpt lat="45.00747805365503" lon="7.3553420069002735"><ele>661.0</ele><time>2026-04-04T09:26:03Z</time></trkpt><trkpt lat="45.00739476158969" lon="7.355315261241348"><ele>661.0</ele><time>2026-04-04T09:26:09Z</time></trkpt><trkpt lat="45.00732476368045" lon="7.355348883360819"><ele>661.0</ele><time>2026-04-04T09:26:11Z</time></trkpt><trkpt lat="45.00722970914562" lon="7.355396775282507"><ele>661.0</ele><time>2026-04-04T09:26:14Z</time></trkpt><trkpt lat="45.007170259542264" lon="7.355436669479667"><ele>661.0</ele><time>2026-04-04T09:26:16Z</time></trkpt><trkpt lat="45.00709359380072" lon="7.355483135493133"><ele>661.0</ele><time>2026-04-04T09:26:18Z</time></trkpt><trkpt lat="45.00700087849923" lon="7.355531165436524"><ele>659.3333333333334</ele><time>2026-04-04T09:26:20Z</time></trkpt><trkpt lat="45.006884616732016" lon="7.355574078613947"><ele>657.6666666666667</ele><time>2026-04-04T09:26:22Z</time></trkpt><trkpt lat="45.00682038971405" lon="7.355598527773763"><ele>656.0</ele><time>2026-04-04T09:26:23Z</time></trkpt><trkpt lat="45.006755862575346" lon="7.355631457973598"><ele>654.3333333333334</ele><time>2026-04-04T09:26:24Z</time></trkpt><trkpt lat="45.00668631537915" lon="7.355663593369451"><ele>652.6666666666666</ele><time>2026-04-04T09:26:25Z</time></trkpt><trkpt lat="45.00658918899534" lon="7.355744875163408"><ele>651.0</ele><time>2026-04-04T09:26:27Z</time></trkpt><trkpt lat="45.00651991095935" lon="7.355752303922654"><ele>648.6666666666666</ele><time>2026-04-04T09:26:29Z</time></trkpt><trkpt lat="45.006480859705476" lon="7.355678856347187"><ele>646.3333333333334</ele><time>2026-04-04T09:26:31Z</time></trkpt><trkpt lat="45.006506731022384" lon="7.355511520575104"><ele>644.0</ele><time>2026-04-04T09:26:33Z</time></trkpt><trkpt lat="45.00652491619111" lon="7.355397332800994"><ele>641.6666666666667</ele><time>2026-04-04T09:26:34Z</time></trkpt><trkpt lat="45.00654689398414" lon="7.3552896025471695"><ele>639.3333333333334</ele><time>2026-04-04T09:26:35Z</time></trkpt><trkpt lat="45.006547202259846" lon="7.355168117977639"><ele>637.0</ele><time>2026-04-04T09:26:36Z</time></trkpt><trkpt lat="45.00655446639384" lon="7.355058137698226"><ele>637.0</ele><time>2026-04-04T09:26:37Z</time></trkpt><trkpt lat="45.00656119238705" lon="7.354938912805056"><ele>637.0</ele><time>2026-04-04T09:26:38Z</time></trkpt><trkpt lat="45.00657634517386" lon="7.354820547785756"><ele>637.0</ele><time>2026-04-04T09:26:39Z</time></trkpt><trkpt lat="45.00656046280902" lon="7.354692506209816"><ele>637.0</ele><time>2026-04-04T09:26:40Z</time></trkpt><trkpt lat="45.006537970504205" lon="7.354564695262603"><ele>637.0</ele><time>2026-04-04T09:26:41Z</time></trkpt><trkpt lat="45.006513679214166" lon="7.3544374705879605"><ele>637.0</ele><time>2026-04-04T09:26:42Z</time></trkpt><trkpt lat="45.00649081671745" lon="7.354311731346493"><ele>639.4000000000001</ele><time>2026-04-04T09:26:43Z</time></trkpt><trkpt lat="45.00647491613895" lon="7.354189462327009"><ele>641.8000000000001</ele><time>2026-04-04T09:26:44Z</time></trkpt><trkpt lat="45.006460038101935" lon="7.354053473707367"><ele>644.2</ele><time>2026-04-04T09:26:45Z</time></trkpt><trkpt lat="45.006450905369874" lon="7.353930414573853"><ele>646.6</ele><time>2026-04-04T09:26:46Z</time></trkpt><trkpt lat="45.00643284151245" lon="7.353800380948073"><ele>649.0</ele><time>2026-04-04T09:26:47Z</time></trkpt><trkpt lat="45.00646219373884" lon="7.353671359148187"><ele>651.6</ele><time>2026-04-04T09:26:48Z</time></trkpt><trkpt lat="45.00647058568988" lon="7.353538149138584"><ele>654.2</ele><time>2026-04-04T09:26:49Z</time></trkpt><trkpt lat="45.00645811866815" lon="7.353398379922968"><ele>656.8000000000001</ele><time>2026-04-04T09:26:50Z</time></trkpt><trkpt lat="45.00642029157323" lon="7.3532654568419185"><ele>659.4000000000001</ele><time>2026-04-04T09:26:51Z</time></trkpt><trkpt lat="45.00637922383443" lon="7.353146202374749"><ele>662.0</ele><time>2026-04-04T09:26:52Z</time></trkpt><trkpt lat="45.00634007812172" lon="7.353038180099215"><ele>663.4285714285714</ele><time>2026-04-04T09:26:53Z</time></trkpt><trkpt lat="45.0063065411236" lon="7.35294563497056"><ele>664.8571428571429</ele><time>2026-04-04T09:26:54Z</time></trkpt><trkpt lat="45.006276646803336" lon="7.3528610152932625"><ele>666.2857142857142</ele><time>2026-04-04T09:26:55Z</time></trkpt><trkpt lat="45.006245133731774" lon="7.352770868784507"><ele>667.7142857142858</ele><time>2026-04-04T09:26:56Z</time></trkpt><trkpt lat="45.006213603123946" lon="7.352680704645442"><ele>669.1428571428571</ele><time>2026-04-04T09:26:57Z</time></trkpt><trkpt lat="45.00617936681877" lon="7.352583454455192"><ele>670.5714285714286</ele><time>2026-04-04T09:26:58Z</time></trkpt><trkpt lat="45.006144154131256" lon="7.352483430822504"><ele>672.0</ele><time>2026-04-04T09:26:59Z</time></trkpt><trkpt lat="45.006109017796305" lon="7.352383624119062"><ele>672.0</ele><time>2026-04-04T09:27:00Z</time></trkpt><trkpt lat="45.006073670376054" lon="7.352282950216744"><ele>672.0</ele><time>2026-04-04T09:27:01Z</time></trkpt><trkpt lat="45.00603742263184" lon="7.35217948228824"><ele>672.0</ele><time>2026-04-04T09:27:02Z</time></trkpt><trkpt lat="45.006001132894404" lon="7.3520758945874976"><ele>672.0</ele><time>2026-04-04T09:27:03Z</time></trkpt><trkpt lat="45.00596677344869" lon="7.35197781679347"><ele>672.0</ele><time>2026-04-04T09:27:04Z</time></trkpt><trkpt lat="45.005930322656376" lon="7.351873769372686"><ele>672.0</ele><time>2026-04-04T09:27:05Z</time></trkpt><trkpt lat="45.00589165397031" lon="7.351763391067225"><ele>671.4000000000001</ele><time>2026-04-04T09:27:06Z</time></trkpt><trkpt lat="45.005853962766444" lon="7.351655802936451"><ele>670.8000000000001</ele><time>2026-04-04T09:27:07Z</time></trkpt><trkpt lat="45.00581470599704" lon="7.351543745991032"><ele>670.2</ele><time>2026-04-04T09:27:08Z</time></trkpt><trkpt lat="45.005774151513464" lon="7.351428446151387"><ele>669.6</ele><time>2026-04-04T09:27:09Z</time></trkpt><trkpt lat="45.00573115117601" lon="7.351307781567485"><ele>669.0</ele><time>2026-04-04T09:27:10Z</time></trkpt><trkpt lat="45.005688440321336" lon="7.351187929308498"><ele>669.0</ele><time>2026-04-04T09:27:11Z</time></trkpt><trkpt lat="45.00564621696031" lon="7.3510716656124835"><ele>669.0</ele><time>2026-04-04T09:27:12Z</time></trkpt><trkpt lat="45.00561000115157" lon="7.350977937716798"><ele>669.0</ele><time>2026-04-04T09:27:13Z</time></trkpt><trkpt lat="45.005569628473694" lon="7.350904458954232"><ele>669.0</ele><time>2026-04-04T09:27:14Z</time></trkpt><trkpt lat="45.00556449955299" lon="7.3508103386812085"><ele>669.0</ele><time>2026-04-04T09:27:15Z</time></trkpt><trkpt lat="45.00550314232539" lon="7.350682356769286"><ele>669.0</ele><time>2026-04-04T09:27:17Z</time></trkpt><trkpt lat="45.00547933221311" lon="7.350593787093778"><ele>672.0</ele><time>2026-04-04T09:27:20Z</time></trkpt><trkpt lat="45.005724694373995" lon="7.350363413604277"><ele>675.0</ele><time>2026-04-04T09:27:22Z</time></trkpt><trkpt lat="45.00577571943539" lon="7.350294229389422"><ele>678.0</ele><time>2026-04-04T09:27:24Z</time></trkpt><trkpt lat="45.00575652432706" lon="7.350168410435598"><ele>678.0</ele><time>2026-04-04T09:27:26Z</time></trkpt><trkpt lat="45.005769283424556" lon="7.350026418909406"><ele>678.0</ele><time>2026-04-04T09:27:28Z</time></trkpt><trkpt lat="45.00578169181465" lon="7.349859809692993"><ele>678.0</ele><time>2026-04-04T09:27:30Z</time></trkpt><trkpt lat="45.00572134605715" lon="7.3497477156292295"><ele>678.0</ele><time>2026-04-04T09:27:32Z</time></trkpt><trkpt lat="45.00562186708015" lon="7.349732655523778"><ele>678.0</ele><time>2026-04-04T09:27:34Z</time></trkpt><trkpt lat="45.00561576638274" lon="7.349611251680969"><ele>679.7142857142857</ele><time>2026-04-04T09:27:37Z</time></trkpt><trkpt lat="45.005607311333506" lon="7.3495114213661505"><ele>681.4285714285714</ele><time>2026-04-04T09:27:41Z</time></trkpt><trkpt lat="45.005576119167365" lon="7.349427699388166"><ele>683.1428571428571</ele><time>2026-04-04T09:29:22Z</time></trkpt><trkpt lat="45.00558451848111" lon="7.349331847127407"><ele>684.8571428571429</ele><time>2026-04-04T09:29:26.001Z</time></trkpt><trkpt lat="45.00558569973506" lon="7.349229820325998"><ele>686.5714285714286</ele><time>2026-04-04T09:29:32Z</time></trkpt><trkpt lat="45.00561486918126" lon="7.349133210841258"><ele>688.2857142857143</ele><time>2026-04-04T09:29:35Z</time></trkpt><trkpt lat="45.00566592474311" lon="7.349045492678467"><ele>690.0</ele><time>2026-04-04T09:29:37Z</time></trkpt><trkpt lat="45.005679832928976" lon="7.348898490658283"><ele>692.5</ele><time>2026-04-04T09:29:40Z</time></trkpt><trkpt lat="45.0056446770074" lon="7.348814245245932"><ele>695.0</ele><time>2026-04-04T09:29:41Z</time></trkpt><trkpt lat="45.00565580961537" lon="7.348693611431753"><ele>697.5</ele><time>2026-04-04T09:29:44Z</time></trkpt><trkpt lat="45.00568328635374" lon="7.348568523539021"><ele>700.0</ele><time>2026-04-04T09:29:47Z</time></trkpt><trkpt lat="45.00573897774283" lon="7.348232470046301"><ele>700.0</ele><time>2026-04-04T09:29:50Z</time></trkpt><trkpt lat="45.005748238620306" lon="7.34811864252688"><ele>700.0</ele><time>2026-04-04T09:29:52Z</time></trkpt><trkpt lat="45.0057766441919" lon="7.347981014116938"><ele>700.0</ele><time>2026-04-04T09:29:55Z</time></trkpt><trkpt lat="45.00580540788393" lon="7.347869544044907"><ele>700.0</ele><time>2026-04-04T09:29:57Z</time></trkpt><trkpt lat="45.00586815598916" lon="7.347787379838589"><ele>700.0</ele><time>2026-04-04T09:29:59Z</time></trkpt><trkpt lat="45.005927665370514" lon="7.347748800103251"><ele>700.0</ele><time>2026-04-04T09:30:01Z</time></trkpt><trkpt lat="45.00597209599349" lon="7.347676362893566"><ele>705.5714285714286</ele><time>2026-04-04T09:30:03Z</time></trkpt><trkpt lat="45.0059832733924" lon="7.347580305900204"><ele>711.1428571428571</ele><time>2026-04-04T09:30:06Z</time></trkpt><trkpt lat="45.00599632546272" lon="7.347454102756054"><ele>716.7142857142858</ele><time>2026-04-04T09:30:08Z</time></trkpt><trkpt lat="45.00598212557048" lon="7.347355836806909"><ele>722.2857142857142</ele><time>2026-04-04T09:30:13Z</time></trkpt><trkpt lat="45.00597305141797" lon="7.347261828301677"><ele>727.8571428571429</ele><time>2026-04-04T09:30:16Z</time></trkpt><trkpt lat="45.00593806081201" lon="7.347168544963707"><ele>733.4285714285714</ele><time>2026-04-04T09:30:19Z</time></trkpt><trkpt lat="45.00590616374308" lon="7.347075428903743"><ele>739.0</ele><time>2026-04-04T09:30:21Z</time></trkpt><trkpt lat="45.00589893556403" lon="7.346983995506095"><ele>737.6</ele><time>2026-04-04T09:30:23Z</time></trkpt><trkpt lat="45.00587904045167" lon="7.3468617155104035"><ele>736.2</ele><time>2026-04-04T09:30:25Z</time></trkpt><trkpt lat="45.005834957501506" lon="7.346751470776788"><ele>734.8000000000001</ele><time>2026-04-04T09:30:27Z</time></trkpt><trkpt lat="45.00577324496794" lon="7.3466360227110945"><ele>733.4000000000001</ele><time>2026-04-04T09:30:29Z</time></trkpt><trkpt lat="45.005678205286465" lon="7.346548737067293"><ele>732.0</ele><time>2026-04-04T09:30:31Z</time></trkpt><trkpt lat="45.00564677682545" lon="7.346453137204211"><ele>732.0</ele><time>2026-04-04T09:30:35Z</time></trkpt><trkpt lat="45.005592911121425" lon="7.346396938606361"><ele>732.0</ele><time>2026-04-04T09:30:37Z</time></trkpt><trkpt lat="45.00557347137933" lon="7.3462781695830905"><ele>732.0</ele><time>2026-04-04T09:30:41Z</time></trkpt><trkpt lat="45.00555727744815" lon="7.346173695425415"><ele>732.0</ele><time>2026-04-04T09:30:44Z</time></trkpt><trkpt lat="45.00559407408083" lon="7.346099747880326"><ele>732.0</ele><time>2026-04-04T09:30:47Z</time></trkpt><trkpt lat="45.00557840854222" lon="7.3459971859344835"><ele>732.0</ele><time>2026-04-04T09:31:26Z</time></trkpt><trkpt lat="45.00554249799017" lon="7.3458772074529755"><ele>735.0</ele><time>2026-04-04T09:31:31Z</time></trkpt><trkpt lat="45.00550979623379" lon="7.345784210767057"><ele>738.0</ele><time>2026-04-04T09:31:33Z</time></trkpt><trkpt lat="45.005470493488055" lon="7.345703168824553"><ele>741.0</ele><time>2026-04-04T09:31:35Z</time></trkpt><trkpt lat="45.005433959869535" lon="7.345610087366008"><ele>744.0</ele><time>2026-04-04T09:32:00Z</time></trkpt><trkpt lat="45.00549825701849" lon="7.34561306063058"><ele>747.0</ele><time>2026-04-04T09:32:05Z</time></trkpt><trkpt lat="45.00554059477784" lon="7.345540426934963"><ele>750.0</ele><time>2026-04-04T09:32:11Z</time></trkpt><trkpt lat="45.005603905542124" lon="7.345470705529637"><ele>753.0</ele><time>2026-04-04T09:32:15Z</time></trkpt><trkpt lat="45.005642916063245" lon="7.34535740039228"><ele>755.8333333333334</ele><time>2026-04-04T09:32:19Z</time></trkpt><trkpt lat="45.00568857359967" lon="7.345250990204217"><ele>758.6666666666667</ele><time>2026-04-04T09:32:21Z</time></trkpt><trkpt lat="45.00571627454948" lon="7.345144999789842"><ele>761.5</ele><time>2026-04-04T09:32:25Z</time></trkpt><trkpt lat="45.00575850996534" lon="7.345075872899069"><ele>764.3333333333334</ele><time>2026-04-04T09:32:48Z</time></trkpt><trkpt lat="45.005778098159475" lon="7.344975263551031"><ele>767.1666666666667</ele><time>2026-04-04T09:32:53Z</time></trkpt><trkpt lat="45.0057603048272" lon="7.344853020716812"><ele>770.0</ele><time>2026-04-04T09:32:56Z</time></trkpt><trkpt lat="45.00569227211697" lon="7.344782147957454"><ele>772.6666666666667</ele><time>2026-04-04T09:32:59Z</time></trkpt><trkpt lat="45.005691066232764" lon="7.34468631475807"><ele>775.3333333333334</ele><time>2026-04-04T09:33:02Z</time></trkpt><trkpt lat="45.00570305807248" lon="7.344587302744611"><ele>778.0</ele><time>2026-04-04T09:33:11Z</time></trkpt><trkpt lat="45.0057224139368" lon="7.344451394506656"><ele>780.6666666666667</ele><time>2026-04-04T09:33:14Z</time></trkpt><trkpt lat="45.005738458707555" lon="7.344317826537859"><ele>783.3333333333334</ele><time>2026-04-04T09:33:17Z</time></trkpt><trkpt lat="45.00574712534954" lon="7.3442294142118385"><ele>786.0</ele><time>2026-04-04T09:33:19Z</time></trkpt><trkpt lat="45.00574200420982" lon="7.344122844626482"><ele>786.0</ele><time>2026-04-04T09:33:22Z</time></trkpt><trkpt lat="45.005713800308456" lon="7.3440145700429325"><ele>786.0</ele><time>2026-04-04T09:34:24Z</time></trkpt><trkpt lat="45.00576915766569" lon="7.34415185842345"><ele>786.0</ele><time>2026-04-04T09:44:31Z</time></trkpt><trkpt lat="45.00579391697521" lon="7.344239101792897"><ele>786.0</ele><time>2026-04-04T09:44:43Z</time></trkpt><trkpt lat="45.005736650814804" lon="7.344305907907239"><ele>786.0</ele><time>2026-04-04T09:44:47Z</time></trkpt><trkpt lat="45.00568679823141" lon="7.3443802571120305"><ele>786.0</ele><time>2026-04-04T09:45:37Z</time></trkpt><trkpt lat="45.00568961006577" lon="7.344487096055339"><ele>786.0000000000001</ele><time>2026-04-04T09:45:43Z</time></trkpt><trkpt lat="45.00565823476291" lon="7.344608313990253"><ele>786.0</ele><time>2026-04-04T09:45:50Z</time></trkpt><trkpt lat="45.005669329522746" lon="7.344698291320069"><ele>786.0</ele><time>2026-04-04T09:45:56Z</time></trkpt><trkpt lat="45.00574680057451" lon="7.344724509643347"><ele>786.0</ele><time>2026-04-04T09:46:05Z</time></trkpt><trkpt lat="45.00575292590514" lon="7.344813815742861"><ele>786.0</ele><time>2026-04-04T09:46:09Z</time></trkpt><trkpt lat="45.005740350881325" lon="7.344929787081381"><ele>786.0000000000001</ele><time>2026-04-04T09:46:13Z</time></trkpt><trkpt lat="45.00570706450336" lon="7.3450089366203395"><ele>786.0</ele><time>2026-04-04T09:46:18Z</time></trkpt><trkpt lat="45.00568679018809" lon="7.345102812323227"><ele>785.3333333333334</ele><time>2026-04-04T09:46:25Z</time></trkpt><trkpt lat="45.005655751964724" lon="7.345209488259886"><ele>784.6666666666667</ele><time>2026-04-04T09:46:28Z</time></trkpt><trkpt lat="45.00567029891091" lon="7.345313601009611"><ele>784.0</ele><time>2026-04-04T09:46:35Z</time></trkpt><trkpt lat="45.00573473027981" lon="7.345246529295639"><ele>783.3333333333334</ele><time>2026-04-04T09:46:39Z</time></trkpt><trkpt lat="45.00577869373114" lon="7.345153086072653"><ele>782.6666666666667</ele><time>2026-04-04T09:46:41Z</time></trkpt><trkpt lat="45.00581795307248" lon="7.345047597910236"><ele>782.0</ele><time>2026-04-04T09:46:44Z</time></trkpt><trkpt lat="45.00585930779175" lon="7.344907323538096"><ele>782.0</ele><time>2026-04-04T09:46:46Z</time></trkpt><trkpt lat="45.0059067662634" lon="7.344765420146751"><ele>782.0</ele><time>2026-04-04T09:46:48Z</time></trkpt><trkpt lat="45.005938879550456" lon="7.344625318337005"><ele>782.0</ele><time>2026-04-04T09:46:50Z</time></trkpt><trkpt lat="45.005981359165574" lon="7.344481155720047"><ele>782.0</ele><time>2026-04-04T09:46:52Z</time></trkpt><trkpt lat="45.00603207315015" lon="7.3443357043363235"><ele>782.0</ele><time>2026-04-04T09:46:54Z</time></trkpt><trkpt lat="45.00606335403086" lon="7.344255073321532"><ele>785.5000000000001</ele><time>2026-04-04T09:46:55Z</time></trkpt><trkpt lat="45.006105898287025" lon="7.3441545162753155"><ele>789.0</ele><time>2026-04-04T09:46:57Z</time></trkpt><trkpt lat="45.0061477123487" lon="7.344008928890611"><ele>792.5</ele><time>2026-04-04T09:46:59Z</time></trkpt><trkpt lat="45.006175186080235" lon="7.343842829894488"><ele>796.0</ele><time>2026-04-04T09:47:01Z</time></trkpt><trkpt lat="45.0062003010297" lon="7.3437598663515224"><ele>799.5000000000001</ele><time>2026-04-04T09:47:02Z</time></trkpt><trkpt lat="45.006236970000884" lon="7.343677181556351"><ele>803.0</ele><time>2026-04-04T09:47:03Z</time></trkpt><trkpt lat="45.006278883409074" lon="7.343524303698514"><ele>808.1666666666667</ele><time>2026-04-04T09:47:05Z</time></trkpt><trkpt lat="45.00633826515299" lon="7.34338960492777"><ele>813.3333333333334</ele><time>2026-04-04T09:47:07Z</time></trkpt><trkpt lat="45.006382138917296" lon="7.343317511205274"><ele>818.5</ele><time>2026-04-04T09:47:08Z</time></trkpt><trkpt lat="45.006425405598655" lon="7.34324091612076"><ele>823.6666666666667</ele><time>2026-04-04T09:47:09Z</time></trkpt><trkpt lat="45.006487786534414" lon="7.343156273046863"><ele>828.8333333333334</ele><time>2026-04-04T09:47:10Z</time></trkpt><trkpt lat="45.00656482444006" lon="7.34309563420802"><ele>834.0</ele><time>2026-04-04T09:47:11Z</time></trkpt><trkpt lat="45.00664104041836" lon="7.343011795501238"><ele>834.5</ele><time>2026-04-04T09:47:13Z</time></trkpt><trkpt lat="45.00669567777808" lon="7.342932310531989"><ele>835.0</ele><time>2026-04-04T09:47:14Z</time></trkpt><trkpt lat="45.006749928429976" lon="7.342845001983374"><ele>835.5</ele><time>2026-04-04T09:47:15Z</time></trkpt><trkpt lat="45.00678890090597" lon="7.342744642784043"><ele>836.0</ele><time>2026-04-04T09:47:17Z</time></trkpt><trkpt lat="45.0068469976974" lon="7.342638039183392"><ele>836.5</ele><time>2026-04-04T09:47:20Z</time></trkpt><trkpt lat="45.006791736345804" lon="7.342549129468846"><ele>837.0</ele><time>2026-04-04T09:47:24Z</time></trkpt><trkpt lat="45.00669915722176" lon="7.342561951885751"><ele>840.8</ele><time>2026-04-04T09:47:26Z</time></trkpt><trkpt lat="45.00661730112239" lon="7.34253598528193"><ele>844.6</ele><time>2026-04-04T09:47:28Z</time></trkpt><trkpt lat="45.006498003937836" lon="7.34246958248697"><ele>848.3999999999999</ele><time>2026-04-04T09:47:30Z</time></trkpt><trkpt lat="45.00638570188654" lon="7.342433283452029"><ele>852.1999999999999</ele><time>2026-04-04T09:47:32Z</time></trkpt><trkpt lat="45.00631331494728" lon="7.342435500230772"><ele>856.0</ele><time>2026-04-04T09:47:33Z</time></trkpt><trkpt lat="45.00624118378398" lon="7.342437728527426"><ele>855.9999999999999</ele><time>2026-04-04T09:47:34Z</time></trkpt><trkpt lat="45.006163300958335" lon="7.342439674832076"><ele>856.0</ele><time>2026-04-04T09:47:35Z</time></trkpt><trkpt lat="45.00607803554377" lon="7.342427986736491"><ele>856.0</ele><time>2026-04-04T09:47:36Z</time></trkpt><trkpt lat="45.005963831830094" lon="7.342396479270295"><ele>856.0</ele><time>2026-04-04T09:47:38Z</time></trkpt><trkpt lat="45.005912871431725" lon="7.342338000970984"><ele>855.9999999999999</ele><time>2026-04-04T09:47:39Z</time></trkpt><trkpt lat="45.00588246202572" lon="7.342259250214163"><ele>856.0</ele><time>2026-04-04T09:47:40Z</time></trkpt><trkpt lat="45.00583908180282" lon="7.342123413218484"><ele>859.4</ele><time>2026-04-04T09:47:41Z</time></trkpt><trkpt lat="45.005767413444325" lon="7.341976981107724"><ele>862.8</ele><time>2026-04-04T09:47:42Z</time></trkpt><trkpt lat="45.005725564624214" lon="7.34186497331333"><ele>866.1999999999999</ele><time>2026-04-04T09:47:43Z</time></trkpt><trkpt lat="45.00567435926131" lon="7.341807749430448"><ele>869.5999999999999</ele><time>2026-04-04T09:47:46Z</time></trkpt><trkpt lat="45.005548874277544" lon="7.341871376603144"><ele>873.0</ele><time>2026-04-04T09:47:48Z</time></trkpt><trkpt lat="45.00548583511122" lon="7.34188949308955"><ele>873.0</ele><time>2026-04-04T09:47:49Z</time></trkpt><trkpt lat="45.005385271042385" lon="7.341915895342838"><ele>873.0</ele><time>2026-04-04T09:47:51Z</time></trkpt><trkpt lat="45.00531920479866" lon="7.341947362901854"><ele>873.0</ele><time>2026-04-04T09:47:55Z</time></trkpt><trkpt lat="45.00536252727418" lon="7.341858004927782"><ele>873.0</ele><time>2026-04-04T09:48:26Z</time></trkpt><trkpt lat="45.005375139256735" lon="7.3417509991806025"><ele>873.0</ele><time>2026-04-04T09:48:28Z</time></trkpt><trkpt lat="45.00539656485342" lon="7.341631998619154"><ele>873.0</ele><time>2026-04-04T09:48:31Z</time></trkpt><trkpt lat="45.00545077427512" lon="7.341537989816834"><ele>873.0</ele><time>2026-04-04T09:48:33Z</time></trkpt><trkpt lat="45.00552053411509" lon="7.341416407803394"><ele>873.0</ele><time>2026-04-04T09:48:35Z</time></trkpt><trkpt lat="45.005552828746445" lon="7.341298823015299"><ele>873.0</ele><time>2026-04-04T09:48:37Z</time></trkpt><trkpt lat="45.0055670005677" lon="7.341162287981035"><ele>873.0</ele><time>2026-04-04T09:48:39Z</time></trkpt><trkpt lat="45.0056084635755" lon="7.341015969691696"><ele>873.0</ele><time>2026-04-04T09:48:41Z</time></trkpt><trkpt lat="45.00563544763254" lon="7.340933519556975"><ele>872.8</ele><time>2026-04-04T09:48:42Z</time></trkpt><trkpt lat="45.00567915117448" lon="7.3407944045050675"><ele>872.5999999999999</ele><time>2026-04-04T09:48:44Z</time></trkpt><trkpt lat="45.005747742163706" lon="7.340691557386184"><ele>872.4000000000001</ele><time>2026-04-04T09:48:46Z</time></trkpt><trkpt lat="45.00583812551102" lon="7.3405916097681345"><ele>872.2</ele><time>2026-04-04T09:48:48Z</time></trkpt><trkpt lat="45.005924871012155" lon="7.340478764085095"><ele>872.0</ele><time>2026-04-04T09:48:50Z</time></trkpt><trkpt lat="45.00597709246135" lon="7.340355635190256"><ele>872.0</ele><time>2026-04-04T09:48:52Z</time></trkpt><trkpt lat="45.006069101354385" lon="7.340308032152082"><ele>872.0</ele><time>2026-04-04T09:48:54Z</time></trkpt><trkpt lat="45.006169932546115" lon="7.340253500857815"><ele>872.0</ele><time>2026-04-04T09:48:56Z</time></trkpt><trkpt lat="45.00622971247805" lon="7.340092113694327"><ele>872.0</ele><time>2026-04-04T09:48:58Z</time></trkpt><trkpt lat="45.00627655610879" lon="7.340025201918448"><ele>872.0</ele><time>2026-04-04T09:48:59Z</time></trkpt><trkpt lat="45.00634884812476" lon="7.339887826085168"><ele>872.0</ele><time>2026-04-04T09:49:01Z</time></trkpt><trkpt lat="45.006391148295045" lon="7.339742865462546"><ele>872.0</ele><time>2026-04-04T09:49:03Z</time></trkpt><trkpt lat="45.00642699722714" lon="7.339580000902994"><ele>872.0</ele><time>2026-04-04T09:49:05Z</time></trkpt><trkpt lat="45.00648755147902" lon="7.33942609988548"><ele>872.0</ele><time>2026-04-04T09:49:07Z</time></trkpt><trkpt lat="45.00652415623971" lon="7.339335102648189"><ele>872.0</ele><time>2026-04-04T09:49:08Z</time></trkpt><trkpt lat="45.006607163703" lon="7.339186013344643"><ele>867.5000000000001</ele><time>2026-04-04T09:49:10Z</time></trkpt><trkpt lat="45.006661988857054" lon="7.339135429774018"><ele>863.0</ele><time>2026-04-04T09:49:11Z</time></trkpt><trkpt lat="45.00672575508846" lon="7.339056196639933"><ele>858.5</ele><time>2026-04-04T09:49:12Z</time></trkpt><trkpt lat="45.00677899550455" lon="7.338984718454641"><ele>854.0</ele><time>2026-04-04T09:49:13Z</time></trkpt><trkpt lat="45.00689528278142" lon="7.338895458779473"><ele>849.5000000000001</ele><time>2026-04-04T09:49:15Z</time></trkpt><trkpt lat="45.0069423841626" lon="7.338825581124341"><ele>845.0</ele><time>2026-04-04T09:49:16Z</time></trkpt><trkpt lat="45.00698377917671" lon="7.338755739881665"><ele>845.0000000000001</ele><time>2026-04-04T09:49:17Z</time></trkpt><trkpt lat="45.00702301212536" lon="7.338682819165079"><ele>845.0</ele><time>2026-04-04T09:49:18Z</time></trkpt><trkpt lat="45.00707309881375" lon="7.338628554700945"><ele>845.0</ele><time>2026-04-04T09:49:19Z</time></trkpt><trkpt lat="45.007176135119416" lon="7.3385683042931085"><ele>845.0</ele><time>2026-04-04T09:49:21Z</time></trkpt><trkpt lat="45.007246315596724" lon="7.338532769365621"><ele>845.0000000000001</ele><time>2026-04-04T09:49:22.999Z</time></trkpt><trkpt lat="45.007326175932626" lon="7.33844127393543"><ele>845.0</ele><time>2026-04-04T09:49:24.999Z</time></trkpt><trkpt lat="45.00737477631421" lon="7.3383314220968225"><ele>845.0</ele><time>2026-04-04T09:49:27Z</time></trkpt><trkpt lat="45.00735233198875" lon="7.338203299810843"><ele>845.0</ele><time>2026-04-04T09:49:29Z</time></trkpt><trkpt lat="45.007310016599554" lon="7.338081633716484"><ele>845.0</ele><time>2026-04-04T09:49:31Z</time></trkpt><trkpt lat="45.00729656765869" lon="7.3379780005292865"><ele>845.0</ele><time>2026-04-04T09:49:33Z</time></trkpt><trkpt lat="45.00724848086468" lon="7.337851414310371"><ele>845.0</ele><time>2026-04-04T09:49:35Z</time></trkpt><trkpt lat="45.00718779131944" lon="7.337763785937199"><ele>843.3333333333334</ele><time>2026-04-04T09:49:36Z</time></trkpt><trkpt lat="45.0071473962743" lon="7.337666061420818"><ele>841.6666666666667</ele><time>2026-04-04T09:49:37Z</time></trkpt><trkpt lat="45.007129317188486" lon="7.337576226346416"><ele>840.0</ele><time>2026-04-04T09:49:38Z</time></trkpt><trkpt lat="45.00707781576186" lon="7.337431146133194"><ele>838.3333333333333</ele><time>2026-04-04T09:49:40Z</time></trkpt><trkpt lat="45.00702626928634" lon="7.337377984219202"><ele>836.6666666666666</ele><time>2026-04-04T09:49:41Z</time></trkpt><trkpt lat="45.00697303992155" lon="7.337319286333138"><ele>835.0</ele><time>2026-04-04T09:49:42Z</time></trkpt><trkpt lat="45.00691837325326" lon="7.337271428077442"><ele>838.1666666666666</ele><time>2026-04-04T09:49:43Z</time></trkpt><trkpt lat="45.00680783598222" lon="7.33721479097826"><ele>841.3333333333333</ele><time>2026-04-04T09:49:45Z</time></trkpt><trkpt lat="45.00674616843458" lon="7.337176379604789"><ele>844.5</ele><time>2026-04-04T09:49:46Z</time></trkpt><trkpt lat="45.0066839331242" lon="7.337144563726139"><ele>847.6666666666667</ele><time>2026-04-04T09:49:47Z</time></trkpt><trkpt lat="45.006616592846626" lon="7.337133151609311"><ele>850.8333333333334</ele><time>2026-04-04T09:49:48Z</time></trkpt><trkpt lat="45.006567682027914" lon="7.337071584745872"><ele>854.0</ele><time>2026-04-04T09:49:49Z</time></trkpt><trkpt lat="45.00650400188238" lon="7.336939357309816"><ele>854.0000000000001</ele><time>2026-04-04T09:49:51Z</time></trkpt><trkpt lat="45.00643351193091" lon="7.3368808189013714"><ele>854.0</ele><time>2026-04-04T09:49:53Z</time></trkpt><trkpt lat="45.006339846766096" lon="7.336833929671639"><ele>854.0</ele><time>2026-04-04T09:49:57Z</time></trkpt><trkpt lat="45.006282383040976" lon="7.336770045006875"><ele>854.0</ele><time>2026-04-04T09:49:59Z</time></trkpt><trkpt lat="45.00629307827319" lon="7.336660400397056"><ele>854.0000000000001</ele><time>2026-04-04T09:50:01Z</time></trkpt><trkpt lat="45.00628237169549" lon="7.336571656308236"><ele>854.0</ele><time>2026-04-04T09:50:03Z</time></trkpt><trkpt lat="45.006286597790485" lon="7.336468488900747"><ele>849.6</ele><time>2026-04-04T09:50:04Z</time></trkpt><trkpt lat="45.006275485312685" lon="7.3362733653427945"><ele>845.2</ele><time>2026-04-04T09:50:06Z</time></trkpt><trkpt lat="45.0062631450066" lon="7.336182816761119"><ele>840.8000000000001</ele><time>2026-04-04T09:50:07Z</time></trkpt><trkpt lat="45.00624296119949" lon="7.336015493930099"><ele>836.4000000000001</ele><time>2026-04-04T09:50:09Z</time></trkpt><trkpt lat="45.00622241260346" lon="7.335920524406847"><ele>832.0</ele><time>2026-04-04T09:50:10Z</time></trkpt><trkpt lat="45.006154181999754" lon="7.335780351432579"><ele>832.0</ele><time>2026-04-04T09:50:12Z</time></trkpt><trkpt lat="45.0061267628287" lon="7.335640041187508"><ele>832.0</ele><time>2026-04-04T09:50:14Z</time></trkpt><trkpt lat="45.006100267812364" lon="7.335485843828173"><ele>832.0</ele><time>2026-04-04T09:50:16Z</time></trkpt><trkpt lat="45.0060042040502" lon="7.335365867384835"><ele>832.0</ele><time>2026-04-04T09:50:18Z</time></trkpt><trkpt lat="45.0059379036428" lon="7.335332031478672"><ele>832.0</ele><time>2026-04-04T09:50:19Z</time></trkpt><trkpt lat="45.00583513258819" lon="7.335224913159379"><ele>833.8</ele><time>2026-04-04T09:50:21Z</time></trkpt><trkpt lat="45.005767139116585" lon="7.3351720733397725"><ele>835.6</ele><time>2026-04-04T09:50:22Z</time></trkpt><trkpt lat="45.00566203707945" lon="7.335172448871415"><ele>837.4</ele><time>2026-04-04T09:50:24Z</time></trkpt><trkpt lat="45.00560108644328" lon="7.335194970433664"><ele>839.1999999999999</ele><time>2026-04-04T09:50:25Z</time></trkpt><trkpt lat="45.005479185131534" lon="7.335199245438053"><ele>841.0</ele><time>2026-04-04T09:50:27Z</time></trkpt><trkpt lat="45.00537345724288" lon="7.335203962487086"><ele>841.0</ele><time>2026-04-04T09:50:29Z</time></trkpt><trkpt lat="45.005266629093626" lon="7.335172860627805"><ele>841.0</ele><time>2026-04-04T09:50:31Z</time></trkpt><trkpt lat="45.0051829824746" lon="7.3351118482246775"><ele>841.0</ele><time>2026-04-04T09:50:33Z</time></trkpt><trkpt lat="45.00518077907446" lon="7.334951573734086"><ele>841.0</ele><time>2026-04-04T09:50:35Z</time></trkpt><trkpt lat="45.005203679330755" lon="7.334785673859104"><ele>841.0</ele><time>2026-04-04T09:50:37Z</time></trkpt><trkpt lat="45.00519253572623" lon="7.334688977655705"><ele>841.3333333333333</ele><time>2026-04-04T09:50:38Z</time></trkpt><trkpt lat="45.00518072156083" lon="7.334584518266533"><ele>841.6666666666666</ele><time>2026-04-04T09:50:39Z</time></trkpt><trkpt lat="45.00517753112392" lon="7.334473158191839"><ele>842.0</ele><time>2026-04-04T09:50:40Z</time></trkpt><trkpt lat="45.00518198966892" lon="7.334368506258616"><ele>842.3333333333333</ele><time>2026-04-04T09:50:41Z</time></trkpt><trkpt lat="45.005199814918846" lon="7.334271882622345"><ele>842.6666666666666</ele><time>2026-04-04T09:50:42Z</time></trkpt><trkpt lat="45.005215278490574" lon="7.334169284871485"><ele>843.0</ele><time>2026-04-04T09:50:43Z</time></trkpt><trkpt lat="45.005248529296004" lon="7.334067749973797"><ele>843.0</ele><time>2026-04-04T09:50:44Z</time></trkpt><trkpt lat="45.005286524884795" lon="7.3338985384026225"><ele>843.0</ele><time>2026-04-04T09:50:46Z</time></trkpt><trkpt lat="45.00531835849188" lon="7.333801231276626"><ele>843.0</ele><time>2026-04-04T09:50:47Z</time></trkpt><trkpt lat="45.00536482410408" lon="7.3337260563294215"><ele>843.0</ele><time>2026-04-04T09:50:48Z</time></trkpt><trkpt lat="45.00543447599251" lon="7.333659592736232"><ele>843.0</ele><time>2026-04-04T09:50:49Z</time></trkpt><trkpt lat="45.0055056864368" lon="7.333606497763002"><ele>843.0</ele><time>2026-04-04T09:50:50Z</time></trkpt><trkpt lat="45.00557461169791" lon="7.333570316810064"><ele>840.4</ele><time>2026-04-04T09:50:51Z</time></trkpt><trkpt lat="45.00566563652381" lon="7.3334389154632875"><ele>837.8</ele><time>2026-04-04T09:50:53Z</time></trkpt><trkpt lat="45.00570986554191" lon="7.333355174753052"><ele>835.2</ele><time>2026-04-04T09:50:54Z</time></trkpt><trkpt lat="45.005768515156795" lon="7.3332509778689605"><ele>832.6</ele><time>2026-04-04T09:50:55Z</time></trkpt><trkpt lat="45.00583958674508" lon="7.333142923502317"><ele>830.0</ele><time>2026-04-04T09:50:56Z</time></trkpt><trkpt lat="45.0059043361603" lon="7.3330548472590795"><ele>830.0000000000001</ele><time>2026-04-04T09:50:57Z</time></trkpt><trkpt lat="45.00593698233987" lon="7.332967631192731"><ele>830.0</ele><time>2026-04-04T09:50:58Z</time></trkpt><trkpt lat="45.00597497609384" lon="7.332878212157897"><ele>830.0</ele><time>2026-04-04T09:50:59Z</time></trkpt><trkpt lat="45.00600245104526" lon="7.332790867355587"><ele>830.0</ele><time>2026-04-04T09:51:00Z</time></trkpt><trkpt lat="45.006030774839786" lon="7.332644120494157"><ele>830.0000000000001</ele><time>2026-04-04T09:51:02Z</time></trkpt><trkpt lat="45.00603953079808" lon="7.332544690832207"><ele>830.0</ele><time>2026-04-04T09:51:03Z</time></trkpt><trkpt lat="45.00604436558428" lon="7.3324472353450725"><ele>830.0</ele><time>2026-04-04T09:51:04Z</time></trkpt><trkpt lat="45.00604043510045" lon="7.3322813203033235"><ele>830.0</ele><time>2026-04-04T09:51:06Z</time></trkpt><trkpt lat="45.0060346361049" lon="7.332116622444122"><ele>830.0</ele><time>2026-04-04T09:51:08Z</time></trkpt><trkpt lat="45.0060401297967" lon="7.3320122508200924"><ele>830.0</ele><time>2026-04-04T09:51:09Z</time></trkpt><trkpt lat="45.00604255398832" lon="7.331921418825543"><ele>830.0</ele><time>2026-04-04T09:51:10Z</time></trkpt><trkpt lat="45.00604476902248" lon="7.331761701117137"><ele>829.2</ele><time>2026-04-04T09:51:12Z</time></trkpt><trkpt lat="45.005989680678795" lon="7.331658024662553"><ele>828.4</ele><time>2026-04-04T09:51:14Z</time></trkpt><trkpt lat="45.00589927083676" lon="7.331595997973556"><ele>827.5999999999999</ele><time>2026-04-04T09:51:16Z</time></trkpt><trkpt lat="45.00583506368594" lon="7.331504646470257"><ele>826.8</ele><time>2026-04-04T09:51:18Z</time></trkpt><trkpt lat="45.00574505831572" lon="7.331453980007608"><ele>826.0</ele><time>2026-04-04T09:51:20Z</time></trkpt><trkpt lat="45.00563137924607" lon="7.331445307800595"><ele>828.5999999999999</ele><time>2026-04-04T09:51:22Z</time></trkpt><trkpt lat="45.00555154678828" lon="7.331478862822986"><ele>831.2</ele><time>2026-04-04T09:51:23Z</time></trkpt><trkpt lat="45.00546116996238" lon="7.331504358727773"><ele>833.8</ele><time>2026-04-04T09:51:24Z</time></trkpt><trkpt lat="45.00540319707509" lon="7.3315687820505815"><ele>836.4000000000001</ele><time>2026-04-04T09:51:25Z</time></trkpt><trkpt lat="45.00528889187355" lon="7.331663437336437"><ele>839.0</ele><time>2026-04-04T09:51:27Z</time></trkpt><trkpt lat="45.00520438804853" lon="7.3316569789738"><ele>839.0000000000001</ele><time>2026-04-04T09:51:28Z</time></trkpt><trkpt lat="45.00511493680347" lon="7.331656499908583"><ele>839.0</ele><time>2026-04-04T09:51:29Z</time></trkpt><trkpt lat="45.00504962036575" lon="7.331664723842511"><ele>839.0</ele><time>2026-04-04T09:51:30Z</time></trkpt><trkpt lat="45.00499144160848" lon="7.331721791815478"><ele>839.0</ele><time>2026-04-04T09:51:32Z</time></trkpt><trkpt lat="45.0048771128152" lon="7.331779634223738"><ele>839.0000000000001</ele><time>2026-04-04T09:51:34Z</time></trkpt><trkpt lat="45.00478834363418" lon="7.3317748017331645"><ele>839.0</ele><time>2026-04-04T09:51:35Z</time></trkpt><trkpt lat="45.004722726400765" lon="7.3317592707902515"><ele>841.6</ele><time>2026-04-04T09:51:36Z</time></trkpt><trkpt lat="45.004575758952114" lon="7.331759277336319"><ele>844.2</ele><time>2026-04-04T09:51:38Z</time></trkpt><trkpt lat="45.004490563205174" lon="7.331808101131651"><ele>846.8000000000001</ele><time>2026-04-04T09:51:39Z</time></trkpt><trkpt lat="45.00441593524856" lon="7.331854960395226"><ele>849.4000000000001</ele><time>2026-04-04T09:51:40Z</time></trkpt><trkpt lat="45.00431012424049" lon="7.331886642977815"><ele>852.0</ele><time>2026-04-04T09:51:42Z</time></trkpt><trkpt lat="45.00419935275077" lon="7.331863971446675"><ele>858.2</ele><time>2026-04-04T09:51:44Z</time></trkpt><trkpt lat="45.00409941109776" lon="7.33181722986305"><ele>864.4000000000001</ele><time>2026-04-04T09:51:46Z</time></trkpt><trkpt lat="45.004041603576205" lon="7.331759068615569"><ele>870.5999999999999</ele><time>2026-04-04T09:51:47Z</time></trkpt><trkpt lat="45.00400015272732" lon="7.331686365794317"><ele>876.8</ele><time>2026-04-04T09:51:48Z</time></trkpt><trkpt lat="45.003918996540335" lon="7.331555685273948"><ele>883.0</ele><time>2026-04-04T09:51:50Z</time></trkpt><trkpt lat="45.003870715915646" lon="7.3314570047332825"><ele>883.0</ele><time>2026-04-04T09:51:51Z</time></trkpt><trkpt lat="45.003801625510675" lon="7.331397986448496"><ele>883.0</ele><time>2026-04-04T09:51:52Z</time></trkpt><trkpt lat="45.00373860368953" lon="7.3313020850528625"><ele>883.0</ele><time>2026-04-04T09:51:53Z</time></trkpt><trkpt lat="45.003661024484074" lon="7.331173647219696"><ele>883.0</ele><time>2026-04-04T09:51:54Z</time></trkpt><trkpt lat="45.00358442326861" lon="7.33103158818501"><ele>883.0</ele><time>2026-04-04T09:51:55Z</time></trkpt><trkpt lat="45.00352056753888" lon="7.330933778331636"><ele>882.3333333333333</ele><time>2026-04-04T09:51:56Z</time></trkpt><trkpt lat="45.00345119693643" lon="7.3308296739405305"><ele>881.6666666666666</ele><time>2026-04-04T09:51:57Z</time></trkpt><trkpt lat="45.003377325331726" lon="7.330736617994268"><ele>881.0</ele><time>2026-04-04T09:51:58Z</time></trkpt><trkpt lat="45.00332738605658" lon="7.33064892137231"><ele>880.3333333333333</ele><time>2026-04-04T09:51:59Z</time></trkpt><trkpt lat="45.00327788889712" lon="7.3305666215446585"><ele>879.6666666666666</ele><time>2026-04-04T09:52:00Z</time></trkpt><trkpt lat="45.0032297410997" lon="7.330493263035216"><ele>879.0</ele><time>2026-04-04T09:52:01Z</time></trkpt><trkpt lat="45.003161974216326" lon="7.330445516460339"><ele>879.0</ele><time>2026-04-04T09:52:02Z</time></trkpt><trkpt lat="45.003088086102665" lon="7.330420861782082"><ele>879.0</ele><time>2026-04-04T09:52:03Z</time></trkpt><trkpt lat="45.00302246104406" lon="7.330383061721155"><ele>879.0</ele><time>2026-04-04T09:52:04Z</time></trkpt><trkpt lat="45.00295056841081" lon="7.330354514801011"><ele>879.0</ele><time>2026-04-04T09:52:05Z</time></trkpt><trkpt lat="45.0028735588936" lon="7.330318327893994"><ele>879.0</ele><time>2026-04-04T09:52:06Z</time></trkpt><trkpt lat="45.00279799605701" lon="7.330272181380347"><ele>879.0</ele><time>2026-04-04T09:52:07Z</time></trkpt><trkpt lat="45.002727495423805" lon="7.330232963999205"><ele>879.0</ele><time>2026-04-04T09:52:08Z</time></trkpt><trkpt lat="45.00265715943962" lon="7.330229766273466"><ele>879.0</ele><time>2026-04-04T09:52:09Z</time></trkpt><trkpt lat="45.002573107230766" lon="7.330230382277869"><ele>879.0</ele><time>2026-04-04T09:52:10Z</time></trkpt><trkpt lat="45.00249605828468" lon="7.330229975420101"><ele>879.0</ele><time>2026-04-04T09:52:11Z</time></trkpt><trkpt lat="45.002412087428695" lon="7.330253520438909"><ele>879.0</ele><time>2026-04-04T09:52:12Z</time></trkpt><trkpt lat="45.00232500672329" lon="7.330293535320896"><ele>879.0</ele><time>2026-04-04T09:52:13Z</time></trkpt><trkpt lat="45.00224425959769" lon="7.330329413702203"><ele>879.8000000000001</ele><time>2026-04-04T09:52:14Z</time></trkpt><trkpt lat="45.00216214079083" lon="7.330347434426239"><ele>880.6000000000001</ele><time>2026-04-04T09:52:15Z</time></trkpt><trkpt lat="45.002080105065495" lon="7.330364585031085"><ele>881.4</ele><time>2026-04-04T09:52:16Z</time></trkpt><trkpt lat="45.0019975624987" lon="7.330359231975901"><ele>882.2</ele><time>2026-04-04T09:52:17Z</time></trkpt><trkpt lat="45.00191726159086" lon="7.330371022456915"><ele>883.0</ele><time>2026-04-04T09:52:18Z</time></trkpt><trkpt lat="45.00177846238743" lon="7.330322885400438"><ele>883.0</ele><time>2026-04-04T09:52:20Z</time></trkpt><trkpt lat="45.00168592962885" lon="7.330248537098176"><ele>883.0</ele><time>2026-04-04T09:52:21Z</time></trkpt><trkpt lat="45.001596646597456" lon="7.330197082638606"><ele>883.0</ele><time>2026-04-04T09:52:22Z</time></trkpt><trkpt lat="45.00148782123056" lon="7.330181748148107"><ele>883.0</ele><time>2026-04-04T09:52:23Z</time></trkpt><trkpt lat="45.001369550094424" lon="7.330166550676633"><ele>883.0</ele><time>2026-04-04T09:52:24Z</time></trkpt><trkpt lat="45.001271645319264" lon="7.33015684772663"><ele>883.4999999999999</ele><time>2026-04-04T09:52:25Z</time></trkpt><trkpt lat="45.00120590987686" lon="7.330093607741094"><ele>884.0</ele><time>2026-04-04T09:52:27Z</time></trkpt><trkpt lat="45.00120211299195" lon="7.329997611634934"><ele>884.5</ele><time>2026-04-04T09:52:29Z</time></trkpt><trkpt lat="45.00119753444028" lon="7.3298397434590745"><ele>885.0</ele><time>2026-04-04T09:52:31Z</time></trkpt><trkpt lat="45.0011960141" lon="7.3297372873009525"><ele>885.4999999999999</ele><time>2026-04-04T09:52:32Z</time></trkpt><trkpt lat="45.00127671629767" lon="7.3296570895000395"><ele>886.0</ele><time>2026-04-04T09:52:33Z</time></trkpt><trkpt lat="45.001273664701564" lon="7.329567546519309"><ele>888.4999999999999</ele><time>2026-04-04T09:52:34Z</time></trkpt><trkpt lat="45.00126331850935" lon="7.329404460751828"><ele>891.0</ele><time>2026-04-04T09:52:36Z</time></trkpt><trkpt lat="45.00125092205105" lon="7.32931654566659"><ele>893.5</ele><time>2026-04-04T09:52:39Z</time></trkpt><trkpt lat="45.001182423142936" lon="7.329241761253421"><ele>896.0</ele><time>2026-04-04T09:52:52Z</time></trkpt><trkpt lat="45.00115866016347" lon="7.329126664208612"><ele>898.4999999999999</ele><time>2026-04-04T09:52:54Z</time></trkpt><trkpt lat="45.00111984290537" lon="7.3290231077266546"><ele>901.0</ele><time>2026-04-04T09:52:56Z</time></trkpt><trkpt lat="45.00106168051272" lon="7.32890822359103"><ele>901.0</ele><time>2026-04-04T09:52:58Z</time></trkpt><trkpt lat="45.000975095027556" lon="7.328805186921973"><ele>900.9999999999999</ele><time>2026-04-04T09:53:00Z</time></trkpt><trkpt lat="45.000970574085756" lon="7.328672721655246"><ele>900.9999999999999</ele><time>2026-04-04T09:53:01Z</time></trkpt><trkpt lat="45.00086491716076" lon="7.328552980301327"><ele>901.0</ele><time>2026-04-04T09:53:03Z</time></trkpt><trkpt lat="45.00080613518082" lon="7.328478539823008"><ele>901.0</ele><time>2026-04-04T09:53:04Z</time></trkpt><trkpt lat="45.000745766254305" lon="7.328391440118754"><ele>899.4</ele><time>2026-04-04T09:53:05Z</time></trkpt><trkpt lat="45.000689756966864" lon="7.328302835340063"><ele>897.8</ele><time>2026-04-04T09:53:06Z</time></trkpt><trkpt lat="45.00063139303823" lon="7.328203691649955"><ele>896.1999999999999</ele><time>2026-04-04T09:53:07Z</time></trkpt><trkpt lat="45.00057011494126" lon="7.3280948555197565"><ele>894.5999999999999</ele><time>2026-04-04T09:53:08Z</time></trkpt><trkpt lat="45.00051042280157" lon="7.327984842433791"><ele>893.0</ele><time>2026-04-04T09:53:09Z</time></trkpt><trkpt lat="45.00045040972222" lon="7.327870433573795"><ele>892.25</ele><time>2026-04-04T09:53:10Z</time></trkpt><trkpt lat="45.000392691533676" lon="7.32775263669916"><ele>891.5</ele><time>2026-04-04T09:53:11Z</time></trkpt><trkpt lat="45.00033068829947" lon="7.327620137027283"><ele>890.75</ele><time>2026-04-04T09:53:12Z</time></trkpt><trkpt lat="45.000274870057616" lon="7.327448724282064"><ele>890.0</ele><time>2026-04-04T09:53:13Z</time></trkpt><trkpt lat="45.00021329393305" lon="7.327296495455271"><ele>892.0</ele><time>2026-04-04T09:53:14Z</time></trkpt><trkpt lat="45.00016778008892" lon="7.327173949290619"><ele>894.0</ele><time>2026-04-04T09:53:15Z</time></trkpt><trkpt lat="45.00012485530769" lon="7.327058373863492"><ele>896.0</ele><time>2026-04-04T09:53:16Z</time></trkpt><trkpt lat="45.00007575065529" lon="7.32696189064211"><ele>898.0</ele><time>2026-04-04T09:53:17Z</time></trkpt><trkpt lat="45.000133297670814" lon="7.32678811183987"><ele>900.0</ele><time>2026-04-04T09:53:18Z</time></trkpt><trkpt lat="45.0001271668953" lon="7.326680592044607"><ele>900.0</ele><time>2026-04-04T09:53:19Z</time></trkpt><trkpt lat="45.000115760520465" lon="7.326588713017063"><ele>900.0</ele><time>2026-04-04T09:53:20Z</time></trkpt><trkpt lat="45.00007480500019" lon="7.326440507557232"><ele>900.0</ele><time>2026-04-04T09:53:22Z</time></trkpt><trkpt lat="45.000078092813425" lon="7.326315270061842"><ele>900.0</ele><time>2026-04-04T09:53:25Z</time></trkpt><trkpt lat="45.000108278039846" lon="7.326158157170062"><ele>900.0</ele><time>2026-04-04T09:53:27Z</time></trkpt><trkpt lat="45.00014975614844" lon="7.326075246734469"><ele>901.2</ele><time>2026-04-04T09:53:29Z</time></trkpt><trkpt lat="45.00013012073201" lon="7.325960168646734"><ele>902.4</ele><time>2026-04-04T09:53:31Z</time></trkpt><trkpt lat="45.00010538648444" lon="7.3258616861605415"><ele>903.5999999999999</ele><time>2026-04-04T09:53:33Z</time></trkpt><trkpt lat="45.00006274119152" lon="7.325741091891619"><ele>904.8</ele><time>2026-04-04T09:53:35Z</time></trkpt><trkpt lat="45.00000324784772" lon="7.325570397018816"><ele>906.0</ele><time>2026-04-04T09:53:37Z</time></trkpt><trkpt lat="44.999963514503484" lon="7.325473626479181"><ele>908.1999999999999</ele><time>2026-04-04T09:53:38Z</time></trkpt><trkpt lat="44.999931814002686" lon="7.325380721425862"><ele>910.3999999999999</ele><time>2026-04-04T09:53:39Z</time></trkpt><trkpt lat="44.99989362676331" lon="7.325242543367433"><ele>912.6</ele><time>2026-04-04T09:53:41Z</time></trkpt><trkpt lat="44.99994278572462" lon="7.325146567456443"><ele>914.8</ele><time>2026-04-04T09:53:43Z</time></trkpt><trkpt lat="44.999994277656924" lon="7.3250355106504434"><ele>917.0</ele><time>2026-04-04T09:53:45Z</time></trkpt><trkpt lat="45.00006738023539" lon="7.324895409395325"><ele>917.0000000000001</ele><time>2026-04-04T09:53:47Z</time></trkpt><trkpt lat="45.00012891855729" lon="7.3248366332915715"><ele>917.0</ele><time>2026-04-04T09:53:48Z</time></trkpt><trkpt lat="45.00019647480965" lon="7.3246914977842845"><ele>917.0</ele><time>2026-04-04T09:53:50Z</time></trkpt><trkpt lat="45.00024387821558" lon="7.324626087707893"><ele>917.0</ele><time>2026-04-04T09:53:51Z</time></trkpt><trkpt lat="45.000284759651954" lon="7.324515181709247"><ele>917.0000000000001</ele><time>2026-04-04T09:53:53Z</time></trkpt><trkpt lat="45.00025526192482" lon="7.324408891590519"><ele>917.0</ele><time>2026-04-04T09:54:00Z</time></trkpt><trkpt lat="45.0002228096936" lon="7.324298945510326"><ele>918.5714285714286</ele><time>2026-04-04T09:54:09Z</time></trkpt><trkpt lat="45.00019946882083" lon="7.32420470896323"><ele>920.1428571428571</ele><time>2026-04-04T09:54:13Z</time></trkpt><trkpt lat="45.00016838578193" lon="7.3241105727318345"><ele>921.7142857142858</ele><time>2026-04-04T09:54:17Z</time></trkpt><trkpt lat="45.000094159420115" lon="7.324086281997437"><ele>923.2857142857143</ele><time>2026-04-04T09:54:20Z</time></trkpt><trkpt lat="45.00002153907809" lon="7.324090973863759"><ele>924.8571428571429</ele><time>2026-04-04T09:54:23Z</time></trkpt><trkpt lat="44.99996135220906" lon="7.324126088807409"><ele>926.4285714285716</ele><time>2026-04-04T09:54:27Z</time></trkpt><trkpt lat="44.999887066677296" lon="7.324084589002459"><ele>928.0000000000001</ele><time>2026-04-04T09:54:30Z</time></trkpt><trkpt lat="44.99982425846063" lon="7.324023149127452"><ele>927.9999999999999</ele><time>2026-04-04T09:54:33Z</time></trkpt><trkpt lat="44.99975706259742" lon="7.324022993700007"><ele>928.0</ele><time>2026-04-04T09:54:40.001Z</time></trkpt><trkpt lat="44.9996889721751" lon="7.324026156785343"><ele>928.0</ele><time>2026-04-04T09:54:42.001Z</time></trkpt><trkpt lat="44.999621502755524" lon="7.323996075564345"><ele>928.0</ele><time>2026-04-04T09:54:44.001Z</time></trkpt><trkpt lat="44.99953707094493" lon="7.323988265801834"><ele>927.9999999999999</ele><time>2026-04-04T09:54:46.001Z</time></trkpt><trkpt lat="44.99944755016421" lon="7.323990924305923"><ele>928.0</ele><time>2026-04-04T09:54:48.001Z</time></trkpt><trkpt lat="44.99939206188357" lon="7.323921607912743"><ele>927.8333333333333</ele><time>2026-04-04T09:54:50.001Z</time></trkpt><trkpt lat="44.99935476139013" lon="7.323835899384659"><ele>927.6666666666666</ele><time>2026-04-04T09:54:52.001Z</time></trkpt><trkpt lat="44.99927699930831" lon="7.323771768160164"><ele>927.5</ele><time>2026-04-04T09:54:54.001Z</time></trkpt><trkpt lat="44.99921012355406" lon="7.323664183434197"><ele>927.3333333333333</ele><time>2026-04-04T09:54:56.001Z</time></trkpt><trkpt lat="44.99915540810304" lon="7.323610337540293"><ele>927.1666666666666</ele><time>2026-04-04T09:54:58.001Z</time></trkpt><trkpt lat="44.99906167058583" lon="7.323517824737687"><ele>927.0</ele><time>2026-04-04T09:55:00.001Z</time></trkpt><trkpt lat="44.99904710123447" lon="7.323386894005018"><ele>925.8333333333334</ele><time>2026-04-04T09:55:04.001Z</time></trkpt><trkpt lat="44.99896630919655" lon="7.323340903271061"><ele>924.6666666666667</ele><time>2026-04-04T09:55:06.001Z</time></trkpt><trkpt lat="44.99887696105932" lon="7.3233240082841276"><ele>923.5</ele><time>2026-04-04T09:55:08.001Z</time></trkpt><trkpt lat="44.99879662948494" lon="7.323284821981612"><ele>922.3333333333334</ele><time>2026-04-04T09:55:11.001Z</time></trkpt><trkpt lat="44.99879536938482" lon="7.323179547610438"><ele>921.1666666666667</ele><time>2026-04-04T09:55:13.001Z</time></trkpt><trkpt lat="44.99877960070648" lon="7.323088916068804"><ele>920.0</ele><time>2026-04-04T09:55:15.001Z</time></trkpt><trkpt lat="44.998784261690396" lon="7.322978893607428"><ele>920.0000000000001</ele><time>2026-04-04T09:55:17.001Z</time></trkpt><trkpt lat="44.99873861356971" lon="7.322888353036671"><ele>920.0</ele><time>2026-04-04T09:55:20.001Z</time></trkpt><trkpt lat="44.99868245619394" lon="7.3228304760976535"><ele>920.0</ele><time>2026-04-04T09:55:22.001Z</time></trkpt><trkpt lat="44.99857564563659" lon="7.3228431343836125"><ele>920.0</ele><time>2026-04-04T09:55:25.001Z</time></trkpt><trkpt lat="44.99852133493619" lon="7.3229283063339246"><ele>920.0000000000001</ele><time>2026-04-04T09:55:27.001Z</time></trkpt><trkpt lat="44.998457134973215" lon="7.323019465035706"><ele>920.0</ele><time>2026-04-04T09:55:29.001Z</time></trkpt><trkpt lat="44.99840621139992" lon="7.323113234062639"><ele>920.0</ele><time>2026-04-04T09:55:32.001Z</time></trkpt><trkpt lat="44.998409935313525" lon="7.323253262575703"><ele>920.0</ele><time>2026-04-04T09:55:34.001Z</time></trkpt><trkpt lat="44.99837144811983" lon="7.323333614186408"><ele>920.0</ele><time>2026-04-04T09:55:37.001Z</time></trkpt><trkpt lat="44.99831140116458" lon="7.323266105237449"><ele>920.0</ele><time>2026-04-04T09:55:40.001Z</time></trkpt><trkpt lat="44.998300739861286" lon="7.323176116230553"><ele>920.0</ele><time>2026-04-04T09:55:41.001Z</time></trkpt><trkpt lat="44.99823319875219" lon="7.322981818268795"><ele>916.2</ele><time>2026-04-04T09:55:43.001Z</time></trkpt><trkpt lat="44.99816675069045" lon="7.322852139885842"><ele>912.4</ele><time>2026-04-04T09:55:44.001Z</time></trkpt><trkpt lat="44.998099658988366" lon="7.322727109094245"><ele>908.5999999999999</ele><time>2026-04-04T09:55:45.001Z</time></trkpt><trkpt lat="44.998033065065655" lon="7.3226098942564"><ele>904.8</ele><time>2026-04-04T09:55:46.001Z</time></trkpt><trkpt lat="44.997963014495205" lon="7.322497361440793"><ele>901.0</ele><time>2026-04-04T09:55:47.001Z</time></trkpt><trkpt lat="44.99788359809761" lon="7.322372087259062"><ele>901.0</ele><time>2026-04-04T09:55:48.001Z</time></trkpt><trkpt lat="44.99780941434077" lon="7.322271623085326"><ele>900.9999999999999</ele><time>2026-04-04T09:55:49.001Z</time></trkpt><trkpt lat="44.99771786158645" lon="7.322152458346003"><ele>900.9999999999999</ele><time>2026-04-04T09:55:50.001Z</time></trkpt><trkpt lat="44.99765298982269" lon="7.322040661912325"><ele>901.0</ele><time>2026-04-04T09:55:51.001Z</time></trkpt><trkpt lat="44.9975916031337" lon="7.321932475891579"><ele>901.0</ele><time>2026-04-04T09:55:52.001Z</time></trkpt><trkpt lat="44.997529275765594" lon="7.321829298772147"><ele>900.0</ele><time>2026-04-04T09:55:53.001Z</time></trkpt><trkpt lat="44.99747960749233" lon="7.321712813739715"><ele>898.9999999999999</ele><time>2026-04-04T09:55:54.001Z</time></trkpt><trkpt lat="44.99742598588171" lon="7.321592908470908"><ele>897.9999999999999</ele><time>2026-04-04T09:55:55.001Z</time></trkpt><trkpt lat="44.997403948111696" lon="7.321433983510384"><ele>897.0</ele><time>2026-04-04T09:55:56.001Z</time></trkpt><trkpt lat="44.9973261760254" lon="7.321347185641774"><ele>896.0</ele><time>2026-04-04T09:55:57.001Z</time></trkpt><trkpt lat="44.99723424014541" lon="7.321258237732076"><ele>896.0</ele><time>2026-04-04T09:55:58.001Z</time></trkpt><trkpt lat="44.99714576410349" lon="7.321184023800535"><ele>895.9999999999999</ele><time>2026-04-04T09:55:59Z</time></trkpt><trkpt lat="44.997063378441915" lon="7.321114266180149"><ele>895.9999999999999</ele><time>2026-04-04T09:56:00Z</time></trkpt><trkpt lat="44.99698431134714" lon="7.321047231711272"><ele>896.0</ele><time>2026-04-04T09:56:01Z</time></trkpt><trkpt lat="44.99689673129181" lon="7.320972917507978"><ele>896.0</ele><time>2026-04-04T09:56:02Z</time></trkpt><trkpt lat="44.99680572685956" lon="7.32089569736429"><ele>896.0000000000001</ele><time>2026-04-04T09:56:03Z</time></trkpt><trkpt lat="44.99671983493288" lon="7.320822815549016"><ele>896.0</ele><time>2026-04-04T09:56:04Z</time></trkpt><trkpt lat="44.99665342713955" lon="7.320764535533216"><ele>896.0</ele><time>2026-04-04T09:56:05Z</time></trkpt><trkpt lat="44.9965827641152" lon="7.320701419471907"><ele>896.0</ele><time>2026-04-04T09:56:06Z</time></trkpt><trkpt lat="44.9965104487311" lon="7.320633912125927"><ele>896.0000000000001</ele><time>2026-04-04T09:56:07Z</time></trkpt><trkpt lat="44.99643727323826" lon="7.320563521177879"><ele>896.0</ele><time>2026-04-04T09:56:08Z</time></trkpt><trkpt lat="44.99634182819321" lon="7.320470413428906"><ele>891.0</ele><time>2026-04-04T09:56:09Z</time></trkpt><trkpt lat="44.99624615637785" lon="7.320375955148343"><ele>886.0</ele><time>2026-04-04T09:56:10Z</time></trkpt><trkpt lat="44.996139295818715" lon="7.32027045007349"><ele>881.0</ele><time>2026-04-04T09:56:11Z</time></trkpt><trkpt lat="44.99602883988677" lon="7.320161395249328"><ele>876.0</ele><time>2026-04-04T09:56:12Z</time></trkpt><trkpt lat="44.99590466431035" lon="7.320039103365348"><ele>875.25</ele><time>2026-04-04T09:56:13Z</time></trkpt><trkpt lat="44.995780663475365" lon="7.319922609618932"><ele>874.5</ele><time>2026-04-04T09:56:14Z</time></trkpt><trkpt lat="44.99564775010682" lon="7.3198282686002765"><ele>873.75</ele><time>2026-04-04T09:56:15Z</time></trkpt><trkpt lat="44.995521875877316" lon="7.3197557523427985"><ele>873.0</ele><time>2026-04-04T09:56:16Z</time></trkpt><trkpt lat="44.99540242083071" lon="7.3196900192551775"><ele>868.75</ele><time>2026-04-04T09:56:17Z</time></trkpt><trkpt lat="44.995302674999785" lon="7.319597224766661"><ele>864.5</ele><time>2026-04-04T09:56:18Z</time></trkpt><trkpt lat="44.99517040273481" lon="7.319554957755263"><ele>860.25</ele><time>2026-04-04T09:56:19Z</time></trkpt><trkpt lat="44.99510551838595" lon="7.319421088152163"><ele>856.0</ele><time>2026-04-04T09:56:20Z</time></trkpt><trkpt lat="44.995041832354296" lon="7.319300240361404"><ele>858.5999999999999</ele><time>2026-04-04T09:56:21Z</time></trkpt><trkpt lat="44.99497862264275" lon="7.3191921219637885"><ele>861.1999999999999</ele><time>2026-04-04T09:56:22Z</time></trkpt><trkpt lat="44.99493401688541" lon="7.319052319025016"><ele>863.8000000000001</ele><time>2026-04-04T09:56:23Z</time></trkpt><trkpt lat="44.99486493610463" lon="7.318980427327985"><ele>866.4000000000001</ele><time>2026-04-04T09:56:24Z</time></trkpt><trkpt lat="44.9947775150948" lon="7.3189527698255485"><ele>869.0</ele><time>2026-04-04T09:56:25Z</time></trkpt><trkpt lat="44.99468372814413" lon="7.318926305830033"><ele>864.75</ele><time>2026-04-04T09:56:27Z</time></trkpt><trkpt lat="44.994619364695424" lon="7.318681288618778"><ele>860.5</ele><time>2026-04-04T09:56:30Z</time></trkpt><trkpt lat="44.99455681439131" lon="7.3185876292941945"><ele>856.25</ele><time>2026-04-04T09:56:31Z</time></trkpt><trkpt lat="44.99448723091413" lon="7.3184904768831744"><ele>852.0</ele><time>2026-04-04T09:56:32Z</time></trkpt><trkpt lat="44.99440614493065" lon="7.318392676483865"><ele>852.0</ele><time>2026-04-04T09:56:33Z</time></trkpt><trkpt lat="44.994346260554344" lon="7.31828744258487"><ele>852.0</ele><time>2026-04-04T09:56:34Z</time></trkpt><trkpt lat="44.99429204127183" lon="7.318162554021099"><ele>852.0</ele><time>2026-04-04T09:56:35Z</time></trkpt><trkpt lat="44.99423838643721" lon="7.318045465393081"><ele>852.0</ele><time>2026-04-04T09:56:36Z</time></trkpt><trkpt lat="44.99417800529572" lon="7.31795220441877"><ele>852.0</ele><time>2026-04-04T09:56:37Z</time></trkpt><trkpt lat="44.994110500673735" lon="7.317874567665242"><ele>847.4000000000001</ele><time>2026-04-04T09:56:38Z</time></trkpt><trkpt lat="44.994032072690565" lon="7.317822996689657"><ele>842.8000000000001</ele><time>2026-04-04T09:56:39Z</time></trkpt><trkpt lat="44.993944197496134" lon="7.317811091758844"><ele>838.2</ele><time>2026-04-04T09:56:40Z</time></trkpt><trkpt lat="44.993830278417505" lon="7.317844549898947"><ele>833.6</ele><time>2026-04-04T09:56:41Z</time></trkpt><trkpt lat="44.99375097286924" lon="7.317863418052252"><ele>829.0</ele><time>2026-04-04T09:56:42Z</time></trkpt><trkpt lat="44.993659472187794" lon="7.317899015640732"><ele>828.9999999999999</ele><time>2026-04-04T09:56:43Z</time></trkpt><trkpt lat="44.993574800806435" lon="7.31792274966818"><ele>829.0</ele><time>2026-04-04T09:56:44Z</time></trkpt><trkpt lat="44.99348156788331" lon="7.317945670052965"><ele>829.0</ele><time>2026-04-04T09:56:45Z</time></trkpt><trkpt lat="44.99339286333486" lon="7.317969861277922"><ele>829.0</ele><time>2026-04-04T09:56:46Z</time></trkpt><trkpt lat="44.99330942254606" lon="7.318008881398961"><ele>828.9999999999999</ele><time>2026-04-04T09:56:47Z</time></trkpt><trkpt lat="44.99323694469008" lon="7.318062853094952"><ele>829.0</ele><time>2026-04-04T09:56:48Z</time></trkpt><trkpt lat="44.993176664773166" lon="7.318120406915497"><ele>830.8333333333333</ele><time>2026-04-04T09:56:49Z</time></trkpt><trkpt lat="44.99312245414718" lon="7.3181775048191415"><ele>832.6666666666666</ele><time>2026-04-04T09:56:50Z</time></trkpt><trkpt lat="44.99303806196121" lon="7.318232985293639"><ele>834.5</ele><time>2026-04-04T09:56:52Z</time></trkpt><trkpt lat="44.992975003447675" lon="7.318211195919269"><ele>836.3333333333333</ele><time>2026-04-04T09:57:58Z</time></trkpt><trkpt lat="44.99293109528242" lon="7.318144277487862"><ele>838.1666666666666</ele><time>2026-04-04T10:00:15Z</time></trkpt><trkpt lat="44.99280236907414" lon="7.318138061843683"><ele>840.0</ele><time>2026-04-04T10:00:17Z</time></trkpt><trkpt lat="44.992715746832104" lon="7.318118678231218"><ele>840.0</ele><time>2026-04-04T10:00:18Z</time></trkpt><trkpt lat="44.99262347765858" lon="7.318048629200122"><ele>840.0</ele><time>2026-04-04T10:00:20Z</time></trkpt><trkpt lat="44.99250093459647" lon="7.317971272359787"><ele>840.0</ele><time>2026-04-04T10:00:22Z</time></trkpt><trkpt lat="44.99243423502346" lon="7.31794022850462"><ele>840.0</ele><time>2026-04-04T10:00:23Z</time></trkpt><trkpt lat="44.99235894004933" lon="7.317954081494924"><ele>840.0</ele><time>2026-04-04T10:00:24Z</time></trkpt><trkpt lat="44.992270004184064" lon="7.317969436359978"><ele>840.0</ele><time>2026-04-04T10:00:25Z</time></trkpt><trkpt lat="44.99218130777621" lon="7.317968828061861"><ele>840.0</ele><time>2026-04-04T10:00:26Z</time></trkpt><trkpt lat="44.99210487772094" lon="7.317899398964145"><ele>840.0</ele><time>2026-04-04T10:00:28Z</time></trkpt><trkpt lat="44.992028779892365" lon="7.317807025274003"><ele>840.0</ele><time>2026-04-04T10:00:30Z</time></trkpt><trkpt lat="44.99193981403364" lon="7.317780649429214"><ele>840.0</ele><time>2026-04-04T10:00:33Z</time></trkpt><trkpt lat="44.99185631840507" lon="7.317722719346241"><ele>840.0</ele><time>2026-04-04T10:00:36Z</time></trkpt><trkpt lat="44.9917518636329" lon="7.317714444193676"><ele>840.0</ele><time>2026-04-04T10:00:38Z</time></trkpt><trkpt lat="44.991650656115056" lon="7.317687517554087"><ele>840.0</ele><time>2026-04-04T10:00:40Z</time></trkpt><trkpt lat="44.99153541086951" lon="7.317708262671284"><ele>840.0</ele><time>2026-04-04T10:00:42Z</time></trkpt><trkpt lat="44.99145864127432" lon="7.317768974958393"><ele>840.0</ele><time>2026-04-04T10:00:43Z</time></trkpt><trkpt lat="44.99137840930395" lon="7.317815008787928"><ele>843.8333333333334</ele><time>2026-04-04T10:00:44Z</time></trkpt><trkpt lat="44.99129431266588" lon="7.317848779608612"><ele>847.6666666666667</ele><time>2026-04-04T10:00:45Z</time></trkpt><trkpt lat="44.99120551267002" lon="7.317857638869993"><ele>851.5</ele><time>2026-04-04T10:00:46Z</time></trkpt><trkpt lat="44.99113746012628" lon="7.317853397024145"><ele>855.3333333333334</ele><time>2026-04-04T10:00:47Z</time></trkpt><trkpt lat="44.99106388363899" lon="7.317763800290222"><ele>859.1666666666667</ele><time>2026-04-04T10:00:49Z</time></trkpt><trkpt lat="44.99099457294426" lon="7.3176936080917105"><ele>863.0</ele><time>2026-04-04T10:00:51Z</time></trkpt><trkpt lat="44.9909303130958" lon="7.31765629445235"><ele>863.0000000000001</ele><time>2026-04-04T10:00:54Z</time></trkpt><trkpt lat="44.9908512855679" lon="7.317582534948836"><ele>863.0</ele><time>2026-04-04T10:00:57Z</time></trkpt><trkpt lat="44.99077532504513" lon="7.317543381532329"><ele>863.0</ele><time>2026-04-04T10:00:59Z</time></trkpt><trkpt lat="44.99072692047444" lon="7.317415420397225"><ele>863.0</ele><time>2026-04-04T10:01:02Z</time></trkpt><trkpt lat="44.990738399546885" lon="7.317317228856885"><ele>863.0000000000001</ele><time>2026-04-04T10:01:04Z</time></trkpt><trkpt lat="44.9907375362258" lon="7.3171961763930105"><ele>863.0</ele><time>2026-04-04T10:01:06Z</time></trkpt><trkpt lat="44.99069649298986" lon="7.317104156037261"><ele>863.6666666666667</ele><time>2026-04-04T10:01:08Z</time></trkpt><trkpt lat="44.990652954119135" lon="7.317024998914928"><ele>864.3333333333334</ele><time>2026-04-04T10:01:10Z</time></trkpt><trkpt lat="44.9905986396708" lon="7.316959551918319"><ele>865.0</ele><time>2026-04-04T10:01:12Z</time></trkpt><trkpt lat="44.99053211483624" lon="7.316913471004724"><ele>865.6666666666667</ele><time>2026-04-04T10:01:14Z</time></trkpt><trkpt lat="44.99044295165055" lon="7.316828149149465"><ele>866.3333333333334</ele><time>2026-04-04T10:01:16Z</time></trkpt><trkpt lat="44.99034962690817" lon="7.316765270898224"><ele>867.0</ele><time>2026-04-04T10:01:18Z</time></trkpt><trkpt lat="44.99028922694444" lon="7.3167328739674655"><ele>867.0</ele><time>2026-04-04T10:01:20Z</time></trkpt><trkpt lat="44.990209251718895" lon="7.316785211541402"><ele>867.0</ele><time>2026-04-04T10:01:23Z</time></trkpt><trkpt lat="44.99018687461646" lon="7.316934220039789"><ele>867.0</ele><time>2026-04-04T10:01:25Z</time></trkpt><trkpt lat="44.99016385881691" lon="7.3170499569572245"><ele>867.0</ele><time>2026-04-04T10:01:26Z</time></trkpt><trkpt lat="44.990132881178035" lon="7.317158422644005"><ele>867.0</ele><time>2026-04-04T10:01:27Z</time></trkpt><trkpt lat="44.990097948768415" lon="7.3172845888683"><ele>867.8333333333334</ele><time>2026-04-04T10:01:28Z</time></trkpt><trkpt lat="44.99005828970586" lon="7.3174104050129225"><ele>868.6666666666667</ele><time>2026-04-04T10:01:29Z</time></trkpt><trkpt lat="44.990021176845445" lon="7.31750899448921"><ele>869.5</ele><time>2026-04-04T10:01:30Z</time></trkpt><trkpt lat="44.98999594877143" lon="7.317604121935888"><ele>870.3333333333334</ele><time>2026-04-04T10:01:31Z</time></trkpt><trkpt lat="44.989969541119564" lon="7.31770435273743"><ele>871.1666666666667</ele><time>2026-04-04T10:01:32Z</time></trkpt><trkpt lat="44.98993261378945" lon="7.317792294107441"><ele>872.0</ele><time>2026-04-04T10:01:33Z</time></trkpt><trkpt lat="44.98989080621695" lon="7.317872688555991"><ele>872.0000000000001</ele><time>2026-04-04T10:01:34Z</time></trkpt><trkpt lat="44.989840096576344" lon="7.317937083867537"><ele>872.0</ele><time>2026-04-04T10:01:35Z</time></trkpt><trkpt lat="44.98978139644704" lon="7.3179880257118155"><ele>872.0</ele><time>2026-04-04T10:01:36Z</time></trkpt><trkpt lat="44.98971129197143" lon="7.318008331364703"><ele>872.0</ele><time>2026-04-04T10:01:37Z</time></trkpt><trkpt lat="44.98964443665788" lon="7.317982399190803"><ele>872.0000000000001</ele><time>2026-04-04T10:01:38Z</time></trkpt><trkpt lat="44.989527080727065" lon="7.3179238165528515"><ele>872.0</ele><time>2026-04-04T10:01:40Z</time></trkpt><trkpt lat="44.98945803757435" lon="7.317899351476116"><ele>872.0</ele><time>2026-04-04T10:01:41Z</time></trkpt><trkpt lat="44.98938777388869" lon="7.317905302772321"><ele>872.0</ele><time>2026-04-04T10:01:42Z</time></trkpt><trkpt lat="44.98931714670368" lon="7.3179454367138375"><ele>872.0</ele><time>2026-04-04T10:01:43Z</time></trkpt><trkpt lat="44.98920357709258" lon="7.318019424419093"><ele>872.0</ele><time>2026-04-04T10:01:45Z</time></trkpt><trkpt lat="44.989086072224524" lon="7.318006447511847"><ele>872.0</ele><time>2026-04-04T10:01:47Z</time></trkpt><trkpt lat="44.98901627772721" lon="7.318075752035352"><ele>870.8333333333334</ele><time>2026-04-04T10:01:49Z</time></trkpt><trkpt lat="44.98902484917313" lon="7.318206210627272"><ele>869.6666666666667</ele><time>2026-04-04T10:01:51Z</time></trkpt><trkpt lat="44.989067303655396" lon="7.318357014648297"><ele>868.5</ele><time>2026-04-04T10:01:53Z</time></trkpt><trkpt lat="44.98908433254059" lon="7.3184539373152235"><ele>867.3333333333333</ele><time>2026-04-04T10:01:54Z</time></trkpt><trkpt lat="44.98908978178592" lon="7.318559510790911"><ele>866.1666666666666</ele><time>2026-04-04T10:01:55Z</time></trkpt><trkpt lat="44.989071779696474" lon="7.3186783038985865"><ele>865.0</ele><time>2026-04-04T10:01:56Z</time></trkpt><trkpt lat="44.989055198020075" lon="7.318808898891899"><ele>861.8571428571429</ele><time>2026-04-04T10:01:57Z</time></trkpt><trkpt lat="44.98902413926161" lon="7.318907179081902"><ele>858.7142857142858</ele><time>2026-04-04T10:01:58Z</time></trkpt><trkpt lat="44.98900418577357" lon="7.319009058794457"><ele>855.5714285714286</ele><time>2026-04-04T10:01:59Z</time></trkpt><trkpt lat="44.98897848358249" lon="7.319111528318102"><ele>852.4285714285714</ele><time>2026-04-04T10:02:00Z</time></trkpt><trkpt lat="44.988943175113675" lon="7.319190623220754"><ele>849.2857142857142</ele><time>2026-04-04T10:02:01Z</time></trkpt><trkpt lat="44.98888975884572" lon="7.3192628429690725"><ele>846.1428571428571</ele><time>2026-04-04T10:02:02Z</time></trkpt><trkpt lat="44.98883093194335" lon="7.319340486784051"><ele>843.0</ele><time>2026-04-04T10:02:03Z</time></trkpt><trkpt lat="44.98876333214866" lon="7.319439266000625"><ele>843.0</ele><time>2026-04-04T10:02:04Z</time></trkpt><trkpt lat="44.988709638453706" lon="7.319544437745321"><ele>843.0</ele><time>2026-04-04T10:02:05Z</time></trkpt><trkpt lat="44.98872326302154" lon="7.3196970429040435"><ele>843.0</ele><time>2026-04-04T10:02:07Z</time></trkpt><trkpt lat="44.988758911110786" lon="7.31985946847885"><ele>843.0</ele><time>2026-04-04T10:02:09Z</time></trkpt><trkpt lat="44.98879000453171" lon="7.319980831047828"><ele>843.0</ele><time>2026-04-04T10:02:10Z</time></trkpt><trkpt lat="44.98882060284973" lon="7.320103666236167"><ele>841.6666666666666</ele><time>2026-04-04T10:02:11Z</time></trkpt><trkpt lat="44.988868443296106" lon="7.320215166895851"><ele>840.3333333333333</ele><time>2026-04-04T10:02:12Z</time></trkpt><trkpt lat="44.98887830005031" lon="7.320314541861992"><ele>839.0</ele><time>2026-04-04T10:02:13Z</time></trkpt><trkpt lat="44.98888979860867" lon="7.3204185785443805"><ele>837.6666666666666</ele><time>2026-04-04T10:02:14Z</time></trkpt><trkpt lat="44.988892571991265" lon="7.320523430709489"><ele>836.3333333333333</ele><time>2026-04-04T10:02:15Z</time></trkpt><trkpt lat="44.988924112286945" lon="7.320644460722071"><ele>835.0</ele><time>2026-04-04T10:02:16Z</time></trkpt><trkpt lat="44.98894939341553" lon="7.320775678090805"><ele>834.3333333333333</ele><time>2026-04-04T10:02:17Z</time></trkpt><trkpt lat="44.98894990567793" lon="7.320900173737363"><ele>833.6666666666666</ele><time>2026-04-04T10:02:18Z</time></trkpt><trkpt lat="44.988961220095" lon="7.32102096021979"><ele>833.0</ele><time>2026-04-04T10:02:19Z</time></trkpt><trkpt lat="44.98895023478602" lon="7.321127284230141"><ele>832.3333333333333</ele><time>2026-04-04T10:02:20Z</time></trkpt><trkpt lat="44.988933933381055" lon="7.3212164526364365"><ele>831.6666666666666</ele><time>2026-04-04T10:02:21Z</time></trkpt><trkpt lat="44.988943266950855" lon="7.321318199696321"><ele>831.0</ele><time>2026-04-04T10:02:22Z</time></trkpt><trkpt lat="44.98895454593546" lon="7.32143366509045"><ele>829.6666666666666</ele><time>2026-04-04T10:02:23Z</time></trkpt><trkpt lat="44.988944649362054" lon="7.321547383787914"><ele>828.3333333333333</ele><time>2026-04-04T10:02:24Z</time></trkpt><trkpt lat="44.98894128241715" lon="7.321654927269355"><ele>827.0</ele><time>2026-04-04T10:02:25Z</time></trkpt><trkpt lat="44.988942035418745" lon="7.321800924785133"><ele>825.6666666666666</ele><time>2026-04-04T10:02:27Z</time></trkpt><trkpt lat="44.988954081755786" lon="7.321894253935187"><ele>824.3333333333333</ele><time>2026-04-04T10:03:14.999Z</time></trkpt><trkpt lat="44.98894730521537" lon="7.3220284863271425"><ele>823.0</ele><time>2026-04-04T10:03:16.999Z</time></trkpt><trkpt lat="44.98895791145922" lon="7.322146644168179"><ele>823.0</ele><time>2026-04-04T10:03:19.999Z</time></trkpt><trkpt lat="44.98899063812785" lon="7.32222465486007"><ele>823.0</ele><time>2026-04-04T10:03:20.999Z</time></trkpt><trkpt lat="44.98899565609882" lon="7.322371268141145"><ele>823.0</ele><time>2026-04-04T10:03:22.999Z</time></trkpt><trkpt lat="44.9889906815542" lon="7.3224978377402765"><ele>823.0</ele><time>2026-04-04T10:03:24.999Z</time></trkpt><trkpt lat="44.98900714635509" lon="7.32259330570694"><ele>823.0</ele><time>2026-04-04T10:03:25.999Z</time></trkpt><trkpt lat="44.98919870908621" lon="7.32267883781669"><ele>821.8</ele><time>2026-04-04T10:03:26.999Z</time></trkpt><trkpt lat="44.989191089434605" lon="7.322836771121575"><ele>820.5999999999999</ele><time>2026-04-04T10:03:28.999Z</time></trkpt><trkpt lat="44.98918552869616" lon="7.322931883583989"><ele>819.4000000000001</ele><time>2026-04-04T10:03:29.999Z</time></trkpt><trkpt lat="44.98917407134021" lon="7.323125163613632"><ele>818.2</ele><time>2026-04-04T10:03:31.999Z</time></trkpt><trkpt lat="44.989168240045146" lon="7.323223535330345"><ele>817.0</ele><time>2026-04-04T10:03:32.999Z</time></trkpt><trkpt lat="44.98916237238668" lon="7.323322520044257"><ele>816.9999999999999</ele><time>2026-04-04T10:03:33.999Z</time></trkpt><trkpt lat="44.989151840110075" lon="7.323476155768159"><ele>817.0</ele><time>2026-04-04T10:03:35.999Z</time></trkpt><trkpt lat="44.98916199254654" lon="7.323564957405258"><ele>817.0</ele><time>2026-04-04T10:03:37.999Z</time></trkpt><trkpt lat="44.989154955875165" lon="7.323656487371919"><ele>817.0</ele><time>2026-04-04T10:03:40Z</time></trkpt><trkpt lat="44.98914119348744" lon="7.32375354865074"><ele>816.9999999999999</ele><time>2026-04-04T10:03:43Z</time></trkpt><trkpt lat="44.98914079373718" lon="7.323872769413506"><ele>817.0</ele><time>2026-04-04T10:03:46Z</time></trkpt><trkpt lat="44.989140010829324" lon="7.323974395278483"><ele>816.0</ele><time>2026-04-04T10:03:49Z</time></trkpt><trkpt lat="44.989136387595934" lon="7.32406492530043"><ele>815.0</ele><time>2026-04-04T10:03:51Z</time></trkpt><trkpt lat="44.989120221505445" lon="7.324225764082532"><ele>814.0</ele><time>2026-04-04T10:03:53Z</time></trkpt><trkpt lat="44.98910576866502" lon="7.324396168646484"><ele>813.0</ele><time>2026-04-04T10:03:55Z</time></trkpt><trkpt lat="44.98913481550809" lon="7.324536365092847"><ele>812.0</ele><time>2026-04-04T10:03:57Z</time></trkpt><trkpt lat="44.98916942474626" lon="7.324687643600464"><ele>808.2</ele><time>2026-04-04T10:03:59Z</time></trkpt><trkpt lat="44.98923023395165" lon="7.324800390996093"><ele>804.4000000000001</ele><time>2026-04-04T10:04:01Z</time></trkpt><trkpt lat="44.98930615294236" lon="7.324933720270668"><ele>800.5999999999999</ele><time>2026-04-04T10:04:03Z</time></trkpt><trkpt lat="44.98933655989774" lon="7.325014637061197"><ele>796.8</ele><time>2026-04-04T10:04:04Z</time></trkpt><trkpt lat="44.98934567267389" lon="7.325106668771221"><ele>793.0</ele><time>2026-04-04T10:04:05Z</time></trkpt><trkpt lat="44.98937693480111" lon="7.325266523180965"><ele>792.9999999999999</ele><time>2026-04-04T10:04:07Z</time></trkpt><trkpt lat="44.9894070400716" lon="7.325419328530396"><ele>793.0</ele><time>2026-04-04T10:04:09Z</time></trkpt><trkpt lat="44.9894574103081" lon="7.325575646210616"><ele>793.0</ele><time>2026-04-04T10:04:11Z</time></trkpt><trkpt lat="44.989473063580505" lon="7.325662956812614"><ele>793.0</ele><time>2026-04-04T10:04:12Z</time></trkpt><trkpt lat="44.98949072444878" lon="7.325751787608662"><ele>792.9999999999999</ele><time>2026-04-04T10:04:13Z</time></trkpt><trkpt lat="44.98948555978343" lon="7.325849076899267"><ele>793.0</ele><time>2026-04-04T10:04:14Z</time></trkpt><trkpt lat="44.98950119694021" lon="7.325941102612104"><ele>793.1428571428572</ele><time>2026-04-04T10:04:15Z</time></trkpt><trkpt lat="44.98951825358264" lon="7.3260414821336575"><ele>793.2857142857143</ele><time>2026-04-04T10:04:16Z</time></trkpt><trkpt lat="44.9895368003339" lon="7.326144221495012"><ele>793.4285714285714</ele><time>2026-04-04T10:04:17Z</time></trkpt><trkpt lat="44.98955735663267" lon="7.32623969854214"><ele>793.5714285714287</ele><time>2026-04-04T10:04:18Z</time></trkpt><trkpt lat="44.989581505917144" lon="7.326337041786448"><ele>793.7142857142857</ele><time>2026-04-04T10:04:19Z</time></trkpt><trkpt lat="44.98960405177562" lon="7.326427921817928"><ele>793.8571428571429</ele><time>2026-04-04T10:04:20Z</time></trkpt><trkpt lat="44.98962662844749" lon="7.3265197104944715"><ele>794.0</ele><time>2026-04-04T10:04:21Z</time></trkpt><trkpt lat="44.98964980552135" lon="7.326617700259682"><ele>793.5000000000001</ele><time>2026-04-04T10:04:22Z</time></trkpt><trkpt lat="44.98967290627143" lon="7.326715367415495"><ele>793.0</ele><time>2026-04-04T10:04:23Z</time></trkpt><trkpt lat="44.98969743610141" lon="7.326819076537572"><ele>792.5</ele><time>2026-04-04T10:04:24Z</time></trkpt><trkpt lat="44.989723187906996" lon="7.326926766760454"><ele>792.0</ele><time>2026-04-04T10:04:25Z</time></trkpt><trkpt lat="44.989749666688375" lon="7.327036978759305"><ele>791.5000000000001</ele><time>2026-04-04T10:04:26Z</time></trkpt><trkpt lat="44.98977763708031" lon="7.327147539962291"><ele>791.0</ele><time>2026-04-04T10:04:27Z</time></trkpt><trkpt lat="44.989806796862645" lon="7.327261531343265"><ele>789.5000000000001</ele><time>2026-04-04T10:04:28Z</time></trkpt><trkpt lat="44.98983575991098" lon="7.3273747535123706"><ele>788.0</ele><time>2026-04-04T10:04:29Z</time></trkpt><trkpt lat="44.989865334237635" lon="7.327490365199897"><ele>786.5</ele><time>2026-04-04T10:04:30Z</time></trkpt><trkpt lat="44.98989494611335" lon="7.327606123932922"><ele>785.0</ele><time>2026-04-04T10:04:31Z</time></trkpt><trkpt lat="44.989925329231966" lon="7.327724897259224"><ele>783.5000000000001</ele><time>2026-04-04T10:04:32Z</time></trkpt><trkpt lat="44.98995607160427" lon="7.327840886912406"><ele>782.0</ele><time>2026-04-04T10:04:33Z</time></trkpt><trkpt lat="44.989988521193276" lon="7.327957936267925"><ele>775.8</ele><time>2026-04-04T10:04:34Z</time></trkpt><trkpt lat="44.99003121660607" lon="7.328061891542686"><ele>769.6</ele><time>2026-04-04T10:04:35Z</time></trkpt><trkpt lat="44.990060988040305" lon="7.328165092465307"><ele>763.4</ele><time>2026-04-04T10:04:36Z</time></trkpt><trkpt lat="44.990092548697206" lon="7.3282521820704885"><ele>757.1999999999999</ele><time>2026-04-04T10:04:37Z</time></trkpt><trkpt lat="44.990159848295505" lon="7.328382096445377"><ele>751.0</ele><time>2026-04-04T10:04:39Z</time></trkpt><trkpt lat="44.99019537202281" lon="7.328533091075175"><ele>751.0</ele><time>2026-04-04T10:04:41Z</time></trkpt><trkpt lat="44.9901507879652" lon="7.328648696962043"><ele>751.0</ele><time>2026-04-04T10:04:43Z</time></trkpt><trkpt lat="44.99026883998791" lon="7.32869849278996"><ele>751.0</ele><time>2026-04-04T10:04:44Z</time></trkpt><trkpt lat="44.990294660762316" lon="7.328793296194114"><ele>751.0</ele><time>2026-04-04T10:04:46Z</time></trkpt><trkpt lat="44.990278618444364" lon="7.328885656063144"><ele>751.0</ele><time>2026-04-04T10:04:49Z</time></trkpt><trkpt lat="44.99026172525237" lon="7.328974586556755"><ele>751.0</ele><time>2026-04-04T10:04:51Z</time></trkpt><trkpt lat="44.990204360844125" lon="7.329044707847541"><ele>751.0000000000001</ele><time>2026-04-04T10:04:54Z</time></trkpt><trkpt lat="44.99022106203819" lon="7.329140232818842"><ele>751.0</ele><time>2026-04-04T10:05:06Z</time></trkpt><trkpt lat="44.99028818060256" lon="7.329100831398464"><ele>751.0</ele><time>2026-04-04T10:05:13Z</time></trkpt><trkpt lat="44.99035640635398" lon="7.329047064539409"><ele>751.0</ele><time>2026-04-04T10:05:15Z</time></trkpt><trkpt lat="44.99039984943312" lon="7.328982531333396"><ele>751.0</ele><time>2026-04-04T10:05:17Z</time></trkpt><trkpt lat="44.990439293127416" lon="7.328907396616174"><ele>751.0000000000001</ele><time>2026-04-04T10:05:19Z</time></trkpt><trkpt lat="44.99046434191332" lon="7.328821714659993"><ele>751.0</ele><time>2026-04-04T10:05:22Z</time></trkpt><trkpt lat="44.99049245262003" lon="7.328724490903067"><ele>751.0</ele><time>2026-04-04T10:05:27Z</time></trkpt><trkpt lat="44.99057972797327" lon="7.328661486940705"><ele>751.0</ele><time>2026-04-04T10:05:58Z</time></trkpt><trkpt lat="44.99062970937528" lon="7.328606829421177"><ele>751.0</ele><time>2026-04-04T10:06:12Z</time></trkpt><trkpt lat="44.990686989041556" lon="7.328524718287665"><ele>751.0</ele><time>2026-04-04T10:06:21Z</time></trkpt><trkpt lat="44.99075996675621" lon="7.328499463956279"><ele>751.0</ele><time>2026-04-04T10:06:32Z</time></trkpt><trkpt lat="44.9908176233538" lon="7.328433107871555"><ele>751.0</ele><time>2026-04-04T10:06:35Z</time></trkpt><trkpt lat="44.99088143264061" lon="7.328360091768628"><ele>742.0</ele><time>2026-04-04T10:06:39Z</time></trkpt><trkpt lat="44.990935349019935" lon="7.3282751475711265"><ele>733.0</ele><time>2026-04-04T10:06:42Z</time></trkpt><trkpt lat="44.9909793191361" lon="7.3282060039466"><ele>724.0</ele><time>2026-04-04T10:06:45Z</time></trkpt><trkpt lat="44.991041191433126" lon="7.328157707698955"><ele>715.0</ele><time>2026-04-04T10:06:57Z</time></trkpt><trkpt lat="44.99099803688559" lon="7.32822330724544"><ele>706.0</ele><time>2026-04-04T10:07:42Z</time></trkpt><trkpt lat="44.990939951627915" lon="7.328328385541581"><ele>697.0</ele><time>2026-04-04T10:07:45Z</time></trkpt><trkpt lat="44.99088958790972" lon="7.328432457379756"><ele>706.0</ele><time>2026-04-04T10:07:48Z</time></trkpt><trkpt lat="44.99082411882503" lon="7.3285162465232565"><ele>715.0</ele><time>2026-04-04T10:09:05Z</time></trkpt><trkpt lat="44.99075252686274" lon="7.328569236590541"><ele>724.0</ele><time>2026-04-04T10:09:08Z</time></trkpt><trkpt lat="44.990690194972956" lon="7.328609737080081"><ele>733.0</ele><time>2026-04-04T10:09:10Z</time></trkpt><trkpt lat="44.99061523862072" lon="7.328623188940399"><ele>742.0</ele><time>2026-04-04T10:09:14.999Z</time></trkpt><trkpt lat="44.99055017600118" lon="7.328643275978104"><ele>751.0</ele><time>2026-04-04T10:09:19Z</time></trkpt><trkpt lat="44.99049108262583" lon="7.328697962609016"><ele>751.0</ele><time>2026-04-04T10:09:22Z</time></trkpt><trkpt lat="44.99045532197014" lon="7.328773612452862"><ele>751.0</ele><time>2026-04-04T10:09:27Z</time></trkpt><trkpt lat="44.99043250537999" lon="7.328895787041486"><ele>751.0</ele><time>2026-04-04T10:09:31Z</time></trkpt><trkpt lat="44.99040179655391" lon="7.3289872857275915"><ele>751.0</ele><time>2026-04-04T10:09:33Z</time></trkpt><trkpt lat="44.99032508181607" lon="7.329059391063328"><ele>751.0</ele><time>2026-04-04T10:09:36Z</time></trkpt><trkpt lat="44.990253501078826" lon="7.329127149754608"><ele>751.0</ele><time>2026-04-04T10:09:39Z</time></trkpt><trkpt lat="44.990222962231506" lon="7.329036666768124"><ele>751.0</ele><time>2026-04-04T10:09:42Z</time></trkpt><trkpt lat="44.99021396087396" lon="7.328946622454937"><ele>751.0</ele><time>2026-04-04T10:09:45Z</time></trkpt><trkpt lat="44.9901514738884" lon="7.328967213361485"><ele>751.0</ele><time>2026-04-04T10:10:10Z</time></trkpt><trkpt lat="44.990129388214214" lon="7.328843189267132"><ele>751.0</ele><time>2026-04-04T10:10:14Z</time></trkpt><trkpt lat="44.990086833796106" lon="7.328741636443393"><ele>751.0</ele><time>2026-04-04T10:10:16Z</time></trkpt><trkpt lat="44.9900037806855" lon="7.328697965102496"><ele>751.0</ele><time>2026-04-04T10:10:19Z</time></trkpt><trkpt lat="44.98991228770726" lon="7.3286410473605095"><ele>754.1999999999999</ele><time>2026-04-04T10:10:22Z</time></trkpt><trkpt lat="44.98981925260899" lon="7.328608880413187"><ele>757.4</ele><time>2026-04-04T10:10:24Z</time></trkpt><trkpt lat="44.98973186733032" lon="7.328617528786079"><ele>760.6</ele><time>2026-04-04T10:10:26Z</time></trkpt><trkpt lat="44.989631248841526" lon="7.328669359446986"><ele>763.8</ele><time>2026-04-04T10:10:29Z</time></trkpt><trkpt lat="44.98951641074099" lon="7.3286952848206015"><ele>767.0</ele><time>2026-04-04T10:10:31Z</time></trkpt><trkpt lat="44.989433740477864" lon="7.328744343398467"><ele>767.0</ele><time>2026-04-04T10:10:33Z</time></trkpt><trkpt lat="44.98937362712512" lon="7.328677303358026"><ele>767.0</ele><time>2026-04-04T10:10:35Z</time></trkpt><trkpt lat="44.98930394983464" lon="7.328590151026084"><ele>767.0</ele><time>2026-04-04T10:10:37Z</time></trkpt><trkpt lat="44.989186292715345" lon="7.328592741902125"><ele>767.0</ele><time>2026-04-04T10:10:39Z</time></trkpt><trkpt lat="44.98911835747288" lon="7.328534456619619"><ele>767.0</ele><time>2026-04-04T10:10:42Z</time></trkpt><trkpt lat="44.989058737939985" lon="7.328499238891442"><ele>767.0</ele><time>2026-04-04T10:10:44Z</time></trkpt><trkpt lat="44.988988374577985" lon="7.328482792333242"><ele>765.5</ele><time>2026-04-04T10:11:03Z</time></trkpt><trkpt lat="44.98892048746396" lon="7.328414520882967"><ele>764.0</ele><time>2026-04-04T10:11:12Z</time></trkpt><trkpt lat="44.98885864516413" lon="7.328343751740024"><ele>762.5</ele><time>2026-04-04T10:11:14Z</time></trkpt><trkpt lat="44.98882424209624" lon="7.328240394863732"><ele>761.0</ele><time>2026-04-04T10:11:16Z</time></trkpt><trkpt lat="44.98877918484658" lon="7.328143108984625"><ele>759.5</ele><time>2026-04-04T10:11:18Z</time></trkpt><trkpt lat="44.988780779266065" lon="7.328007342048733"><ele>758.0</ele><time>2026-04-04T10:11:20Z</time></trkpt><trkpt lat="44.98876360529722" lon="7.327884150305739"><ele>758.0</ele><time>2026-04-04T10:11:22Z</time></trkpt><trkpt lat="44.98874199253236" lon="7.327791956138986"><ele>758.0</ele><time>2026-04-04T10:11:31Z</time></trkpt><trkpt lat="44.98866512861639" lon="7.327794275035324"><ele>758.0</ele><time>2026-04-04T10:11:44Z</time></trkpt><trkpt lat="44.988599039521866" lon="7.327797049314161"><ele>758.0</ele><time>2026-04-04T10:11:47Z</time></trkpt><trkpt lat="44.98851687345049" lon="7.327790132042866"><ele>758.0</ele><time>2026-04-04T10:11:51Z</time></trkpt><trkpt lat="44.98844114401818" lon="7.327812627786746"><ele>758.0</ele><time>2026-04-04T10:11:55Z</time></trkpt><trkpt lat="44.98841162574155" lon="7.327928400458218"><ele>758.0</ele><time>2026-04-04T10:11:59Z</time></trkpt><trkpt lat="44.98842976409528" lon="7.328014579235392"><ele>758.0</ele><time>2026-04-04T10:12:01Z</time></trkpt><trkpt lat="44.988475462775185" lon="7.328104303618385"><ele>758.0</ele><time>2026-04-04T10:12:03Z</time></trkpt><trkpt lat="44.98848542990324" lon="7.328198579775432"><ele>758.0</ele><time>2026-04-04T10:12:05Z</time></trkpt><trkpt lat="44.9885035801608" lon="7.328310284976159"><ele>758.0</ele><time>2026-04-04T10:12:07Z</time></trkpt><trkpt lat="44.988524560227965" lon="7.328469969130842"><ele>758.0</ele><time>2026-04-04T10:12:09Z</time></trkpt><trkpt lat="44.98855339361155" lon="7.328632710775746"><ele>755.1666666666666</ele><time>2026-04-04T10:12:11Z</time></trkpt><trkpt lat="44.98856998877754" lon="7.328776904297455"><ele>752.3333333333333</ele><time>2026-04-04T10:12:13Z</time></trkpt><trkpt lat="44.98860468934218" lon="7.328899678086575"><ele>749.5</ele><time>2026-04-04T10:12:15Z</time></trkpt><trkpt lat="44.98860408502778" lon="7.328997692505312"><ele>746.6666666666666</ele><time>2026-04-04T10:12:19Z</time></trkpt><trkpt lat="44.988574981741536" lon="7.3290847069269764"><ele>743.8333333333334</ele><time>2026-04-04T10:12:27Z</time></trkpt><trkpt lat="44.988599561555276" lon="7.329183343796418"><ele>741.0</ele><time>2026-04-04T10:12:43Z</time></trkpt><trkpt lat="44.98864037269359" lon="7.329279015066519"><ele>737.8333333333334</ele><time>2026-04-04T10:12:45Z</time></trkpt><trkpt lat="44.98869820547878" lon="7.329357199541239"><ele>734.6666666666666</ele><time>2026-04-04T10:12:47Z</time></trkpt><trkpt lat="44.98876261775623" lon="7.329452865433153"><ele>731.5</ele><time>2026-04-04T10:12:49Z</time></trkpt><trkpt lat="44.98881616506438" lon="7.329541032541556"><ele>728.3333333333333</ele><time>2026-04-04T10:12:53Z</time></trkpt><trkpt lat="44.98886406627913" lon="7.329618665916416"><ele>725.1666666666666</ele><time>2026-04-04T10:12:55Z</time></trkpt><trkpt lat="44.98890177178399" lon="7.329691664342189"><ele>722.0</ele><time>2026-04-04T10:12:58Z</time></trkpt><trkpt lat="44.98897134483687" lon="7.329711550844705"><ele>718.8333333333333</ele><time>2026-04-04T10:13:00Z</time></trkpt><trkpt lat="44.98901495496695" lon="7.329782528106329"><ele>715.6666666666666</ele><time>2026-04-04T10:13:17Z</time></trkpt><trkpt lat="44.98898144898695" lon="7.32986341170963"><ele>712.5</ele><time>2026-04-04T10:13:33Z</time></trkpt><trkpt lat="44.98892704185205" lon="7.329937672367153"><ele>709.3333333333334</ele><time>2026-04-04T10:13:36Z</time></trkpt><trkpt lat="44.98889820824326" lon="7.330028459876098"><ele>706.1666666666667</ele><time>2026-04-04T10:13:38Z</time></trkpt><trkpt lat="44.988935516650464" lon="7.330149922525131"><ele>703.0</ele><time>2026-04-04T10:13:42Z</time></trkpt><trkpt lat="44.98898273835679" lon="7.33026081168077"><ele>703.0</ele><time>2026-04-04T10:13:45Z</time></trkpt><trkpt lat="44.988983971838586" lon="7.330363263152193"><ele>703.0</ele><time>2026-04-04T10:13:47Z</time></trkpt><trkpt lat="44.98899227543591" lon="7.330468529654938"><ele>703.0</ele><time>2026-04-04T10:13:49Z</time></trkpt><trkpt lat="44.988999298276376" lon="7.330572522571412"><ele>703.0</ele><time>2026-04-04T10:13:51Z</time></trkpt><trkpt lat="44.98898950536703" lon="7.330687159013575"><ele>703.0</ele><time>2026-04-04T10:13:54Z</time></trkpt><trkpt lat="44.988967643471945" lon="7.330793035695139"><ele>703.0</ele><time>2026-04-04T10:13:57Z</time></trkpt><trkpt lat="44.988882034864595" lon="7.330805430314443"><ele>701.5714285714286</ele><time>2026-04-04T10:14:01Z</time></trkpt><trkpt lat="44.988830144861005" lon="7.330867949584633"><ele>700.1428571428571</ele><time>2026-04-04T10:15:42.001Z</time></trkpt><trkpt lat="44.98884294474678" lon="7.330957252305628"><ele>698.7142857142858</ele><time>2026-04-04T10:17:34Z</time></trkpt><trkpt lat="44.988873203515304" lon="7.331051122635647"><ele>697.2857142857142</ele><time>2026-04-04T10:17:37Z</time></trkpt><trkpt lat="44.98891025275517" lon="7.331128379873627"><ele>695.8571428571429</ele><time>2026-04-04T10:17:39Z</time></trkpt><trkpt lat="44.98893222559833" lon="7.33122154606131"><ele>694.4285714285714</ele><time>2026-04-04T10:17:41Z</time></trkpt><trkpt lat="44.98894681918282" lon="7.331343756203129"><ele>693.0</ele><time>2026-04-04T10:17:43Z</time></trkpt><trkpt lat="44.98894429296493" lon="7.331451102472962"><ele>691.6666666666666</ele><time>2026-04-04T10:17:45Z</time></trkpt><trkpt lat="44.98893417186904" lon="7.331557324103502"><ele>690.3333333333334</ele><time>2026-04-04T10:18:03Z</time></trkpt><trkpt lat="44.9889797563274" lon="7.33164951388676"><ele>689.0</ele><time>2026-04-04T10:18:45Z</time></trkpt><trkpt lat="44.98903346726754" lon="7.33174370887275"><ele>687.6666666666667</ele><time>2026-04-04T10:18:48Z</time></trkpt><trkpt lat="44.98905548304798" lon="7.331882030837269"><ele>686.3333333333334</ele><time>2026-04-04T10:18:50Z</time></trkpt><trkpt lat="44.9890840976604" lon="7.331966166255333"><ele>685.0</ele><time>2026-04-04T10:18:52Z</time></trkpt><trkpt lat="44.98919592997075" lon="7.331993847428725"><ele>683.0</ele><time>2026-04-04T10:18:54Z</time></trkpt><trkpt lat="44.98933414440303" lon="7.3322291213683695"><ele>681.0</ele><time>2026-04-04T10:18:57Z</time></trkpt><trkpt lat="44.98939039824062" lon="7.332317825944153"><ele>679.0</ele><time>2026-04-04T10:18:58Z</time></trkpt><trkpt lat="44.989442882526156" lon="7.332396737528495"><ele>677.0</ele><time>2026-04-04T10:18:59Z</time></trkpt><trkpt lat="44.98954433976242" lon="7.332411915430917"><ele>677.0</ele><time>2026-04-04T10:19:01Z</time></trkpt><trkpt lat="44.989656499010735" lon="7.332366416575807"><ele>677.0</ele><time>2026-04-04T10:19:03Z</time></trkpt><trkpt lat="44.989757027428965" lon="7.332345993730149"><ele>677.0</ele><time>2026-04-04T10:19:16Z</time></trkpt><trkpt lat="44.98982990617127" lon="7.3323208266183"><ele>677.0</ele><time>2026-04-04T10:19:18Z</time></trkpt><trkpt lat="44.98986956012248" lon="7.332212351639195"><ele>677.0</ele><time>2026-04-04T10:19:21Z</time></trkpt><trkpt lat="44.98993378218172" lon="7.332161483607966"><ele>676.6666666666666</ele><time>2026-04-04T10:19:23Z</time></trkpt><trkpt lat="44.99000230265497" lon="7.332186389052514"><ele>676.3333333333333</ele><time>2026-04-04T10:19:25Z</time></trkpt><trkpt lat="44.9900811484663" lon="7.332134115194796"><ele>676.0</ele><time>2026-04-04T10:19:27Z</time></trkpt><trkpt lat="44.990147870173544" lon="7.3320473594567455"><ele>675.6666666666666</ele><time>2026-04-04T10:19:30Z</time></trkpt><trkpt lat="44.990199171343676" lon="7.3319615628604655"><ele>675.3333333333334</ele><time>2026-04-04T10:19:32Z</time></trkpt><trkpt lat="44.990242964638206" lon="7.331851308804691"><ele>675.0</ele><time>2026-04-04T10:19:35Z</time></trkpt><trkpt lat="44.990298814575254" lon="7.331759998084064"><ele>674.6666666666666</ele><time>2026-04-04T10:19:37Z</time></trkpt><trkpt lat="44.99035262152964" lon="7.331667603073962"><ele>674.3333333333334</ele><time>2026-04-04T10:19:39Z</time></trkpt><trkpt lat="44.990441753424456" lon="7.331647319913574"><ele>674.0</ele><time>2026-04-04T10:19:42Z</time></trkpt><trkpt lat="44.990495086813034" lon="7.331570652796057"><ele>673.6666666666667</ele><time>2026-04-04T10:19:49Z</time></trkpt><trkpt lat="44.99055625441939" lon="7.3315012504989285"><ele>673.3333333333334</ele><time>2026-04-04T10:19:52Z</time></trkpt><trkpt lat="44.99055005749119" lon="7.331408018780672"><ele>673.0</ele><time>2026-04-04T10:20:12Z</time></trkpt><trkpt lat="44.990637428766604" lon="7.3313349733145"><ele>673.0</ele><time>2026-04-04T10:24:24Z</time></trkpt><trkpt lat="44.99069105050587" lon="7.331282989561323"><ele>673.0</ele><time>2026-04-04T10:24:43Z</time></trkpt><trkpt lat="44.99074308295998" lon="7.331228030587802"><ele>673.0</ele><time>2026-04-04T10:25:20Z</time></trkpt><trkpt lat="44.99082449015417" lon="7.33120088158677"><ele>673.0</ele><time>2026-04-04T10:26:15Z</time></trkpt><trkpt lat="44.990911061065866" lon="7.331159040364018"><ele>673.0</ele><time>2026-04-04T10:26:18Z</time></trkpt><trkpt lat="44.99097580608975" lon="7.331156587451563"><ele>673.0</ele><time>2026-04-04T10:26:19Z</time></trkpt><trkpt lat="44.99106783688706" lon="7.331133792206984"><ele>669.3333333333334</ele><time>2026-04-04T10:26:21Z</time></trkpt><trkpt lat="44.991135472045464" lon="7.331100223367013"><ele>665.6666666666667</ele><time>2026-04-04T10:26:23Z</time></trkpt><trkpt lat="44.99118659023904" lon="7.331034587826017"><ele>662.0</ele><time>2026-04-04T10:26:25Z</time></trkpt><trkpt lat="44.991270680217276" lon="7.330992090116297"><ele>658.3333333333334</ele><time>2026-04-04T10:26:27Z</time></trkpt><trkpt lat="44.99135817718415" lon="7.330944802293806"><ele>654.6666666666666</ele><time>2026-04-04T10:26:29Z</time></trkpt><trkpt lat="44.99144043823182" lon="7.3308668038654"><ele>651.0</ele><time>2026-04-04T10:26:31Z</time></trkpt><trkpt lat="44.99152302616297" lon="7.330787067216047"><ele>651.0</ele><time>2026-04-04T10:26:33Z</time></trkpt><trkpt lat="44.99159462695429" lon="7.330708392618254"><ele>651.0</ele><time>2026-04-04T10:26:35Z</time></trkpt><trkpt lat="44.991696257379175" lon="7.330663131177981"><ele>651.0</ele><time>2026-04-04T10:26:37Z</time></trkpt><trkpt lat="44.99177020423526" lon="7.33061890647663"><ele>651.0</ele><time>2026-04-04T10:26:39Z</time></trkpt><trkpt lat="44.99184347418479" lon="7.3305817270450495"><ele>651.0</ele><time>2026-04-04T10:26:41Z</time></trkpt><trkpt lat="44.99192473662929" lon="7.330565940479837"><ele>651.0</ele><time>2026-04-04T10:26:43Z</time></trkpt><trkpt lat="44.99201885731881" lon="7.33057055528845"><ele>648.6666666666666</ele><time>2026-04-04T10:26:45Z</time></trkpt><trkpt lat="44.99210071554023" lon="7.330599336308084"><ele>646.3333333333334</ele><time>2026-04-04T10:26:47Z</time></trkpt><trkpt lat="44.992189078871384" lon="7.330644453500864"><ele>644.0</ele><time>2026-04-04T10:26:49Z</time></trkpt><trkpt lat="44.992271248242474" lon="7.330689911552543"><ele>641.6666666666667</ele><time>2026-04-04T10:26:51Z</time></trkpt><trkpt lat="44.99234022677112" lon="7.3307790503500705"><ele>639.3333333333334</ele><time>2026-04-04T10:26:53Z</time></trkpt><trkpt lat="44.992398101626414" lon="7.3308154937642"><ele>637.0</ele><time>2026-04-04T10:26:54Z</time></trkpt><trkpt lat="44.992468917837165" lon="7.330933673732074"><ele>636.3333333333334</ele><time>2026-04-04T10:26:56Z</time></trkpt><trkpt lat="44.9925251208718" lon="7.3309783182313035"><ele>635.6666666666667</ele><time>2026-04-04T10:26:57Z</time></trkpt><trkpt lat="44.99262466289905" lon="7.331052989669274"><ele>635.0</ele><time>2026-04-04T10:26:59Z</time></trkpt><trkpt lat="44.99270159094288" lon="7.331089729186723"><ele>634.3333333333334</ele><time>2026-04-04T10:27:01Z</time></trkpt><trkpt lat="44.9927553676628" lon="7.331150679486823"><ele>633.6666666666666</ele><time>2026-04-04T10:27:12Z</time></trkpt><trkpt lat="44.99280793986836" lon="7.331203182237655"><ele>633.0</ele><time>2026-04-04T10:28:30Z</time></trkpt><trkpt lat="44.99274585122916" lon="7.3311852548046055"><ele>633.0</ele><time>2026-04-04T10:35:00Z</time></trkpt><trkpt lat="44.99282897518248" lon="7.331170639651804"><ele>633.0</ele><time>2026-04-04T10:35:03Z</time></trkpt><trkpt lat="44.992923430143364" lon="7.331220952890129"><ele>633.0</ele><time>2026-04-04T10:35:05Z</time></trkpt><trkpt lat="44.99301736901626" lon="7.331261711219165"><ele>633.0</ele><time>2026-04-04T10:35:07Z</time></trkpt><trkpt lat="44.99307248898089" lon="7.3313305919122085"><ele>633.0</ele><time>2026-04-04T10:35:09Z</time></trkpt><trkpt lat="44.99311485224869" lon="7.331435703377399"><ele>633.0</ele><time>2026-04-04T10:35:11Z</time></trkpt><trkpt lat="44.99316492975357" lon="7.331493801688441"><ele>631.8333333333334</ele><time>2026-04-04T10:35:13Z</time></trkpt><trkpt lat="44.993209719454775" lon="7.331565516010015"><ele>630.6666666666666</ele><time>2026-04-04T10:35:15Z</time></trkpt><trkpt lat="44.99317452982996" lon="7.331709963416764"><ele>629.5</ele><time>2026-04-04T10:35:17Z</time></trkpt><trkpt lat="44.993192070626975" lon="7.331822559449136"><ele>628.3333333333333</ele><time>2026-04-04T10:35:19Z</time></trkpt><trkpt lat="44.99318332067473" lon="7.331972983565353"><ele>627.1666666666666</ele><time>2026-04-04T10:35:21Z</time></trkpt><trkpt lat="44.993144020639605" lon="7.332060290955371"><ele>626.0</ele><time>2026-04-04T10:35:22Z</time></trkpt><trkpt lat="44.99308078700644" lon="7.332119510334521"><ele>626.0</ele><time>2026-04-04T10:35:23Z</time></trkpt><trkpt lat="44.99300857211309" lon="7.332162524162544"><ele>626.0</ele><time>2026-04-04T10:35:24Z</time></trkpt><trkpt lat="44.992927115185275" lon="7.332150275504538"><ele>626.0</ele><time>2026-04-04T10:35:25Z</time></trkpt><trkpt lat="44.99281011639001" lon="7.332203670026671"><ele>626.0</ele><time>2026-04-04T10:35:27Z</time></trkpt><trkpt lat="44.99273938617312" lon="7.332245768270708"><ele>626.0</ele><time>2026-04-04T10:35:28Z</time></trkpt><trkpt lat="44.99266181609416" lon="7.332315589113777"><ele>626.1666666666666</ele><time>2026-04-04T10:35:29Z</time></trkpt><trkpt lat="44.99259131379547" lon="7.332363514525253"><ele>626.3333333333333</ele><time>2026-04-04T10:35:30Z</time></trkpt><trkpt lat="44.99250596967719" lon="7.332429092955858"><ele>626.5</ele><time>2026-04-04T10:35:31Z</time></trkpt><trkpt lat="44.992439394164116" lon="7.332497992321071"><ele>626.6666666666666</ele><time>2026-04-04T10:35:32Z</time></trkpt><trkpt lat="44.99237983068493" lon="7.332552182065649"><ele>626.8333333333334</ele><time>2026-04-04T10:35:33Z</time></trkpt><trkpt lat="44.992300709274524" lon="7.3326217311050135"><ele>627.0</ele><time>2026-04-04T10:35:34Z</time></trkpt><trkpt lat="44.99220689103367" lon="7.332684027856753"><ele>627.1666666666666</ele><time>2026-04-04T10:35:35Z</time></trkpt><trkpt lat="44.992135182236915" lon="7.3328074678608965"><ele>627.3333333333334</ele><time>2026-04-04T10:35:36Z</time></trkpt><trkpt lat="44.992085090232884" lon="7.332914688325452"><ele>627.5</ele><time>2026-04-04T10:35:37Z</time></trkpt><trkpt lat="44.99204644628212" lon="7.333027310668715"><ele>627.6666666666667</ele><time>2026-04-04T10:35:38Z</time></trkpt><trkpt lat="44.99202337110376" lon="7.333130037363599"><ele>627.8333333333334</ele><time>2026-04-04T10:35:39Z</time></trkpt><trkpt lat="44.992008490166896" lon="7.333240509347164"><ele>628.0</ele><time>2026-04-04T10:35:40Z</time></trkpt><trkpt lat="44.99199630365173" lon="7.333367709706438"><ele>626.6666666666667</ele><time>2026-04-04T10:35:41Z</time></trkpt><trkpt lat="44.9919705183795" lon="7.333509647266288"><ele>625.3333333333334</ele><time>2026-04-04T10:35:42Z</time></trkpt><trkpt lat="44.99197292463778" lon="7.333640118451534"><ele>624.0</ele><time>2026-04-04T10:35:42.999Z</time></trkpt><trkpt lat="44.99198429491627" lon="7.333768959416436"><ele>622.6666666666666</ele><time>2026-04-04T10:35:43.999Z</time></trkpt><trkpt lat="44.99199009208459" lon="7.3338723988294845"><ele>621.3333333333333</ele><time>2026-04-04T10:35:44.999Z</time></trkpt><trkpt lat="44.991973462313126" lon="7.333988304444559"><ele>620.0</ele><time>2026-04-04T10:35:45.999Z</time></trkpt><trkpt lat="44.99197782664522" lon="7.334108580215402"><ele>619.3333333333333</ele><time>2026-04-04T10:35:46.999Z</time></trkpt><trkpt lat="44.9919714977235" lon="7.334213234717762"><ele>618.6666666666666</ele><time>2026-04-04T10:35:47.999Z</time></trkpt><trkpt lat="44.99196637430431" lon="7.334318178418909"><ele>618.0</ele><time>2026-04-04T10:35:48.999Z</time></trkpt><trkpt lat="44.99195870863237" lon="7.334436908796592"><ele>617.3333333333334</ele><time>2026-04-04T10:35:49.999Z</time></trkpt><trkpt lat="44.991947195030626" lon="7.334567929675841"><ele>616.6666666666667</ele><time>2026-04-04T10:35:50.999Z</time></trkpt><trkpt lat="44.991934715844636" lon="7.334693990387944"><ele>616.0</ele><time>2026-04-04T10:35:51.999Z</time></trkpt><trkpt lat="44.991920045531614" lon="7.334823062063724"><ele>614.4</ele><time>2026-04-04T10:35:52.999Z</time></trkpt><trkpt lat="44.99190351682259" lon="7.334959509021247"><ele>612.8</ele><time>2026-04-04T10:35:53.999Z</time></trkpt><trkpt lat="44.99188589086825" lon="7.335101474097596"><ele>611.1999999999999</ele><time>2026-04-04T10:35:54.999Z</time></trkpt><trkpt lat="44.99186899530006" lon="7.335240951534304"><ele>609.6</ele><time>2026-04-04T10:35:55.999Z</time></trkpt><trkpt lat="44.9918702135441" lon="7.33534661845563"><ele>608.0</ele><time>2026-04-04T10:35:56.999Z</time></trkpt><trkpt lat="44.99183783656359" lon="7.3354496115237575"><ele>608.0</ele><time>2026-04-04T10:35:57.999Z</time></trkpt><trkpt lat="44.99182098839219" lon="7.335551077215853"><ele>608.0</ele><time>2026-04-04T10:35:58.999Z</time></trkpt><trkpt lat="44.991827407584665" lon="7.335660804109312"><ele>608.0</ele><time>2026-04-04T10:35:59.999Z</time></trkpt><trkpt lat="44.99183195466372" lon="7.335793721173537"><ele>608.0</ele><time>2026-04-04T10:36:00.999Z</time></trkpt><trkpt lat="44.991831954660206" lon="7.335934918291332"><ele>608.0</ele><time>2026-04-04T10:36:01.999Z</time></trkpt><trkpt lat="44.9918333025862" lon="7.336099349364921"><ele>605.75</ele><time>2026-04-04T10:36:02.999Z</time></trkpt><trkpt lat="44.99183778180819" lon="7.336276452701554"><ele>603.5</ele><time>2026-04-04T10:36:03.999Z</time></trkpt><trkpt lat="44.991846508485175" lon="7.336453213580955"><ele>601.25</ele><time>2026-04-04T10:36:04.999Z</time></trkpt><trkpt lat="44.991857781634224" lon="7.336610161521891"><ele>599.0</ele><time>2026-04-04T10:36:05.999Z</time></trkpt><trkpt lat="44.99187097012544" lon="7.336742839903309"><ele>597.4</ele><time>2026-04-04T10:36:06.999Z</time></trkpt><trkpt lat="44.99188804966491" lon="7.336886679330728"><ele>595.8</ele><time>2026-04-04T10:36:07.999Z</time></trkpt><trkpt lat="44.9919160910342" lon="7.337064777054297"><ele>594.2</ele><time>2026-04-04T10:36:08.999Z</time></trkpt><trkpt lat="44.99194350131868" lon="7.3371941833980685"><ele>592.6</ele><time>2026-04-04T10:36:09.999Z</time></trkpt><trkpt lat="44.99197205454612" lon="7.337311568786365"><ele>591.0</ele><time>2026-04-04T10:36:10.999Z</time></trkpt><trkpt lat="44.991985338975425" lon="7.337410506366185"><ele>591.1666666666666</ele><time>2026-04-04T10:36:11.999Z</time></trkpt><trkpt lat="44.992046647379034" lon="7.33758743308421"><ele>591.3333333333334</ele><time>2026-04-04T10:36:13.999Z</time></trkpt><trkpt lat="44.992091644979745" lon="7.337672356802667"><ele>591.5</ele><time>2026-04-04T10:36:14.999Z</time></trkpt><trkpt lat="44.99212128636311" lon="7.337757219480836"><ele>591.6666666666667</ele><time>2026-04-04T10:36:15.999Z</time></trkpt><trkpt lat="44.99215355839821" lon="7.337849611051264"><ele>591.8333333333334</ele><time>2026-04-04T10:36:16.999Z</time></trkpt><trkpt lat="44.992192700467236" lon="7.337963975305729"><ele>592.0</ele><time>2026-04-04T10:36:17.999Z</time></trkpt><trkpt lat="44.992226653570384" lon="7.338074989769214"><ele>592.0</ele><time>2026-04-04T10:36:18.999Z</time></trkpt><trkpt lat="44.992259897995424" lon="7.338205270157047"><ele>592.0</ele><time>2026-04-04T10:36:19.999Z</time></trkpt><trkpt lat="44.99228502866247" lon="7.338324767166102"><ele>592.0</ele><time>2026-04-04T10:36:20.999Z</time></trkpt><trkpt lat="44.99230793597202" lon="7.338441798400869"><ele>592.0</ele><time>2026-04-04T10:36:21.999Z</time></trkpt><trkpt lat="44.99240361258518" lon="7.338551196291254"><ele>592.0</ele><time>2026-04-04T10:36:22.999Z</time></trkpt><trkpt lat="44.99242025649566" lon="7.338691842501173"><ele>592.0</ele><time>2026-04-04T10:36:23.999Z</time></trkpt><trkpt lat="44.992441935457826" lon="7.338831086822222"><ele>592.0</ele><time>2026-04-04T10:36:24.999Z</time></trkpt><trkpt lat="44.99245997038217" lon="7.338964226666754"><ele>592.0</ele><time>2026-04-04T10:36:25.999Z</time></trkpt><trkpt lat="44.992471336966794" lon="7.339101289267539"><ele>592.0</ele><time>2026-04-04T10:36:26.999Z</time></trkpt><trkpt lat="44.99248808348483" lon="7.339232059776249"><ele>592.0</ele><time>2026-04-04T10:36:27.999Z</time></trkpt><trkpt lat="44.99251751303192" lon="7.339332622501844"><ele>586.2</ele><time>2026-04-04T10:36:28.999Z</time></trkpt><trkpt lat="44.99256067109148" lon="7.339445705521824"><ele>580.4000000000001</ele><time>2026-04-04T10:36:29.999Z</time></trkpt><trkpt lat="44.992622128397166" lon="7.339545809448464"><ele>574.5999999999999</ele><time>2026-04-04T10:36:30.999Z</time></trkpt><trkpt lat="44.992681897644694" lon="7.339638050032028"><ele>568.8</ele><time>2026-04-04T10:36:31.999Z</time></trkpt><trkpt lat="44.99272690016217" lon="7.339744171037233"><ele>563.0</ele><time>2026-04-04T10:36:32.999Z</time></trkpt><trkpt lat="44.992755843689714" lon="7.339879175138716"><ele>561.8</ele><time>2026-04-04T10:36:33.999Z</time></trkpt><trkpt lat="44.99277880328982" lon="7.340005259290678"><ele>560.5999999999999</ele><time>2026-04-04T10:36:34.999Z</time></trkpt><trkpt lat="44.99282213688122" lon="7.340119808423287"><ele>559.4000000000001</ele><time>2026-04-04T10:36:35.999Z</time></trkpt><trkpt lat="44.99288660874871" lon="7.340224925457975"><ele>558.2</ele><time>2026-04-04T10:36:36.999Z</time></trkpt><trkpt lat="44.99294137311134" lon="7.340339066137944"><ele>557.0</ele><time>2026-04-04T10:36:37.999Z</time></trkpt><trkpt lat="44.99297032132995" lon="7.3404651343152585"><ele>557.3333333333333</ele><time>2026-04-04T10:36:38.999Z</time></trkpt><trkpt lat="44.99296761674472" lon="7.340565902004534"><ele>557.6666666666666</ele><time>2026-04-04T10:36:39.999Z</time></trkpt><trkpt lat="44.99292725718973" lon="7.340708969849933"><ele>558.0</ele><time>2026-04-04T10:36:41.999Z</time></trkpt><trkpt lat="44.99283299298501" lon="7.340765145151341"><ele>558.3333333333334</ele><time>2026-04-04T10:36:43.999Z</time></trkpt><trkpt lat="44.992759573627744" lon="7.340778960438688"><ele>558.6666666666667</ele><time>2026-04-04T10:36:44.999Z</time></trkpt><trkpt lat="44.99267596614944" lon="7.340780903114155"><ele>559.0</ele><time>2026-04-04T10:36:45.999Z</time></trkpt><trkpt lat="44.9926003169483" lon="7.340777928679366"><ele>559.0</ele><time>2026-04-04T10:36:46.999Z</time></trkpt><trkpt lat="44.992540817140274" lon="7.340809474929134"><ele>559.0</ele><time>2026-04-04T10:36:47.999Z</time></trkpt><trkpt lat="44.992485100998096" lon="7.340947153205925"><ele>559.0</ele><time>2026-04-04T10:36:49.999Z</time></trkpt><trkpt lat="44.992492635984355" lon="7.341037743626931"><ele>559.0</ele><time>2026-04-04T10:36:50.999Z</time></trkpt><trkpt lat="44.992518455605975" lon="7.341139490499252"><ele>559.0</ele><time>2026-04-04T10:36:51.999Z</time></trkpt><trkpt lat="44.992534668271546" lon="7.341247650456749"><ele>559.0</ele><time>2026-04-04T10:36:52.999Z</time></trkpt><trkpt lat="44.992536130807366" lon="7.341372066845941"><ele>558.6666666666667</ele><time>2026-04-04T10:36:53.999Z</time></trkpt><trkpt lat="44.99253602758385" lon="7.34148731376164"><ele>558.3333333333334</ele><time>2026-04-04T10:36:54.999Z</time></trkpt><trkpt lat="44.992550629324654" lon="7.341586158991147"><ele>558.0</ele><time>2026-04-04T10:36:55.999Z</time></trkpt><trkpt lat="44.992573830355894" lon="7.341692841643962"><ele>557.6666666666666</ele><time>2026-04-04T10:36:56.999Z</time></trkpt><trkpt lat="44.99260687339549" lon="7.341799199772888"><ele>557.3333333333333</ele><time>2026-04-04T10:36:57.999Z</time></trkpt><trkpt lat="44.9926734039476" lon="7.341875065156343"><ele>557.0</ele><time>2026-04-04T10:36:58.999Z</time></trkpt><trkpt lat="44.99273454326576" lon="7.341938414018826"><ele>557.0</ele><time>2026-04-04T10:36:59.999Z</time></trkpt><trkpt lat="44.992829818461274" lon="7.342024210370629"><ele>557.0</ele><time>2026-04-04T10:37:01.999Z</time></trkpt><trkpt lat="44.992898544163864" lon="7.342081098671889"><ele>557.0</ele><time>2026-04-04T10:37:13.999Z</time></trkpt><trkpt lat="44.992975032142596" lon="7.342111879490407"><ele>557.0</ele><time>2026-04-04T10:37:16.999Z</time></trkpt><trkpt lat="44.99303908609" lon="7.342228008859081"><ele>557.0</ele><time>2026-04-04T10:37:19Z</time></trkpt><trkpt lat="44.99308040836234" lon="7.342304680133176"><ele>557.0</ele><time>2026-04-04T10:37:20Z</time></trkpt><trkpt lat="44.993132858580914" lon="7.342389372018169"><ele>556.5</ele><time>2026-04-04T10:37:21Z</time></trkpt><trkpt lat="44.99318338489549" lon="7.342481733679288"><ele>556.0</ele><time>2026-04-04T10:37:22Z</time></trkpt><trkpt lat="44.99322401572171" lon="7.34257669371939"><ele>555.5</ele><time>2026-04-04T10:37:23Z</time></trkpt><trkpt lat="44.99325940937353" lon="7.342676028604502"><ele>555.0</ele><time>2026-04-04T10:37:24Z</time></trkpt><trkpt lat="44.99330653903354" lon="7.342783149930132"><ele>554.5</ele><time>2026-04-04T10:37:25Z</time></trkpt><trkpt lat="44.99334567939612" lon="7.342879283588937"><ele>554.0</ele><time>2026-04-04T10:37:26Z</time></trkpt><trkpt lat="44.993384167431806" lon="7.342964507507573"><ele>551.8</ele><time>2026-04-04T10:37:27Z</time></trkpt><trkpt lat="44.993420230545986" lon="7.3430986551435815"><ele>549.5999999999999</ele><time>2026-04-04T10:37:29Z</time></trkpt><trkpt lat="44.99348656141745" lon="7.343221427369023"><ele>547.4</ele><time>2026-04-04T10:37:31Z</time></trkpt><trkpt lat="44.99355224128525" lon="7.343348028010533"><ele>545.1999999999999</ele><time>2026-04-04T10:37:33Z</time></trkpt><trkpt lat="44.99357479943551" lon="7.343444992797786"><ele>543.0</ele><time>2026-04-04T10:37:34Z</time></trkpt><trkpt lat="44.99360045077499" lon="7.343545824467694"><ele>543.0</ele><time>2026-04-04T10:37:35Z</time></trkpt><trkpt lat="44.99362262800675" lon="7.343633144315447"><ele>543.0</ele><time>2026-04-04T10:37:36Z</time></trkpt><trkpt lat="44.99363267359771" lon="7.343730830389634"><ele>543.0</ele><time>2026-04-04T10:37:37Z</time></trkpt><trkpt lat="44.99362536575696" lon="7.343836614750243"><ele>543.0</ele><time>2026-04-04T10:37:38Z</time></trkpt><trkpt lat="44.99361564746438" lon="7.343925620777565"><ele>543.0</ele><time>2026-04-04T10:37:39Z</time></trkpt><trkpt lat="44.993620118966355" lon="7.3440671206083525"><ele>543.0</ele><time>2026-04-04T10:37:41Z</time></trkpt><trkpt lat="44.993636499884325" lon="7.344187927087975"><ele>542.7142857142858</ele><time>2026-04-04T10:37:43Z</time></trkpt><trkpt lat="44.993626682991845" lon="7.344284331199718"><ele>542.4285714285714</ele><time>2026-04-04T10:37:45Z</time></trkpt><trkpt lat="44.993611112009106" lon="7.344381289950908"><ele>542.1428571428571</ele><time>2026-04-04T10:37:48Z</time></trkpt><trkpt lat="44.993585005588805" lon="7.344473616895463"><ele>541.8571428571429</ele><time>2026-04-04T10:38:01Z</time></trkpt><trkpt lat="44.99355332394994" lon="7.34457764735923"><ele>541.5714285714286</ele><time>2026-04-04T10:38:09Z</time></trkpt><trkpt lat="44.99351630055229" lon="7.344686328525276"><ele>541.2857142857143</ele><time>2026-04-04T10:38:13Z</time></trkpt><trkpt lat="44.99350562348516" lon="7.344776241963108"><ele>541.0</ele><time>2026-04-04T10:38:14Z</time></trkpt><trkpt lat="44.99348558372149" lon="7.344885108908927"><ele>541.0</ele><time>2026-04-04T10:38:15Z</time></trkpt><trkpt lat="44.99347068270623" lon="7.345027989603569"><ele>541.0</ele><time>2026-04-04T10:38:16Z</time></trkpt><trkpt lat="44.993461160747636" lon="7.345148998570856"><ele>541.0</ele><time>2026-04-04T10:38:17Z</time></trkpt><trkpt lat="44.99343805997062" lon="7.345265581081837"><ele>541.0</ele><time>2026-04-04T10:38:18Z</time></trkpt><trkpt lat="44.99340326021815" lon="7.345374307425767"><ele>541.0</ele><time>2026-04-04T10:38:19Z</time></trkpt><trkpt lat="44.993343002652594" lon="7.345475619126668"><ele>542.1666666666667</ele><time>2026-04-04T10:38:20Z</time></trkpt><trkpt lat="44.993280935597355" lon="7.3455361016616285"><ele>543.3333333333334</ele><time>2026-04-04T10:38:21Z</time></trkpt><trkpt lat="44.99317918045497" lon="7.345623232077468"><ele>544.5</ele><time>2026-04-04T10:38:23Z</time></trkpt><trkpt lat="44.99314440671209" lon="7.3457476015943834"><ele>545.6666666666666</ele><time>2026-04-04T10:38:46Z</time></trkpt><trkpt lat="44.99310410958115" lon="7.345821503563313"><ele>546.8333333333333</ele><time>2026-04-04T10:38:47Z</time></trkpt><trkpt lat="44.99307153563941" lon="7.345945296154411"><ele>548.0</ele><time>2026-04-04T10:38:48Z</time></trkpt><trkpt lat="44.99303052573192" lon="7.3460813510690235"><ele>548.0</ele><time>2026-04-04T10:38:49Z</time></trkpt><trkpt lat="44.992976785051" lon="7.346212897512079"><ele>548.0</ele><time>2026-04-04T10:38:50Z</time></trkpt><trkpt lat="44.99290686613862" lon="7.346348313140268"><ele>548.0</ele><time>2026-04-04T10:38:51Z</time></trkpt><trkpt lat="44.99283634001895" lon="7.346484486832788"><ele>548.0</ele><time>2026-04-04T10:38:52Z</time></trkpt><trkpt lat="44.99279400692615" lon="7.346612792288534"><ele>548.0</ele><time>2026-04-04T10:38:53Z</time></trkpt><trkpt lat="44.99274663525679" lon="7.346734084497661"><ele>546.1999999999999</ele><time>2026-04-04T10:38:54Z</time></trkpt><trkpt lat="44.99270482159377" lon="7.346839261965457"><ele>544.4</ele><time>2026-04-04T10:38:55Z</time></trkpt><trkpt lat="44.992680813926114" lon="7.346970792350782"><ele>542.5999999999999</ele><time>2026-04-04T10:38:56Z</time></trkpt><trkpt lat="44.99266894732551" lon="7.347105295192028"><ele>540.8</ele><time>2026-04-04T10:38:57Z</time></trkpt><trkpt lat="44.99268432906987" lon="7.347240575452161"><ele>539.0</ele><time>2026-04-04T10:38:58Z</time></trkpt><trkpt lat="44.99270779668002" lon="7.347383404183083"><ele>536.6</ele><time>2026-04-04T10:38:59Z</time></trkpt><trkpt lat="44.99274169592379" lon="7.347537283438455"><ele>534.2</ele><time>2026-04-04T10:39:00Z</time></trkpt><trkpt lat="44.992743733817974" lon="7.347682675133992"><ele>531.8000000000001</ele><time>2026-04-04T10:39:01Z</time></trkpt><trkpt lat="44.99272812756698" lon="7.347850192120203"><ele>529.4</ele><time>2026-04-04T10:39:02Z</time></trkpt><trkpt lat="44.99270499298949" lon="7.347994657231422"><ele>527.0</ele><time>2026-04-04T10:39:03Z</time></trkpt><trkpt lat="44.992675404667395" lon="7.348127938066554"><ele>528.1666666666666</ele><time>2026-04-04T10:39:04Z</time></trkpt><trkpt lat="44.99264644904756" lon="7.348256578847781"><ele>529.3333333333333</ele><time>2026-04-04T10:39:05Z</time></trkpt><trkpt lat="44.99259873104161" lon="7.348372138113117"><ele>530.5</ele><time>2026-04-04T10:39:06Z</time></trkpt><trkpt lat="44.99254249503368" lon="7.348468898821151"><ele>531.6666666666666</ele><time>2026-04-04T10:39:07Z</time></trkpt><trkpt lat="44.99248275971986" lon="7.34855376468939"><ele>532.8333333333334</ele><time>2026-04-04T10:39:08Z</time></trkpt><trkpt lat="44.992416943939716" lon="7.348623233161972"><ele>534.0</ele><time>2026-04-04T10:39:09Z</time></trkpt><trkpt lat="44.992359950861086" lon="7.348690121842487"><ele>534.0</ele><time>2026-04-04T10:39:10Z</time></trkpt><trkpt lat="44.99229015288649" lon="7.348752937994629"><ele>534.0</ele><time>2026-04-04T10:39:11Z</time></trkpt><trkpt lat="44.99223688863211" lon="7.348821872564311"><ele>534.0</ele><time>2026-04-04T10:39:12Z</time></trkpt><trkpt lat="44.99218341949941" lon="7.348895038993515"><ele>534.0</ele><time>2026-04-04T10:39:13Z</time></trkpt><trkpt lat="44.99213367179306" lon="7.348960583399943"><ele>534.0</ele><time>2026-04-04T10:39:14Z</time></trkpt><trkpt lat="44.99207342210205" lon="7.349031020617695"><ele>534.0</ele><time>2026-04-04T10:39:15Z</time></trkpt><trkpt lat="44.992002857126245" lon="7.3491295899965925"><ele>534.8</ele><time>2026-04-04T10:39:16Z</time></trkpt><trkpt lat="44.99193506798366" lon="7.349258626855552"><ele>535.5999999999999</ele><time>2026-04-04T10:39:17Z</time></trkpt><trkpt lat="44.991894640984036" lon="7.3493819781235725"><ele>536.4</ele><time>2026-04-04T10:39:18Z</time></trkpt><trkpt lat="44.99185975990756" lon="7.349501557279814"><ele>537.1999999999999</ele><time>2026-04-04T10:39:19Z</time></trkpt><trkpt lat="44.99183427731366" lon="7.349619381118009"><ele>538.0</ele><time>2026-04-04T10:39:20Z</time></trkpt><trkpt lat="44.9918190524754" lon="7.349734879384052"><ele>538.8333333333334</ele><time>2026-04-04T10:39:21Z</time></trkpt><trkpt lat="44.991800307420874" lon="7.3498210306557885"><ele>539.6666666666667</ele><time>2026-04-04T10:39:22Z</time></trkpt><trkpt lat="44.991691769170075" lon="7.349908934567475"><ele>540.5</ele><time>2026-04-04T10:39:24Z</time></trkpt><trkpt lat="44.99162687225268" lon="7.349949499327917"><ele>541.3333333333334</ele><time>2026-04-04T10:39:25Z</time></trkpt><trkpt lat="44.99156919279344" lon="7.349986475019535"><ele>542.1666666666666</ele><time>2026-04-04T10:39:26Z</time></trkpt><trkpt lat="44.99152072040122" lon="7.350056393650689"><ele>543.0</ele><time>2026-04-04T10:39:27Z</time></trkpt><trkpt lat="44.99149950795155" lon="7.350167733860498"><ele>540.0</ele><time>2026-04-04T10:39:28Z</time></trkpt><trkpt lat="44.99149533117086" lon="7.350308932068468"><ele>537.0</ele><time>2026-04-04T10:39:29Z</time></trkpt><trkpt lat="44.99148900366386" lon="7.350447110449631"><ele>534.0</ele><time>2026-04-04T10:39:30Z</time></trkpt><trkpt lat="44.99148215643965" lon="7.350561553108663"><ele>531.0</ele><time>2026-04-04T10:39:31Z</time></trkpt><trkpt lat="44.99145951387627" lon="7.350687028125665"><ele>528.0</ele><time>2026-04-04T10:39:33Z</time></trkpt><trkpt lat="44.99144486587466" lon="7.350821450695399"><ele>527.8571428571429</ele><time>2026-04-04T10:40:52Z</time></trkpt><trkpt lat="44.99141733381074" lon="7.350911194859293"><ele>527.7142857142858</ele><time>2026-04-04T10:41:02Z</time></trkpt><trkpt lat="44.991399769794825" lon="7.350997368931163"><ele>527.5714285714287</ele><time>2026-04-04T10:41:09Z</time></trkpt><trkpt lat="44.991376839164225" lon="7.351081752326636"><ele>527.4285714285714</ele><time>2026-04-04T10:41:14Z</time></trkpt><trkpt lat="44.991354682569465" lon="7.351165712007255"><ele>527.2857142857143</ele><time>2026-04-04T10:41:18.001Z</time></trkpt><trkpt lat="44.99133082312088" lon="7.351271510004023"><ele>527.1428571428572</ele><time>2026-04-04T10:41:22.001Z</time></trkpt><trkpt lat="44.99128511402669" lon="7.351354015209345"><ele>527.0</ele><time>2026-04-04T10:41:26.001Z</time></trkpt><trkpt lat="44.99122392521251" lon="7.3512555353282885"><ele>527.0</ele><time>2026-04-04T10:41:28.001Z</time></trkpt><trkpt lat="44.991242075552485" lon="7.351093141515622"><ele>527.0</ele><time>2026-04-04T10:41:30.001Z</time></trkpt><trkpt lat="44.99127938653009" lon="7.3509639894305625"><ele>527.0</ele><time>2026-04-04T10:41:32.001Z</time></trkpt><trkpt lat="44.99129777286075" lon="7.350856198010646"><ele>527.0</ele><time>2026-04-04T10:41:34.001Z</time></trkpt><trkpt lat="44.99125540978359" lon="7.350762859298297"><ele>527.0</ele><time>2026-04-04T10:41:36.001Z</time></trkpt><trkpt lat="44.99116285781026" lon="7.3507779720954955"><ele>527.0</ele><time>2026-04-04T10:41:38.001Z</time></trkpt><trkpt lat="44.99113110390949" lon="7.350894799776374"><ele>527.0</ele><time>2026-04-04T10:41:40.001Z</time></trkpt><trkpt lat="44.991077264188064" lon="7.3509936602474735"><ele>527.0</ele><time>2026-04-04T10:41:42.001Z</time></trkpt><trkpt lat="44.991017367338415" lon="7.35110202567031"><ele>527.0</ele><time>2026-04-04T10:41:44.001Z</time></trkpt><trkpt lat="44.990945177829275" lon="7.351228611185344"><ele>527.0</ele><time>2026-04-04T10:41:46.001Z</time></trkpt><trkpt lat="44.990900135253305" lon="7.351292736760328"><ele>524.5714285714287</ele><time>2026-04-04T10:41:47.001Z</time></trkpt><trkpt lat="44.99083959631643" lon="7.3513394001430665"><ele>522.1428571428571</ele><time>2026-04-04T10:41:48.001Z</time></trkpt><trkpt lat="44.99079085407327" lon="7.3514115537866065"><ele>519.7142857142858</ele><time>2026-04-04T10:41:49.001Z</time></trkpt><trkpt lat="44.99074101468999" lon="7.351487844612872"><ele>517.2857142857143</ele><time>2026-04-04T10:41:50.001Z</time></trkpt><trkpt lat="44.99069355267297" lon="7.3515583738488015"><ele>514.8571428571429</ele><time>2026-04-04T10:41:51.001Z</time></trkpt><trkpt lat="44.990636772989035" lon="7.351632786938158"><ele>512.4285714285714</ele><time>2026-04-04T10:41:52.001Z</time></trkpt><trkpt lat="44.99057307460015" lon="7.351699418473752"><ele>510.0</ele><time>2026-04-04T10:41:53.001Z</time></trkpt><trkpt lat="44.99050370153829" lon="7.351766887051204"><ele>510.0</ele><time>2026-04-04T10:41:54.001Z</time></trkpt><trkpt lat="44.990432481896114" lon="7.351835442750748"><ele>510.0</ele><time>2026-04-04T10:41:55.001Z</time></trkpt><trkpt lat="44.99036240262266" lon="7.351905210254562"><ele>510.0</ele><time>2026-04-04T10:41:56.001Z</time></trkpt><trkpt lat="44.99029368958933" lon="7.351982227308202"><ele>510.0</ele><time>2026-04-04T10:41:57.001Z</time></trkpt><trkpt lat="44.990226402570016" lon="7.3520724271849485"><ele>510.0</ele><time>2026-04-04T10:41:58.001Z</time></trkpt><trkpt lat="44.99017431479667" lon="7.35219339733999"><ele>510.4</ele><time>2026-04-04T10:41:59.001Z</time></trkpt><trkpt lat="44.990115717888926" lon="7.352294916195429"><ele>510.8</ele><time>2026-04-04T10:42:00.001Z</time></trkpt><trkpt lat="44.990056481306176" lon="7.352400248411166"><ele>511.20000000000005</ele><time>2026-04-04T10:42:01.001Z</time></trkpt><trkpt lat="44.989983528098705" lon="7.352489343602385"><ele>511.6</ele><time>2026-04-04T10:42:02.001Z</time></trkpt><trkpt lat="44.98992138270912" lon="7.352594653595878"><ele>512.0</ele><time>2026-04-04T10:42:03.001Z</time></trkpt><trkpt lat="44.98985700627268" lon="7.352701434109249"><ele>509.20000000000005</ele><time>2026-04-04T10:42:04.001Z</time></trkpt><trkpt lat="44.989787606747925" lon="7.352816546339531"><ele>506.40000000000003</ele><time>2026-04-04T10:42:05.001Z</time></trkpt><trkpt lat="44.98972253563484" lon="7.352922457264526"><ele>503.59999999999997</ele><time>2026-04-04T10:42:06.001Z</time></trkpt><trkpt lat="44.98965397730821" lon="7.353029082464241"><ele>500.79999999999995</ele><time>2026-04-04T10:42:07.001Z</time></trkpt><trkpt lat="44.98958288363709" lon="7.353134871098883"><ele>498.0</ele><time>2026-04-04T10:42:08.001Z</time></trkpt><trkpt lat="44.989511316524236" lon="7.35323820673353"><ele>497.59999999999997</ele><time>2026-04-04T10:42:09.001Z</time></trkpt><trkpt lat="44.989437042373375" lon="7.353343902577147"><ele>497.19999999999993</ele><time>2026-04-04T10:42:10.001Z</time></trkpt><trkpt lat="44.98936544388009" lon="7.353444044645968"><ele>496.8</ele><time>2026-04-04T10:42:11.001Z</time></trkpt><trkpt lat="44.989293692282914" lon="7.353543474023738"><ele>496.4</ele><time>2026-04-04T10:42:12.001Z</time></trkpt><trkpt lat="44.98922192222285" lon="7.353642928935575"><ele>496.0</ele><time>2026-04-04T10:42:13.001Z</time></trkpt><trkpt lat="44.989148344251475" lon="7.353744889244614"><ele>495.0</ele><time>2026-04-04T10:42:14.001Z</time></trkpt><trkpt lat="44.98908597166785" lon="7.353859508040035"><ele>494.0</ele><time>2026-04-04T10:42:15.001Z</time></trkpt><trkpt lat="44.9890122754613" lon="7.353954492901324"><ele>493.0</ele><time>2026-04-04T10:42:16.001Z</time></trkpt><trkpt lat="44.98893977799405" lon="7.354049329425867"><ele>492.0</ele><time>2026-04-04T10:42:17.001Z</time></trkpt><trkpt lat="44.988860310387324" lon="7.354133090586687"><ele>491.0</ele><time>2026-04-04T10:42:18.001Z</time></trkpt><trkpt lat="44.98878492561975" lon="7.354229716811256"><ele>489.8</ele><time>2026-04-04T10:42:19.001Z</time></trkpt><trkpt lat="44.988706806931404" lon="7.354331075827279"><ele>488.6</ele><time>2026-04-04T10:42:20.001Z</time></trkpt><trkpt lat="44.98863054766458" lon="7.354433889826558"><ele>487.4</ele><time>2026-04-04T10:42:21Z</time></trkpt><trkpt lat="44.98855853657028" lon="7.354534629879677"><ele>486.2</ele><time>2026-04-04T10:42:22Z</time></trkpt><trkpt lat="44.988484088750965" lon="7.354637868644952"><ele>485.0</ele><time>2026-04-04T10:42:23Z</time></trkpt><trkpt lat="44.988411172011375" lon="7.354733408247797"><ele>483.0</ele><time>2026-04-04T10:42:24Z</time></trkpt><trkpt lat="44.98834053351457" lon="7.354824219335078"><ele>481.0</ele><time>2026-04-04T10:42:25Z</time></trkpt><trkpt lat="44.98825340685369" lon="7.354933765265218"><ele>479.0</ele><time>2026-04-04T10:42:26Z</time></trkpt><trkpt lat="44.98815695943626" lon="7.355054432635808"><ele>477.0</ele><time>2026-04-04T10:42:27Z</time></trkpt><trkpt lat="44.98805658190198" lon="7.355204493314716"><ele>477.0</ele><time>2026-04-04T10:42:28Z</time></trkpt><trkpt lat="44.98793633000761" lon="7.355350462476763"><ele>477.0</ele><time>2026-04-04T10:42:29Z</time></trkpt><trkpt lat="44.987798365115516" lon="7.35551705450288"><ele>477.0</ele><time>2026-04-04T10:42:30Z</time></trkpt><trkpt lat="44.9876817541073" lon="7.355681415341031"><ele>477.66666666666663</ele><time>2026-04-04T10:42:31Z</time></trkpt><trkpt lat="44.98756894691471" lon="7.3558464204565075"><ele>478.3333333333333</ele><time>2026-04-04T10:42:32Z</time></trkpt><trkpt lat="44.98744827036666" lon="7.355988455658276"><ele>479.0</ele><time>2026-04-04T10:42:33Z</time></trkpt><trkpt lat="44.98733970673076" lon="7.356133220292373"><ele>477.5</ele><time>2026-04-04T10:42:34Z</time></trkpt><trkpt lat="44.98723841268871" lon="7.356288191374063"><ele>476.0</ele><time>2026-04-04T10:42:35Z</time></trkpt><trkpt lat="44.98712783407757" lon="7.356413450496894"><ele>474.5</ele><time>2026-04-04T10:42:36Z</time></trkpt><trkpt lat="44.98701400959742" lon="7.356521469864107"><ele>473.0</ele><time>2026-04-04T10:42:37Z</time></trkpt><trkpt lat="44.9869081974471" lon="7.3566345926781285"><ele>473.0</ele><time>2026-04-04T10:42:38Z</time></trkpt><trkpt lat="44.98680574000647" lon="7.356755497783708"><ele>473.0</ele><time>2026-04-04T10:42:39Z</time></trkpt><trkpt lat="44.98666758405804" lon="7.356840128664967"><ele>473.0</ele><time>2026-04-04T10:42:40Z</time></trkpt><trkpt lat="44.986512206626244" lon="7.3568839747935355"><ele>473.0</ele><time>2026-04-04T10:42:41Z</time></trkpt><trkpt lat="44.98636838361242" lon="7.356937553936375"><ele>471.25</ele><time>2026-04-04T10:42:42Z</time></trkpt><trkpt lat="44.98624030258255" lon="7.356994283960296"><ele>469.5</ele><time>2026-04-04T10:42:43Z</time></trkpt><trkpt lat="44.98612820264122" lon="7.357072453610451"><ele>467.75</ele><time>2026-04-04T10:42:44Z</time></trkpt><trkpt lat="44.98604405598569" lon="7.357176931441388"><ele>466.0</ele><time>2026-04-04T10:42:45Z</time></trkpt><trkpt lat="44.98596101137325" lon="7.357299859865007"><ele>465.8</ele><time>2026-04-04T10:42:46Z</time></trkpt><trkpt lat="44.98589401276562" lon="7.357434711390591"><ele>465.6</ele><time>2026-04-04T10:42:47Z</time></trkpt><trkpt lat="44.98583556921798" lon="7.357572404014456"><ele>465.4</ele><time>2026-04-04T10:42:48Z</time></trkpt><trkpt lat="44.98575989756128" lon="7.357676443319101"><ele>465.2</ele><time>2026-04-04T10:42:49Z</time></trkpt><trkpt lat="44.98570489812924" lon="7.357801817954388"><ele>465.0</ele><time>2026-04-04T10:42:50Z</time></trkpt><trkpt lat="44.98566855012955" lon="7.35794091674967"><ele>464.6</ele><time>2026-04-04T10:42:51Z</time></trkpt><trkpt lat="44.985656890899655" lon="7.358084098520571"><ele>464.2</ele><time>2026-04-04T10:42:52Z</time></trkpt><trkpt lat="44.98565285566052" lon="7.358228503680756"><ele>463.79999999999995</ele><time>2026-04-04T10:42:53Z</time></trkpt><trkpt lat="44.98566661741894" lon="7.3583628094548885"><ele>463.4</ele><time>2026-04-04T10:42:54Z</time></trkpt><trkpt lat="44.98570106957526" lon="7.358478090257521"><ele>463.0</ele><time>2026-04-04T10:42:55Z</time></trkpt><trkpt lat="44.98573092314727" lon="7.35860444883527"><ele>463.00000000000006</ele><time>2026-04-04T10:42:56Z</time></trkpt><trkpt lat="44.98574808050287" lon="7.3587219841585965"><ele>463.0</ele><time>2026-04-04T10:42:57Z</time></trkpt><trkpt lat="44.98575400950371" lon="7.358822209375503"><ele>463.0</ele><time>2026-04-04T10:42:58Z</time></trkpt><trkpt lat="44.98573705616774" lon="7.358926276297153"><ele>463.0</ele><time>2026-04-04T10:42:59Z</time></trkpt><trkpt lat="44.985694662579036" lon="7.359020633118447"><ele>463.00000000000006</ele><time>2026-04-04T10:43:00Z</time></trkpt><trkpt lat="44.985620808949314" lon="7.359100065370332"><ele>463.0</ele><time>2026-04-04T10:43:01Z</time></trkpt><trkpt lat="44.985563907682646" lon="7.3592118544264205"><ele>461.2</ele><time>2026-04-04T10:43:02Z</time></trkpt><trkpt lat="44.98553125963447" lon="7.359320166059291"><ele>459.4</ele><time>2026-04-04T10:43:03Z</time></trkpt><trkpt lat="44.98550896581597" lon="7.3594371168656805"><ele>457.59999999999997</ele><time>2026-04-04T10:43:04Z</time></trkpt><trkpt lat="44.98549468651165" lon="7.359528118251635"><ele>455.79999999999995</ele><time>2026-04-04T10:43:05Z</time></trkpt><trkpt lat="44.98553201812335" lon="7.359724600885926"><ele>454.0</ele><time>2026-04-04T10:43:07Z</time></trkpt><trkpt lat="44.985543556957865" lon="7.359846490505522"><ele>452.6</ele><time>2026-04-04T10:43:08Z</time></trkpt><trkpt lat="44.98554143337053" lon="7.359987094845009"><ele>451.2</ele><time>2026-04-04T10:43:09Z</time></trkpt><trkpt lat="44.985531798311264" lon="7.360131482711995"><ele>449.80000000000007</ele><time>2026-04-04T10:43:10Z</time></trkpt><trkpt lat="44.985500003927626" lon="7.360271807695153"><ele>448.40000000000003</ele><time>2026-04-04T10:43:11Z</time></trkpt><trkpt lat="44.985474893222246" lon="7.360419765848933"><ele>447.0</ele><time>2026-04-04T10:43:12Z</time></trkpt><trkpt lat="44.985443207641495" lon="7.360564980777825"><ele>447.0</ele><time>2026-04-04T10:43:13Z</time></trkpt><trkpt lat="44.98539758833421" lon="7.360705631812013"><ele>447.0</ele><time>2026-04-04T10:43:14Z</time></trkpt><trkpt lat="44.985342591651644" lon="7.36084979835857"><ele>447.0</ele><time>2026-04-04T10:43:15Z</time></trkpt><trkpt lat="44.985283156866224" lon="7.360987680549587"><ele>447.0</ele><time>2026-04-04T10:43:16Z</time></trkpt><trkpt lat="44.98522265614209" lon="7.361123698364364"><ele>447.0</ele><time>2026-04-04T10:43:17Z</time></trkpt><trkpt lat="44.98516851045979" lon="7.3612642283793335"><ele>447.00000000000006</ele><time>2026-04-04T10:43:18Z</time></trkpt><trkpt lat="44.98511869448896" lon="7.361403466969753"><ele>447.00000000000006</ele><time>2026-04-04T10:43:19Z</time></trkpt><trkpt lat="44.98507389969658" lon="7.361535641614915"><ele>447.0</ele><time>2026-04-04T10:43:20Z</time></trkpt><trkpt lat="44.98502669193809" lon="7.361662854452152"><ele>447.0</ele><time>2026-04-04T10:43:21Z</time></trkpt><trkpt lat="44.98497124051234" lon="7.361778382142602"><ele>446.40000000000003</ele><time>2026-04-04T10:43:22Z</time></trkpt><trkpt lat="44.9849147602552" lon="7.361903109082932"><ele>445.80000000000007</ele><time>2026-04-04T10:43:23Z</time></trkpt><trkpt lat="44.98485255650491" lon="7.362026150259776"><ele>445.2</ele><time>2026-04-04T10:43:24Z</time></trkpt><trkpt lat="44.984778420602865" lon="7.362127962951506"><ele>444.6</ele><time>2026-04-04T10:43:25Z</time></trkpt><trkpt lat="44.98466762436709" lon="7.362198291148354"><ele>444.0</ele><time>2026-04-04T10:43:26Z</time></trkpt><trkpt lat="44.98455612903671" lon="7.362300653022998"><ele>442.5</ele><time>2026-04-04T10:43:27Z</time></trkpt><trkpt lat="44.98443281079126" lon="7.362411264941671"><ele>441.0</ele><time>2026-04-04T10:43:28Z</time></trkpt><trkpt lat="44.98431001468222" lon="7.362521408538223"><ele>439.5</ele><time>2026-04-04T10:43:29Z</time></trkpt><trkpt lat="44.98419832702484" lon="7.362627063772023"><ele>438.0</ele><time>2026-04-04T10:43:30Z</time></trkpt><trkpt lat="44.9840950584594" lon="7.362750888947844"><ele>437.25</ele><time>2026-04-04T10:43:31Z</time></trkpt><trkpt lat="44.98402396683961" lon="7.362917351247978"><ele>436.5</ele><time>2026-04-04T10:43:32Z</time></trkpt><trkpt lat="44.98397682495076" lon="7.363084779614055"><ele>435.75</ele><time>2026-04-04T10:43:33Z</time></trkpt><trkpt lat="44.98393925863959" lon="7.363247658012753"><ele>435.0</ele><time>2026-04-04T10:43:34Z</time></trkpt><trkpt lat="44.983919880185056" lon="7.363414050286116"><ele>433.5</ele><time>2026-04-04T10:43:35Z</time></trkpt><trkpt lat="44.9838861799012" lon="7.363570747987035"><ele>432.0</ele><time>2026-04-04T10:43:36Z</time></trkpt><trkpt lat="44.98385126763978" lon="7.36372625676042"><ele>430.5</ele><time>2026-04-04T10:43:37Z</time></trkpt><trkpt lat="44.98381984077193" lon="7.3638821304537805"><ele>429.0</ele><time>2026-04-04T10:43:38Z</time></trkpt><trkpt lat="44.98379252399592" lon="7.364035662872193"><ele>428.4</ele><time>2026-04-04T10:43:39Z</time></trkpt><trkpt lat="44.98376776162341" lon="7.364186976447073"><ele>427.79999999999995</ele><time>2026-04-04T10:43:40Z</time></trkpt><trkpt lat="44.983745254719395" lon="7.364337814000044"><ele>427.20000000000005</ele><time>2026-04-04T10:43:41Z</time></trkpt><trkpt lat="44.98370488799483" lon="7.3644756667133535"><ele>426.6</ele><time>2026-04-04T10:43:42Z</time></trkpt><trkpt lat="44.983677271502145" lon="7.364613404251452"><ele>426.0</ele><time>2026-04-04T10:43:43Z</time></trkpt><trkpt lat="44.98364920457471" lon="7.3647453098076125"><ele>425.0</ele><time>2026-04-04T10:43:44Z</time></trkpt><trkpt lat="44.9836166717971" lon="7.364863194321021"><ele>424.0</ele><time>2026-04-04T10:43:45Z</time></trkpt><trkpt lat="44.983568263259876" lon="7.364956125165401"><ele>423.0</ele><time>2026-04-04T10:43:46Z</time></trkpt><trkpt lat="44.98350429851327" lon="7.36500627672662"><ele>422.0</ele><time>2026-04-04T10:43:47Z</time></trkpt><trkpt lat="44.983403144308575" lon="7.3650870909582045"><ele>421.0</ele><time>2026-04-04T10:43:49Z</time></trkpt><trkpt lat="44.98334676854007" lon="7.365141722750335"><ele>420.0</ele><time>2026-04-04T10:43:50Z</time></trkpt><trkpt lat="44.983297935657355" lon="7.365222828016939"><ele>419.8</ele><time>2026-04-04T10:43:51Z</time></trkpt><trkpt lat="44.98325975940173" lon="7.3653247396371615"><ele>419.6</ele><time>2026-04-04T10:43:52Z</time></trkpt><trkpt lat="44.9832204644699" lon="7.365437668993142"><ele>419.4</ele><time>2026-04-04T10:43:53Z</time></trkpt><trkpt lat="44.98317211797453" lon="7.365571501887234"><ele>419.2</ele><time>2026-04-04T10:43:54Z</time></trkpt><trkpt lat="44.98312617856015" lon="7.365726980877967"><ele>419.0</ele><time>2026-04-04T10:43:55Z</time></trkpt><trkpt lat="44.98307395280882" lon="7.365892971923651"><ele>418.0</ele><time>2026-04-04T10:43:56Z</time></trkpt><trkpt lat="44.983017725170605" lon="7.366071975862607"><ele>417.0</ele><time>2026-04-04T10:43:57Z</time></trkpt><trkpt lat="44.982968792608624" lon="7.366245206861388"><ele>416.0</ele><time>2026-04-04T10:43:58Z</time></trkpt><trkpt lat="44.98292382178347" lon="7.366403275246792"><ele>415.0</ele><time>2026-04-04T10:43:59Z</time></trkpt><trkpt lat="44.982859162076444" lon="7.36652214474981"><ele>414.4</ele><time>2026-04-04T10:44:00Z</time></trkpt><trkpt lat="44.98277641192155" lon="7.366602061242004"><ele>413.8</ele><time>2026-04-04T10:44:01Z</time></trkpt><trkpt lat="44.98268606217469" lon="7.3666826899328095"><ele>413.20000000000005</ele><time>2026-04-04T10:44:02Z</time></trkpt><trkpt lat="44.98259085541757" lon="7.366757800151072"><ele>412.6</ele><time>2026-04-04T10:44:03Z</time></trkpt><trkpt lat="44.982500871974715" lon="7.366844984223359"><ele>412.0</ele><time>2026-04-04T10:44:04Z</time></trkpt><trkpt lat="44.98241812661959" lon="7.366946559957871"><ele>411.0</ele><time>2026-04-04T10:44:05Z</time></trkpt><trkpt lat="44.98235757630863" lon="7.367089137549074"><ele>410.0</ele><time>2026-04-04T10:44:06Z</time></trkpt><trkpt lat="44.98228731477173" lon="7.367224280844005"><ele>409.0</ele><time>2026-04-04T10:44:07Z</time></trkpt><trkpt lat="44.98222348223211" lon="7.367378719138592"><ele>408.0</ele><time>2026-04-04T10:44:08Z</time></trkpt><trkpt lat="44.98214345810106" lon="7.367530316618956"><ele>407.0</ele><time>2026-04-04T10:44:09Z</time></trkpt><trkpt lat="44.98208322784292" lon="7.36770346229768"><ele>406.0</ele><time>2026-04-04T10:44:10Z</time></trkpt><trkpt lat="44.98205064728482" lon="7.367882851219325"><ele>405.0</ele><time>2026-04-04T10:44:11Z</time></trkpt><trkpt lat="44.98200409390116" lon="7.3680453098172745"><ele>404.0</ele><time>2026-04-04T10:44:12Z</time></trkpt><trkpt lat="44.981932629914965" lon="7.3681774101204764"><ele>403.75</ele><time>2026-04-04T10:44:13Z</time></trkpt><trkpt lat="44.981854309229604" lon="7.368293879667289"><ele>403.5</ele><time>2026-04-04T10:44:14Z</time></trkpt><trkpt lat="44.981759100368" lon="7.368413716414325"><ele>403.25</ele><time>2026-04-04T10:44:15Z</time></trkpt><trkpt lat="44.98165140724349" lon="7.3685396537262156"><ele>403.0</ele><time>2026-04-04T10:44:16Z</time></trkpt><trkpt lat="44.98155448495483" lon="7.3686765992184995"><ele>401.75</ele><time>2026-04-04T10:44:17Z</time></trkpt><trkpt lat="44.98150076701814" lon="7.368833689741324"><ele>400.5</ele><time>2026-04-04T10:44:18Z</time></trkpt><trkpt lat="44.98145927686608" lon="7.368978609463302"><ele>399.25</ele><time>2026-04-04T10:44:19Z</time></trkpt><trkpt lat="44.98143421824951" lon="7.369152417321444"><ele>398.0</ele><time>2026-04-04T10:44:20Z</time></trkpt><trkpt lat="44.98140687818769" lon="7.369336600869158"><ele>397.75</ele><time>2026-04-04T10:44:21Z</time></trkpt><trkpt lat="44.981371745011295" lon="7.369501808447023"><ele>397.5</ele><time>2026-04-04T10:44:22Z</time></trkpt><trkpt lat="44.98132598671237" lon="7.369660174903725"><ele>397.25</ele><time>2026-04-04T10:44:23Z</time></trkpt><trkpt lat="44.98127811210154" lon="7.369803764869449"><ele>397.0</ele><time>2026-04-04T10:44:24Z</time></trkpt><trkpt lat="44.98123589789112" lon="7.369929650606751"><ele>396.40000000000003</ele><time>2026-04-04T10:44:25Z</time></trkpt><trkpt lat="44.9812060669347" lon="7.370033978458445"><ele>395.8</ele><time>2026-04-04T10:44:26Z</time></trkpt><trkpt lat="44.981177428637565" lon="7.370140785198187"><ele>395.2</ele><time>2026-04-04T10:44:27Z</time></trkpt><trkpt lat="44.98113524425866" lon="7.3702663087798035"><ele>394.6</ele><time>2026-04-04T10:44:28Z</time></trkpt><trkpt lat="44.98104553479229" lon="7.3703739086395705"><ele>394.0</ele><time>2026-04-04T10:44:29Z</time></trkpt><trkpt lat="44.98097948059103" lon="7.370530291909772"><ele>392.75</ele><time>2026-04-04T10:44:30Z</time></trkpt><trkpt lat="44.98091825749096" lon="7.370700278505628"><ele>391.5</ele><time>2026-04-04T10:44:31Z</time></trkpt><trkpt lat="44.98088102426908" lon="7.370862910766195"><ele>390.25</ele><time>2026-04-04T10:44:32Z</time></trkpt><trkpt lat="44.98082296906851" lon="7.370998072896651"><ele>389.0</ele><time>2026-04-04T10:44:33Z</time></trkpt><trkpt lat="44.98078690603726" lon="7.371143973648706"><ele>388.4</ele><time>2026-04-04T10:44:34Z</time></trkpt><trkpt lat="44.98077201640341" lon="7.3713024978424695"><ele>387.79999999999995</ele><time>2026-04-04T10:44:35Z</time></trkpt><trkpt lat="44.98079354073389" lon="7.3714544098606885"><ele>387.20000000000005</ele><time>2026-04-04T10:44:36Z</time></trkpt><trkpt lat="44.980797869802394" lon="7.371596683811626"><ele>386.6</ele><time>2026-04-04T10:44:37Z</time></trkpt><trkpt lat="44.98076662312318" lon="7.371720282888333"><ele>386.0</ele><time>2026-04-04T10:44:38Z</time></trkpt><trkpt lat="44.980719588840834" lon="7.371849732960235"><ele>385.0</ele><time>2026-04-04T10:44:39Z</time></trkpt><trkpt lat="44.9806733164632" lon="7.372005366719443"><ele>384.0</ele><time>2026-04-04T10:44:40Z</time></trkpt><trkpt lat="44.980638379326116" lon="7.372134515280595"><ele>383.0</ele><time>2026-04-04T10:44:41Z</time></trkpt><trkpt lat="44.980620783695784" lon="7.3722677021957495"><ele>382.0</ele><time>2026-04-04T10:44:42Z</time></trkpt><trkpt lat="44.98060231616176" lon="7.3723771962228755"><ele>381.0</ele><time>2026-04-04T10:44:43Z</time></trkpt><trkpt lat="44.98059559011817" lon="7.372466912198467"><ele>381.20000000000005</ele><time>2026-04-04T10:44:44Z</time></trkpt><trkpt lat="44.9805733115275" lon="7.372576756896043"><ele>381.40000000000003</ele><time>2026-04-04T10:44:46Z</time></trkpt><trkpt lat="44.98069514636665" lon="7.372627583159517"><ele>381.6</ele><time>2026-04-04T10:44:47Z</time></trkpt><trkpt lat="44.980773344844025" lon="7.3726439274703495"><ele>381.8</ele><time>2026-04-04T10:44:48Z</time></trkpt><trkpt lat="44.98086229246761" lon="7.3726788096309175"><ele>382.0</ele><time>2026-04-04T10:44:49Z</time></trkpt><trkpt lat="44.980965967142104" lon="7.372735117874041"><ele>382.0</ele><time>2026-04-04T10:44:50Z</time></trkpt><trkpt lat="44.98107908084025" lon="7.372773961200236"><ele>382.0</ele><time>2026-04-04T10:44:51Z</time></trkpt><trkpt lat="44.9811986031114" lon="7.3728104219055615"><ele>382.0</ele><time>2026-04-04T10:44:52Z</time></trkpt><trkpt lat="44.9812970796526" lon="7.372840412354804"><ele>382.0</ele><time>2026-04-04T10:44:53Z</time></trkpt><trkpt lat="44.981366127279834" lon="7.372869971794721"><ele>382.0</ele><time>2026-04-04T10:44:54Z</time></trkpt><trkpt lat="44.98145644536187" lon="7.3728821693415165"><ele>381.40000000000003</ele><time>2026-04-04T10:44:56Z</time></trkpt><trkpt lat="44.98143105372308" lon="7.373101920745721"><ele>380.8</ele><time>2026-04-04T10:44:57Z</time></trkpt><trkpt lat="44.98141179204046" lon="7.373214867851528"><ele>380.2</ele><time>2026-04-04T10:44:58.001Z</time></trkpt><trkpt lat="44.981404955496735" lon="7.373337251098591"><ele>379.6</ele><time>2026-04-04T10:44:59.001Z</time></trkpt><trkpt lat="44.98141296595934" lon="7.373452259864012"><ele>379.0</ele><time>2026-04-04T10:45:00.001Z</time></trkpt><trkpt lat="44.981433308296985" lon="7.373547890267135"><ele>379.0</ele><time>2026-04-04T10:45:01.001Z</time></trkpt><trkpt lat="44.9814578505317" lon="7.373635533118788"><ele>379.0</ele><time>2026-04-04T10:45:02.001Z</time></trkpt><trkpt lat="44.98145850669816" lon="7.373793215787357"><ele>379.0</ele><time>2026-04-04T10:45:04.001Z</time></trkpt><trkpt lat="44.98143051327116" lon="7.373947379328508"><ele>379.0</ele><time>2026-04-04T10:45:06.001Z</time></trkpt><trkpt lat="44.98141356891456" lon="7.374105563402219"><ele>379.0</ele><time>2026-04-04T10:45:08.001Z</time></trkpt><trkpt lat="44.98140105470004" lon="7.374222551075578"><ele>378.66666666666663</ele><time>2026-04-04T10:45:09.001Z</time></trkpt><trkpt lat="44.98138743175527" lon="7.374341497298472"><ele>378.3333333333333</ele><time>2026-04-04T10:45:10.001Z</time></trkpt><trkpt lat="44.981377510751315" lon="7.374447328674336"><ele>378.0</ele><time>2026-04-04T10:45:11.001Z</time></trkpt><trkpt lat="44.9813609994859" lon="7.37453785653098"><ele>377.6666666666667</ele><time>2026-04-04T10:45:12.001Z</time></trkpt><trkpt lat="44.981325890488954" lon="7.374683617013193"><ele>377.33333333333337</ele><time>2026-04-04T10:45:14.001Z</time></trkpt><trkpt lat="44.98127671939856" lon="7.374824528672326"><ele>377.0</ele><time>2026-04-04T10:45:16.001Z</time></trkpt><trkpt lat="44.981219476402245" lon="7.374963081437464"><ele>376.33333333333337</ele><time>2026-04-04T10:45:18.001Z</time></trkpt><trkpt lat="44.98115936968126" lon="7.375094663452113"><ele>375.6666666666667</ele><time>2026-04-04T10:45:20.001Z</time></trkpt><trkpt lat="44.98112453616838" lon="7.3751761472995865"><ele>375.0</ele><time>2026-04-04T10:45:21.001Z</time></trkpt><trkpt lat="44.981080514095915" lon="7.3752711264499125"><ele>374.3333333333333</ele><time>2026-04-04T10:45:22.001Z</time></trkpt><trkpt lat="44.98103532188959" lon="7.3753846285703455"><ele>373.66666666666663</ele><time>2026-04-04T10:45:23.001Z</time></trkpt><trkpt lat="44.9810009229214" lon="7.375485221303846"><ele>373.0</ele><time>2026-04-04T10:45:24Z</time></trkpt><trkpt lat="44.98097307294825" lon="7.375579764299858"><ele>372.5</ele><time>2026-04-04T10:45:25Z</time></trkpt><trkpt lat="44.98094240310135" lon="7.375715564287995"><ele>372.0</ele><time>2026-04-04T10:45:27Z</time></trkpt><trkpt lat="44.98077577019403" lon="7.375685408948583"><ele>371.5</ele><time>2026-04-04T10:45:31Z</time></trkpt><trkpt lat="44.98067558283056" lon="7.375649071182472"><ele>371.0</ele><time>2026-04-04T10:45:32Z</time></trkpt><trkpt lat="44.98056924492447" lon="7.375610111750391"><ele>370.75</ele><time>2026-04-04T10:45:33Z</time></trkpt><trkpt lat="44.98044396315453" lon="7.375562447481602"><ele>370.5</ele><time>2026-04-04T10:45:34Z</time></trkpt><trkpt lat="44.98031236302785" lon="7.375510679385062"><ele>370.25</ele><time>2026-04-04T10:45:35Z</time></trkpt><trkpt lat="44.98017500048867" lon="7.375456830254843"><ele>370.0</ele><time>2026-04-04T10:45:36Z</time></trkpt><trkpt lat="44.980029789509054" lon="7.375399904381718"><ele>369.5</ele><time>2026-04-04T10:45:37Z</time></trkpt><trkpt lat="44.97988191418212" lon="7.375341933974032"><ele>369.0</ele><time>2026-04-04T10:45:38Z</time></trkpt><trkpt lat="44.979745576278916" lon="7.375287594895259"><ele>368.5</ele><time>2026-04-04T10:45:39Z</time></trkpt><trkpt lat="44.97962209555249" lon="7.3752276591954855"><ele>368.0</ele><time>2026-04-04T10:45:40Z</time></trkpt><trkpt lat="44.97950726429291" lon="7.375194063055774"><ele>368.0</ele><time>2026-04-04T10:45:41Z</time></trkpt><trkpt lat="44.979399691381296" lon="7.37517117907758"><ele>368.0</ele><time>2026-04-04T10:45:42Z</time></trkpt><trkpt lat="44.97928603860195" lon="7.375214655206909"><ele>368.0</ele><time>2026-04-04T10:45:43Z</time></trkpt><trkpt lat="44.97917616851649" lon="7.375199051342604"><ele>368.0</ele><time>2026-04-04T10:45:44Z</time></trkpt><trkpt lat="44.979083550804845" lon="7.375175905173503"><ele>368.0</ele><time>2026-04-04T10:45:45Z</time></trkpt><trkpt lat="44.97900669959546" lon="7.375157085216693"><ele>368.0</ele><time>2026-04-04T10:45:46Z</time></trkpt><trkpt lat="44.97893161120413" lon="7.375138696977111"><ele>368.0</ele><time>2026-04-04T10:45:47Z</time></trkpt><trkpt lat="44.978843663211514" lon="7.375117159556828"><ele>368.0</ele><time>2026-04-04T10:45:49Z</time></trkpt><trkpt lat="44.97876656256556" lon="7.3750984526484435"><ele>368.0</ele><time>2026-04-04T10:45:52Z</time></trkpt><trkpt lat="44.97870362009533" lon="7.375084741852668"><ele>368.0</ele><time>2026-04-04T10:46:00Z</time></trkpt><trkpt lat="44.97861179466043" lon="7.375064739476513"><ele>368.0</ele><time>2026-04-04T10:46:02Z</time></trkpt><trkpt lat="44.9784867424688" lon="7.375033431313422"><ele>368.0</ele><time>2026-04-04T10:46:04Z</time></trkpt><trkpt lat="44.978407147564994" lon="7.375006077451994"><ele>368.0</ele><time>2026-04-04T10:46:05Z</time></trkpt><trkpt lat="44.978321891022816" lon="7.374966530439357"><ele>368.0</ele><time>2026-04-04T10:46:06Z</time></trkpt><trkpt lat="44.97823265473971" lon="7.374909559575204"><ele>368.0</ele><time>2026-04-04T10:46:07Z</time></trkpt><trkpt lat="44.97814129082312" lon="7.374839337976386"><ele>368.0</ele><time>2026-04-04T10:46:08Z</time></trkpt><trkpt lat="44.97803340113428" lon="7.374754601712396"><ele>368.0</ele><time>2026-04-04T10:46:09Z</time></trkpt><trkpt lat="44.97791223711482" lon="7.374659533650365"><ele>368.0</ele><time>2026-04-04T10:46:10Z</time></trkpt><trkpt lat="44.97780038519663" lon="7.374583269780486"><ele>368.0</ele><time>2026-04-04T10:46:11Z</time></trkpt><trkpt lat="44.97770207072909" lon="7.374530525565514"><ele>368.0</ele><time>2026-04-04T10:46:12Z</time></trkpt><trkpt lat="44.977613551889455" lon="7.3744889787330115"><ele>368.0</ele><time>2026-04-04T10:46:13Z</time></trkpt><trkpt lat="44.977541724770795" lon="7.374458476846813"><ele>368.0</ele><time>2026-04-04T10:46:14Z</time></trkpt><trkpt lat="44.977457560788835" lon="7.374422734792921"><ele>368.0</ele><time>2026-04-04T10:46:16Z</time></trkpt><trkpt lat="44.97741597736159" lon="7.374588097415346"><ele>368.0</ele><time>2026-04-04T10:46:18Z</time></trkpt><trkpt lat="44.97747117290077" lon="7.37450438338931"><ele>368.0</ele><time>2026-04-04T10:46:39.001Z</time></trkpt><trkpt lat="44.97741697422157" lon="7.374368140265906"><ele>367.0</ele><time>2026-04-04T10:46:41.001Z</time></trkpt><trkpt lat="44.97743457339834" lon="7.374204167162959"><ele>366.0</ele><time>2026-04-04T10:46:43.001Z</time></trkpt><trkpt lat="44.97748148838451" lon="7.374109072935888"><ele>365.0</ele><time>2026-04-04T10:46:44.001Z</time></trkpt><trkpt lat="44.97750017245839" lon="7.37401918115227"><ele>364.0</ele><time>2026-04-04T10:46:45.001Z</time></trkpt><trkpt lat="44.97739617446507" lon="7.373838709613616"><ele>363.0</ele><time>2026-04-04T10:46:47.001Z</time></trkpt><trkpt lat="44.977306121051754" lon="7.373780756146286"><ele>363.0</ele><time>2026-04-04T10:46:48.001Z</time></trkpt><trkpt lat="44.97720851266555" lon="7.373711233159179"><ele>363.0</ele><time>2026-04-04T10:46:49.001Z</time></trkpt><trkpt lat="44.97709915985428" lon="7.373633275130007"><ele>363.0</ele><time>2026-04-04T10:46:50.001Z</time></trkpt><trkpt lat="44.976972505419766" lon="7.373555702755498"><ele>363.0</ele><time>2026-04-04T10:46:51.001Z</time></trkpt><trkpt lat="44.976827553885514" lon="7.373490903416884"><ele>363.0</ele><time>2026-04-04T10:46:52.001Z</time></trkpt><trkpt lat="44.976692736519034" lon="7.373435971755267"><ele>363.0</ele><time>2026-04-04T10:46:53.001Z</time></trkpt><trkpt lat="44.97656222467032" lon="7.373378129753161"><ele>363.0</ele><time>2026-04-04T10:46:54.001Z</time></trkpt><trkpt lat="44.97643028776111" lon="7.373311709926751"><ele>363.0</ele><time>2026-04-04T10:46:55.001Z</time></trkpt><trkpt lat="44.97631540171105" lon="7.373250767908324"><ele>363.0</ele><time>2026-04-04T10:46:56.001Z</time></trkpt><trkpt lat="44.97620975991698" lon="7.373173819857753"><ele>363.0</ele><time>2026-04-04T10:46:57.001Z</time></trkpt><trkpt lat="44.976093864775706" lon="7.3731157701788215"><ele>363.0</ele><time>2026-04-04T10:46:58.001Z</time></trkpt><trkpt lat="44.97599449826261" lon="7.373014026085939"><ele>363.0</ele><time>2026-04-04T10:46:59.001Z</time></trkpt><trkpt lat="44.975920399604654" lon="7.372873199461385"><ele>365.5</ele><time>2026-04-04T10:47:00.001Z</time></trkpt><trkpt lat="44.97585193171855" lon="7.3727240205165945"><ele>368.0</ele><time>2026-04-04T10:47:01.001Z</time></trkpt><trkpt lat="44.975758445337156" lon="7.372591589850975"><ele>370.5</ele><time>2026-04-04T10:47:02.001Z</time></trkpt><trkpt lat="44.975660176078655" lon="7.372458014340194"><ele>373.0</ele><time>2026-04-04T10:47:03.001Z</time></trkpt><trkpt lat="44.97555912970827" lon="7.372322958356285"><ele>374.5</ele><time>2026-04-04T10:47:04.001Z</time></trkpt><trkpt lat="44.97546846725374" lon="7.3721820764170225"><ele>376.0</ele><time>2026-04-04T10:47:05.001Z</time></trkpt><trkpt lat="44.975413485890115" lon="7.372008817086543"><ele>377.5</ele><time>2026-04-04T10:47:06.001Z</time></trkpt><trkpt lat="44.97534593957141" lon="7.371837668065306"><ele>379.0</ele><time>2026-04-04T10:47:07.001Z</time></trkpt><trkpt lat="44.97526029718165" lon="7.371689965055506"><ele>379.0</ele><time>2026-04-04T10:47:08.001Z</time></trkpt><trkpt lat="44.97518446430089" lon="7.371540301491316"><ele>379.0</ele><time>2026-04-04T10:47:09.001Z</time></trkpt><trkpt lat="44.975106046231545" lon="7.371418191885261"><ele>379.0</ele><time>2026-04-04T10:47:10.001Z</time></trkpt><trkpt lat="44.97502108356079" lon="7.3712899135894085"><ele>379.0</ele><time>2026-04-04T10:47:11.001Z</time></trkpt><trkpt lat="44.97495099261567" lon="7.371150307062564"><ele>379.25</ele><time>2026-04-04T10:47:12.001Z</time></trkpt><trkpt lat="44.97484977321249" lon="7.371051495316002"><ele>379.5</ele><time>2026-04-04T10:47:13.001Z</time></trkpt><trkpt lat="44.97475495684097" lon="7.370927307871086"><ele>379.75</ele><time>2026-04-04T10:47:14.001Z</time></trkpt><trkpt lat="44.974640540909384" lon="7.370830860743788"><ele>380.0</ele><time>2026-04-04T10:47:15.001Z</time></trkpt><trkpt lat="44.97450699015857" lon="7.370760539596592"><ele>380.0</ele><time>2026-04-04T10:47:16.001Z</time></trkpt><trkpt lat="44.974374641218844" lon="7.370690351007502"><ele>380.0</ele><time>2026-04-04T10:47:17.001Z</time></trkpt><trkpt lat="44.97423265786051" lon="7.370616034020172"><ele>380.0</ele><time>2026-04-04T10:47:18.001Z</time></trkpt><trkpt lat="44.97409368389343" lon="7.370544296290909"><ele>380.0</ele><time>2026-04-04T10:47:19.001Z</time></trkpt><trkpt lat="44.97395496127607" lon="7.370473434903471"><ele>384.25</ele><time>2026-04-04T10:47:20.001Z</time></trkpt><trkpt lat="44.973810660154726" lon="7.370401979431223"><ele>388.5</ele><time>2026-04-04T10:47:21.001Z</time></trkpt><trkpt lat="44.97366677451142" lon="7.370342694706394"><ele>392.75</ele><time>2026-04-04T10:47:22.001Z</time></trkpt><trkpt lat="44.97353004203746" lon="7.370281932459013"><ele>397.0</ele><time>2026-04-04T10:47:23.001Z</time></trkpt><trkpt lat="44.97339881738803" lon="7.370221872585295"><ele>399.25</ele><time>2026-04-04T10:47:24.001Z</time></trkpt><trkpt lat="44.97326672721432" lon="7.370161017994791"><ele>401.5</ele><time>2026-04-04T10:47:25.001Z</time></trkpt><trkpt lat="44.973136848648274" lon="7.370125622675318"><ele>403.75</ele><time>2026-04-04T10:47:26.001Z</time></trkpt><trkpt lat="44.97302984416948" lon="7.370057497370239"><ele>406.0</ele><time>2026-04-04T10:47:27.001Z</time></trkpt><trkpt lat="44.972915453938946" lon="7.370056151874365"><ele>406.0</ele><time>2026-04-04T10:47:28.001Z</time></trkpt><trkpt lat="44.97280120488292" lon="7.370035307757551"><ele>406.0</ele><time>2026-04-04T10:47:29.001Z</time></trkpt><trkpt lat="44.97268889302768" lon="7.370047243548748"><ele>406.0</ele><time>2026-04-04T10:47:30.001Z</time></trkpt><trkpt lat="44.97258190050277" lon="7.370053470244541"><ele>406.0</ele><time>2026-04-04T10:47:31.001Z</time></trkpt><trkpt lat="44.972480887967116" lon="7.370048100551106"><ele>406.0</ele><time>2026-04-04T10:47:32.001Z</time></trkpt><trkpt lat="44.972384586293266" lon="7.370038453857441"><ele>406.00000000000006</ele><time>2026-04-04T10:47:33.001Z</time></trkpt><trkpt lat="44.97229814452301" lon="7.370042587484208"><ele>406.0</ele><time>2026-04-04T10:47:34.001Z</time></trkpt><trkpt lat="44.97223023112089" lon="7.370069311402149"><ele>406.0</ele><time>2026-04-04T10:47:35.001Z</time></trkpt><trkpt lat="44.97215319613654" lon="7.3700959418608445"><ele>406.0</ele><time>2026-04-04T10:47:38.001Z</time></trkpt><trkpt lat="44.97207623555569" lon="7.3700114673472"><ele>406.00000000000006</ele><time>2026-04-04T10:47:40.001Z</time></trkpt><trkpt lat="44.97200984540397" lon="7.369916554616936"><ele>406.0</ele><time>2026-04-04T10:47:42.001Z</time></trkpt><trkpt lat="44.971901493364534" lon="7.370004337510536"><ele>406.00000000000006</ele><time>2026-04-04T10:47:44.001Z</time></trkpt><trkpt lat="44.9718457423071" lon="7.370062896116227"><ele>406.0</ele><time>2026-04-04T10:47:45.001Z</time></trkpt><trkpt lat="44.9717360738055" lon="7.370171150381776"><ele>406.0</ele><time>2026-04-04T10:47:47.001Z</time></trkpt><trkpt lat="44.971679072977125" lon="7.370225723165196"><ele>406.0</ele><time>2026-04-04T10:47:48.001Z</time></trkpt><trkpt lat="44.97162136145602" lon="7.370273743953643"><ele>406.00000000000006</ele><time>2026-04-04T10:47:49.001Z</time></trkpt><trkpt lat="44.9715287706589" lon="7.370321327310456"><ele>406.0</ele><time>2026-04-04T10:47:51.001Z</time></trkpt><trkpt lat="44.97144255683809" lon="7.37022594882587"><ele>406.33333333333337</ele><time>2026-04-04T10:47:53.001Z</time></trkpt><trkpt lat="44.97140575482168" lon="7.37013966743939"><ele>406.6666666666667</ele><time>2026-04-04T10:47:54.001Z</time></trkpt><trkpt lat="44.97136446757546" lon="7.370068727581867"><ele>407.0</ele><time>2026-04-04T10:47:55.001Z</time></trkpt><trkpt lat="44.97131531708132" lon="7.370012217889769"><ele>407.33333333333337</ele><time>2026-04-04T10:47:56.001Z</time></trkpt><trkpt lat="44.97123557406345" lon="7.369996236911032"><ele>407.6666666666667</ele><time>2026-04-04T10:47:57.001Z</time></trkpt><trkpt lat="44.97113905677686" lon="7.370083811166069"><ele>408.0</ele><time>2026-04-04T10:47:58.001Z</time></trkpt><trkpt lat="44.971070024861284" lon="7.370195963935065"><ele>408.0</ele><time>2026-04-04T10:47:59.001Z</time></trkpt><trkpt lat="44.97100431344711" lon="7.370306866854645"><ele>408.0</ele><time>2026-04-04T10:48:00.001Z</time></trkpt><trkpt lat="44.97093546565942" lon="7.370421655805518"><ele>408.0</ele><time>2026-04-04T10:48:01.001Z</time></trkpt><trkpt lat="44.97086471591481" lon="7.3705392885879775"><ele>408.0</ele><time>2026-04-04T10:48:02.001Z</time></trkpt><trkpt lat="44.97079120188732" lon="7.370648007963011"><ele>408.0</ele><time>2026-04-04T10:48:03.001Z</time></trkpt><trkpt lat="44.9707182320136" lon="7.370735865031497"><ele>408.0</ele><time>2026-04-04T10:48:04.001Z</time></trkpt><trkpt lat="44.97064227783307" lon="7.370797313621187"><ele>408.0</ele><time>2026-04-04T10:48:05.001Z</time></trkpt><trkpt lat="44.970557580793056" lon="7.370841321571487"><ele>408.0</ele><time>2026-04-04T10:48:06.001Z</time></trkpt><trkpt lat="44.970468705430186" lon="7.370862427912707"><ele>408.0</ele><time>2026-04-04T10:48:07.001Z</time></trkpt><trkpt lat="44.970390709636604" lon="7.3708776338854936"><ele>408.0</ele><time>2026-04-04T10:48:08.001Z</time></trkpt><trkpt lat="44.9703182771875" lon="7.370873549724423"><ele>408.0</ele><time>2026-04-04T10:48:09.001Z</time></trkpt><trkpt lat="44.970258446919814" lon="7.370801169279119"><ele>408.0</ele><time>2026-04-04T10:48:10.001Z</time></trkpt><trkpt lat="44.97022752319831" lon="7.37067847873111"><ele>408.0</ele><time>2026-04-04T10:48:11.001Z</time></trkpt><trkpt lat="44.9701931038264" lon="7.370543257150041"><ele>408.0</ele><time>2026-04-04T10:48:12.001Z</time></trkpt><trkpt lat="44.97015325696691" lon="7.370377728015063"><ele>408.0</ele><time>2026-04-04T10:48:13.001Z</time></trkpt><trkpt lat="44.97012076080715" lon="7.37020904852941"><ele>408.0</ele><time>2026-04-04T10:48:14.001Z</time></trkpt><trkpt lat="44.97007804260055" lon="7.37003849789835"><ele>408.75</ele><time>2026-04-04T10:48:15.001Z</time></trkpt><trkpt lat="44.9700356730298" lon="7.369866051000221"><ele>409.5</ele><time>2026-04-04T10:48:16.001Z</time></trkpt><trkpt lat="44.96999432701402" lon="7.369681187380961"><ele>410.25</ele><time>2026-04-04T10:48:17.001Z</time></trkpt><trkpt lat="44.96994175658907" lon="7.369512957773973"><ele>411.0</ele><time>2026-04-04T10:48:18.001Z</time></trkpt><trkpt lat="44.96986694523641" lon="7.369364357386251"><ele>414.0</ele><time>2026-04-04T10:48:19.001Z</time></trkpt><trkpt lat="44.96979812805601" lon="7.369212185303888"><ele>417.0</ele><time>2026-04-04T10:48:20.001Z</time></trkpt><trkpt lat="44.96969093940573" lon="7.369099891585619"><ele>420.0</ele><time>2026-04-04T10:48:21.001Z</time></trkpt><trkpt lat="44.969586442598455" lon="7.368999843156872"><ele>423.0</ele><time>2026-04-04T10:48:22.001Z</time></trkpt><trkpt lat="44.969511562275365" lon="7.3688497563450746"><ele>424.0</ele><time>2026-04-04T10:48:23.001Z</time></trkpt><trkpt lat="44.969437412643224" lon="7.3686985850709235"><ele>425.0</ele><time>2026-04-04T10:48:24.001Z</time></trkpt><trkpt lat="44.96937408641376" lon="7.3685359726942545"><ele>426.0</ele><time>2026-04-04T10:48:25.001Z</time></trkpt><trkpt lat="44.969292058685824" lon="7.368384563486999"><ele>427.0</ele><time>2026-04-04T10:48:26.001Z</time></trkpt><trkpt lat="44.969203097300586" lon="7.368253183784887"><ele>428.5</ele><time>2026-04-04T10:48:27.001Z</time></trkpt><trkpt lat="44.96909447338266" lon="7.368155872519601"><ele>430.0</ele><time>2026-04-04T10:48:28.001Z</time></trkpt><trkpt lat="44.96898301218272" lon="7.36806485923765"><ele>431.5</ele><time>2026-04-04T10:48:29.001Z</time></trkpt><trkpt lat="44.968859447459884" lon="7.367996504266265"><ele>433.0</ele><time>2026-04-04T10:48:30.001Z</time></trkpt><trkpt lat="44.96873445279811" lon="7.3679232452047625"><ele>433.75</ele><time>2026-04-04T10:48:31.001Z</time></trkpt><trkpt lat="44.9686253089394" lon="7.3677983477836815"><ele>434.5</ele><time>2026-04-04T10:48:32.001Z</time></trkpt><trkpt lat="44.968495114839484" lon="7.367722309725627"><ele>435.25</ele><time>2026-04-04T10:48:33.001Z</time></trkpt><trkpt lat="44.96838170791064" lon="7.367606785841464"><ele>436.0</ele><time>2026-04-04T10:48:34.001Z</time></trkpt><trkpt lat="44.96828155605912" lon="7.367474279260956"><ele>437.75</ele><time>2026-04-04T10:48:35.001Z</time></trkpt><trkpt lat="44.96819573026834" lon="7.367326308945223"><ele>439.5</ele><time>2026-04-04T10:48:36.001Z</time></trkpt><trkpt lat="44.96813054307793" lon="7.367167013464514"><ele>441.25</ele><time>2026-04-04T10:48:37.001Z</time></trkpt><trkpt lat="44.96806699485623" lon="7.367011387360693"><ele>443.0</ele><time>2026-04-04T10:48:38.001Z</time></trkpt><trkpt lat="44.96800184988706" lon="7.366865998586807"><ele>444.2</ele><time>2026-04-04T10:48:39.001Z</time></trkpt><trkpt lat="44.967948250498935" lon="7.3667421295554405"><ele>445.4</ele><time>2026-04-04T10:48:40.001Z</time></trkpt><trkpt lat="44.9679131129036" lon="7.366624458196427"><ele>446.59999999999997</ele><time>2026-04-04T10:48:41.001Z</time></trkpt><trkpt lat="44.967902498830306" lon="7.366500218418374"><ele>447.79999999999995</ele><time>2026-04-04T10:48:42.001Z</time></trkpt><trkpt lat="44.96790605454101" lon="7.366374210128482"><ele>449.0</ele><time>2026-04-04T10:48:43.001Z</time></trkpt><trkpt lat="44.967903484406186" lon="7.366253112662359"><ele>450.16666666666663</ele><time>2026-04-04T10:48:44.001Z</time></trkpt><trkpt lat="44.96789515114186" lon="7.366155897150261"><ele>451.3333333333333</ele><time>2026-04-04T10:48:45.001Z</time></trkpt><trkpt lat="44.9679188264994" lon="7.366032215193321"><ele>452.5</ele><time>2026-04-04T10:48:47.001Z</time></trkpt><trkpt lat="44.96802334067477" lon="7.365969230173923"><ele>453.66666666666663</ele><time>2026-04-04T10:48:49.001Z</time></trkpt><trkpt lat="44.9680851279072" lon="7.365947464348348"><ele>454.8333333333333</ele><time>2026-04-04T10:48:50.001Z</time></trkpt><trkpt lat="44.96814990360928" lon="7.365915627118316"><ele>456.0</ele><time>2026-04-04T10:48:51.001Z</time></trkpt><trkpt lat="44.96821528977586" lon="7.365875250203044"><ele>456.0</ele><time>2026-04-04T10:48:52.001Z</time></trkpt><trkpt lat="44.968278374979704" lon="7.365829474252393"><ele>456.0</ele><time>2026-04-04T10:48:53.001Z</time></trkpt><trkpt lat="44.968343555136634" lon="7.365804206678267"><ele>456.0</ele><time>2026-04-04T10:48:54.001Z</time></trkpt><trkpt lat="44.96840595095796" lon="7.365594291084046"><ele>456.0</ele><time>2026-04-04T10:48:56.001Z</time></trkpt><trkpt lat="44.96845078074513" lon="7.365511847721257"><ele>456.0</ele><time>2026-04-04T10:48:57.001Z</time></trkpt><trkpt lat="44.968452618727284" lon="7.36540444622748"><ele>456.0</ele><time>2026-04-04T10:48:58Z</time></trkpt><trkpt lat="44.968451383554225" lon="7.365307569275564"><ele>455.8333333333333</ele><time>2026-04-04T10:48:59Z</time></trkpt><trkpt lat="44.96845050217124" lon="7.365202400994346"><ele>455.66666666666663</ele><time>2026-04-04T10:49:00Z</time></trkpt><trkpt lat="44.96840932123485" lon="7.36510467840651"><ele>455.5</ele><time>2026-04-04T10:49:01Z</time></trkpt><trkpt lat="44.96833106622273" lon="7.365047471247425"><ele>455.3333333333333</ele><time>2026-04-04T10:49:02Z</time></trkpt><trkpt lat="44.968235300992696" lon="7.364931621866088"><ele>455.16666666666663</ele><time>2026-04-04T10:49:04Z</time></trkpt><trkpt lat="44.96819655663049" lon="7.364857495778928"><ele>455.0</ele><time>2026-04-04T10:49:05Z</time></trkpt><trkpt lat="44.96816514972711" lon="7.364766997945994"><ele>457.16666666666663</ele><time>2026-04-04T10:49:06Z</time></trkpt><trkpt lat="44.968144999782155" lon="7.364649783571968"><ele>459.3333333333333</ele><time>2026-04-04T10:49:07Z</time></trkpt><trkpt lat="44.96810812972799" lon="7.3645362739440206"><ele>461.5</ele><time>2026-04-04T10:49:08Z</time></trkpt><trkpt lat="44.96806386299996" lon="7.364426229985015"><ele>463.66666666666663</ele><time>2026-04-04T10:49:09Z</time></trkpt><trkpt lat="44.968012995306474" lon="7.364316673970152"><ele>465.8333333333333</ele><time>2026-04-04T10:49:10Z</time></trkpt><trkpt lat="44.967967842334055" lon="7.364203862510166"><ele>468.0</ele><time>2026-04-04T10:49:11Z</time></trkpt><trkpt lat="44.96793170880228" lon="7.364088801047561"><ele>468.0</ele><time>2026-04-04T10:49:12Z</time></trkpt><trkpt lat="44.96790531092439" lon="7.36396978445556"><ele>467.99999999999994</ele><time>2026-04-04T10:49:13Z</time></trkpt><trkpt lat="44.96788250651563" lon="7.363842116686232"><ele>467.99999999999994</ele><time>2026-04-04T10:49:14Z</time></trkpt><trkpt lat="44.96785986359644" lon="7.363717204723599"><ele>468.0</ele><time>2026-04-04T10:49:15Z</time></trkpt><trkpt lat="44.967835030188056" lon="7.363590838455787"><ele>468.0</ele><time>2026-04-04T10:49:16Z</time></trkpt><trkpt lat="44.9678164419613" lon="7.363458013731605"><ele>470.59999999999997</ele><time>2026-04-04T10:49:17Z</time></trkpt><trkpt lat="44.96778145830319" lon="7.363327527277223"><ele>473.19999999999993</ele><time>2026-04-04T10:49:18Z</time></trkpt><trkpt lat="44.96773509078572" lon="7.363212696191008"><ele>475.8</ele><time>2026-04-04T10:49:19Z</time></trkpt><trkpt lat="44.96767573457517" lon="7.363107016849518"><ele>478.4</ele><time>2026-04-04T10:49:20Z</time></trkpt><trkpt lat="44.967612718437906" lon="7.363024807456166"><ele>481.0</ele><time>2026-04-04T10:49:21Z</time></trkpt><trkpt lat="44.96755408266302" lon="7.362936746021408"><ele>482.20000000000005</ele><time>2026-04-04T10:49:22Z</time></trkpt><trkpt lat="44.96748388660593" lon="7.362841961585026"><ele>483.40000000000003</ele><time>2026-04-04T10:49:23Z</time></trkpt><trkpt lat="44.967389369815464" lon="7.362765061344565"><ele>484.6</ele><time>2026-04-04T10:49:24Z</time></trkpt><trkpt lat="44.96729332836581" lon="7.362719486130491"><ele>485.8</ele><time>2026-04-04T10:49:25Z</time></trkpt><trkpt lat="44.96720837103932" lon="7.362669732051614"><ele>487.0</ele><time>2026-04-04T10:49:26Z</time></trkpt><trkpt lat="44.967133461288356" lon="7.362602361825724"><ele>487.00000000000006</ele><time>2026-04-04T10:49:27Z</time></trkpt><trkpt lat="44.96707837509095" lon="7.362500121562917"><ele>487.0</ele><time>2026-04-04T10:49:28Z</time></trkpt><trkpt lat="44.967022794985134" lon="7.3624076388652515"><ele>487.0</ele><time>2026-04-04T10:49:29Z</time></trkpt><trkpt lat="44.96697472198905" lon="7.362306799202398"><ele>487.0</ele><time>2026-04-04T10:49:30Z</time></trkpt><trkpt lat="44.96693887279236" lon="7.362199692179258"><ele>487.00000000000006</ele><time>2026-04-04T10:49:31Z</time></trkpt><trkpt lat="44.96691616905886" lon="7.362088971275471"><ele>487.0</ele><time>2026-04-04T10:49:32Z</time></trkpt><trkpt lat="44.96688577092249" lon="7.361980691344041"><ele>488.1666666666667</ele><time>2026-04-04T10:49:33Z</time></trkpt><trkpt lat="44.96688333082611" lon="7.361867373674713"><ele>489.33333333333337</ele><time>2026-04-04T10:49:34Z</time></trkpt><trkpt lat="44.96690174926422" lon="7.361763251877383"><ele>490.5</ele><time>2026-04-04T10:49:35Z</time></trkpt><trkpt lat="44.96692873208616" lon="7.361653211893225"><ele>491.66666666666663</ele><time>2026-04-04T10:49:36Z</time></trkpt><trkpt lat="44.96695212316689" lon="7.3615522337140025"><ele>492.8333333333333</ele><time>2026-04-04T10:49:37Z</time></trkpt><trkpt lat="44.966983325721905" lon="7.3614707228006"><ele>494.0</ele><time>2026-04-04T10:49:38Z</time></trkpt><trkpt lat="44.96706247920808" lon="7.361390713860186"><ele>494.0</ele><time>2026-04-04T10:49:40Z</time></trkpt><trkpt lat="44.96714948989012" lon="7.361490297873034"><ele>494.0</ele><time>2026-04-04T10:49:42Z</time></trkpt><trkpt lat="44.967225177301714" lon="7.3615500843034996"><ele>494.0</ele><time>2026-04-04T10:49:44Z</time></trkpt><trkpt lat="44.967312094670476" lon="7.361612377298252"><ele>494.0</ele><time>2026-04-04T10:49:46Z</time></trkpt><trkpt lat="44.967433392106386" lon="7.361663608103025"><ele>494.0</ele><time>2026-04-04T10:49:48Z</time></trkpt><trkpt lat="44.96750751908375" lon="7.361672586075605"><ele>495.49999999999994</ele><time>2026-04-04T10:49:49Z</time></trkpt><trkpt lat="44.96758852793482" lon="7.361632550523597"><ele>497.0</ele><time>2026-04-04T10:49:50Z</time></trkpt><trkpt lat="44.96766597370205" lon="7.361606752575909"><ele>498.5</ele><time>2026-04-04T10:49:51Z</time></trkpt><trkpt lat="44.96774751475868" lon="7.361603422680984"><ele>500.0</ele><time>2026-04-04T10:49:52Z</time></trkpt><trkpt lat="44.96783327127477" lon="7.3616070504999405"><ele>501.49999999999994</ele><time>2026-04-04T10:49:53Z</time></trkpt><trkpt lat="44.96792112605649" lon="7.361620512934712"><ele>503.0</ele><time>2026-04-04T10:49:54Z</time></trkpt><trkpt lat="44.9680069419271" lon="7.36163915530829"><ele>502.99999999999994</ele><time>2026-04-04T10:49:55Z</time></trkpt><trkpt lat="44.968094108342775" lon="7.361642847776637"><ele>503.0</ele><time>2026-04-04T10:49:56Z</time></trkpt><trkpt lat="44.968177990281944" lon="7.361644880680286"><ele>503.0</ele><time>2026-04-04T10:49:57Z</time></trkpt><trkpt lat="44.96825405308619" lon="7.3616574103423"><ele>503.0</ele><time>2026-04-04T10:49:58Z</time></trkpt><trkpt lat="44.96831775739562" lon="7.361725669967332"><ele>502.99999999999994</ele><time>2026-04-04T10:49:59Z</time></trkpt><trkpt lat="44.96838863792133" lon="7.361771365970589"><ele>503.0</ele><time>2026-04-04T10:50:00Z</time></trkpt><trkpt lat="44.96846029870016" lon="7.361807994322323"><ele>505.66666666666663</ele><time>2026-04-04T10:50:01Z</time></trkpt><trkpt lat="44.96853269489468" lon="7.361857255885902"><ele>508.3333333333333</ele><time>2026-04-04T10:50:02Z</time></trkpt><trkpt lat="44.968609853135725" lon="7.361898680005096"><ele>511.0</ele><time>2026-04-04T10:50:03Z</time></trkpt><trkpt lat="44.96868528575948" lon="7.361948519060345"><ele>513.6666666666666</ele><time>2026-04-04T10:50:04Z</time></trkpt><trkpt lat="44.968757739291135" lon="7.361994150988256"><ele>516.3333333333334</ele><time>2026-04-04T10:50:05Z</time></trkpt><trkpt lat="44.96882347445362" lon="7.362043752036367"><ele>519.0</ele><time>2026-04-04T10:50:06Z</time></trkpt><trkpt lat="44.96888224281683" lon="7.362088918286796"><ele>519.0</ele><time>2026-04-04T10:50:07Z</time></trkpt><trkpt lat="44.96893528890458" lon="7.3621410079826335"><ele>519.0</ele><time>2026-04-04T10:50:08Z</time></trkpt><trkpt lat="44.96897744558174" lon="7.362216972798349"><ele>519.0</ele><time>2026-04-04T10:50:09Z</time></trkpt><trkpt lat="44.96902983521072" lon="7.362280879399272"><ele>519.0</ele><time>2026-04-04T10:50:10Z</time></trkpt><trkpt lat="44.96909271583269" lon="7.36232472068798"><ele>519.0</ele><time>2026-04-04T10:50:11Z</time></trkpt><trkpt lat="44.96919428895675" lon="7.362397941840895"><ele>519.0</ele><time>2026-04-04T10:50:13Z</time></trkpt><trkpt lat="44.96931142112577" lon="7.362374620969496"><ele>520.8</ele><time>2026-04-04T10:50:15Z</time></trkpt><trkpt lat="44.9693986089801" lon="7.362339304392551"><ele>522.5999999999999</ele><time>2026-04-04T10:50:17Z</time></trkpt><trkpt lat="44.969449660915686" lon="7.3622806523046105"><ele>524.4</ele><time>2026-04-04T10:50:20Z</time></trkpt><trkpt lat="44.96936426763144" lon="7.3621426116281095"><ele>526.1999999999999</ele><time>2026-04-04T10:50:23Z</time></trkpt><trkpt lat="44.96934944549881" lon="7.362045278295591"><ele>528.0</ele><time>2026-04-04T10:50:30Z</time></trkpt><trkpt lat="44.9695123590899" lon="7.361921030160039"><ele>528.0</ele><time>2026-04-04T10:50:59Z</time></trkpt><trkpt lat="44.96944059220496" lon="7.361960332718805"><ele>528.0</ele><time>2026-04-04T10:51:04Z</time></trkpt><trkpt lat="44.96947200234823" lon="7.361871420641723"><ele>528.0</ele><time>2026-04-04T10:51:50Z</time></trkpt><trkpt lat="44.96945963858595" lon="7.3619672722785285"><ele>528.0</ele><time>2026-04-04T10:52:14Z</time></trkpt></trkseg></trk></gpx>